<?xml version="1.0" encoding="UTF-8" standalone="no" ?>
<gpx xmlns="http://www.topografix.com/GPX/1/1" xmlns:xsi="http://www.w3.org/2001/XMLSchema-instance" xsi:schemaLocation="http://www.topografix.com/GPX/1/1 http://www.topografix.com/GPX/1/1/gpx.xsd" version="1.1" creator="VisuGPX - https://www.visugpx.com">
  <metadata>
    <name>Le Suquet</name>
    <desc><![CDATA[Rando vtt au départ du Suquet dans la vallée de la Vésubie. Au début 10Km de route qui permet de prendre un peu d\'altitude facilement. Viens en suite un sentier monta / cale jusqu%u2019à la Cabella. Encore un peu de route pour atteindre le col de la porte puis la descente sur Le Suquet \" que du bonheur \" ]]></desc>
  </metadata>
  <trk>
    <name><![CDATA[le suquet col de la porte]]></name>
    <trkseg>
      <trkpt lat="43.94515" lon="7.28375">
        <ele>368.4</ele>
        <time>2011-05-22T07:40:23Z</time>
      </trkpt>
      <trkpt lat="43.94517" lon="7.28377">
        <ele>368.4</ele>
        <time>2011-05-22T07:40:24Z</time>
      </trkpt>
      <trkpt lat="43.94531" lon="7.28383">
        <ele>369</ele>
        <time>2011-05-22T07:40:29Z</time>
      </trkpt>
      <trkpt lat="43.94538" lon="7.28387">
        <ele>369.2</ele>
        <time>2011-05-22T07:40:32Z</time>
      </trkpt>
      <trkpt lat="43.94546" lon="7.28391">
        <ele>370</ele>
        <time>2011-05-22T07:40:35Z</time>
      </trkpt>
      <trkpt lat="43.94554" lon="7.28395">
        <ele>369.6</ele>
        <time>2011-05-22T07:40:38Z</time>
      </trkpt>
      <trkpt lat="43.9456" lon="7.28398">
        <ele>369.9</ele>
        <time>2011-05-22T07:40:40Z</time>
      </trkpt>
      <trkpt lat="43.94568" lon="7.28402">
        <ele>369.7</ele>
        <time>2011-05-22T07:40:43Z</time>
      </trkpt>
      <trkpt lat="43.94574" lon="7.28404">
        <ele>370.3</ele>
        <time>2011-05-22T07:40:45Z</time>
      </trkpt>
      <trkpt lat="43.9458" lon="7.28407">
        <ele>371.2</ele>
        <time>2011-05-22T07:40:47Z</time>
      </trkpt>
      <trkpt lat="43.94586" lon="7.28409">
        <ele>370.9</ele>
        <time>2011-05-22T07:40:49Z</time>
      </trkpt>
      <trkpt lat="43.94594" lon="7.28412">
        <ele>370.8</ele>
        <time>2011-05-22T07:40:52Z</time>
      </trkpt>
      <trkpt lat="43.94601" lon="7.28416">
        <ele>370.7</ele>
        <time>2011-05-22T07:40:55Z</time>
      </trkpt>
      <trkpt lat="43.94608" lon="7.2842">
        <ele>370.5</ele>
        <time>2011-05-22T07:40:58Z</time>
      </trkpt>
      <trkpt lat="43.94616" lon="7.28424">
        <ele>371</ele>
        <time>2011-05-22T07:41:01Z</time>
      </trkpt>
      <trkpt lat="43.94622" lon="7.28426">
        <ele>371.4</ele>
        <time>2011-05-22T07:41:03Z</time>
      </trkpt>
      <trkpt lat="43.94628" lon="7.28429">
        <ele>372.1</ele>
        <time>2011-05-22T07:41:05Z</time>
      </trkpt>
      <trkpt lat="43.94636" lon="7.28433">
        <ele>372.6</ele>
        <time>2011-05-22T07:41:08Z</time>
      </trkpt>
      <trkpt lat="43.94644" lon="7.28437">
        <ele>372.5</ele>
        <time>2011-05-22T07:41:11Z</time>
      </trkpt>
      <trkpt lat="43.9465" lon="7.2844">
        <ele>372.2</ele>
        <time>2011-05-22T07:41:13Z</time>
      </trkpt>
      <trkpt lat="43.94656" lon="7.28443">
        <ele>372.2</ele>
        <time>2011-05-22T07:41:15Z</time>
      </trkpt>
      <trkpt lat="43.94662" lon="7.28446">
        <ele>372.5</ele>
        <time>2011-05-22T07:41:17Z</time>
      </trkpt>
      <trkpt lat="43.94668" lon="7.2845">
        <ele>372.8</ele>
        <time>2011-05-22T07:41:19Z</time>
      </trkpt>
      <trkpt lat="43.94673" lon="7.28455">
        <ele>373</ele>
        <time>2011-05-22T07:41:21Z</time>
      </trkpt>
      <trkpt lat="43.94679" lon="7.2846">
        <ele>373.1</ele>
        <time>2011-05-22T07:41:23Z</time>
      </trkpt>
      <trkpt lat="43.94684" lon="7.28465">
        <ele>372.9</ele>
        <time>2011-05-22T07:41:25Z</time>
      </trkpt>
      <trkpt lat="43.94687" lon="7.28468">
        <ele>372.9</ele>
        <time>2011-05-22T07:41:26Z</time>
      </trkpt>
      <trkpt lat="43.94696" lon="7.28479">
        <ele>373.4</ele>
        <time>2011-05-22T07:41:30Z</time>
      </trkpt>
      <trkpt lat="43.94702" lon="7.28487">
        <ele>374.4</ele>
        <time>2011-05-22T07:41:33Z</time>
      </trkpt>
      <trkpt lat="43.94708" lon="7.28497">
        <ele>374.4</ele>
        <time>2011-05-22T07:41:36Z</time>
      </trkpt>
      <trkpt lat="43.94713" lon="7.28506">
        <ele>373.9</ele>
        <time>2011-05-22T07:41:39Z</time>
      </trkpt>
      <trkpt lat="43.94717" lon="7.28516">
        <ele>374.7</ele>
        <time>2011-05-22T07:41:42Z</time>
      </trkpt>
      <trkpt lat="43.94721" lon="7.28527">
        <ele>375.4</ele>
        <time>2011-05-22T07:41:45Z</time>
      </trkpt>
      <trkpt lat="43.94725" lon="7.28537">
        <ele>375.4</ele>
        <time>2011-05-22T07:41:48Z</time>
      </trkpt>
      <trkpt lat="43.94729" lon="7.28547">
        <ele>374.8</ele>
        <time>2011-05-22T07:41:51Z</time>
      </trkpt>
      <trkpt lat="43.94733" lon="7.28557">
        <ele>375.5</ele>
        <time>2011-05-22T07:41:54Z</time>
      </trkpt>
      <trkpt lat="43.94737" lon="7.28568">
        <ele>375.9</ele>
        <time>2011-05-22T07:41:57Z</time>
      </trkpt>
      <trkpt lat="43.9474" lon="7.28579">
        <ele>376.9</ele>
        <time>2011-05-22T07:42:00Z</time>
      </trkpt>
      <trkpt lat="43.94743" lon="7.28587">
        <ele>377.5</ele>
        <time>2011-05-22T07:42:02Z</time>
      </trkpt>
      <trkpt lat="43.94746" lon="7.28595">
        <ele>378</ele>
        <time>2011-05-22T07:42:04Z</time>
      </trkpt>
      <trkpt lat="43.94749" lon="7.28603">
        <ele>377.9</ele>
        <time>2011-05-22T07:42:06Z</time>
      </trkpt>
      <trkpt lat="43.94751" lon="7.28611">
        <ele>378.1</ele>
        <time>2011-05-22T07:42:08Z</time>
      </trkpt>
      <trkpt lat="43.94755" lon="7.28622">
        <ele>378.9</ele>
        <time>2011-05-22T07:42:11Z</time>
      </trkpt>
      <trkpt lat="43.94757" lon="7.2863">
        <ele>379.5</ele>
        <time>2011-05-22T07:42:13Z</time>
      </trkpt>
      <trkpt lat="43.94759" lon="7.28638">
        <ele>380</ele>
        <time>2011-05-22T07:42:15Z</time>
      </trkpt>
      <trkpt lat="43.94763" lon="7.28649">
        <ele>380.5</ele>
        <time>2011-05-22T07:42:18Z</time>
      </trkpt>
      <trkpt lat="43.94766" lon="7.2866">
        <ele>380.3</ele>
        <time>2011-05-22T07:42:21Z</time>
      </trkpt>
      <trkpt lat="43.94769" lon="7.28671">
        <ele>380.4</ele>
        <time>2011-05-22T07:42:24Z</time>
      </trkpt>
      <trkpt lat="43.94773" lon="7.28681">
        <ele>381.1</ele>
        <time>2011-05-22T07:42:27Z</time>
      </trkpt>
      <trkpt lat="43.94774" lon="7.28684">
        <ele>381.4</ele>
        <time>2011-05-22T07:42:28Z</time>
      </trkpt>
      <trkpt lat="43.94783" lon="7.28701">
        <ele>382.4</ele>
        <time>2011-05-22T07:42:33Z</time>
      </trkpt>
      <trkpt lat="43.94787" lon="7.28707">
        <ele>382.3</ele>
        <time>2011-05-22T07:42:35Z</time>
      </trkpt>
      <trkpt lat="43.94793" lon="7.28715">
        <ele>382.6</ele>
        <time>2011-05-22T07:42:38Z</time>
      </trkpt>
      <trkpt lat="43.948" lon="7.28723">
        <ele>383.2</ele>
        <time>2011-05-22T07:42:41Z</time>
      </trkpt>
      <trkpt lat="43.94807" lon="7.2873">
        <ele>383.7</ele>
        <time>2011-05-22T07:42:44Z</time>
      </trkpt>
      <trkpt lat="43.94815" lon="7.28735">
        <ele>384.1</ele>
        <time>2011-05-22T07:42:47Z</time>
      </trkpt>
      <trkpt lat="43.94823" lon="7.28738">
        <ele>384.5</ele>
        <time>2011-05-22T07:42:50Z</time>
      </trkpt>
      <trkpt lat="43.94829" lon="7.2874">
        <ele>384.5</ele>
        <time>2011-05-22T07:42:52Z</time>
      </trkpt>
      <trkpt lat="43.94837" lon="7.28744">
        <ele>384.9</ele>
        <time>2011-05-22T07:42:55Z</time>
      </trkpt>
      <trkpt lat="43.94846" lon="7.28749">
        <ele>385.6</ele>
        <time>2011-05-22T07:42:58Z</time>
      </trkpt>
      <trkpt lat="43.94853" lon="7.28756">
        <ele>385.3</ele>
        <time>2011-05-22T07:43:01Z</time>
      </trkpt>
      <trkpt lat="43.9486" lon="7.28764">
        <ele>386.5</ele>
        <time>2011-05-22T07:43:04Z</time>
      </trkpt>
      <trkpt lat="43.94866" lon="7.28772">
        <ele>387.3</ele>
        <time>2011-05-22T07:43:07Z</time>
      </trkpt>
      <trkpt lat="43.94872" lon="7.2878">
        <ele>388</ele>
        <time>2011-05-22T07:43:10Z</time>
      </trkpt>
      <trkpt lat="43.94879" lon="7.28788">
        <ele>388.2</ele>
        <time>2011-05-22T07:43:13Z</time>
      </trkpt>
      <trkpt lat="43.94885" lon="7.28797">
        <ele>388.4</ele>
        <time>2011-05-22T07:43:16Z</time>
      </trkpt>
      <trkpt lat="43.94891" lon="7.28806">
        <ele>388.5</ele>
        <time>2011-05-22T07:43:19Z</time>
      </trkpt>
      <trkpt lat="43.94897" lon="7.28814">
        <ele>389</ele>
        <time>2011-05-22T07:43:22Z</time>
      </trkpt>
      <trkpt lat="43.94902" lon="7.28823">
        <ele>389.5</ele>
        <time>2011-05-22T07:43:25Z</time>
      </trkpt>
      <trkpt lat="43.94907" lon="7.28833">
        <ele>389.6</ele>
        <time>2011-05-22T07:43:28Z</time>
      </trkpt>
      <trkpt lat="43.94908" lon="7.28836">
        <ele>389.7</ele>
        <time>2011-05-22T07:43:29Z</time>
      </trkpt>
      <trkpt lat="43.94914" lon="7.28854">
        <ele>391.1</ele>
        <time>2011-05-22T07:43:34Z</time>
      </trkpt>
      <trkpt lat="43.94916" lon="7.28865">
        <ele>391.6</ele>
        <time>2011-05-22T07:43:37Z</time>
      </trkpt>
      <trkpt lat="43.94918" lon="7.28877">
        <ele>391.9</ele>
        <time>2011-05-22T07:43:40Z</time>
      </trkpt>
      <trkpt lat="43.9492" lon="7.28889">
        <ele>391.6</ele>
        <time>2011-05-22T07:43:43Z</time>
      </trkpt>
      <trkpt lat="43.94922" lon="7.289">
        <ele>391.7</ele>
        <time>2011-05-22T07:43:46Z</time>
      </trkpt>
      <trkpt lat="43.94924" lon="7.28912">
        <ele>392.4</ele>
        <time>2011-05-22T07:43:49Z</time>
      </trkpt>
      <trkpt lat="43.94926" lon="7.28924">
        <ele>393</ele>
        <time>2011-05-22T07:43:52Z</time>
      </trkpt>
      <trkpt lat="43.94928" lon="7.28935">
        <ele>392.8</ele>
        <time>2011-05-22T07:43:55Z</time>
      </trkpt>
      <trkpt lat="43.9493" lon="7.28947">
        <ele>393.5</ele>
        <time>2011-05-22T07:43:58Z</time>
      </trkpt>
      <trkpt lat="43.94932" lon="7.28958">
        <ele>393.6</ele>
        <time>2011-05-22T07:44:01Z</time>
      </trkpt>
      <trkpt lat="43.94934" lon="7.28969">
        <ele>394.2</ele>
        <time>2011-05-22T07:44:04Z</time>
      </trkpt>
      <trkpt lat="43.94936" lon="7.28981">
        <ele>394.5</ele>
        <time>2011-05-22T07:44:07Z</time>
      </trkpt>
      <trkpt lat="43.94939" lon="7.28992">
        <ele>395.2</ele>
        <time>2011-05-22T07:44:10Z</time>
      </trkpt>
      <trkpt lat="43.94941" lon="7.29003">
        <ele>395.8</ele>
        <time>2011-05-22T07:44:13Z</time>
      </trkpt>
      <trkpt lat="43.94943" lon="7.29013">
        <ele>396.1</ele>
        <time>2011-05-22T07:44:16Z</time>
      </trkpt>
      <trkpt lat="43.94946" lon="7.29024">
        <ele>397</ele>
        <time>2011-05-22T07:44:19Z</time>
      </trkpt>
      <trkpt lat="43.94948" lon="7.29035">
        <ele>397.8</ele>
        <time>2011-05-22T07:44:22Z</time>
      </trkpt>
      <trkpt lat="43.94951" lon="7.29046">
        <ele>398.4</ele>
        <time>2011-05-22T07:44:25Z</time>
      </trkpt>
      <trkpt lat="43.94954" lon="7.29057">
        <ele>398.1</ele>
        <time>2011-05-22T07:44:28Z</time>
      </trkpt>
      <trkpt lat="43.94957" lon="7.29067">
        <ele>399.3</ele>
        <time>2011-05-22T07:44:31Z</time>
      </trkpt>
      <trkpt lat="43.94959" lon="7.29071">
        <ele>399.3</ele>
        <time>2011-05-22T07:44:32Z</time>
      </trkpt>
      <trkpt lat="43.95073" lon="7.29186">
        <ele>401.4</ele>
        <time>2011-05-22T07:45:12Z</time>
      </trkpt>
      <trkpt lat="43.95102" lon="7.29255">
        <ele>404.2</ele>
        <time>2011-05-22T07:45:40Z</time>
      </trkpt>
      <trkpt lat="43.95107" lon="7.29264">
        <ele>409</ele>
        <time>2011-05-22T07:45:43Z</time>
      </trkpt>
      <trkpt lat="43.95112" lon="7.29274">
        <ele>411.1</ele>
        <time>2011-05-22T07:45:46Z</time>
      </trkpt>
      <trkpt lat="43.95115" lon="7.29285">
        <ele>412.5</ele>
        <time>2011-05-22T07:45:49Z</time>
      </trkpt>
      <trkpt lat="43.95117" lon="7.29297">
        <ele>413.7</ele>
        <time>2011-05-22T07:45:52Z</time>
      </trkpt>
      <trkpt lat="43.9512" lon="7.29309">
        <ele>414</ele>
        <time>2011-05-22T07:45:55Z</time>
      </trkpt>
      <trkpt lat="43.95122" lon="7.2932">
        <ele>414.3</ele>
        <time>2011-05-22T07:45:58Z</time>
      </trkpt>
      <trkpt lat="43.95124" lon="7.29332">
        <ele>415.4</ele>
        <time>2011-05-22T07:46:01Z</time>
      </trkpt>
      <trkpt lat="43.95127" lon="7.29343">
        <ele>416.2</ele>
        <time>2011-05-22T07:46:04Z</time>
      </trkpt>
      <trkpt lat="43.9513" lon="7.29355">
        <ele>416.3</ele>
        <time>2011-05-22T07:46:07Z</time>
      </trkpt>
      <trkpt lat="43.95132" lon="7.29366">
        <ele>416.5</ele>
        <time>2011-05-22T07:46:10Z</time>
      </trkpt>
      <trkpt lat="43.95135" lon="7.29377">
        <ele>416.8</ele>
        <time>2011-05-22T07:46:13Z</time>
      </trkpt>
      <trkpt lat="43.95137" lon="7.29387">
        <ele>417.4</ele>
        <time>2011-05-22T07:46:16Z</time>
      </trkpt>
      <trkpt lat="43.9514" lon="7.29398">
        <ele>418.1</ele>
        <time>2011-05-22T07:46:19Z</time>
      </trkpt>
      <trkpt lat="43.95142" lon="7.29409">
        <ele>417.5</ele>
        <time>2011-05-22T07:46:22Z</time>
      </trkpt>
      <trkpt lat="43.95146" lon="7.29419">
        <ele>417.4</ele>
        <time>2011-05-22T07:46:25Z</time>
      </trkpt>
      <trkpt lat="43.9515" lon="7.29425">
        <ele>418</ele>
        <time>2011-05-22T07:46:27Z</time>
      </trkpt>
      <trkpt lat="43.95156" lon="7.29433">
        <ele>418.7</ele>
        <time>2011-05-22T07:46:30Z</time>
      </trkpt>
      <trkpt lat="43.95163" lon="7.2944">
        <ele>419.9</ele>
        <time>2011-05-22T07:46:33Z</time>
      </trkpt>
      <trkpt lat="43.95168" lon="7.29443">
        <ele>420.4</ele>
        <time>2011-05-22T07:46:35Z</time>
      </trkpt>
      <trkpt lat="43.95174" lon="7.29448">
        <ele>420.1</ele>
        <time>2011-05-22T07:46:37Z</time>
      </trkpt>
      <trkpt lat="43.95179" lon="7.29452">
        <ele>419.9</ele>
        <time>2011-05-22T07:46:39Z</time>
      </trkpt>
      <trkpt lat="43.95184" lon="7.29457">
        <ele>421</ele>
        <time>2011-05-22T07:46:41Z</time>
      </trkpt>
      <trkpt lat="43.95186" lon="7.29459">
        <ele>421.4</ele>
        <time>2011-05-22T07:46:42Z</time>
      </trkpt>
      <trkpt lat="43.95197" lon="7.29468">
        <ele>421.4</ele>
        <time>2011-05-22T07:46:46Z</time>
      </trkpt>
      <trkpt lat="43.95203" lon="7.29476">
        <ele>422.6</ele>
        <time>2011-05-22T07:46:49Z</time>
      </trkpt>
      <trkpt lat="43.95208" lon="7.29486">
        <ele>423.1</ele>
        <time>2011-05-22T07:46:52Z</time>
      </trkpt>
      <trkpt lat="43.95211" lon="7.29495">
        <ele>422.6</ele>
        <time>2011-05-22T07:46:55Z</time>
      </trkpt>
      <trkpt lat="43.95215" lon="7.29505">
        <ele>423.4</ele>
        <time>2011-05-22T07:46:58Z</time>
      </trkpt>
      <trkpt lat="43.95219" lon="7.29514">
        <ele>424.5</ele>
        <time>2011-05-22T07:47:01Z</time>
      </trkpt>
      <trkpt lat="43.95224" lon="7.29523">
        <ele>423.6</ele>
        <time>2011-05-22T07:47:04Z</time>
      </trkpt>
      <trkpt lat="43.9523" lon="7.29531">
        <ele>425.1</ele>
        <time>2011-05-22T07:47:07Z</time>
      </trkpt>
      <trkpt lat="43.95237" lon="7.29538">
        <ele>425.5</ele>
        <time>2011-05-22T07:47:10Z</time>
      </trkpt>
      <trkpt lat="43.95245" lon="7.29542">
        <ele>426</ele>
        <time>2011-05-22T07:47:13Z</time>
      </trkpt>
      <trkpt lat="43.95253" lon="7.29546">
        <ele>425.8</ele>
        <time>2011-05-22T07:47:16Z</time>
      </trkpt>
      <trkpt lat="43.95261" lon="7.29549">
        <ele>426.3</ele>
        <time>2011-05-22T07:47:19Z</time>
      </trkpt>
      <trkpt lat="43.95269" lon="7.29551">
        <ele>427.3</ele>
        <time>2011-05-22T07:47:22Z</time>
      </trkpt>
      <trkpt lat="43.95278" lon="7.29553">
        <ele>427.7</ele>
        <time>2011-05-22T07:47:25Z</time>
      </trkpt>
      <trkpt lat="43.95287" lon="7.29556">
        <ele>427.9</ele>
        <time>2011-05-22T07:47:28Z</time>
      </trkpt>
      <trkpt lat="43.95294" lon="7.2956">
        <ele>428.5</ele>
        <time>2011-05-22T07:47:31Z</time>
      </trkpt>
      <trkpt lat="43.95301" lon="7.29565">
        <ele>429.5</ele>
        <time>2011-05-22T07:47:34Z</time>
      </trkpt>
      <trkpt lat="43.95309" lon="7.2957">
        <ele>429.8</ele>
        <time>2011-05-22T07:47:37Z</time>
      </trkpt>
      <trkpt lat="43.95316" lon="7.29577">
        <ele>429.8</ele>
        <time>2011-05-22T07:47:40Z</time>
      </trkpt>
      <trkpt lat="43.95323" lon="7.29583">
        <ele>429.9</ele>
        <time>2011-05-22T07:47:43Z</time>
      </trkpt>
      <trkpt lat="43.95325" lon="7.29585">
        <ele>430</ele>
        <time>2011-05-22T07:47:44Z</time>
      </trkpt>
      <trkpt lat="43.95338" lon="7.29591">
        <ele>430.4</ele>
        <time>2011-05-22T07:47:49Z</time>
      </trkpt>
      <trkpt lat="43.95346" lon="7.29592">
        <ele>431.5</ele>
        <time>2011-05-22T07:47:52Z</time>
      </trkpt>
      <trkpt lat="43.95353" lon="7.29594">
        <ele>432.2</ele>
        <time>2011-05-22T07:47:55Z</time>
      </trkpt>
      <trkpt lat="43.9536" lon="7.29597">
        <ele>432.7</ele>
        <time>2011-05-22T07:47:58Z</time>
      </trkpt>
      <trkpt lat="43.95368" lon="7.29601">
        <ele>433.1</ele>
        <time>2011-05-22T07:48:01Z</time>
      </trkpt>
      <trkpt lat="43.95375" lon="7.29606">
        <ele>433.3</ele>
        <time>2011-05-22T07:48:04Z</time>
      </trkpt>
      <trkpt lat="43.95382" lon="7.29612">
        <ele>434.2</ele>
        <time>2011-05-22T07:48:07Z</time>
      </trkpt>
      <trkpt lat="43.95397" lon="7.29631">
        <ele>434.6</ele>
        <time>2011-05-22T07:48:14Z</time>
      </trkpt>
      <trkpt lat="43.95403" lon="7.29638">
        <ele>435.1</ele>
        <time>2011-05-22T07:48:17Z</time>
      </trkpt>
      <trkpt lat="43.95409" lon="7.29646">
        <ele>435.3</ele>
        <time>2011-05-22T07:48:20Z</time>
      </trkpt>
      <trkpt lat="43.95415" lon="7.29654">
        <ele>436.4</ele>
        <time>2011-05-22T07:48:23Z</time>
      </trkpt>
      <trkpt lat="43.95421" lon="7.29661">
        <ele>437.1</ele>
        <time>2011-05-22T07:48:26Z</time>
      </trkpt>
      <trkpt lat="43.95426" lon="7.29671">
        <ele>437.4</ele>
        <time>2011-05-22T07:48:29Z</time>
      </trkpt>
      <trkpt lat="43.95431" lon="7.2968">
        <ele>437.5</ele>
        <time>2011-05-22T07:48:32Z</time>
      </trkpt>
      <trkpt lat="43.95437" lon="7.29689">
        <ele>437.9</ele>
        <time>2011-05-22T07:48:35Z</time>
      </trkpt>
      <trkpt lat="43.95442" lon="7.29699">
        <ele>438.9</ele>
        <time>2011-05-22T07:48:38Z</time>
      </trkpt>
      <trkpt lat="43.95447" lon="7.2971">
        <ele>439.3</ele>
        <time>2011-05-22T07:48:41Z</time>
      </trkpt>
      <trkpt lat="43.9545" lon="7.29716">
        <ele>439.5</ele>
        <time>2011-05-22T07:48:43Z</time>
      </trkpt>
      <trkpt lat="43.95454" lon="7.29723">
        <ele>439.4</ele>
        <time>2011-05-22T07:48:45Z</time>
      </trkpt>
      <trkpt lat="43.95456" lon="7.29727">
        <ele>439.3</ele>
        <time>2011-05-22T07:48:46Z</time>
      </trkpt>
      <trkpt lat="43.95462" lon="7.29737">
        <ele>440.4</ele>
        <time>2011-05-22T07:48:49Z</time>
      </trkpt>
      <trkpt lat="43.95466" lon="7.29744">
        <ele>441.1</ele>
        <time>2011-05-22T07:48:51Z</time>
      </trkpt>
      <trkpt lat="43.9547" lon="7.2975">
        <ele>441.4</ele>
        <time>2011-05-22T07:48:53Z</time>
      </trkpt>
      <trkpt lat="43.95475" lon="7.29755">
        <ele>441.3</ele>
        <time>2011-05-22T07:48:55Z</time>
      </trkpt>
      <trkpt lat="43.95481" lon="7.2976">
        <ele>441.2</ele>
        <time>2011-05-22T07:48:57Z</time>
      </trkpt>
      <trkpt lat="43.95489" lon="7.29764">
        <ele>441.7</ele>
        <time>2011-05-22T07:49:00Z</time>
      </trkpt>
      <trkpt lat="43.95497" lon="7.29767">
        <ele>442.7</ele>
        <time>2011-05-22T07:49:03Z</time>
      </trkpt>
      <trkpt lat="43.95505" lon="7.29767">
        <ele>443.9</ele>
        <time>2011-05-22T07:49:06Z</time>
      </trkpt>
      <trkpt lat="43.95514" lon="7.29765">
        <ele>444.8</ele>
        <time>2011-05-22T07:49:09Z</time>
      </trkpt>
      <trkpt lat="43.95517" lon="7.29765">
        <ele>444.6</ele>
        <time>2011-05-22T07:49:10Z</time>
      </trkpt>
      <trkpt lat="43.95685" lon="7.29862">
        <ele>447.3</ele>
        <time>2011-05-22T07:50:09Z</time>
      </trkpt>
      <trkpt lat="43.95689" lon="7.29868">
        <ele>450.1</ele>
        <time>2011-05-22T07:50:11Z</time>
      </trkpt>
      <trkpt lat="43.95694" lon="7.29874">
        <ele>451.7</ele>
        <time>2011-05-22T07:50:13Z</time>
      </trkpt>
      <trkpt lat="43.95699" lon="7.29881">
        <ele>452.8</ele>
        <time>2011-05-22T07:50:15Z</time>
      </trkpt>
      <trkpt lat="43.95703" lon="7.29887">
        <ele>453.7</ele>
        <time>2011-05-22T07:50:17Z</time>
      </trkpt>
      <trkpt lat="43.95708" lon="7.29894">
        <ele>454.4</ele>
        <time>2011-05-22T07:50:19Z</time>
      </trkpt>
      <trkpt lat="43.95713" lon="7.299">
        <ele>454.8</ele>
        <time>2011-05-22T07:50:21Z</time>
      </trkpt>
      <trkpt lat="43.95718" lon="7.29907">
        <ele>455.3</ele>
        <time>2011-05-22T07:50:23Z</time>
      </trkpt>
      <trkpt lat="43.95723" lon="7.29913">
        <ele>455.8</ele>
        <time>2011-05-22T07:50:25Z</time>
      </trkpt>
      <trkpt lat="43.95729" lon="7.29918">
        <ele>455.4</ele>
        <time>2011-05-22T07:50:27Z</time>
      </trkpt>
      <trkpt lat="43.95734" lon="7.29922">
        <ele>455</ele>
        <time>2011-05-22T07:50:29Z</time>
      </trkpt>
      <trkpt lat="43.9574" lon="7.29924">
        <ele>454.7</ele>
        <time>2011-05-22T07:50:31Z</time>
      </trkpt>
      <trkpt lat="43.95746" lon="7.29926">
        <ele>454.5</ele>
        <time>2011-05-22T07:50:33Z</time>
      </trkpt>
      <trkpt lat="43.95752" lon="7.29928">
        <ele>454.4</ele>
        <time>2011-05-22T07:50:35Z</time>
      </trkpt>
      <trkpt lat="43.95759" lon="7.29927">
        <ele>454.2</ele>
        <time>2011-05-22T07:50:37Z</time>
      </trkpt>
      <trkpt lat="43.95765" lon="7.29928">
        <ele>453.8</ele>
        <time>2011-05-22T07:50:39Z</time>
      </trkpt>
      <trkpt lat="43.95774" lon="7.29928">
        <ele>453.3</ele>
        <time>2011-05-22T07:50:41Z</time>
      </trkpt>
      <trkpt lat="43.95783" lon="7.29928">
        <ele>453.8</ele>
        <time>2011-05-22T07:50:43Z</time>
      </trkpt>
      <trkpt lat="43.95788" lon="7.29928">
        <ele>453.9</ele>
        <time>2011-05-22T07:50:44Z</time>
      </trkpt>
      <trkpt lat="43.95792" lon="7.29929">
        <ele>454.1</ele>
        <time>2011-05-22T07:50:45Z</time>
      </trkpt>
      <trkpt lat="43.95797" lon="7.29931">
        <ele>454.2</ele>
        <time>2011-05-22T07:50:46Z</time>
      </trkpt>
      <trkpt lat="43.95801" lon="7.29933">
        <ele>454.3</ele>
        <time>2011-05-22T07:50:47Z</time>
      </trkpt>
      <trkpt lat="43.95806" lon="7.29937">
        <ele>454.3</ele>
        <time>2011-05-22T07:50:48Z</time>
      </trkpt>
      <trkpt lat="43.95809" lon="7.2994">
        <ele>454.1</ele>
        <time>2011-05-22T07:50:49Z</time>
      </trkpt>
      <trkpt lat="43.95813" lon="7.29944">
        <ele>453.9</ele>
        <time>2011-05-22T07:50:50Z</time>
      </trkpt>
      <trkpt lat="43.9582" lon="7.29953">
        <ele>453.8</ele>
        <time>2011-05-22T07:50:52Z</time>
      </trkpt>
      <trkpt lat="43.95825" lon="7.29962">
        <ele>453.8</ele>
        <time>2011-05-22T07:50:54Z</time>
      </trkpt>
      <trkpt lat="43.95828" lon="7.29971">
        <ele>453.2</ele>
        <time>2011-05-22T07:50:56Z</time>
      </trkpt>
      <trkpt lat="43.95831" lon="7.2998">
        <ele>453.1</ele>
        <time>2011-05-22T07:50:58Z</time>
      </trkpt>
      <trkpt lat="43.95835" lon="7.2999">
        <ele>453.3</ele>
        <time>2011-05-22T07:51:00Z</time>
      </trkpt>
      <trkpt lat="43.95838" lon="7.29999">
        <ele>453.4</ele>
        <time>2011-05-22T07:51:02Z</time>
      </trkpt>
      <trkpt lat="43.95842" lon="7.30009">
        <ele>453.5</ele>
        <time>2011-05-22T07:51:04Z</time>
      </trkpt>
      <trkpt lat="43.95846" lon="7.30018">
        <ele>453.6</ele>
        <time>2011-05-22T07:51:06Z</time>
      </trkpt>
      <trkpt lat="43.95852" lon="7.30032">
        <ele>453.2</ele>
        <time>2011-05-22T07:51:09Z</time>
      </trkpt>
      <trkpt lat="43.95853" lon="7.30037">
        <ele>453</ele>
        <time>2011-05-22T07:51:10Z</time>
      </trkpt>
      <trkpt lat="43.95859" lon="7.30052">
        <ele>452.2</ele>
        <time>2011-05-22T07:51:13Z</time>
      </trkpt>
      <trkpt lat="43.95862" lon="7.30063">
        <ele>452.3</ele>
        <time>2011-05-22T07:51:15Z</time>
      </trkpt>
      <trkpt lat="43.95864" lon="7.30074">
        <ele>451.9</ele>
        <time>2011-05-22T07:51:17Z</time>
      </trkpt>
      <trkpt lat="43.95868" lon="7.30086">
        <ele>451.4</ele>
        <time>2011-05-22T07:51:19Z</time>
      </trkpt>
      <trkpt lat="43.95871" lon="7.30097">
        <ele>451.3</ele>
        <time>2011-05-22T07:51:21Z</time>
      </trkpt>
      <trkpt lat="43.95873" lon="7.30108">
        <ele>451.4</ele>
        <time>2011-05-22T07:51:23Z</time>
      </trkpt>
      <trkpt lat="43.95874" lon="7.30119">
        <ele>451.1</ele>
        <time>2011-05-22T07:51:25Z</time>
      </trkpt>
      <trkpt lat="43.95876" lon="7.30131">
        <ele>451.1</ele>
        <time>2011-05-22T07:51:27Z</time>
      </trkpt>
      <trkpt lat="43.95877" lon="7.30138">
        <ele>451.1</ele>
        <time>2011-05-22T07:51:28Z</time>
      </trkpt>
      <trkpt lat="43.95878" lon="7.30145">
        <ele>451.1</ele>
        <time>2011-05-22T07:51:29Z</time>
      </trkpt>
      <trkpt lat="43.95879" lon="7.30153">
        <ele>451.6</ele>
        <time>2011-05-22T07:51:30Z</time>
      </trkpt>
      <trkpt lat="43.9588" lon="7.3016">
        <ele>452</ele>
        <time>2011-05-22T07:51:31Z</time>
      </trkpt>
      <trkpt lat="43.95881" lon="7.30168">
        <ele>452.2</ele>
        <time>2011-05-22T07:51:32Z</time>
      </trkpt>
      <trkpt lat="43.95882" lon="7.30175">
        <ele>452.1</ele>
        <time>2011-05-22T07:51:33Z</time>
      </trkpt>
      <trkpt lat="43.95883" lon="7.30182">
        <ele>451.9</ele>
        <time>2011-05-22T07:51:34Z</time>
      </trkpt>
      <trkpt lat="43.95884" lon="7.3019">
        <ele>451.8</ele>
        <time>2011-05-22T07:51:35Z</time>
      </trkpt>
      <trkpt lat="43.95886" lon="7.30197">
        <ele>451.5</ele>
        <time>2011-05-22T07:51:36Z</time>
      </trkpt>
      <trkpt lat="43.95887" lon="7.30205">
        <ele>451.2</ele>
        <time>2011-05-22T07:51:37Z</time>
      </trkpt>
      <trkpt lat="43.95888" lon="7.30212">
        <ele>451</ele>
        <time>2011-05-22T07:51:38Z</time>
      </trkpt>
      <trkpt lat="43.95889" lon="7.3022">
        <ele>450.8</ele>
        <time>2011-05-22T07:51:39Z</time>
      </trkpt>
      <trkpt lat="43.9589" lon="7.30228">
        <ele>450.7</ele>
        <time>2011-05-22T07:51:40Z</time>
      </trkpt>
      <trkpt lat="43.95892" lon="7.30236">
        <ele>450.6</ele>
        <time>2011-05-22T07:51:41Z</time>
      </trkpt>
      <trkpt lat="43.95894" lon="7.30243">
        <ele>450.5</ele>
        <time>2011-05-22T07:51:42Z</time>
      </trkpt>
      <trkpt lat="43.95896" lon="7.30251">
        <ele>450.3</ele>
        <time>2011-05-22T07:51:43Z</time>
      </trkpt>
      <trkpt lat="43.95898" lon="7.30263">
        <ele>450</ele>
        <time>2011-05-22T07:51:45Z</time>
      </trkpt>
      <trkpt lat="43.95903" lon="7.30272">
        <ele>450.3</ele>
        <time>2011-05-22T07:51:49Z</time>
      </trkpt>
      <trkpt lat="43.9591" lon="7.30279">
        <ele>450.1</ele>
        <time>2011-05-22T07:51:52Z</time>
      </trkpt>
      <trkpt lat="43.95917" lon="7.30283">
        <ele>450.2</ele>
        <time>2011-05-22T07:51:54Z</time>
      </trkpt>
      <trkpt lat="43.95925" lon="7.30285">
        <ele>450.1</ele>
        <time>2011-05-22T07:51:56Z</time>
      </trkpt>
      <trkpt lat="43.9593" lon="7.30285">
        <ele>450.1</ele>
        <time>2011-05-22T07:51:57Z</time>
      </trkpt>
      <trkpt lat="43.95934" lon="7.30283">
        <ele>450.1</ele>
        <time>2011-05-22T07:51:58Z</time>
      </trkpt>
      <trkpt lat="43.9594" lon="7.30282">
        <ele>449.8</ele>
        <time>2011-05-22T07:51:59Z</time>
      </trkpt>
      <trkpt lat="43.95946" lon="7.3028">
        <ele>449.5</ele>
        <time>2011-05-22T07:52:00Z</time>
      </trkpt>
      <trkpt lat="43.95952" lon="7.30279">
        <ele>449.4</ele>
        <time>2011-05-22T07:52:01Z</time>
      </trkpt>
      <trkpt lat="43.95958" lon="7.30277">
        <ele>449.2</ele>
        <time>2011-05-22T07:52:02Z</time>
      </trkpt>
      <trkpt lat="43.95964" lon="7.30275">
        <ele>449.1</ele>
        <time>2011-05-22T07:52:03Z</time>
      </trkpt>
      <trkpt lat="43.95971" lon="7.30274">
        <ele>449</ele>
        <time>2011-05-22T07:52:04Z</time>
      </trkpt>
      <trkpt lat="43.95978" lon="7.30272">
        <ele>449.4</ele>
        <time>2011-05-22T07:52:05Z</time>
      </trkpt>
      <trkpt lat="43.95985" lon="7.30271">
        <ele>449.7</ele>
        <time>2011-05-22T07:52:06Z</time>
      </trkpt>
      <trkpt lat="43.95991" lon="7.3027">
        <ele>449.9</ele>
        <time>2011-05-22T07:52:07Z</time>
      </trkpt>
      <trkpt lat="43.95998" lon="7.3027">
        <ele>449.6</ele>
        <time>2011-05-22T07:52:08Z</time>
      </trkpt>
      <trkpt lat="43.96005" lon="7.3027">
        <ele>449.3</ele>
        <time>2011-05-22T07:52:09Z</time>
      </trkpt>
      <trkpt lat="43.96012" lon="7.3027">
        <ele>449.1</ele>
        <time>2011-05-22T07:52:10Z</time>
      </trkpt>
      <trkpt lat="43.96019" lon="7.3027">
        <ele>449</ele>
        <time>2011-05-22T07:52:11Z</time>
      </trkpt>
      <trkpt lat="43.96025" lon="7.30271">
        <ele>448.9</ele>
        <time>2011-05-22T07:52:12Z</time>
      </trkpt>
      <trkpt lat="43.96031" lon="7.30272">
        <ele>448.9</ele>
        <time>2011-05-22T07:52:13Z</time>
      </trkpt>
      <trkpt lat="43.96038" lon="7.30274">
        <ele>448.9</ele>
        <time>2011-05-22T07:52:14Z</time>
      </trkpt>
      <trkpt lat="43.96044" lon="7.30276">
        <ele>448.9</ele>
        <time>2011-05-22T07:52:15Z</time>
      </trkpt>
      <trkpt lat="43.96051" lon="7.30278">
        <ele>448.8</ele>
        <time>2011-05-22T07:52:16Z</time>
      </trkpt>
      <trkpt lat="43.96057" lon="7.3028">
        <ele>448.8</ele>
        <time>2011-05-22T07:52:17Z</time>
      </trkpt>
      <trkpt lat="43.96063" lon="7.30282">
        <ele>448.5</ele>
        <time>2011-05-22T07:52:18Z</time>
      </trkpt>
      <trkpt lat="43.9607" lon="7.30284">
        <ele>448.2</ele>
        <time>2011-05-22T07:52:19Z</time>
      </trkpt>
      <trkpt lat="43.96076" lon="7.30286">
        <ele>448</ele>
        <time>2011-05-22T07:52:20Z</time>
      </trkpt>
      <trkpt lat="43.96082" lon="7.30288">
        <ele>447.5</ele>
        <time>2011-05-22T07:52:21Z</time>
      </trkpt>
      <trkpt lat="43.96089" lon="7.30291">
        <ele>447.2</ele>
        <time>2011-05-22T07:52:22Z</time>
      </trkpt>
      <trkpt lat="43.96095" lon="7.30293">
        <ele>446.9</ele>
        <time>2011-05-22T07:52:23Z</time>
      </trkpt>
      <trkpt lat="43.96102" lon="7.30297">
        <ele>446.8</ele>
        <time>2011-05-22T07:52:24Z</time>
      </trkpt>
      <trkpt lat="43.96108" lon="7.303">
        <ele>446.7</ele>
        <time>2011-05-22T07:52:25Z</time>
      </trkpt>
      <trkpt lat="43.96115" lon="7.30303">
        <ele>446.6</ele>
        <time>2011-05-22T07:52:26Z</time>
      </trkpt>
      <trkpt lat="43.9612" lon="7.30308">
        <ele>446.6</ele>
        <time>2011-05-22T07:52:27Z</time>
      </trkpt>
      <trkpt lat="43.96127" lon="7.30312">
        <ele>446.3</ele>
        <time>2011-05-22T07:52:28Z</time>
      </trkpt>
      <trkpt lat="43.96133" lon="7.30315">
        <ele>446.1</ele>
        <time>2011-05-22T07:52:29Z</time>
      </trkpt>
      <trkpt lat="43.96139" lon="7.30317">
        <ele>446</ele>
        <time>2011-05-22T07:52:30Z</time>
      </trkpt>
      <trkpt lat="43.96145" lon="7.30319">
        <ele>445.8</ele>
        <time>2011-05-22T07:52:31Z</time>
      </trkpt>
      <trkpt lat="43.96151" lon="7.30321">
        <ele>445.6</ele>
        <time>2011-05-22T07:52:32Z</time>
      </trkpt>
      <trkpt lat="43.96156" lon="7.30323">
        <ele>445.5</ele>
        <time>2011-05-22T07:52:33Z</time>
      </trkpt>
      <trkpt lat="43.96162" lon="7.30324">
        <ele>445.6</ele>
        <time>2011-05-22T07:52:34Z</time>
      </trkpt>
      <trkpt lat="43.96168" lon="7.30325">
        <ele>445.6</ele>
        <time>2011-05-22T07:52:35Z</time>
      </trkpt>
      <trkpt lat="43.96174" lon="7.30326">
        <ele>445.7</ele>
        <time>2011-05-22T07:52:36Z</time>
      </trkpt>
      <trkpt lat="43.9618" lon="7.30327">
        <ele>445.5</ele>
        <time>2011-05-22T07:52:37Z</time>
      </trkpt>
      <trkpt lat="43.96185" lon="7.30329">
        <ele>445.4</ele>
        <time>2011-05-22T07:52:38Z</time>
      </trkpt>
      <trkpt lat="43.96191" lon="7.3033">
        <ele>445.3</ele>
        <time>2011-05-22T07:52:39Z</time>
      </trkpt>
      <trkpt lat="43.96197" lon="7.30331">
        <ele>445.4</ele>
        <time>2011-05-22T07:52:40Z</time>
      </trkpt>
      <trkpt lat="43.96203" lon="7.30332">
        <ele>445.4</ele>
        <time>2011-05-22T07:52:41Z</time>
      </trkpt>
      <trkpt lat="43.96209" lon="7.30332">
        <ele>445.4</ele>
        <time>2011-05-22T07:52:42Z</time>
      </trkpt>
      <trkpt lat="43.96215" lon="7.30333">
        <ele>445.4</ele>
        <time>2011-05-22T07:52:43Z</time>
      </trkpt>
      <trkpt lat="43.96221" lon="7.30334">
        <ele>445</ele>
        <time>2011-05-22T07:52:44Z</time>
      </trkpt>
      <trkpt lat="43.96227" lon="7.30335">
        <ele>444.6</ele>
        <time>2011-05-22T07:52:45Z</time>
      </trkpt>
      <trkpt lat="43.96233" lon="7.30335">
        <ele>444.4</ele>
        <time>2011-05-22T07:52:46Z</time>
      </trkpt>
      <trkpt lat="43.96238" lon="7.30334">
        <ele>444.7</ele>
        <time>2011-05-22T07:52:47Z</time>
      </trkpt>
      <trkpt lat="43.96244" lon="7.30331">
        <ele>444.9</ele>
        <time>2011-05-22T07:52:48Z</time>
      </trkpt>
      <trkpt lat="43.9625" lon="7.30327">
        <ele>445.1</ele>
        <time>2011-05-22T07:52:49Z</time>
      </trkpt>
      <trkpt lat="43.96256" lon="7.30322">
        <ele>444.7</ele>
        <time>2011-05-22T07:52:50Z</time>
      </trkpt>
      <trkpt lat="43.96262" lon="7.30316">
        <ele>444.4</ele>
        <time>2011-05-22T07:52:51Z</time>
      </trkpt>
      <trkpt lat="43.96267" lon="7.3031">
        <ele>444.2</ele>
        <time>2011-05-22T07:52:52Z</time>
      </trkpt>
      <trkpt lat="43.96273" lon="7.30304">
        <ele>444.5</ele>
        <time>2011-05-22T07:52:53Z</time>
      </trkpt>
      <trkpt lat="43.96278" lon="7.30298">
        <ele>444.7</ele>
        <time>2011-05-22T07:52:54Z</time>
      </trkpt>
      <trkpt lat="43.96283" lon="7.30292">
        <ele>444.8</ele>
        <time>2011-05-22T07:52:55Z</time>
      </trkpt>
      <trkpt lat="43.96289" lon="7.30286">
        <ele>444.5</ele>
        <time>2011-05-22T07:52:56Z</time>
      </trkpt>
      <trkpt lat="43.96294" lon="7.3028">
        <ele>444.3</ele>
        <time>2011-05-22T07:52:57Z</time>
      </trkpt>
      <trkpt lat="43.963" lon="7.30275">
        <ele>444.2</ele>
        <time>2011-05-22T07:52:58Z</time>
      </trkpt>
      <trkpt lat="43.96306" lon="7.3027">
        <ele>444.1</ele>
        <time>2011-05-22T07:52:59Z</time>
      </trkpt>
      <trkpt lat="43.96312" lon="7.30265">
        <ele>443.7</ele>
        <time>2011-05-22T07:53:00Z</time>
      </trkpt>
      <trkpt lat="43.96318" lon="7.3026">
        <ele>443.4</ele>
        <time>2011-05-22T07:53:01Z</time>
      </trkpt>
      <trkpt lat="43.96324" lon="7.30255">
        <ele>443.2</ele>
        <time>2011-05-22T07:53:02Z</time>
      </trkpt>
      <trkpt lat="43.9633" lon="7.30252">
        <ele>442.9</ele>
        <time>2011-05-22T07:53:03Z</time>
      </trkpt>
      <trkpt lat="43.96336" lon="7.30248">
        <ele>442.6</ele>
        <time>2011-05-22T07:53:04Z</time>
      </trkpt>
      <trkpt lat="43.96342" lon="7.30245">
        <ele>442.4</ele>
        <time>2011-05-22T07:53:05Z</time>
      </trkpt>
      <trkpt lat="43.96348" lon="7.30241">
        <ele>442.5</ele>
        <time>2011-05-22T07:53:06Z</time>
      </trkpt>
      <trkpt lat="43.96354" lon="7.30239">
        <ele>442.5</ele>
        <time>2011-05-22T07:53:07Z</time>
      </trkpt>
      <trkpt lat="43.9636" lon="7.30236">
        <ele>442.6</ele>
        <time>2011-05-22T07:53:08Z</time>
      </trkpt>
      <trkpt lat="43.96366" lon="7.30233">
        <ele>442.6</ele>
        <time>2011-05-22T07:53:09Z</time>
      </trkpt>
      <trkpt lat="43.96372" lon="7.30231">
        <ele>442.6</ele>
        <time>2011-05-22T07:53:10Z</time>
      </trkpt>
      <trkpt lat="43.96378" lon="7.30229">
        <ele>442.6</ele>
        <time>2011-05-22T07:53:11Z</time>
      </trkpt>
      <trkpt lat="43.96384" lon="7.30227">
        <ele>443.1</ele>
        <time>2011-05-22T07:53:12Z</time>
      </trkpt>
      <trkpt lat="43.9639" lon="7.30226">
        <ele>443.4</ele>
        <time>2011-05-22T07:53:13Z</time>
      </trkpt>
      <trkpt lat="43.96396" lon="7.30226">
        <ele>443.6</ele>
        <time>2011-05-22T07:53:14Z</time>
      </trkpt>
      <trkpt lat="43.96401" lon="7.30227">
        <ele>443.8</ele>
        <time>2011-05-22T07:53:15Z</time>
      </trkpt>
      <trkpt lat="43.96407" lon="7.30229">
        <ele>443.9</ele>
        <time>2011-05-22T07:53:16Z</time>
      </trkpt>
      <trkpt lat="43.96413" lon="7.30231">
        <ele>444</ele>
        <time>2011-05-22T07:53:17Z</time>
      </trkpt>
      <trkpt lat="43.96418" lon="7.30233">
        <ele>444.1</ele>
        <time>2011-05-22T07:53:18Z</time>
      </trkpt>
      <trkpt lat="43.96424" lon="7.30235">
        <ele>444.4</ele>
        <time>2011-05-22T07:53:19Z</time>
      </trkpt>
      <trkpt lat="43.96429" lon="7.30237">
        <ele>444.6</ele>
        <time>2011-05-22T07:53:20Z</time>
      </trkpt>
      <trkpt lat="43.96434" lon="7.30239">
        <ele>444.8</ele>
        <time>2011-05-22T07:53:21Z</time>
      </trkpt>
      <trkpt lat="43.9644" lon="7.30241">
        <ele>445.1</ele>
        <time>2011-05-22T07:53:22Z</time>
      </trkpt>
      <trkpt lat="43.96445" lon="7.30243">
        <ele>445.3</ele>
        <time>2011-05-22T07:53:23Z</time>
      </trkpt>
      <trkpt lat="43.9645" lon="7.30246">
        <ele>445.4</ele>
        <time>2011-05-22T07:53:24Z</time>
      </trkpt>
      <trkpt lat="43.96455" lon="7.30248">
        <ele>445.4</ele>
        <time>2011-05-22T07:53:25Z</time>
      </trkpt>
      <trkpt lat="43.9646" lon="7.3025">
        <ele>445.4</ele>
        <time>2011-05-22T07:53:26Z</time>
      </trkpt>
      <trkpt lat="43.96465" lon="7.30252">
        <ele>445.4</ele>
        <time>2011-05-22T07:53:27Z</time>
      </trkpt>
      <trkpt lat="43.9647" lon="7.30255">
        <ele>445.3</ele>
        <time>2011-05-22T07:53:28Z</time>
      </trkpt>
      <trkpt lat="43.96475" lon="7.30257">
        <ele>445.3</ele>
        <time>2011-05-22T07:53:29Z</time>
      </trkpt>
      <trkpt lat="43.9648" lon="7.3026">
        <ele>445.2</ele>
        <time>2011-05-22T07:53:30Z</time>
      </trkpt>
      <trkpt lat="43.96484" lon="7.30263">
        <ele>445</ele>
        <time>2011-05-22T07:53:31Z</time>
      </trkpt>
      <trkpt lat="43.96489" lon="7.30266">
        <ele>444.9</ele>
        <time>2011-05-22T07:53:32Z</time>
      </trkpt>
      <trkpt lat="43.96493" lon="7.3027">
        <ele>444.8</ele>
        <time>2011-05-22T07:53:33Z</time>
      </trkpt>
      <trkpt lat="43.96497" lon="7.30274">
        <ele>444.7</ele>
        <time>2011-05-22T07:53:34Z</time>
      </trkpt>
      <trkpt lat="43.96502" lon="7.30278">
        <ele>445.2</ele>
        <time>2011-05-22T07:53:35Z</time>
      </trkpt>
      <trkpt lat="43.96506" lon="7.30282">
        <ele>445.6</ele>
        <time>2011-05-22T07:53:36Z</time>
      </trkpt>
      <trkpt lat="43.9651" lon="7.30286">
        <ele>445.9</ele>
        <time>2011-05-22T07:53:37Z</time>
      </trkpt>
      <trkpt lat="43.96514" lon="7.30291">
        <ele>446.5</ele>
        <time>2011-05-22T07:53:38Z</time>
      </trkpt>
      <trkpt lat="43.96518" lon="7.30295">
        <ele>446.9</ele>
        <time>2011-05-22T07:53:39Z</time>
      </trkpt>
      <trkpt lat="43.96522" lon="7.30299">
        <ele>447.3</ele>
        <time>2011-05-22T07:53:40Z</time>
      </trkpt>
      <trkpt lat="43.96527" lon="7.30303">
        <ele>447</ele>
        <time>2011-05-22T07:53:41Z</time>
      </trkpt>
      <trkpt lat="43.96531" lon="7.30308">
        <ele>446.8</ele>
        <time>2011-05-22T07:53:42Z</time>
      </trkpt>
      <trkpt lat="43.96534" lon="7.30313">
        <ele>446.6</ele>
        <time>2011-05-22T07:53:43Z</time>
      </trkpt>
      <trkpt lat="43.96538" lon="7.30318">
        <ele>446.9</ele>
        <time>2011-05-22T07:53:44Z</time>
      </trkpt>
      <trkpt lat="43.96541" lon="7.30324">
        <ele>447.1</ele>
        <time>2011-05-22T07:53:45Z</time>
      </trkpt>
      <trkpt lat="43.96544" lon="7.30329">
        <ele>447.3</ele>
        <time>2011-05-22T07:53:46Z</time>
      </trkpt>
      <trkpt lat="43.96547" lon="7.30335">
        <ele>447.2</ele>
        <time>2011-05-22T07:53:47Z</time>
      </trkpt>
      <trkpt lat="43.96549" lon="7.30341">
        <ele>447.2</ele>
        <time>2011-05-22T07:53:48Z</time>
      </trkpt>
      <trkpt lat="43.96552" lon="7.30347">
        <ele>447.2</ele>
        <time>2011-05-22T07:53:49Z</time>
      </trkpt>
      <trkpt lat="43.96555" lon="7.30353">
        <ele>447.2</ele>
        <time>2011-05-22T07:53:50Z</time>
      </trkpt>
      <trkpt lat="43.96558" lon="7.30358">
        <ele>447.3</ele>
        <time>2011-05-22T07:53:51Z</time>
      </trkpt>
      <trkpt lat="43.96562" lon="7.30363">
        <ele>447.4</ele>
        <time>2011-05-22T07:53:52Z</time>
      </trkpt>
      <trkpt lat="43.96566" lon="7.30367">
        <ele>447.4</ele>
        <time>2011-05-22T07:53:53Z</time>
      </trkpt>
      <trkpt lat="43.9657" lon="7.3037">
        <ele>447.6</ele>
        <time>2011-05-22T07:53:54Z</time>
      </trkpt>
      <trkpt lat="43.96575" lon="7.30373">
        <ele>447.8</ele>
        <time>2011-05-22T07:53:55Z</time>
      </trkpt>
      <trkpt lat="43.96579" lon="7.30377">
        <ele>447.9</ele>
        <time>2011-05-22T07:53:56Z</time>
      </trkpt>
      <trkpt lat="43.96584" lon="7.3038">
        <ele>447.7</ele>
        <time>2011-05-22T07:53:57Z</time>
      </trkpt>
      <trkpt lat="43.96588" lon="7.30384">
        <ele>447.5</ele>
        <time>2011-05-22T07:53:58Z</time>
      </trkpt>
      <trkpt lat="43.96592" lon="7.30387">
        <ele>447.4</ele>
        <time>2011-05-22T07:53:59Z</time>
      </trkpt>
      <trkpt lat="43.96597" lon="7.30391">
        <ele>447.6</ele>
        <time>2011-05-22T07:54:00Z</time>
      </trkpt>
      <trkpt lat="43.96601" lon="7.30394">
        <ele>447.9</ele>
        <time>2011-05-22T07:54:01Z</time>
      </trkpt>
      <trkpt lat="43.96605" lon="7.30397">
        <ele>448</ele>
        <time>2011-05-22T07:54:02Z</time>
      </trkpt>
      <trkpt lat="43.9661" lon="7.304">
        <ele>448</ele>
        <time>2011-05-22T07:54:03Z</time>
      </trkpt>
      <trkpt lat="43.96614" lon="7.30404">
        <ele>448.1</ele>
        <time>2011-05-22T07:54:04Z</time>
      </trkpt>
      <trkpt lat="43.96618" lon="7.30407">
        <ele>448.1</ele>
        <time>2011-05-22T07:54:05Z</time>
      </trkpt>
      <trkpt lat="43.96623" lon="7.3041">
        <ele>448.1</ele>
        <time>2011-05-22T07:54:06Z</time>
      </trkpt>
      <trkpt lat="43.96627" lon="7.30413">
        <ele>448.4</ele>
        <time>2011-05-22T07:54:07Z</time>
      </trkpt>
      <trkpt lat="43.96632" lon="7.30417">
        <ele>448.6</ele>
        <time>2011-05-22T07:54:08Z</time>
      </trkpt>
      <trkpt lat="43.96636" lon="7.3042">
        <ele>448.8</ele>
        <time>2011-05-22T07:54:09Z</time>
      </trkpt>
      <trkpt lat="43.96641" lon="7.30424">
        <ele>448.7</ele>
        <time>2011-05-22T07:54:10Z</time>
      </trkpt>
      <trkpt lat="43.96647" lon="7.30427">
        <ele>448.7</ele>
        <time>2011-05-22T07:54:11Z</time>
      </trkpt>
      <trkpt lat="43.96651" lon="7.3043">
        <ele>448.6</ele>
        <time>2011-05-22T07:54:12Z</time>
      </trkpt>
      <trkpt lat="43.96656" lon="7.30434">
        <ele>449</ele>
        <time>2011-05-22T07:54:13Z</time>
      </trkpt>
      <trkpt lat="43.96661" lon="7.30437">
        <ele>449.3</ele>
        <time>2011-05-22T07:54:14Z</time>
      </trkpt>
      <trkpt lat="43.96666" lon="7.3044">
        <ele>449.5</ele>
        <time>2011-05-22T07:54:15Z</time>
      </trkpt>
      <trkpt lat="43.96671" lon="7.30442">
        <ele>449.9</ele>
        <time>2011-05-22T07:54:16Z</time>
      </trkpt>
      <trkpt lat="43.96676" lon="7.30443">
        <ele>450.2</ele>
        <time>2011-05-22T07:54:17Z</time>
      </trkpt>
      <trkpt lat="43.96681" lon="7.30445">
        <ele>450.5</ele>
        <time>2011-05-22T07:54:18Z</time>
      </trkpt>
      <trkpt lat="43.96685" lon="7.30446">
        <ele>450.8</ele>
        <time>2011-05-22T07:54:19Z</time>
      </trkpt>
      <trkpt lat="43.9669" lon="7.30446">
        <ele>451.1</ele>
        <time>2011-05-22T07:54:20Z</time>
      </trkpt>
      <trkpt lat="43.96694" lon="7.30448">
        <ele>451.3</ele>
        <time>2011-05-22T07:54:21Z</time>
      </trkpt>
      <trkpt lat="43.96699" lon="7.3045">
        <ele>450.8</ele>
        <time>2011-05-22T07:54:22Z</time>
      </trkpt>
      <trkpt lat="43.96703" lon="7.30453">
        <ele>450.5</ele>
        <time>2011-05-22T07:54:23Z</time>
      </trkpt>
      <trkpt lat="43.96707" lon="7.30458">
        <ele>450.2</ele>
        <time>2011-05-22T07:54:24Z</time>
      </trkpt>
      <trkpt lat="43.96711" lon="7.30462">
        <ele>450</ele>
        <time>2011-05-22T07:54:25Z</time>
      </trkpt>
      <trkpt lat="43.96715" lon="7.30467">
        <ele>449.7</ele>
        <time>2011-05-22T07:54:26Z</time>
      </trkpt>
      <trkpt lat="43.9672" lon="7.3047">
        <ele>449.5</ele>
        <time>2011-05-22T07:54:27Z</time>
      </trkpt>
      <trkpt lat="43.96725" lon="7.30474">
        <ele>449.3</ele>
        <time>2011-05-22T07:54:28Z</time>
      </trkpt>
      <trkpt lat="43.9673" lon="7.30477">
        <ele>449.9</ele>
        <time>2011-05-22T07:54:29Z</time>
      </trkpt>
      <trkpt lat="43.96735" lon="7.3048">
        <ele>450.3</ele>
        <time>2011-05-22T07:54:30Z</time>
      </trkpt>
      <trkpt lat="43.9674" lon="7.30483">
        <ele>450.7</ele>
        <time>2011-05-22T07:54:31Z</time>
      </trkpt>
      <trkpt lat="43.96744" lon="7.30486">
        <ele>450.9</ele>
        <time>2011-05-22T07:54:32Z</time>
      </trkpt>
      <trkpt lat="43.96749" lon="7.3049">
        <ele>451.1</ele>
        <time>2011-05-22T07:54:33Z</time>
      </trkpt>
      <trkpt lat="43.96754" lon="7.30494">
        <ele>451.2</ele>
        <time>2011-05-22T07:54:34Z</time>
      </trkpt>
      <trkpt lat="43.96758" lon="7.30497">
        <ele>451.1</ele>
        <time>2011-05-22T07:54:35Z</time>
      </trkpt>
      <trkpt lat="43.96763" lon="7.30501">
        <ele>451.1</ele>
        <time>2011-05-22T07:54:36Z</time>
      </trkpt>
      <trkpt lat="43.96767" lon="7.30505">
        <ele>451</ele>
        <time>2011-05-22T07:54:37Z</time>
      </trkpt>
      <trkpt lat="43.96772" lon="7.30509">
        <ele>451.5</ele>
        <time>2011-05-22T07:54:38Z</time>
      </trkpt>
      <trkpt lat="43.96776" lon="7.30513">
        <ele>451.9</ele>
        <time>2011-05-22T07:54:39Z</time>
      </trkpt>
      <trkpt lat="43.9678" lon="7.30517">
        <ele>452.1</ele>
        <time>2011-05-22T07:54:40Z</time>
      </trkpt>
      <trkpt lat="43.96785" lon="7.3052">
        <ele>452.3</ele>
        <time>2011-05-22T07:54:41Z</time>
      </trkpt>
      <trkpt lat="43.96789" lon="7.30523">
        <ele>452.2</ele>
        <time>2011-05-22T07:54:42Z</time>
      </trkpt>
      <trkpt lat="43.96793" lon="7.30527">
        <ele>452.1</ele>
        <time>2011-05-22T07:54:43Z</time>
      </trkpt>
      <trkpt lat="43.96798" lon="7.3053">
        <ele>452.1</ele>
        <time>2011-05-22T07:54:44Z</time>
      </trkpt>
      <trkpt lat="43.96803" lon="7.30532">
        <ele>452.1</ele>
        <time>2011-05-22T07:54:45Z</time>
      </trkpt>
      <trkpt lat="43.96809" lon="7.30535">
        <ele>452.2</ele>
        <time>2011-05-22T07:54:46Z</time>
      </trkpt>
      <trkpt lat="43.96814" lon="7.30537">
        <ele>452.3</ele>
        <time>2011-05-22T07:54:47Z</time>
      </trkpt>
      <trkpt lat="43.96818" lon="7.3054">
        <ele>452.4</ele>
        <time>2011-05-22T07:54:48Z</time>
      </trkpt>
      <trkpt lat="43.96823" lon="7.30542">
        <ele>452.5</ele>
        <time>2011-05-22T07:54:49Z</time>
      </trkpt>
      <trkpt lat="43.96828" lon="7.30544">
        <ele>452.6</ele>
        <time>2011-05-22T07:54:50Z</time>
      </trkpt>
      <trkpt lat="43.96833" lon="7.30546">
        <ele>452.9</ele>
        <time>2011-05-22T07:54:51Z</time>
      </trkpt>
      <trkpt lat="43.96837" lon="7.30549">
        <ele>453.2</ele>
        <time>2011-05-22T07:54:52Z</time>
      </trkpt>
      <trkpt lat="43.96842" lon="7.30551">
        <ele>453.3</ele>
        <time>2011-05-22T07:54:53Z</time>
      </trkpt>
      <trkpt lat="43.96847" lon="7.30553">
        <ele>453.3</ele>
        <time>2011-05-22T07:54:54Z</time>
      </trkpt>
      <trkpt lat="43.96851" lon="7.30556">
        <ele>453.2</ele>
        <time>2011-05-22T07:54:55Z</time>
      </trkpt>
      <trkpt lat="43.96855" lon="7.3056">
        <ele>453.2</ele>
        <time>2011-05-22T07:54:56Z</time>
      </trkpt>
      <trkpt lat="43.96859" lon="7.30564">
        <ele>453.1</ele>
        <time>2011-05-22T07:54:57Z</time>
      </trkpt>
      <trkpt lat="43.96862" lon="7.30569">
        <ele>453.6</ele>
        <time>2011-05-22T07:54:58Z</time>
      </trkpt>
      <trkpt lat="43.96866" lon="7.30573">
        <ele>453.9</ele>
        <time>2011-05-22T07:54:59Z</time>
      </trkpt>
      <trkpt lat="43.96869" lon="7.30578">
        <ele>454.1</ele>
        <time>2011-05-22T07:55:00Z</time>
      </trkpt>
      <trkpt lat="43.96872" lon="7.30583">
        <ele>454.1</ele>
        <time>2011-05-22T07:55:01Z</time>
      </trkpt>
      <trkpt lat="43.96875" lon="7.30588">
        <ele>454.1</ele>
        <time>2011-05-22T07:55:02Z</time>
      </trkpt>
      <trkpt lat="43.96879" lon="7.30593">
        <ele>454.1</ele>
        <time>2011-05-22T07:55:03Z</time>
      </trkpt>
      <trkpt lat="43.96882" lon="7.30597">
        <ele>454.1</ele>
        <time>2011-05-22T07:55:04Z</time>
      </trkpt>
      <trkpt lat="43.96885" lon="7.30602">
        <ele>454</ele>
        <time>2011-05-22T07:55:05Z</time>
      </trkpt>
      <trkpt lat="43.96888" lon="7.30607">
        <ele>454</ele>
        <time>2011-05-22T07:55:06Z</time>
      </trkpt>
      <trkpt lat="43.96891" lon="7.30612">
        <ele>453.9</ele>
        <time>2011-05-22T07:55:07Z</time>
      </trkpt>
      <trkpt lat="43.96895" lon="7.30617">
        <ele>453.8</ele>
        <time>2011-05-22T07:55:08Z</time>
      </trkpt>
      <trkpt lat="43.96898" lon="7.30622">
        <ele>453.8</ele>
        <time>2011-05-22T07:55:09Z</time>
      </trkpt>
      <trkpt lat="43.96901" lon="7.30627">
        <ele>454</ele>
        <time>2011-05-22T07:55:10Z</time>
      </trkpt>
      <trkpt lat="43.96903" lon="7.30633">
        <ele>454.1</ele>
        <time>2011-05-22T07:55:11Z</time>
      </trkpt>
      <trkpt lat="43.96906" lon="7.30638">
        <ele>454.2</ele>
        <time>2011-05-22T07:55:12Z</time>
      </trkpt>
      <trkpt lat="43.96909" lon="7.30643">
        <ele>454.3</ele>
        <time>2011-05-22T07:55:13Z</time>
      </trkpt>
      <trkpt lat="43.96911" lon="7.30649">
        <ele>454.6</ele>
        <time>2011-05-22T07:55:14Z</time>
      </trkpt>
      <trkpt lat="43.96914" lon="7.30654">
        <ele>454.9</ele>
        <time>2011-05-22T07:55:15Z</time>
      </trkpt>
      <trkpt lat="43.96916" lon="7.3066">
        <ele>455.1</ele>
        <time>2011-05-22T07:55:16Z</time>
      </trkpt>
      <trkpt lat="43.96918" lon="7.30666">
        <ele>455.4</ele>
        <time>2011-05-22T07:55:17Z</time>
      </trkpt>
      <trkpt lat="43.96919" lon="7.30672">
        <ele>455.6</ele>
        <time>2011-05-22T07:55:18Z</time>
      </trkpt>
      <trkpt lat="43.96921" lon="7.30678">
        <ele>455.8</ele>
        <time>2011-05-22T07:55:19Z</time>
      </trkpt>
      <trkpt lat="43.96923" lon="7.30684">
        <ele>455.9</ele>
        <time>2011-05-22T07:55:20Z</time>
      </trkpt>
      <trkpt lat="43.96925" lon="7.30696">
        <ele>456</ele>
        <time>2011-05-22T07:55:22Z</time>
      </trkpt>
      <trkpt lat="43.96928" lon="7.30708">
        <ele>456.3</ele>
        <time>2011-05-22T07:55:24Z</time>
      </trkpt>
      <trkpt lat="43.9693" lon="7.3072">
        <ele>456.4</ele>
        <time>2011-05-22T07:55:26Z</time>
      </trkpt>
      <trkpt lat="43.96931" lon="7.30726">
        <ele>456.3</ele>
        <time>2011-05-22T07:55:27Z</time>
      </trkpt>
      <trkpt lat="43.96932" lon="7.30732">
        <ele>456.3</ele>
        <time>2011-05-22T07:55:28Z</time>
      </trkpt>
      <trkpt lat="43.96934" lon="7.30738">
        <ele>456.2</ele>
        <time>2011-05-22T07:55:29Z</time>
      </trkpt>
      <trkpt lat="43.96937" lon="7.30743">
        <ele>456.1</ele>
        <time>2011-05-22T07:55:30Z</time>
      </trkpt>
      <trkpt lat="43.9694" lon="7.30747">
        <ele>456</ele>
        <time>2011-05-22T07:55:31Z</time>
      </trkpt>
      <trkpt lat="43.96944" lon="7.30752">
        <ele>455.9</ele>
        <time>2011-05-22T07:55:32Z</time>
      </trkpt>
      <trkpt lat="43.9695" lon="7.3076">
        <ele>456.4</ele>
        <time>2011-05-22T07:55:34Z</time>
      </trkpt>
      <trkpt lat="43.96956" lon="7.3077">
        <ele>456.8</ele>
        <time>2011-05-22T07:55:36Z</time>
      </trkpt>
      <trkpt lat="43.96959" lon="7.30781">
        <ele>457.1</ele>
        <time>2011-05-22T07:55:38Z</time>
      </trkpt>
      <trkpt lat="43.96961" lon="7.30793">
        <ele>457.4</ele>
        <time>2011-05-22T07:55:40Z</time>
      </trkpt>
      <trkpt lat="43.96961" lon="7.30804">
        <ele>457.2</ele>
        <time>2011-05-22T07:55:42Z</time>
      </trkpt>
      <trkpt lat="43.96961" lon="7.30816">
        <ele>456.8</ele>
        <time>2011-05-22T07:55:44Z</time>
      </trkpt>
      <trkpt lat="43.9696" lon="7.30828">
        <ele>456.8</ele>
        <time>2011-05-22T07:55:46Z</time>
      </trkpt>
      <trkpt lat="43.9696" lon="7.30841">
        <ele>457</ele>
        <time>2011-05-22T07:55:48Z</time>
      </trkpt>
      <trkpt lat="43.96958" lon="7.30852">
        <ele>457.5</ele>
        <time>2011-05-22T07:55:50Z</time>
      </trkpt>
      <trkpt lat="43.96955" lon="7.30862">
        <ele>457.5</ele>
        <time>2011-05-22T07:55:52Z</time>
      </trkpt>
      <trkpt lat="43.9695" lon="7.30871">
        <ele>457.4</ele>
        <time>2011-05-22T07:55:54Z</time>
      </trkpt>
      <trkpt lat="43.96946" lon="7.30881">
        <ele>458</ele>
        <time>2011-05-22T07:55:56Z</time>
      </trkpt>
      <trkpt lat="43.96941" lon="7.30891">
        <ele>458.4</ele>
        <time>2011-05-22T07:55:58Z</time>
      </trkpt>
      <trkpt lat="43.9694" lon="7.30902">
        <ele>458.7</ele>
        <time>2011-05-22T07:56:00Z</time>
      </trkpt>
      <trkpt lat="43.96943" lon="7.30912">
        <ele>458.7</ele>
        <time>2011-05-22T07:56:02Z</time>
      </trkpt>
      <trkpt lat="43.96945" lon="7.30923">
        <ele>458.8</ele>
        <time>2011-05-22T07:56:04Z</time>
      </trkpt>
      <trkpt lat="43.96948" lon="7.30933">
        <ele>458.5</ele>
        <time>2011-05-22T07:56:06Z</time>
      </trkpt>
      <trkpt lat="43.96951" lon="7.30943">
        <ele>458.5</ele>
        <time>2011-05-22T07:56:08Z</time>
      </trkpt>
      <trkpt lat="43.96956" lon="7.30951">
        <ele>458.7</ele>
        <time>2011-05-22T07:56:10Z</time>
      </trkpt>
      <trkpt lat="43.96962" lon="7.30959">
        <ele>459.1</ele>
        <time>2011-05-22T07:56:12Z</time>
      </trkpt>
      <trkpt lat="43.96967" lon="7.30966">
        <ele>459.7</ele>
        <time>2011-05-22T07:56:14Z</time>
      </trkpt>
      <trkpt lat="43.9697" lon="7.3097">
        <ele>460.1</ele>
        <time>2011-05-22T07:56:15Z</time>
      </trkpt>
      <trkpt lat="43.96971" lon="7.30984">
        <ele>460.1</ele>
        <time>2011-05-22T07:56:18Z</time>
      </trkpt>
      <trkpt lat="43.96967" lon="7.30993">
        <ele>459.9</ele>
        <time>2011-05-22T07:56:20Z</time>
      </trkpt>
      <trkpt lat="43.96963" lon="7.31001">
        <ele>460.1</ele>
        <time>2011-05-22T07:56:22Z</time>
      </trkpt>
      <trkpt lat="43.96957" lon="7.31008">
        <ele>460.5</ele>
        <time>2011-05-22T07:56:24Z</time>
      </trkpt>
      <trkpt lat="43.96949" lon="7.31011">
        <ele>460.9</ele>
        <time>2011-05-22T07:56:26Z</time>
      </trkpt>
      <trkpt lat="43.96943" lon="7.31011">
        <ele>460.9</ele>
        <time>2011-05-22T07:56:28Z</time>
      </trkpt>
      <trkpt lat="43.96936" lon="7.31009">
        <ele>461.1</ele>
        <time>2011-05-22T07:56:30Z</time>
      </trkpt>
      <trkpt lat="43.96931" lon="7.31005">
        <ele>461.2</ele>
        <time>2011-05-22T07:56:32Z</time>
      </trkpt>
      <trkpt lat="43.96925" lon="7.31001">
        <ele>461.3</ele>
        <time>2011-05-22T07:56:34Z</time>
      </trkpt>
      <trkpt lat="43.96919" lon="7.30997">
        <ele>461.4</ele>
        <time>2011-05-22T07:56:36Z</time>
      </trkpt>
      <trkpt lat="43.96914" lon="7.30993">
        <ele>462.2</ele>
        <time>2011-05-22T07:56:38Z</time>
      </trkpt>
      <trkpt lat="43.96908" lon="7.30989">
        <ele>462.5</ele>
        <time>2011-05-22T07:56:40Z</time>
      </trkpt>
      <trkpt lat="43.96902" lon="7.30985">
        <ele>462.5</ele>
        <time>2011-05-22T07:56:42Z</time>
      </trkpt>
      <trkpt lat="43.96897" lon="7.30981">
        <ele>462.8</ele>
        <time>2011-05-22T07:56:44Z</time>
      </trkpt>
      <trkpt lat="43.96891" lon="7.30977">
        <ele>462.9</ele>
        <time>2011-05-22T07:56:46Z</time>
      </trkpt>
      <trkpt lat="43.96885" lon="7.30973">
        <ele>463</ele>
        <time>2011-05-22T07:56:48Z</time>
      </trkpt>
      <trkpt lat="43.9688" lon="7.30969">
        <ele>463.5</ele>
        <time>2011-05-22T07:56:50Z</time>
      </trkpt>
      <trkpt lat="43.96874" lon="7.30965">
        <ele>463.8</ele>
        <time>2011-05-22T07:56:52Z</time>
      </trkpt>
      <trkpt lat="43.96869" lon="7.30961">
        <ele>464.8</ele>
        <time>2011-05-22T07:56:54Z</time>
      </trkpt>
      <trkpt lat="43.96863" lon="7.30957">
        <ele>464.8</ele>
        <time>2011-05-22T07:56:56Z</time>
      </trkpt>
      <trkpt lat="43.96858" lon="7.30952">
        <ele>464.4</ele>
        <time>2011-05-22T07:56:58Z</time>
      </trkpt>
      <trkpt lat="43.96853" lon="7.30947">
        <ele>464.6</ele>
        <time>2011-05-22T07:57:00Z</time>
      </trkpt>
      <trkpt lat="43.96848" lon="7.30941">
        <ele>465</ele>
        <time>2011-05-22T07:57:02Z</time>
      </trkpt>
      <trkpt lat="43.96844" lon="7.30936">
        <ele>465.5</ele>
        <time>2011-05-22T07:57:04Z</time>
      </trkpt>
      <trkpt lat="43.96838" lon="7.30931">
        <ele>466</ele>
        <time>2011-05-22T07:57:06Z</time>
      </trkpt>
      <trkpt lat="43.96833" lon="7.30927">
        <ele>466.3</ele>
        <time>2011-05-22T07:57:08Z</time>
      </trkpt>
      <trkpt lat="43.96827" lon="7.30923">
        <ele>466.2</ele>
        <time>2011-05-22T07:57:10Z</time>
      </trkpt>
      <trkpt lat="43.96822" lon="7.30919">
        <ele>466.1</ele>
        <time>2011-05-22T07:57:12Z</time>
      </trkpt>
      <trkpt lat="43.96816" lon="7.30915">
        <ele>466</ele>
        <time>2011-05-22T07:57:14Z</time>
      </trkpt>
      <trkpt lat="43.9681" lon="7.30911">
        <ele>467.1</ele>
        <time>2011-05-22T07:57:16Z</time>
      </trkpt>
      <trkpt lat="43.96808" lon="7.3091">
        <ele>467.4</ele>
        <time>2011-05-22T07:57:17Z</time>
      </trkpt>
      <trkpt lat="43.96799" lon="7.30904">
        <ele>468.1</ele>
        <time>2011-05-22T07:57:20Z</time>
      </trkpt>
      <trkpt lat="43.96794" lon="7.309">
        <ele>468.2</ele>
        <time>2011-05-22T07:57:22Z</time>
      </trkpt>
      <trkpt lat="43.96788" lon="7.30895">
        <ele>468.4</ele>
        <time>2011-05-22T07:57:24Z</time>
      </trkpt>
      <trkpt lat="43.96783" lon="7.30889">
        <ele>468.7</ele>
        <time>2011-05-22T07:57:26Z</time>
      </trkpt>
      <trkpt lat="43.96779" lon="7.30884">
        <ele>469.1</ele>
        <time>2011-05-22T07:57:28Z</time>
      </trkpt>
      <trkpt lat="43.96774" lon="7.30879">
        <ele>469.6</ele>
        <time>2011-05-22T07:57:30Z</time>
      </trkpt>
      <trkpt lat="43.96769" lon="7.30873">
        <ele>469.5</ele>
        <time>2011-05-22T07:57:32Z</time>
      </trkpt>
      <trkpt lat="43.96764" lon="7.30868">
        <ele>469.7</ele>
        <time>2011-05-22T07:57:34Z</time>
      </trkpt>
      <trkpt lat="43.96758" lon="7.30863">
        <ele>470</ele>
        <time>2011-05-22T07:57:36Z</time>
      </trkpt>
      <trkpt lat="43.96753" lon="7.30857">
        <ele>470.9</ele>
        <time>2011-05-22T07:57:38Z</time>
      </trkpt>
      <trkpt lat="43.96747" lon="7.30853">
        <ele>471.1</ele>
        <time>2011-05-22T07:57:40Z</time>
      </trkpt>
      <trkpt lat="43.96742" lon="7.30848">
        <ele>471</ele>
        <time>2011-05-22T07:57:42Z</time>
      </trkpt>
      <trkpt lat="43.96736" lon="7.30843">
        <ele>471</ele>
        <time>2011-05-22T07:57:44Z</time>
      </trkpt>
      <trkpt lat="43.96731" lon="7.30839">
        <ele>471.2</ele>
        <time>2011-05-22T07:57:46Z</time>
      </trkpt>
      <trkpt lat="43.96725" lon="7.30835">
        <ele>472.8</ele>
        <time>2011-05-22T07:57:48Z</time>
      </trkpt>
      <trkpt lat="43.96719" lon="7.30831">
        <ele>473.4</ele>
        <time>2011-05-22T07:57:50Z</time>
      </trkpt>
      <trkpt lat="43.96713" lon="7.30826">
        <ele>473.6</ele>
        <time>2011-05-22T07:57:52Z</time>
      </trkpt>
      <trkpt lat="43.96707" lon="7.30822">
        <ele>473.5</ele>
        <time>2011-05-22T07:57:54Z</time>
      </trkpt>
      <trkpt lat="43.96701" lon="7.30818">
        <ele>473.6</ele>
        <time>2011-05-22T07:57:56Z</time>
      </trkpt>
      <trkpt lat="43.96696" lon="7.30813">
        <ele>473.8</ele>
        <time>2011-05-22T07:57:58Z</time>
      </trkpt>
      <trkpt lat="43.96689" lon="7.30811">
        <ele>474.4</ele>
        <time>2011-05-22T07:58:00Z</time>
      </trkpt>
      <trkpt lat="43.96683" lon="7.30813">
        <ele>475</ele>
        <time>2011-05-22T07:58:02Z</time>
      </trkpt>
      <trkpt lat="43.96679" lon="7.30819">
        <ele>475.2</ele>
        <time>2011-05-22T07:58:04Z</time>
      </trkpt>
      <trkpt lat="43.96677" lon="7.30827">
        <ele>475.5</ele>
        <time>2011-05-22T07:58:06Z</time>
      </trkpt>
      <trkpt lat="43.96676" lon="7.30836">
        <ele>475.6</ele>
        <time>2011-05-22T07:58:08Z</time>
      </trkpt>
      <trkpt lat="43.96675" lon="7.30844">
        <ele>476.5</ele>
        <time>2011-05-22T07:58:10Z</time>
      </trkpt>
      <trkpt lat="43.96674" lon="7.30852">
        <ele>476.9</ele>
        <time>2011-05-22T07:58:12Z</time>
      </trkpt>
      <trkpt lat="43.96672" lon="7.30861">
        <ele>477</ele>
        <time>2011-05-22T07:58:14Z</time>
      </trkpt>
      <trkpt lat="43.96666" lon="7.3087">
        <ele>477.2</ele>
        <time>2011-05-22T07:58:17Z</time>
      </trkpt>
      <trkpt lat="43.96664" lon="7.30871">
        <ele>477.3</ele>
        <time>2011-05-22T07:58:18Z</time>
      </trkpt>
      <trkpt lat="43.96654" lon="7.30874">
        <ele>477.9</ele>
        <time>2011-05-22T07:58:21Z</time>
      </trkpt>
      <trkpt lat="43.96647" lon="7.30874">
        <ele>478.5</ele>
        <time>2011-05-22T07:58:23Z</time>
      </trkpt>
      <trkpt lat="43.9664" lon="7.30875">
        <ele>478.5</ele>
        <time>2011-05-22T07:58:25Z</time>
      </trkpt>
      <trkpt lat="43.96634" lon="7.30877">
        <ele>478.3</ele>
        <time>2011-05-22T07:58:27Z</time>
      </trkpt>
      <trkpt lat="43.96628" lon="7.30879">
        <ele>478.9</ele>
        <time>2011-05-22T07:58:29Z</time>
      </trkpt>
      <trkpt lat="43.96622" lon="7.30884">
        <ele>479.4</ele>
        <time>2011-05-22T07:58:31Z</time>
      </trkpt>
      <trkpt lat="43.96617" lon="7.30889">
        <ele>479.6</ele>
        <time>2011-05-22T07:58:33Z</time>
      </trkpt>
      <trkpt lat="43.96611" lon="7.30895">
        <ele>479.6</ele>
        <time>2011-05-22T07:58:35Z</time>
      </trkpt>
      <trkpt lat="43.96607" lon="7.30901">
        <ele>479.4</ele>
        <time>2011-05-22T07:58:37Z</time>
      </trkpt>
      <trkpt lat="43.96602" lon="7.30906">
        <ele>480</ele>
        <time>2011-05-22T07:58:39Z</time>
      </trkpt>
      <trkpt lat="43.96595" lon="7.30914">
        <ele>480.4</ele>
        <time>2011-05-22T07:58:42Z</time>
      </trkpt>
      <trkpt lat="43.96588" lon="7.30921">
        <ele>480.7</ele>
        <time>2011-05-22T07:58:45Z</time>
      </trkpt>
      <trkpt lat="43.96582" lon="7.30925">
        <ele>481.2</ele>
        <time>2011-05-22T07:58:47Z</time>
      </trkpt>
      <trkpt lat="43.96576" lon="7.30928">
        <ele>481.7</ele>
        <time>2011-05-22T07:58:49Z</time>
      </trkpt>
      <trkpt lat="43.9657" lon="7.30931">
        <ele>482</ele>
        <time>2011-05-22T07:58:51Z</time>
      </trkpt>
      <trkpt lat="43.96564" lon="7.30933">
        <ele>482.1</ele>
        <time>2011-05-22T07:58:53Z</time>
      </trkpt>
      <trkpt lat="43.96558" lon="7.30935">
        <ele>481.8</ele>
        <time>2011-05-22T07:58:55Z</time>
      </trkpt>
      <trkpt lat="43.96551" lon="7.30937">
        <ele>481.8</ele>
        <time>2011-05-22T07:58:57Z</time>
      </trkpt>
      <trkpt lat="43.96545" lon="7.30939">
        <ele>481.9</ele>
        <time>2011-05-22T07:58:59Z</time>
      </trkpt>
      <trkpt lat="43.96541" lon="7.30939">
        <ele>482.1</ele>
        <time>2011-05-22T07:59:00Z</time>
      </trkpt>
      <trkpt lat="43.96514" lon="7.30932">
        <ele>482.7</ele>
        <time>2011-05-22T07:59:09Z</time>
      </trkpt>
      <trkpt lat="43.96509" lon="7.30926">
        <ele>483.7</ele>
        <time>2011-05-22T07:59:11Z</time>
      </trkpt>
      <trkpt lat="43.96505" lon="7.30918">
        <ele>484.2</ele>
        <time>2011-05-22T07:59:13Z</time>
      </trkpt>
      <trkpt lat="43.96504" lon="7.30906">
        <ele>484.8</ele>
        <time>2011-05-22T07:59:16Z</time>
      </trkpt>
      <trkpt lat="43.96509" lon="7.30896">
        <ele>485.7</ele>
        <time>2011-05-22T07:59:19Z</time>
      </trkpt>
      <trkpt lat="43.96511" lon="7.30894">
        <ele>486</ele>
        <time>2011-05-22T07:59:20Z</time>
      </trkpt>
      <trkpt lat="43.96522" lon="7.30886">
        <ele>486.3</ele>
        <time>2011-05-22T07:59:24Z</time>
      </trkpt>
      <trkpt lat="43.96527" lon="7.30881">
        <ele>486.8</ele>
        <time>2011-05-22T07:59:26Z</time>
      </trkpt>
      <trkpt lat="43.96532" lon="7.30876">
        <ele>487.3</ele>
        <time>2011-05-22T07:59:28Z</time>
      </trkpt>
      <trkpt lat="43.96537" lon="7.3087">
        <ele>487.4</ele>
        <time>2011-05-22T07:59:30Z</time>
      </trkpt>
      <trkpt lat="43.96541" lon="7.30864">
        <ele>487.5</ele>
        <time>2011-05-22T07:59:32Z</time>
      </trkpt>
      <trkpt lat="43.96544" lon="7.30857">
        <ele>487.7</ele>
        <time>2011-05-22T07:59:34Z</time>
      </trkpt>
      <trkpt lat="43.96545" lon="7.30849">
        <ele>488.5</ele>
        <time>2011-05-22T07:59:36Z</time>
      </trkpt>
      <trkpt lat="43.96544" lon="7.3084">
        <ele>488.9</ele>
        <time>2011-05-22T07:59:38Z</time>
      </trkpt>
      <trkpt lat="43.96541" lon="7.30832">
        <ele>489.5</ele>
        <time>2011-05-22T07:59:40Z</time>
      </trkpt>
      <trkpt lat="43.96539" lon="7.30824">
        <ele>489.9</ele>
        <time>2011-05-22T07:59:42Z</time>
      </trkpt>
      <trkpt lat="43.96536" lon="7.30816">
        <ele>490.2</ele>
        <time>2011-05-22T07:59:44Z</time>
      </trkpt>
      <trkpt lat="43.96533" lon="7.30808">
        <ele>490.5</ele>
        <time>2011-05-22T07:59:46Z</time>
      </trkpt>
      <trkpt lat="43.9653" lon="7.30801">
        <ele>490.7</ele>
        <time>2011-05-22T07:59:48Z</time>
      </trkpt>
      <trkpt lat="43.96526" lon="7.30795">
        <ele>490.8</ele>
        <time>2011-05-22T07:59:50Z</time>
      </trkpt>
      <trkpt lat="43.9653" lon="7.3084">
        <ele>491.8</ele>
        <time>2011-05-22T08:00:07Z</time>
      </trkpt>
      <trkpt lat="43.96531" lon="7.30852">
        <ele>493.6</ele>
        <time>2011-05-22T08:00:10Z</time>
      </trkpt>
      <trkpt lat="43.9653" lon="7.30864">
        <ele>494.3</ele>
        <time>2011-05-22T08:00:13Z</time>
      </trkpt>
      <trkpt lat="43.96526" lon="7.30873">
        <ele>495.5</ele>
        <time>2011-05-22T08:00:16Z</time>
      </trkpt>
      <trkpt lat="43.96519" lon="7.3088">
        <ele>496.8</ele>
        <time>2011-05-22T08:00:19Z</time>
      </trkpt>
      <trkpt lat="43.96512" lon="7.30886">
        <ele>497.1</ele>
        <time>2011-05-22T08:00:22Z</time>
      </trkpt>
      <trkpt lat="43.96509" lon="7.30887">
        <ele>497.2</ele>
        <time>2011-05-22T08:00:23Z</time>
      </trkpt>
      <trkpt lat="43.96496" lon="7.30896">
        <ele>497.8</ele>
        <time>2011-05-22T08:00:28Z</time>
      </trkpt>
      <trkpt lat="43.96491" lon="7.30901">
        <ele>498.2</ele>
        <time>2011-05-22T08:00:30Z</time>
      </trkpt>
      <trkpt lat="43.96487" lon="7.30907">
        <ele>498.5</ele>
        <time>2011-05-22T08:00:32Z</time>
      </trkpt>
      <trkpt lat="43.96482" lon="7.30916">
        <ele>499.2</ele>
        <time>2011-05-22T08:00:34Z</time>
      </trkpt>
      <trkpt lat="43.96481" lon="7.30921">
        <ele>499.4</ele>
        <time>2011-05-22T08:00:35Z</time>
      </trkpt>
      <trkpt lat="43.96479" lon="7.30927">
        <ele>499.6</ele>
        <time>2011-05-22T08:00:36Z</time>
      </trkpt>
      <trkpt lat="43.96476" lon="7.30939">
        <ele>500</ele>
        <time>2011-05-22T08:00:38Z</time>
      </trkpt>
      <trkpt lat="43.96473" lon="7.3095">
        <ele>500.6</ele>
        <time>2011-05-22T08:00:40Z</time>
      </trkpt>
      <trkpt lat="43.96471" lon="7.30959">
        <ele>500.8</ele>
        <time>2011-05-22T08:00:42Z</time>
      </trkpt>
      <trkpt lat="43.96468" lon="7.30968">
        <ele>500.8</ele>
        <time>2011-05-22T08:00:44Z</time>
      </trkpt>
      <trkpt lat="43.96465" lon="7.30978">
        <ele>501.6</ele>
        <time>2011-05-22T08:00:47Z</time>
      </trkpt>
      <trkpt lat="43.96461" lon="7.30987">
        <ele>501.8</ele>
        <time>2011-05-22T08:00:50Z</time>
      </trkpt>
      <trkpt lat="43.96455" lon="7.30994">
        <ele>502.3</ele>
        <time>2011-05-22T08:00:53Z</time>
      </trkpt>
      <trkpt lat="43.9645" lon="7.31">
        <ele>503.7</ele>
        <time>2011-05-22T08:00:56Z</time>
      </trkpt>
      <trkpt lat="43.96446" lon="7.31008">
        <ele>504.1</ele>
        <time>2011-05-22T08:00:59Z</time>
      </trkpt>
      <trkpt lat="43.96444" lon="7.31019">
        <ele>504.7</ele>
        <time>2011-05-22T08:01:02Z</time>
      </trkpt>
      <trkpt lat="43.96444" lon="7.31029">
        <ele>505.2</ele>
        <time>2011-05-22T08:01:05Z</time>
      </trkpt>
      <trkpt lat="43.96446" lon="7.31039">
        <ele>505</ele>
        <time>2011-05-22T08:01:08Z</time>
      </trkpt>
      <trkpt lat="43.96448" lon="7.31048">
        <ele>505.3</ele>
        <time>2011-05-22T08:01:11Z</time>
      </trkpt>
      <trkpt lat="43.96451" lon="7.31057">
        <ele>506.3</ele>
        <time>2011-05-22T08:01:14Z</time>
      </trkpt>
      <trkpt lat="43.96453" lon="7.31066">
        <ele>507</ele>
        <time>2011-05-22T08:01:17Z</time>
      </trkpt>
      <trkpt lat="43.96455" lon="7.31075">
        <ele>506.6</ele>
        <time>2011-05-22T08:01:20Z</time>
      </trkpt>
      <trkpt lat="43.96455" lon="7.31087">
        <ele>507.5</ele>
        <time>2011-05-22T08:01:24Z</time>
      </trkpt>
      <trkpt lat="43.96455" lon="7.3109">
        <ele>507.5</ele>
        <time>2011-05-22T08:01:25Z</time>
      </trkpt>
      <trkpt lat="43.96451" lon="7.31108">
        <ele>507.4</ele>
        <time>2011-05-22T08:01:31Z</time>
      </trkpt>
      <trkpt lat="43.96448" lon="7.3112">
        <ele>509</ele>
        <time>2011-05-22T08:01:35Z</time>
      </trkpt>
      <trkpt lat="43.96446" lon="7.31131">
        <ele>509.5</ele>
        <time>2011-05-22T08:01:39Z</time>
      </trkpt>
      <trkpt lat="43.96446" lon="7.31142">
        <ele>510</ele>
        <time>2011-05-22T08:01:43Z</time>
      </trkpt>
      <trkpt lat="43.96446" lon="7.31153">
        <ele>509.8</ele>
        <time>2011-05-22T08:01:47Z</time>
      </trkpt>
      <trkpt lat="43.96444" lon="7.31164">
        <ele>510.8</ele>
        <time>2011-05-22T08:01:52Z</time>
      </trkpt>
      <trkpt lat="43.96437" lon="7.31169">
        <ele>511.8</ele>
        <time>2011-05-22T08:01:58Z</time>
      </trkpt>
      <trkpt lat="43.96432" lon="7.31179">
        <ele>512.2</ele>
        <time>2011-05-22T08:02:01Z</time>
      </trkpt>
      <trkpt lat="43.96429" lon="7.31189">
        <ele>511.9</ele>
        <time>2011-05-22T08:02:04Z</time>
      </trkpt>
      <trkpt lat="43.96423" lon="7.31198">
        <ele>512.3</ele>
        <time>2011-05-22T08:02:07Z</time>
      </trkpt>
      <trkpt lat="43.96419" lon="7.31203">
        <ele>512.6</ele>
        <time>2011-05-22T08:02:09Z</time>
      </trkpt>
      <trkpt lat="43.96412" lon="7.31211">
        <ele>513.1</ele>
        <time>2011-05-22T08:02:12Z</time>
      </trkpt>
      <trkpt lat="43.96407" lon="7.31218">
        <ele>513.3</ele>
        <time>2011-05-22T08:02:14Z</time>
      </trkpt>
      <trkpt lat="43.96399" lon="7.31225">
        <ele>514.2</ele>
        <time>2011-05-22T08:02:16Z</time>
      </trkpt>
      <trkpt lat="43.96395" lon="7.31228">
        <ele>514.5</ele>
        <time>2011-05-22T08:02:17Z</time>
      </trkpt>
      <trkpt lat="43.96391" lon="7.31232">
        <ele>514.6</ele>
        <time>2011-05-22T08:02:18Z</time>
      </trkpt>
      <trkpt lat="43.96388" lon="7.31235">
        <ele>514.6</ele>
        <time>2011-05-22T08:02:19Z</time>
      </trkpt>
      <trkpt lat="43.96379" lon="7.3124">
        <ele>514.8</ele>
        <time>2011-05-22T08:02:21Z</time>
      </trkpt>
      <trkpt lat="43.96371" lon="7.31242">
        <ele>515</ele>
        <time>2011-05-22T08:02:23Z</time>
      </trkpt>
      <trkpt lat="43.96362" lon="7.31242">
        <ele>514.7</ele>
        <time>2011-05-22T08:02:25Z</time>
      </trkpt>
      <trkpt lat="43.96358" lon="7.31241">
        <ele>514.4</ele>
        <time>2011-05-22T08:02:26Z</time>
      </trkpt>
      <trkpt lat="43.96346" lon="7.31239">
        <ele>514.9</ele>
        <time>2011-05-22T08:02:29Z</time>
      </trkpt>
      <trkpt lat="43.96339" lon="7.31235">
        <ele>515.7</ele>
        <time>2011-05-22T08:02:31Z</time>
      </trkpt>
      <trkpt lat="43.96333" lon="7.31229">
        <ele>516.5</ele>
        <time>2011-05-22T08:02:33Z</time>
      </trkpt>
      <trkpt lat="43.96327" lon="7.31223">
        <ele>515.9</ele>
        <time>2011-05-22T08:02:35Z</time>
      </trkpt>
      <trkpt lat="43.96323" lon="7.31216">
        <ele>516.4</ele>
        <time>2011-05-22T08:02:37Z</time>
      </trkpt>
      <trkpt lat="43.96318" lon="7.3121">
        <ele>517.3</ele>
        <time>2011-05-22T08:02:39Z</time>
      </trkpt>
      <trkpt lat="43.96312" lon="7.31205">
        <ele>517.3</ele>
        <time>2011-05-22T08:02:41Z</time>
      </trkpt>
      <trkpt lat="43.96307" lon="7.312">
        <ele>517.2</ele>
        <time>2011-05-22T08:02:43Z</time>
      </trkpt>
      <trkpt lat="43.96302" lon="7.31196">
        <ele>518.4</ele>
        <time>2011-05-22T08:02:45Z</time>
      </trkpt>
      <trkpt lat="43.96296" lon="7.3119">
        <ele>518.6</ele>
        <time>2011-05-22T08:02:47Z</time>
      </trkpt>
      <trkpt lat="43.9629" lon="7.31184">
        <ele>518.3</ele>
        <time>2011-05-22T08:02:49Z</time>
      </trkpt>
      <trkpt lat="43.96286" lon="7.31177">
        <ele>518.8</ele>
        <time>2011-05-22T08:02:51Z</time>
      </trkpt>
      <trkpt lat="43.96283" lon="7.31169">
        <ele>519.3</ele>
        <time>2011-05-22T08:02:53Z</time>
      </trkpt>
      <trkpt lat="43.96282" lon="7.3116">
        <ele>519.9</ele>
        <time>2011-05-22T08:02:55Z</time>
      </trkpt>
      <trkpt lat="43.96281" lon="7.31152">
        <ele>520.2</ele>
        <time>2011-05-22T08:02:57Z</time>
      </trkpt>
      <trkpt lat="43.96278" lon="7.31144">
        <ele>520.4</ele>
        <time>2011-05-22T08:02:59Z</time>
      </trkpt>
      <trkpt lat="43.96274" lon="7.31138">
        <ele>520.7</ele>
        <time>2011-05-22T08:03:01Z</time>
      </trkpt>
      <trkpt lat="43.9627" lon="7.31131">
        <ele>521.1</ele>
        <time>2011-05-22T08:03:03Z</time>
      </trkpt>
      <trkpt lat="43.96266" lon="7.31124">
        <ele>521.4</ele>
        <time>2011-05-22T08:03:05Z</time>
      </trkpt>
      <trkpt lat="43.96261" lon="7.31119">
        <ele>521.6</ele>
        <time>2011-05-22T08:03:07Z</time>
      </trkpt>
      <trkpt lat="43.96256" lon="7.31114">
        <ele>521.7</ele>
        <time>2011-05-22T08:03:09Z</time>
      </trkpt>
      <trkpt lat="43.96251" lon="7.31109">
        <ele>521.8</ele>
        <time>2011-05-22T08:03:11Z</time>
      </trkpt>
      <trkpt lat="43.96246" lon="7.31104">
        <ele>522.6</ele>
        <time>2011-05-22T08:03:13Z</time>
      </trkpt>
      <trkpt lat="43.96241" lon="7.31099">
        <ele>523.1</ele>
        <time>2011-05-22T08:03:15Z</time>
      </trkpt>
      <trkpt lat="43.96235" lon="7.31095">
        <ele>523.5</ele>
        <time>2011-05-22T08:03:17Z</time>
      </trkpt>
      <trkpt lat="43.9623" lon="7.31091">
        <ele>523.6</ele>
        <time>2011-05-22T08:03:19Z</time>
      </trkpt>
      <trkpt lat="43.96223" lon="7.31089">
        <ele>523.5</ele>
        <time>2011-05-22T08:03:21Z</time>
      </trkpt>
      <trkpt lat="43.96217" lon="7.31098">
        <ele>524.2</ele>
        <time>2011-05-22T08:03:24Z</time>
      </trkpt>
      <trkpt lat="43.96215" lon="7.31108">
        <ele>524.6</ele>
        <time>2011-05-22T08:03:26Z</time>
      </trkpt>
      <trkpt lat="43.96214" lon="7.31113">
        <ele>524.8</ele>
        <time>2011-05-22T08:03:27Z</time>
      </trkpt>
      <trkpt lat="43.96212" lon="7.31127">
        <ele>524.1</ele>
        <time>2011-05-22T08:03:30Z</time>
      </trkpt>
      <trkpt lat="43.96214" lon="7.31136">
        <ele>524.4</ele>
        <time>2011-05-22T08:03:32Z</time>
      </trkpt>
      <trkpt lat="43.9622" lon="7.31144">
        <ele>525</ele>
        <time>2011-05-22T08:03:35Z</time>
      </trkpt>
      <trkpt lat="43.96226" lon="7.31153">
        <ele>525.1</ele>
        <time>2011-05-22T08:03:38Z</time>
      </trkpt>
      <trkpt lat="43.96229" lon="7.31161">
        <ele>525.4</ele>
        <time>2011-05-22T08:03:40Z</time>
      </trkpt>
      <trkpt lat="43.9623" lon="7.31169">
        <ele>526.3</ele>
        <time>2011-05-22T08:03:42Z</time>
      </trkpt>
      <trkpt lat="43.96231" lon="7.31179">
        <ele>526.9</ele>
        <time>2011-05-22T08:03:44Z</time>
      </trkpt>
      <trkpt lat="43.96232" lon="7.31188">
        <ele>527.3</ele>
        <time>2011-05-22T08:03:46Z</time>
      </trkpt>
      <trkpt lat="43.96233" lon="7.31196">
        <ele>527.2</ele>
        <time>2011-05-22T08:03:48Z</time>
      </trkpt>
      <trkpt lat="43.96234" lon="7.31205">
        <ele>526.9</ele>
        <time>2011-05-22T08:03:50Z</time>
      </trkpt>
      <trkpt lat="43.96235" lon="7.31213">
        <ele>527.1</ele>
        <time>2011-05-22T08:03:52Z</time>
      </trkpt>
      <trkpt lat="43.96237" lon="7.31221">
        <ele>527.6</ele>
        <time>2011-05-22T08:03:54Z</time>
      </trkpt>
      <trkpt lat="43.96241" lon="7.31229">
        <ele>528.1</ele>
        <time>2011-05-22T08:03:56Z</time>
      </trkpt>
      <trkpt lat="43.96244" lon="7.31236">
        <ele>528.9</ele>
        <time>2011-05-22T08:03:58Z</time>
      </trkpt>
      <trkpt lat="43.96247" lon="7.31244">
        <ele>529.4</ele>
        <time>2011-05-22T08:04:00Z</time>
      </trkpt>
      <trkpt lat="43.96251" lon="7.31252">
        <ele>529.8</ele>
        <time>2011-05-22T08:04:02Z</time>
      </trkpt>
      <trkpt lat="43.96254" lon="7.31259">
        <ele>530.8</ele>
        <time>2011-05-22T08:04:04Z</time>
      </trkpt>
      <trkpt lat="43.9626" lon="7.31265">
        <ele>531.4</ele>
        <time>2011-05-22T08:04:06Z</time>
      </trkpt>
      <trkpt lat="43.96266" lon="7.31269">
        <ele>531.6</ele>
        <time>2011-05-22T08:04:08Z</time>
      </trkpt>
      <trkpt lat="43.96272" lon="7.31274">
        <ele>531.7</ele>
        <time>2011-05-22T08:04:10Z</time>
      </trkpt>
      <trkpt lat="43.96279" lon="7.31277">
        <ele>531.9</ele>
        <time>2011-05-22T08:04:12Z</time>
      </trkpt>
      <trkpt lat="43.96285" lon="7.31281">
        <ele>532.2</ele>
        <time>2011-05-22T08:04:14Z</time>
      </trkpt>
      <trkpt lat="43.96291" lon="7.31285">
        <ele>533.1</ele>
        <time>2011-05-22T08:04:16Z</time>
      </trkpt>
      <trkpt lat="43.96297" lon="7.31291">
        <ele>534.1</ele>
        <time>2011-05-22T08:04:18Z</time>
      </trkpt>
      <trkpt lat="43.96301" lon="7.31298">
        <ele>533.4</ele>
        <time>2011-05-22T08:04:20Z</time>
      </trkpt>
      <trkpt lat="43.96305" lon="7.31306">
        <ele>533</ele>
        <time>2011-05-22T08:04:22Z</time>
      </trkpt>
      <trkpt lat="43.96311" lon="7.31314">
        <ele>533.7</ele>
        <time>2011-05-22T08:04:25Z</time>
      </trkpt>
      <trkpt lat="43.96317" lon="7.31321">
        <ele>534</ele>
        <time>2011-05-22T08:04:28Z</time>
      </trkpt>
      <trkpt lat="43.9632" lon="7.31324">
        <ele>534.4</ele>
        <time>2011-05-22T08:04:29Z</time>
      </trkpt>
      <trkpt lat="43.96329" lon="7.31333">
        <ele>535.4</ele>
        <time>2011-05-22T08:04:32Z</time>
      </trkpt>
      <trkpt lat="43.96322" lon="7.31333">
        <ele>536.6</ele>
        <time>2011-05-22T08:04:38Z</time>
      </trkpt>
      <trkpt lat="43.96316" lon="7.31326">
        <ele>537.1</ele>
        <time>2011-05-22T08:04:41Z</time>
      </trkpt>
      <trkpt lat="43.9631" lon="7.3132">
        <ele>537.7</ele>
        <time>2011-05-22T08:04:44Z</time>
      </trkpt>
      <trkpt lat="43.96304" lon="7.31315">
        <ele>537.1</ele>
        <time>2011-05-22T08:04:47Z</time>
      </trkpt>
      <trkpt lat="43.96299" lon="7.31307">
        <ele>537.8</ele>
        <time>2011-05-22T08:04:50Z</time>
      </trkpt>
      <trkpt lat="43.96294" lon="7.313">
        <ele>538.4</ele>
        <time>2011-05-22T08:04:53Z</time>
      </trkpt>
      <trkpt lat="43.96289" lon="7.31294">
        <ele>539</ele>
        <time>2011-05-22T08:04:56Z</time>
      </trkpt>
      <trkpt lat="43.96283" lon="7.31289">
        <ele>539.5</ele>
        <time>2011-05-22T08:04:59Z</time>
      </trkpt>
      <trkpt lat="43.96277" lon="7.31285">
        <ele>540</ele>
        <time>2011-05-22T08:05:02Z</time>
      </trkpt>
      <trkpt lat="43.96269" lon="7.31283">
        <ele>540.4</ele>
        <time>2011-05-22T08:05:05Z</time>
      </trkpt>
      <trkpt lat="43.96262" lon="7.31279">
        <ele>540.5</ele>
        <time>2011-05-22T08:05:08Z</time>
      </trkpt>
      <trkpt lat="43.96255" lon="7.31274">
        <ele>541</ele>
        <time>2011-05-22T08:05:11Z</time>
      </trkpt>
      <trkpt lat="43.96249" lon="7.31268">
        <ele>541.6</ele>
        <time>2011-05-22T08:05:14Z</time>
      </trkpt>
      <trkpt lat="43.96244" lon="7.3126">
        <ele>542.1</ele>
        <time>2011-05-22T08:05:17Z</time>
      </trkpt>
      <trkpt lat="43.9624" lon="7.31252">
        <ele>542.6</ele>
        <time>2011-05-22T08:05:21Z</time>
      </trkpt>
      <trkpt lat="43.96236" lon="7.31244">
        <ele>542.8</ele>
        <time>2011-05-22T08:05:24Z</time>
      </trkpt>
      <trkpt lat="43.96233" lon="7.31237">
        <ele>542.9</ele>
        <time>2011-05-22T08:05:26Z</time>
      </trkpt>
      <trkpt lat="43.96229" lon="7.31229">
        <ele>542.9</ele>
        <time>2011-05-22T08:05:28Z</time>
      </trkpt>
      <trkpt lat="43.96226" lon="7.3122">
        <ele>543.5</ele>
        <time>2011-05-22T08:05:30Z</time>
      </trkpt>
      <trkpt lat="43.96224" lon="7.31216">
        <ele>543.9</ele>
        <time>2011-05-22T08:05:31Z</time>
      </trkpt>
      <trkpt lat="43.96215" lon="7.31212">
        <ele>544.5</ele>
        <time>2011-05-22T08:05:35Z</time>
      </trkpt>
      <trkpt lat="43.96213" lon="7.31222">
        <ele>545.4</ele>
        <time>2011-05-22T08:05:38Z</time>
      </trkpt>
      <trkpt lat="43.96217" lon="7.3123">
        <ele>545.1</ele>
        <time>2011-05-22T08:05:41Z</time>
      </trkpt>
      <trkpt lat="43.96222" lon="7.31238">
        <ele>545.4</ele>
        <time>2011-05-22T08:05:44Z</time>
      </trkpt>
      <trkpt lat="43.96227" lon="7.31246">
        <ele>545.6</ele>
        <time>2011-05-22T08:05:47Z</time>
      </trkpt>
      <trkpt lat="43.96231" lon="7.31254">
        <ele>546.2</ele>
        <time>2011-05-22T08:05:50Z</time>
      </trkpt>
      <trkpt lat="43.96235" lon="7.31262">
        <ele>546.7</ele>
        <time>2011-05-22T08:05:53Z</time>
      </trkpt>
      <trkpt lat="43.96239" lon="7.3127">
        <ele>547.1</ele>
        <time>2011-05-22T08:05:56Z</time>
      </trkpt>
      <trkpt lat="43.96244" lon="7.31278">
        <ele>548</ele>
        <time>2011-05-22T08:05:59Z</time>
      </trkpt>
      <trkpt lat="43.9625" lon="7.31284">
        <ele>548.6</ele>
        <time>2011-05-22T08:06:02Z</time>
      </trkpt>
      <trkpt lat="43.96256" lon="7.31289">
        <ele>549.2</ele>
        <time>2011-05-22T08:06:05Z</time>
      </trkpt>
      <trkpt lat="43.96262" lon="7.31295">
        <ele>550.4</ele>
        <time>2011-05-22T08:06:08Z</time>
      </trkpt>
      <trkpt lat="43.96269" lon="7.31302">
        <ele>550.7</ele>
        <time>2011-05-22T08:06:11Z</time>
      </trkpt>
      <trkpt lat="43.96274" lon="7.31309">
        <ele>550.6</ele>
        <time>2011-05-22T08:06:14Z</time>
      </trkpt>
      <trkpt lat="43.96278" lon="7.31318">
        <ele>550.7</ele>
        <time>2011-05-22T08:06:17Z</time>
      </trkpt>
      <trkpt lat="43.96283" lon="7.31326">
        <ele>551.3</ele>
        <time>2011-05-22T08:06:20Z</time>
      </trkpt>
      <trkpt lat="43.96287" lon="7.31334">
        <ele>551.9</ele>
        <time>2011-05-22T08:06:23Z</time>
      </trkpt>
      <trkpt lat="43.96293" lon="7.31341">
        <ele>552.7</ele>
        <time>2011-05-22T08:06:26Z</time>
      </trkpt>
      <trkpt lat="43.96299" lon="7.31346">
        <ele>552.4</ele>
        <time>2011-05-22T08:06:29Z</time>
      </trkpt>
      <trkpt lat="43.96305" lon="7.31352">
        <ele>553.1</ele>
        <time>2011-05-22T08:06:32Z</time>
      </trkpt>
      <trkpt lat="43.96307" lon="7.31355">
        <ele>552.9</ele>
        <time>2011-05-22T08:06:33Z</time>
      </trkpt>
      <trkpt lat="43.96317" lon="7.31367">
        <ele>553.3</ele>
        <time>2011-05-22T08:06:38Z</time>
      </trkpt>
      <trkpt lat="43.96323" lon="7.31373">
        <ele>554</ele>
        <time>2011-05-22T08:06:41Z</time>
      </trkpt>
      <trkpt lat="43.96329" lon="7.31375">
        <ele>554</ele>
        <time>2011-05-22T08:06:44Z</time>
      </trkpt>
      <trkpt lat="43.96337" lon="7.31375">
        <ele>554</ele>
        <time>2011-05-22T08:06:47Z</time>
      </trkpt>
      <trkpt lat="43.96345" lon="7.31372">
        <ele>554.7</ele>
        <time>2011-05-22T08:06:50Z</time>
      </trkpt>
      <trkpt lat="43.96352" lon="7.31367">
        <ele>555.1</ele>
        <time>2011-05-22T08:06:53Z</time>
      </trkpt>
      <trkpt lat="43.9636" lon="7.31362">
        <ele>555.5</ele>
        <time>2011-05-22T08:06:56Z</time>
      </trkpt>
      <trkpt lat="43.96364" lon="7.31372">
        <ele>556.8</ele>
        <time>2011-05-22T08:07:00Z</time>
      </trkpt>
      <trkpt lat="43.96357" lon="7.31378">
        <ele>558</ele>
        <time>2011-05-22T08:07:03Z</time>
      </trkpt>
      <trkpt lat="43.96351" lon="7.3138">
        <ele>558.2</ele>
        <time>2011-05-22T08:07:05Z</time>
      </trkpt>
      <trkpt lat="43.96345" lon="7.31382">
        <ele>558</ele>
        <time>2011-05-22T08:07:07Z</time>
      </trkpt>
      <trkpt lat="43.96337" lon="7.31383">
        <ele>558.2</ele>
        <time>2011-05-22T08:07:10Z</time>
      </trkpt>
      <trkpt lat="43.96329" lon="7.31384">
        <ele>558.6</ele>
        <time>2011-05-22T08:07:13Z</time>
      </trkpt>
      <trkpt lat="43.9632" lon="7.31383">
        <ele>558.7</ele>
        <time>2011-05-22T08:07:16Z</time>
      </trkpt>
      <trkpt lat="43.96313" lon="7.31375">
        <ele>559.2</ele>
        <time>2011-05-22T08:07:19Z</time>
      </trkpt>
      <trkpt lat="43.96307" lon="7.31368">
        <ele>559.1</ele>
        <time>2011-05-22T08:07:22Z</time>
      </trkpt>
      <trkpt lat="43.96299" lon="7.31363">
        <ele>559.1</ele>
        <time>2011-05-22T08:07:25Z</time>
      </trkpt>
      <trkpt lat="43.9629" lon="7.31361">
        <ele>559.8</ele>
        <time>2011-05-22T08:07:28Z</time>
      </trkpt>
      <trkpt lat="43.96284" lon="7.31358">
        <ele>560.4</ele>
        <time>2011-05-22T08:07:30Z</time>
      </trkpt>
      <trkpt lat="43.96277" lon="7.31352">
        <ele>561</ele>
        <time>2011-05-22T08:07:33Z</time>
      </trkpt>
      <trkpt lat="43.96275" lon="7.3135">
        <ele>561.4</ele>
        <time>2011-05-22T08:07:34Z</time>
      </trkpt>
      <trkpt lat="43.96265" lon="7.31338">
        <ele>561.9</ele>
        <time>2011-05-22T08:07:39Z</time>
      </trkpt>
      <trkpt lat="43.96259" lon="7.3133">
        <ele>562.3</ele>
        <time>2011-05-22T08:07:42Z</time>
      </trkpt>
      <trkpt lat="43.96251" lon="7.31324">
        <ele>562.6</ele>
        <time>2011-05-22T08:07:45Z</time>
      </trkpt>
      <trkpt lat="43.96243" lon="7.31321">
        <ele>563</ele>
        <time>2011-05-22T08:07:48Z</time>
      </trkpt>
      <trkpt lat="43.96235" lon="7.3132">
        <ele>564.7</ele>
        <time>2011-05-22T08:07:51Z</time>
      </trkpt>
      <trkpt lat="43.96227" lon="7.31318">
        <ele>565.7</ele>
        <time>2011-05-22T08:07:54Z</time>
      </trkpt>
      <trkpt lat="43.96219" lon="7.31315">
        <ele>565.6</ele>
        <time>2011-05-22T08:07:57Z</time>
      </trkpt>
      <trkpt lat="43.96211" lon="7.3131">
        <ele>565.6</ele>
        <time>2011-05-22T08:08:00Z</time>
      </trkpt>
      <trkpt lat="43.96203" lon="7.31305">
        <ele>566.3</ele>
        <time>2011-05-22T08:08:03Z</time>
      </trkpt>
      <trkpt lat="43.96195" lon="7.31301">
        <ele>566.7</ele>
        <time>2011-05-22T08:08:06Z</time>
      </trkpt>
      <trkpt lat="43.96188" lon="7.31295">
        <ele>566.5</ele>
        <time>2011-05-22T08:08:09Z</time>
      </trkpt>
      <trkpt lat="43.96184" lon="7.31288">
        <ele>566</ele>
        <time>2011-05-22T08:08:12Z</time>
      </trkpt>
      <trkpt lat="43.96181" lon="7.31281">
        <ele>567.3</ele>
        <time>2011-05-22T08:08:14Z</time>
      </trkpt>
      <trkpt lat="43.96177" lon="7.3127">
        <ele>568.7</ele>
        <time>2011-05-22T08:08:17Z</time>
      </trkpt>
      <trkpt lat="43.96172" lon="7.3126">
        <ele>570</ele>
        <time>2011-05-22T08:08:20Z</time>
      </trkpt>
      <trkpt lat="43.96168" lon="7.31254">
        <ele>570.2</ele>
        <time>2011-05-22T08:08:22Z</time>
      </trkpt>
      <trkpt lat="43.96163" lon="7.31249">
        <ele>570.1</ele>
        <time>2011-05-22T08:08:24Z</time>
      </trkpt>
      <trkpt lat="43.96155" lon="7.31242">
        <ele>570.7</ele>
        <time>2011-05-22T08:08:27Z</time>
      </trkpt>
      <trkpt lat="43.96148" lon="7.31238">
        <ele>570.9</ele>
        <time>2011-05-22T08:08:30Z</time>
      </trkpt>
      <trkpt lat="43.96142" lon="7.31235">
        <ele>571</ele>
        <time>2011-05-22T08:08:32Z</time>
      </trkpt>
      <trkpt lat="43.96136" lon="7.31232">
        <ele>571.2</ele>
        <time>2011-05-22T08:08:34Z</time>
      </trkpt>
      <trkpt lat="43.96133" lon="7.3123">
        <ele>571.4</ele>
        <time>2011-05-22T08:08:35Z</time>
      </trkpt>
      <trkpt lat="43.96119" lon="7.31227">
        <ele>572.1</ele>
        <time>2011-05-22T08:08:40Z</time>
      </trkpt>
      <trkpt lat="43.96113" lon="7.31226">
        <ele>571.7</ele>
        <time>2011-05-22T08:08:42Z</time>
      </trkpt>
      <trkpt lat="43.96107" lon="7.31226">
        <ele>572.1</ele>
        <time>2011-05-22T08:08:44Z</time>
      </trkpt>
      <trkpt lat="43.961" lon="7.31226">
        <ele>572.7</ele>
        <time>2011-05-22T08:08:46Z</time>
      </trkpt>
      <trkpt lat="43.96094" lon="7.31227">
        <ele>573.3</ele>
        <time>2011-05-22T08:08:48Z</time>
      </trkpt>
      <trkpt lat="43.96086" lon="7.31233">
        <ele>573.6</ele>
        <time>2011-05-22T08:08:51Z</time>
      </trkpt>
      <trkpt lat="43.9608" lon="7.31241">
        <ele>573.5</ele>
        <time>2011-05-22T08:08:54Z</time>
      </trkpt>
      <trkpt lat="43.96074" lon="7.31249">
        <ele>574.2</ele>
        <time>2011-05-22T08:08:57Z</time>
      </trkpt>
      <trkpt lat="43.96068" lon="7.31257">
        <ele>575.1</ele>
        <time>2011-05-22T08:09:00Z</time>
      </trkpt>
      <trkpt lat="43.96062" lon="7.31264">
        <ele>575.8</ele>
        <time>2011-05-22T08:09:03Z</time>
      </trkpt>
      <trkpt lat="43.96054" lon="7.31271">
        <ele>576.1</ele>
        <time>2011-05-22T08:09:06Z</time>
      </trkpt>
      <trkpt lat="43.96046" lon="7.31274">
        <ele>577</ele>
        <time>2011-05-22T08:09:09Z</time>
      </trkpt>
      <trkpt lat="43.96038" lon="7.31277">
        <ele>577.8</ele>
        <time>2011-05-22T08:09:12Z</time>
      </trkpt>
      <trkpt lat="43.96031" lon="7.31285">
        <ele>578.4</ele>
        <time>2011-05-22T08:09:15Z</time>
      </trkpt>
      <trkpt lat="43.96025" lon="7.31294">
        <ele>578.5</ele>
        <time>2011-05-22T08:09:18Z</time>
      </trkpt>
      <trkpt lat="43.96019" lon="7.31303">
        <ele>579.8</ele>
        <time>2011-05-22T08:09:21Z</time>
      </trkpt>
      <trkpt lat="43.96013" lon="7.31311">
        <ele>579.8</ele>
        <time>2011-05-22T08:09:24Z</time>
      </trkpt>
      <trkpt lat="43.96009" lon="7.3132">
        <ele>580.2</ele>
        <time>2011-05-22T08:09:27Z</time>
      </trkpt>
      <trkpt lat="43.96007" lon="7.31331">
        <ele>581</ele>
        <time>2011-05-22T08:09:30Z</time>
      </trkpt>
      <trkpt lat="43.96007" lon="7.31343">
        <ele>581.4</ele>
        <time>2011-05-22T08:09:33Z</time>
      </trkpt>
      <trkpt lat="43.96009" lon="7.31354">
        <ele>582</ele>
        <time>2011-05-22T08:09:36Z</time>
      </trkpt>
      <trkpt lat="43.9601" lon="7.31358">
        <ele>582.2</ele>
        <time>2011-05-22T08:09:37Z</time>
      </trkpt>
      <trkpt lat="43.96014" lon="7.31377">
        <ele>582.7</ele>
        <time>2011-05-22T08:09:42Z</time>
      </trkpt>
      <trkpt lat="43.96013" lon="7.31386">
        <ele>583.2</ele>
        <time>2011-05-22T08:09:44Z</time>
      </trkpt>
      <trkpt lat="43.96011" lon="7.31397">
        <ele>583.7</ele>
        <time>2011-05-22T08:09:47Z</time>
      </trkpt>
      <trkpt lat="43.96008" lon="7.31409">
        <ele>584</ele>
        <time>2011-05-22T08:09:50Z</time>
      </trkpt>
      <trkpt lat="43.96004" lon="7.3142">
        <ele>585.4</ele>
        <time>2011-05-22T08:09:53Z</time>
      </trkpt>
      <trkpt lat="43.96" lon="7.3143">
        <ele>586.2</ele>
        <time>2011-05-22T08:09:56Z</time>
      </trkpt>
      <trkpt lat="43.95996" lon="7.31441">
        <ele>586.2</ele>
        <time>2011-05-22T08:09:59Z</time>
      </trkpt>
      <trkpt lat="43.95993" lon="7.31451">
        <ele>586</ele>
        <time>2011-05-22T08:10:02Z</time>
      </trkpt>
      <trkpt lat="43.95989" lon="7.31462">
        <ele>586.6</ele>
        <time>2011-05-22T08:10:05Z</time>
      </trkpt>
      <trkpt lat="43.95986" lon="7.31472">
        <ele>587.4</ele>
        <time>2011-05-22T08:10:08Z</time>
      </trkpt>
      <trkpt lat="43.95982" lon="7.31483">
        <ele>588.1</ele>
        <time>2011-05-22T08:10:11Z</time>
      </trkpt>
      <trkpt lat="43.95978" lon="7.31493">
        <ele>588.5</ele>
        <time>2011-05-22T08:10:14Z</time>
      </trkpt>
      <trkpt lat="43.95976" lon="7.31504">
        <ele>588.8</ele>
        <time>2011-05-22T08:10:17Z</time>
      </trkpt>
      <trkpt lat="43.95974" lon="7.31516">
        <ele>589.4</ele>
        <time>2011-05-22T08:10:20Z</time>
      </trkpt>
      <trkpt lat="43.95974" lon="7.31527">
        <ele>589.9</ele>
        <time>2011-05-22T08:10:23Z</time>
      </trkpt>
      <trkpt lat="43.95977" lon="7.31537">
        <ele>590.2</ele>
        <time>2011-05-22T08:10:26Z</time>
      </trkpt>
      <trkpt lat="43.95982" lon="7.31545">
        <ele>590.1</ele>
        <time>2011-05-22T08:10:29Z</time>
      </trkpt>
      <trkpt lat="43.95988" lon="7.31552">
        <ele>591.2</ele>
        <time>2011-05-22T08:10:32Z</time>
      </trkpt>
      <trkpt lat="43.95995" lon="7.31558">
        <ele>591.9</ele>
        <time>2011-05-22T08:10:35Z</time>
      </trkpt>
      <trkpt lat="43.96003" lon="7.31563">
        <ele>593.3</ele>
        <time>2011-05-22T08:10:38Z</time>
      </trkpt>
      <trkpt lat="43.96005" lon="7.31565">
        <ele>593.6</ele>
        <time>2011-05-22T08:10:39Z</time>
      </trkpt>
      <trkpt lat="43.96017" lon="7.31571">
        <ele>593.8</ele>
        <time>2011-05-22T08:10:44Z</time>
      </trkpt>
      <trkpt lat="43.96024" lon="7.31577">
        <ele>594.3</ele>
        <time>2011-05-22T08:10:47Z</time>
      </trkpt>
      <trkpt lat="43.9603" lon="7.31585">
        <ele>595.2</ele>
        <time>2011-05-22T08:10:50Z</time>
      </trkpt>
      <trkpt lat="43.96037" lon="7.31591">
        <ele>595.5</ele>
        <time>2011-05-22T08:10:53Z</time>
      </trkpt>
      <trkpt lat="43.96039" lon="7.31593">
        <ele>595.6</ele>
        <time>2011-05-22T08:10:54Z</time>
      </trkpt>
      <trkpt lat="43.96046" lon="7.31604">
        <ele>596.1</ele>
        <time>2011-05-22T08:10:58Z</time>
      </trkpt>
      <trkpt lat="43.96047" lon="7.31616">
        <ele>596.9</ele>
        <time>2011-05-22T08:11:01Z</time>
      </trkpt>
      <trkpt lat="43.96048" lon="7.31627">
        <ele>598.6</ele>
        <time>2011-05-22T08:11:04Z</time>
      </trkpt>
      <trkpt lat="43.9605" lon="7.31638">
        <ele>598.7</ele>
        <time>2011-05-22T08:11:07Z</time>
      </trkpt>
      <trkpt lat="43.96056" lon="7.31646">
        <ele>598.8</ele>
        <time>2011-05-22T08:11:10Z</time>
      </trkpt>
      <trkpt lat="43.96064" lon="7.31651">
        <ele>599.4</ele>
        <time>2011-05-22T08:11:13Z</time>
      </trkpt>
      <trkpt lat="43.96071" lon="7.31656">
        <ele>598.7</ele>
        <time>2011-05-22T08:11:16Z</time>
      </trkpt>
      <trkpt lat="43.9608" lon="7.3166">
        <ele>599.7</ele>
        <time>2011-05-22T08:11:19Z</time>
      </trkpt>
      <trkpt lat="43.96087" lon="7.31667">
        <ele>599.7</ele>
        <time>2011-05-22T08:11:22Z</time>
      </trkpt>
      <trkpt lat="43.96093" lon="7.31676">
        <ele>600.4</ele>
        <time>2011-05-22T08:11:25Z</time>
      </trkpt>
      <trkpt lat="43.96098" lon="7.31685">
        <ele>600.8</ele>
        <time>2011-05-22T08:11:28Z</time>
      </trkpt>
      <trkpt lat="43.96103" lon="7.31694">
        <ele>601.5</ele>
        <time>2011-05-22T08:11:31Z</time>
      </trkpt>
      <trkpt lat="43.96107" lon="7.31703">
        <ele>601.8</ele>
        <time>2011-05-22T08:11:34Z</time>
      </trkpt>
      <trkpt lat="43.96112" lon="7.31712">
        <ele>602.1</ele>
        <time>2011-05-22T08:11:37Z</time>
      </trkpt>
      <trkpt lat="43.96117" lon="7.3172">
        <ele>603.2</ele>
        <time>2011-05-22T08:11:40Z</time>
      </trkpt>
      <trkpt lat="43.96119" lon="7.31722">
        <ele>603.6</ele>
        <time>2011-05-22T08:11:41Z</time>
      </trkpt>
      <trkpt lat="43.96125" lon="7.31739">
        <ele>604</ele>
        <time>2011-05-22T08:11:46Z</time>
      </trkpt>
      <trkpt lat="43.96124" lon="7.31751">
        <ele>604.4</ele>
        <time>2011-05-22T08:11:49Z</time>
      </trkpt>
      <trkpt lat="43.96121" lon="7.31762">
        <ele>604.7</ele>
        <time>2011-05-22T08:11:52Z</time>
      </trkpt>
      <trkpt lat="43.96115" lon="7.31769">
        <ele>605</ele>
        <time>2011-05-22T08:11:55Z</time>
      </trkpt>
      <trkpt lat="43.96108" lon="7.31775">
        <ele>605.2</ele>
        <time>2011-05-22T08:11:58Z</time>
      </trkpt>
      <trkpt lat="43.961" lon="7.31779">
        <ele>605.4</ele>
        <time>2011-05-22T08:12:01Z</time>
      </trkpt>
      <trkpt lat="43.96092" lon="7.3178">
        <ele>606.3</ele>
        <time>2011-05-22T08:12:04Z</time>
      </trkpt>
      <trkpt lat="43.96085" lon="7.31781">
        <ele>606.8</ele>
        <time>2011-05-22T08:12:07Z</time>
      </trkpt>
      <trkpt lat="43.96077" lon="7.31782">
        <ele>607.9</ele>
        <time>2011-05-22T08:12:10Z</time>
      </trkpt>
      <trkpt lat="43.96069" lon="7.31784">
        <ele>608.5</ele>
        <time>2011-05-22T08:12:13Z</time>
      </trkpt>
      <trkpt lat="43.96063" lon="7.31787">
        <ele>608.5</ele>
        <time>2011-05-22T08:12:16Z</time>
      </trkpt>
      <trkpt lat="43.96056" lon="7.3179">
        <ele>609.9</ele>
        <time>2011-05-22T08:12:19Z</time>
      </trkpt>
      <trkpt lat="43.96048" lon="7.3179">
        <ele>610.6</ele>
        <time>2011-05-22T08:12:22Z</time>
      </trkpt>
      <trkpt lat="43.96041" lon="7.3179">
        <ele>610.8</ele>
        <time>2011-05-22T08:12:25Z</time>
      </trkpt>
      <trkpt lat="43.96034" lon="7.31791">
        <ele>610.9</ele>
        <time>2011-05-22T08:12:28Z</time>
      </trkpt>
      <trkpt lat="43.96027" lon="7.31796">
        <ele>611.8</ele>
        <time>2011-05-22T08:12:32Z</time>
      </trkpt>
      <trkpt lat="43.96028" lon="7.31808">
        <ele>613.2</ele>
        <time>2011-05-22T08:12:37Z</time>
      </trkpt>
      <trkpt lat="43.96034" lon="7.31816">
        <ele>614.2</ele>
        <time>2011-05-22T08:12:41Z</time>
      </trkpt>
      <trkpt lat="43.96035" lon="7.31818">
        <ele>614.3</ele>
        <time>2011-05-22T08:12:42Z</time>
      </trkpt>
      <trkpt lat="43.96043" lon="7.3183">
        <ele>614.3</ele>
        <time>2011-05-22T08:12:47Z</time>
      </trkpt>
      <trkpt lat="43.96049" lon="7.31836">
        <ele>615.2</ele>
        <time>2011-05-22T08:12:50Z</time>
      </trkpt>
      <trkpt lat="43.96054" lon="7.31843">
        <ele>616.1</ele>
        <time>2011-05-22T08:12:53Z</time>
      </trkpt>
      <trkpt lat="43.96059" lon="7.31851">
        <ele>616.1</ele>
        <time>2011-05-22T08:12:56Z</time>
      </trkpt>
      <trkpt lat="43.96063" lon="7.31859">
        <ele>617.4</ele>
        <time>2011-05-22T08:12:59Z</time>
      </trkpt>
      <trkpt lat="43.96067" lon="7.31867">
        <ele>618.9</ele>
        <time>2011-05-22T08:13:02Z</time>
      </trkpt>
      <trkpt lat="43.96071" lon="7.31876">
        <ele>619.2</ele>
        <time>2011-05-22T08:13:05Z</time>
      </trkpt>
      <trkpt lat="43.96075" lon="7.31885">
        <ele>620.1</ele>
        <time>2011-05-22T08:13:08Z</time>
      </trkpt>
      <trkpt lat="43.96078" lon="7.31894">
        <ele>621.3</ele>
        <time>2011-05-22T08:13:11Z</time>
      </trkpt>
      <trkpt lat="43.9608" lon="7.31904">
        <ele>621.4</ele>
        <time>2011-05-22T08:13:14Z</time>
      </trkpt>
      <trkpt lat="43.96082" lon="7.31913">
        <ele>622.2</ele>
        <time>2011-05-22T08:13:17Z</time>
      </trkpt>
      <trkpt lat="43.96084" lon="7.31925">
        <ele>623.2</ele>
        <time>2011-05-22T08:13:21Z</time>
      </trkpt>
      <trkpt lat="43.96085" lon="7.31935">
        <ele>623.7</ele>
        <time>2011-05-22T08:13:25Z</time>
      </trkpt>
      <trkpt lat="43.96086" lon="7.31945">
        <ele>624.4</ele>
        <time>2011-05-22T08:13:29Z</time>
      </trkpt>
      <trkpt lat="43.96084" lon="7.31956">
        <ele>624.8</ele>
        <time>2011-05-22T08:13:33Z</time>
      </trkpt>
      <trkpt lat="43.9608" lon="7.31965">
        <ele>626.1</ele>
        <time>2011-05-22T08:13:37Z</time>
      </trkpt>
      <trkpt lat="43.96075" lon="7.31972">
        <ele>626.5</ele>
        <time>2011-05-22T08:13:40Z</time>
      </trkpt>
      <trkpt lat="43.96069" lon="7.31978">
        <ele>627.3</ele>
        <time>2011-05-22T08:13:43Z</time>
      </trkpt>
      <trkpt lat="43.96067" lon="7.31979">
        <ele>627.6</ele>
        <time>2011-05-22T08:13:44Z</time>
      </trkpt>
      <trkpt lat="43.96055" lon="7.31975">
        <ele>628</ele>
        <time>2011-05-22T08:13:49Z</time>
      </trkpt>
      <trkpt lat="43.96052" lon="7.31964">
        <ele>628.2</ele>
        <time>2011-05-22T08:13:53Z</time>
      </trkpt>
      <trkpt lat="43.96052" lon="7.31953">
        <ele>627.7</ele>
        <time>2011-05-22T08:13:57Z</time>
      </trkpt>
      <trkpt lat="43.9605" lon="7.31941">
        <ele>629.2</ele>
        <time>2011-05-22T08:14:02Z</time>
      </trkpt>
      <trkpt lat="43.96048" lon="7.31932">
        <ele>629.4</ele>
        <time>2011-05-22T08:14:05Z</time>
      </trkpt>
      <trkpt lat="43.96045" lon="7.31924">
        <ele>629.5</ele>
        <time>2011-05-22T08:14:08Z</time>
      </trkpt>
      <trkpt lat="43.96041" lon="7.31916">
        <ele>630</ele>
        <time>2011-05-22T08:14:11Z</time>
      </trkpt>
      <trkpt lat="43.96034" lon="7.31907">
        <ele>630.3</ele>
        <time>2011-05-22T08:14:15Z</time>
      </trkpt>
      <trkpt lat="43.96028" lon="7.31898">
        <ele>630.6</ele>
        <time>2011-05-22T08:14:19Z</time>
      </trkpt>
      <trkpt lat="43.96022" lon="7.31891">
        <ele>631.3</ele>
        <time>2011-05-22T08:14:23Z</time>
      </trkpt>
      <trkpt lat="43.96015" lon="7.31883">
        <ele>631.7</ele>
        <time>2011-05-22T08:14:27Z</time>
      </trkpt>
      <trkpt lat="43.96009" lon="7.31876">
        <ele>632.5</ele>
        <time>2011-05-22T08:14:31Z</time>
      </trkpt>
      <trkpt lat="43.96002" lon="7.3187">
        <ele>632.9</ele>
        <time>2011-05-22T08:14:35Z</time>
      </trkpt>
      <trkpt lat="43.95996" lon="7.31862">
        <ele>633.1</ele>
        <time>2011-05-22T08:14:39Z</time>
      </trkpt>
      <trkpt lat="43.95989" lon="7.31853">
        <ele>632.7</ele>
        <time>2011-05-22T08:14:43Z</time>
      </trkpt>
      <trkpt lat="43.95984" lon="7.31848">
        <ele>633.9</ele>
        <time>2011-05-22T08:14:46Z</time>
      </trkpt>
      <trkpt lat="43.95981" lon="7.31846">
        <ele>634.3</ele>
        <time>2011-05-22T08:14:47Z</time>
      </trkpt>
      <trkpt lat="43.95971" lon="7.31834">
        <ele>635.3</ele>
        <time>2011-05-22T08:14:52Z</time>
      </trkpt>
      <trkpt lat="43.95969" lon="7.31822">
        <ele>636.7</ele>
        <time>2011-05-22T08:14:56Z</time>
      </trkpt>
      <trkpt lat="43.9597" lon="7.31813">
        <ele>637</ele>
        <time>2011-05-22T08:14:59Z</time>
      </trkpt>
      <trkpt lat="43.95973" lon="7.31802">
        <ele>637.7</ele>
        <time>2011-05-22T08:15:03Z</time>
      </trkpt>
      <trkpt lat="43.95976" lon="7.31793">
        <ele>638.4</ele>
        <time>2011-05-22T08:15:06Z</time>
      </trkpt>
      <trkpt lat="43.9598" lon="7.31784">
        <ele>637.9</ele>
        <time>2011-05-22T08:15:09Z</time>
      </trkpt>
      <trkpt lat="43.95983" lon="7.31775">
        <ele>638.2</ele>
        <time>2011-05-22T08:15:12Z</time>
      </trkpt>
      <trkpt lat="43.95987" lon="7.31764">
        <ele>639.2</ele>
        <time>2011-05-22T08:15:16Z</time>
      </trkpt>
      <trkpt lat="43.95991" lon="7.31754">
        <ele>639.3</ele>
        <time>2011-05-22T08:15:20Z</time>
      </trkpt>
      <trkpt lat="43.95996" lon="7.31743">
        <ele>639.8</ele>
        <time>2011-05-22T08:15:24Z</time>
      </trkpt>
      <trkpt lat="43.96" lon="7.31734">
        <ele>640.2</ele>
        <time>2011-05-22T08:15:28Z</time>
      </trkpt>
      <trkpt lat="43.96004" lon="7.31725">
        <ele>640.5</ele>
        <time>2011-05-22T08:15:32Z</time>
      </trkpt>
      <trkpt lat="43.96004" lon="7.31714">
        <ele>641.4</ele>
        <time>2011-05-22T08:15:36Z</time>
      </trkpt>
      <trkpt lat="43.95996" lon="7.31709">
        <ele>642.5</ele>
        <time>2011-05-22T08:15:40Z</time>
      </trkpt>
      <trkpt lat="43.95989" lon="7.3171">
        <ele>643</ele>
        <time>2011-05-22T08:15:43Z</time>
      </trkpt>
      <trkpt lat="43.95982" lon="7.31708">
        <ele>643.2</ele>
        <time>2011-05-22T08:15:46Z</time>
      </trkpt>
      <trkpt lat="43.95975" lon="7.31702">
        <ele>644</ele>
        <time>2011-05-22T08:15:50Z</time>
      </trkpt>
      <trkpt lat="43.95973" lon="7.317">
        <ele>644.3</ele>
        <time>2011-05-22T08:15:51Z</time>
      </trkpt>
      <trkpt lat="43.95963" lon="7.31684">
        <ele>645.2</ele>
        <time>2011-05-22T08:15:58Z</time>
      </trkpt>
      <trkpt lat="43.95956" lon="7.31678">
        <ele>645.8</ele>
        <time>2011-05-22T08:16:02Z</time>
      </trkpt>
      <trkpt lat="43.95949" lon="7.31676">
        <ele>646</ele>
        <time>2011-05-22T08:16:05Z</time>
      </trkpt>
      <trkpt lat="43.95942" lon="7.31673">
        <ele>646.9</ele>
        <time>2011-05-22T08:16:08Z</time>
      </trkpt>
      <trkpt lat="43.95935" lon="7.31671">
        <ele>647.4</ele>
        <time>2011-05-22T08:16:11Z</time>
      </trkpt>
      <trkpt lat="43.95928" lon="7.31667">
        <ele>647.4</ele>
        <time>2011-05-22T08:16:14Z</time>
      </trkpt>
      <trkpt lat="43.95922" lon="7.3166">
        <ele>647.8</ele>
        <time>2011-05-22T08:16:17Z</time>
      </trkpt>
      <trkpt lat="43.95918" lon="7.31653">
        <ele>648.8</ele>
        <time>2011-05-22T08:16:20Z</time>
      </trkpt>
      <trkpt lat="43.95913" lon="7.31645">
        <ele>649.1</ele>
        <time>2011-05-22T08:16:23Z</time>
      </trkpt>
      <trkpt lat="43.95908" lon="7.31637">
        <ele>650.3</ele>
        <time>2011-05-22T08:16:26Z</time>
      </trkpt>
      <trkpt lat="43.95904" lon="7.31629">
        <ele>650.9</ele>
        <time>2011-05-22T08:16:29Z</time>
      </trkpt>
      <trkpt lat="43.95901" lon="7.31621">
        <ele>651.8</ele>
        <time>2011-05-22T08:16:32Z</time>
      </trkpt>
      <trkpt lat="43.95896" lon="7.31611">
        <ele>651.3</ele>
        <time>2011-05-22T08:16:36Z</time>
      </trkpt>
      <trkpt lat="43.9589" lon="7.31603">
        <ele>652</ele>
        <time>2011-05-22T08:16:40Z</time>
      </trkpt>
      <trkpt lat="43.95883" lon="7.31596">
        <ele>651.9</ele>
        <time>2011-05-22T08:16:45Z</time>
      </trkpt>
      <trkpt lat="43.95876" lon="7.31589">
        <ele>653</ele>
        <time>2011-05-22T08:16:50Z</time>
      </trkpt>
      <trkpt lat="43.9587" lon="7.31582">
        <ele>653.2</ele>
        <time>2011-05-22T08:16:55Z</time>
      </trkpt>
      <trkpt lat="43.95869" lon="7.3158">
        <ele>653.6</ele>
        <time>2011-05-22T08:16:56Z</time>
      </trkpt>
      <trkpt lat="43.95862" lon="7.31563">
        <ele>653.8</ele>
        <time>2011-05-22T08:17:05Z</time>
      </trkpt>
      <trkpt lat="43.9586" lon="7.31553">
        <ele>654.4</ele>
        <time>2011-05-22T08:17:10Z</time>
      </trkpt>
      <trkpt lat="43.95861" lon="7.31542">
        <ele>654.5</ele>
        <time>2011-05-22T08:17:15Z</time>
      </trkpt>
      <trkpt lat="43.95864" lon="7.31531">
        <ele>654.4</ele>
        <time>2011-05-22T08:17:20Z</time>
      </trkpt>
      <trkpt lat="43.95867" lon="7.31521">
        <ele>655.5</ele>
        <time>2011-05-22T08:17:25Z</time>
      </trkpt>
      <trkpt lat="43.95869" lon="7.3151">
        <ele>656.1</ele>
        <time>2011-05-22T08:17:30Z</time>
      </trkpt>
      <trkpt lat="43.95872" lon="7.31499">
        <ele>657.2</ele>
        <time>2011-05-22T08:17:35Z</time>
      </trkpt>
      <trkpt lat="43.95875" lon="7.31488">
        <ele>657.1</ele>
        <time>2011-05-22T08:17:40Z</time>
      </trkpt>
      <trkpt lat="43.9588" lon="7.31478">
        <ele>657.6</ele>
        <time>2011-05-22T08:17:45Z</time>
      </trkpt>
      <trkpt lat="43.95886" lon="7.3147">
        <ele>657.4</ele>
        <time>2011-05-22T08:17:50Z</time>
      </trkpt>
      <trkpt lat="43.95892" lon="7.31463">
        <ele>659</ele>
        <time>2011-05-22T08:17:55Z</time>
      </trkpt>
      <trkpt lat="43.95898" lon="7.31457">
        <ele>659.4</ele>
        <time>2011-05-22T08:17:59Z</time>
      </trkpt>
      <trkpt lat="43.959" lon="7.31456">
        <ele>659.7</ele>
        <time>2011-05-22T08:18:00Z</time>
      </trkpt>
      <trkpt lat="43.95909" lon="7.31442">
        <ele>660.4</ele>
        <time>2011-05-22T08:18:07Z</time>
      </trkpt>
      <trkpt lat="43.95908" lon="7.31431">
        <ele>661.3</ele>
        <time>2011-05-22T08:18:11Z</time>
      </trkpt>
      <trkpt lat="43.95903" lon="7.31421">
        <ele>660.9</ele>
        <time>2011-05-22T08:18:15Z</time>
      </trkpt>
      <trkpt lat="43.95899" lon="7.31415">
        <ele>661</ele>
        <time>2011-05-22T08:18:18Z</time>
      </trkpt>
      <trkpt lat="43.95894" lon="7.31408">
        <ele>661.4</ele>
        <time>2011-05-22T08:18:22Z</time>
      </trkpt>
      <trkpt lat="43.95889" lon="7.31401">
        <ele>662</ele>
        <time>2011-05-22T08:18:26Z</time>
      </trkpt>
      <trkpt lat="43.95882" lon="7.31395">
        <ele>662.5</ele>
        <time>2011-05-22T08:18:30Z</time>
      </trkpt>
      <trkpt lat="43.95874" lon="7.31391">
        <ele>662.4</ele>
        <time>2011-05-22T08:18:34Z</time>
      </trkpt>
      <trkpt lat="43.95865" lon="7.3139">
        <ele>664.2</ele>
        <time>2011-05-22T08:18:38Z</time>
      </trkpt>
      <trkpt lat="43.95859" lon="7.31391">
        <ele>664.3</ele>
        <time>2011-05-22T08:18:41Z</time>
      </trkpt>
      <trkpt lat="43.95852" lon="7.31394">
        <ele>664.4</ele>
        <time>2011-05-22T08:18:44Z</time>
      </trkpt>
      <trkpt lat="43.95846" lon="7.31399">
        <ele>664.9</ele>
        <time>2011-05-22T08:18:47Z</time>
      </trkpt>
      <trkpt lat="43.9584" lon="7.31407">
        <ele>665.7</ele>
        <time>2011-05-22T08:18:51Z</time>
      </trkpt>
      <trkpt lat="43.95838" lon="7.31418">
        <ele>666</ele>
        <time>2011-05-22T08:18:55Z</time>
      </trkpt>
      <trkpt lat="43.95837" lon="7.31429">
        <ele>666.7</ele>
        <time>2011-05-22T08:18:59Z</time>
      </trkpt>
      <trkpt lat="43.95835" lon="7.31439">
        <ele>666.1</ele>
        <time>2011-05-22T08:19:03Z</time>
      </trkpt>
      <trkpt lat="43.95835" lon="7.31441">
        <ele>666.2</ele>
        <time>2011-05-22T08:19:04Z</time>
      </trkpt>
      <trkpt lat="43.95824" lon="7.31453">
        <ele>666.7</ele>
        <time>2011-05-22T08:19:11Z</time>
      </trkpt>
      <trkpt lat="43.95817" lon="7.31456">
        <ele>668.4</ele>
        <time>2011-05-22T08:19:15Z</time>
      </trkpt>
      <trkpt lat="43.95809" lon="7.31458">
        <ele>668.5</ele>
        <time>2011-05-22T08:19:19Z</time>
      </trkpt>
      <trkpt lat="43.95802" lon="7.31462">
        <ele>668.8</ele>
        <time>2011-05-22T08:19:23Z</time>
      </trkpt>
      <trkpt lat="43.95796" lon="7.31469">
        <ele>669.8</ele>
        <time>2011-05-22T08:19:27Z</time>
      </trkpt>
      <trkpt lat="43.9579" lon="7.31477">
        <ele>669.6</ele>
        <time>2011-05-22T08:19:31Z</time>
      </trkpt>
      <trkpt lat="43.95782" lon="7.31482">
        <ele>670.5</ele>
        <time>2011-05-22T08:19:36Z</time>
      </trkpt>
      <trkpt lat="43.95774" lon="7.31484">
        <ele>670.7</ele>
        <time>2011-05-22T08:19:40Z</time>
      </trkpt>
      <trkpt lat="43.95767" lon="7.31484">
        <ele>671.8</ele>
        <time>2011-05-22T08:19:44Z</time>
      </trkpt>
      <trkpt lat="43.95759" lon="7.31484">
        <ele>671.9</ele>
        <time>2011-05-22T08:19:48Z</time>
      </trkpt>
      <trkpt lat="43.95751" lon="7.31487">
        <ele>671.7</ele>
        <time>2011-05-22T08:19:52Z</time>
      </trkpt>
      <trkpt lat="43.95744" lon="7.31492">
        <ele>672.6</ele>
        <time>2011-05-22T08:19:56Z</time>
      </trkpt>
      <trkpt lat="43.95738" lon="7.315">
        <ele>673.7</ele>
        <time>2011-05-22T08:20:00Z</time>
      </trkpt>
      <trkpt lat="43.95737" lon="7.31511">
        <ele>674.1</ele>
        <time>2011-05-22T08:20:04Z</time>
      </trkpt>
      <trkpt lat="43.95738" lon="7.31513">
        <ele>674.1</ele>
        <time>2011-05-22T08:20:05Z</time>
      </trkpt>
      <trkpt lat="43.95741" lon="7.3153">
        <ele>674.6</ele>
        <time>2011-05-22T08:20:12Z</time>
      </trkpt>
      <trkpt lat="43.95742" lon="7.3154">
        <ele>675</ele>
        <time>2011-05-22T08:20:16Z</time>
      </trkpt>
      <trkpt lat="43.95741" lon="7.31552">
        <ele>675.7</ele>
        <time>2011-05-22T08:20:20Z</time>
      </trkpt>
      <trkpt lat="43.95737" lon="7.31562">
        <ele>675.8</ele>
        <time>2011-05-22T08:20:24Z</time>
      </trkpt>
      <trkpt lat="43.95732" lon="7.31571">
        <ele>676.4</ele>
        <time>2011-05-22T08:20:28Z</time>
      </trkpt>
      <trkpt lat="43.95727" lon="7.31579">
        <ele>676.9</ele>
        <time>2011-05-22T08:20:32Z</time>
      </trkpt>
      <trkpt lat="43.95721" lon="7.31588">
        <ele>677.7</ele>
        <time>2011-05-22T08:20:36Z</time>
      </trkpt>
      <trkpt lat="43.95717" lon="7.31596">
        <ele>677.8</ele>
        <time>2011-05-22T08:20:40Z</time>
      </trkpt>
      <trkpt lat="43.95712" lon="7.31605">
        <ele>677.6</ele>
        <time>2011-05-22T08:20:44Z</time>
      </trkpt>
      <trkpt lat="43.95705" lon="7.31613">
        <ele>678.5</ele>
        <time>2011-05-22T08:20:49Z</time>
      </trkpt>
      <trkpt lat="43.95699" lon="7.31619">
        <ele>679.3</ele>
        <time>2011-05-22T08:20:53Z</time>
      </trkpt>
      <trkpt lat="43.95691" lon="7.31624">
        <ele>680</ele>
        <time>2011-05-22T08:20:58Z</time>
      </trkpt>
      <trkpt lat="43.95684" lon="7.3163">
        <ele>680.5</ele>
        <time>2011-05-22T08:21:03Z</time>
      </trkpt>
      <trkpt lat="43.95677" lon="7.31636">
        <ele>680.7</ele>
        <time>2011-05-22T08:21:07Z</time>
      </trkpt>
      <trkpt lat="43.95675" lon="7.31637">
        <ele>680.6</ele>
        <time>2011-05-22T08:21:08Z</time>
      </trkpt>
      <trkpt lat="43.95662" lon="7.31646">
        <ele>680.5</ele>
        <time>2011-05-22T08:21:15Z</time>
      </trkpt>
      <trkpt lat="43.95655" lon="7.31651">
        <ele>681</ele>
        <time>2011-05-22T08:21:19Z</time>
      </trkpt>
      <trkpt lat="43.95648" lon="7.31654">
        <ele>681.2</ele>
        <time>2011-05-22T08:21:23Z</time>
      </trkpt>
      <trkpt lat="43.9564" lon="7.31658">
        <ele>682.3</ele>
        <time>2011-05-22T08:21:27Z</time>
      </trkpt>
      <trkpt lat="43.95633" lon="7.31662">
        <ele>682.8</ele>
        <time>2011-05-22T08:21:31Z</time>
      </trkpt>
      <trkpt lat="43.95625" lon="7.31666">
        <ele>683.7</ele>
        <time>2011-05-22T08:21:35Z</time>
      </trkpt>
      <trkpt lat="43.95619" lon="7.31672">
        <ele>684.6</ele>
        <time>2011-05-22T08:21:39Z</time>
      </trkpt>
      <trkpt lat="43.95613" lon="7.31677">
        <ele>684.3</ele>
        <time>2011-05-22T08:21:43Z</time>
      </trkpt>
      <trkpt lat="43.95608" lon="7.31688">
        <ele>685.6</ele>
        <time>2011-05-22T08:21:48Z</time>
      </trkpt>
      <trkpt lat="43.95609" lon="7.317">
        <ele>685.5</ele>
        <time>2011-05-22T08:21:53Z</time>
      </trkpt>
      <trkpt lat="43.95611" lon="7.3171">
        <ele>686.5</ele>
        <time>2011-05-22T08:21:57Z</time>
      </trkpt>
      <trkpt lat="43.95613" lon="7.3172">
        <ele>687</ele>
        <time>2011-05-22T08:22:01Z</time>
      </trkpt>
      <trkpt lat="43.95614" lon="7.3173">
        <ele>687.8</ele>
        <time>2011-05-22T08:22:05Z</time>
      </trkpt>
      <trkpt lat="43.95612" lon="7.31741">
        <ele>687.4</ele>
        <time>2011-05-22T08:22:09Z</time>
      </trkpt>
      <trkpt lat="43.95612" lon="7.31744">
        <ele>687.5</ele>
        <time>2011-05-22T08:22:10Z</time>
      </trkpt>
      <trkpt lat="43.95612" lon="7.31763">
        <ele>689.1</ele>
        <time>2011-05-22T08:22:17Z</time>
      </trkpt>
      <trkpt lat="43.95616" lon="7.31773">
        <ele>689.4</ele>
        <time>2011-05-22T08:22:21Z</time>
      </trkpt>
      <trkpt lat="43.95621" lon="7.31782">
        <ele>690.5</ele>
        <time>2011-05-22T08:22:25Z</time>
      </trkpt>
      <trkpt lat="43.95624" lon="7.31793">
        <ele>690.5</ele>
        <time>2011-05-22T08:22:29Z</time>
      </trkpt>
      <trkpt lat="43.95622" lon="7.31804">
        <ele>690.6</ele>
        <time>2011-05-22T08:22:33Z</time>
      </trkpt>
      <trkpt lat="43.95618" lon="7.31815">
        <ele>691</ele>
        <time>2011-05-22T08:22:37Z</time>
      </trkpt>
      <trkpt lat="43.95618" lon="7.31826">
        <ele>691.9</ele>
        <time>2011-05-22T08:22:41Z</time>
      </trkpt>
      <trkpt lat="43.95622" lon="7.31836">
        <ele>693</ele>
        <time>2011-05-22T08:22:45Z</time>
      </trkpt>
      <trkpt lat="43.95627" lon="7.31845">
        <ele>693</ele>
        <time>2011-05-22T08:22:49Z</time>
      </trkpt>
      <trkpt lat="43.9563" lon="7.31856">
        <ele>694.1</ele>
        <time>2011-05-22T08:22:53Z</time>
      </trkpt>
      <trkpt lat="43.95629" lon="7.31868">
        <ele>695.1</ele>
        <time>2011-05-22T08:22:57Z</time>
      </trkpt>
      <trkpt lat="43.95625" lon="7.31877">
        <ele>695</ele>
        <time>2011-05-22T08:23:01Z</time>
      </trkpt>
      <trkpt lat="43.95619" lon="7.31886">
        <ele>695.7</ele>
        <time>2011-05-22T08:23:05Z</time>
      </trkpt>
      <trkpt lat="43.95614" lon="7.31895">
        <ele>696.3</ele>
        <time>2011-05-22T08:23:09Z</time>
      </trkpt>
      <trkpt lat="43.95611" lon="7.31906">
        <ele>696.7</ele>
        <time>2011-05-22T08:23:13Z</time>
      </trkpt>
      <trkpt lat="43.9561" lon="7.31908">
        <ele>696.7</ele>
        <time>2011-05-22T08:23:14Z</time>
      </trkpt>
      <trkpt lat="43.95608" lon="7.3193">
        <ele>697.9</ele>
        <time>2011-05-22T08:23:21Z</time>
      </trkpt>
      <trkpt lat="43.95607" lon="7.31939">
        <ele>698.1</ele>
        <time>2011-05-22T08:23:24Z</time>
      </trkpt>
      <trkpt lat="43.95606" lon="7.31952">
        <ele>698.7</ele>
        <time>2011-05-22T08:23:28Z</time>
      </trkpt>
      <trkpt lat="43.95606" lon="7.31961">
        <ele>699</ele>
        <time>2011-05-22T08:23:31Z</time>
      </trkpt>
      <trkpt lat="43.95605" lon="7.31973">
        <ele>699.7</ele>
        <time>2011-05-22T08:23:35Z</time>
      </trkpt>
      <trkpt lat="43.95602" lon="7.31984">
        <ele>700.3</ele>
        <time>2011-05-22T08:23:39Z</time>
      </trkpt>
      <trkpt lat="43.95596" lon="7.31994">
        <ele>701.3</ele>
        <time>2011-05-22T08:23:43Z</time>
      </trkpt>
      <trkpt lat="43.95592" lon="7.32003">
        <ele>701.1</ele>
        <time>2011-05-22T08:23:46Z</time>
      </trkpt>
      <trkpt lat="43.95589" lon="7.32013">
        <ele>701.2</ele>
        <time>2011-05-22T08:23:49Z</time>
      </trkpt>
      <trkpt lat="43.95589" lon="7.32023">
        <ele>702</ele>
        <time>2011-05-22T08:23:52Z</time>
      </trkpt>
      <trkpt lat="43.95589" lon="7.32033">
        <ele>702.4</ele>
        <time>2011-05-22T08:23:55Z</time>
      </trkpt>
      <trkpt lat="43.9559" lon="7.32043">
        <ele>702.7</ele>
        <time>2011-05-22T08:23:58Z</time>
      </trkpt>
      <trkpt lat="43.95591" lon="7.32053">
        <ele>703.3</ele>
        <time>2011-05-22T08:24:01Z</time>
      </trkpt>
      <trkpt lat="43.95592" lon="7.32063">
        <ele>704</ele>
        <time>2011-05-22T08:24:04Z</time>
      </trkpt>
      <trkpt lat="43.95593" lon="7.32072">
        <ele>704.5</ele>
        <time>2011-05-22T08:24:07Z</time>
      </trkpt>
      <trkpt lat="43.95594" lon="7.32082">
        <ele>705.4</ele>
        <time>2011-05-22T08:24:10Z</time>
      </trkpt>
      <trkpt lat="43.95597" lon="7.32091">
        <ele>706.2</ele>
        <time>2011-05-22T08:24:13Z</time>
      </trkpt>
      <trkpt lat="43.95601" lon="7.321">
        <ele>706.6</ele>
        <time>2011-05-22T08:24:16Z</time>
      </trkpt>
      <trkpt lat="43.95603" lon="7.32102">
        <ele>706.8</ele>
        <time>2011-05-22T08:24:17Z</time>
      </trkpt>
      <trkpt lat="43.95608" lon="7.32118">
        <ele>706.7</ele>
        <time>2011-05-22T08:24:22Z</time>
      </trkpt>
      <trkpt lat="43.95612" lon="7.32127">
        <ele>707</ele>
        <time>2011-05-22T08:24:25Z</time>
      </trkpt>
      <trkpt lat="43.95616" lon="7.32136">
        <ele>707.8</ele>
        <time>2011-05-22T08:24:28Z</time>
      </trkpt>
      <trkpt lat="43.9562" lon="7.32145">
        <ele>708.2</ele>
        <time>2011-05-22T08:24:31Z</time>
      </trkpt>
      <trkpt lat="43.95624" lon="7.32154">
        <ele>708.5</ele>
        <time>2011-05-22T08:24:34Z</time>
      </trkpt>
      <trkpt lat="43.95629" lon="7.32164">
        <ele>708.7</ele>
        <time>2011-05-22T08:24:37Z</time>
      </trkpt>
      <trkpt lat="43.95633" lon="7.32173">
        <ele>710.3</ele>
        <time>2011-05-22T08:24:40Z</time>
      </trkpt>
      <trkpt lat="43.95638" lon="7.32181">
        <ele>710.7</ele>
        <time>2011-05-22T08:24:43Z</time>
      </trkpt>
      <trkpt lat="43.95643" lon="7.3219">
        <ele>711.3</ele>
        <time>2011-05-22T08:24:46Z</time>
      </trkpt>
      <trkpt lat="43.95648" lon="7.32199">
        <ele>712</ele>
        <time>2011-05-22T08:24:49Z</time>
      </trkpt>
      <trkpt lat="43.95653" lon="7.32208">
        <ele>712.4</ele>
        <time>2011-05-22T08:24:52Z</time>
      </trkpt>
      <trkpt lat="43.95658" lon="7.32217">
        <ele>712.5</ele>
        <time>2011-05-22T08:24:55Z</time>
      </trkpt>
      <trkpt lat="43.95662" lon="7.32226">
        <ele>713</ele>
        <time>2011-05-22T08:24:58Z</time>
      </trkpt>
      <trkpt lat="43.95664" lon="7.32237">
        <ele>713.9</ele>
        <time>2011-05-22T08:25:01Z</time>
      </trkpt>
      <trkpt lat="43.95662" lon="7.32246">
        <ele>714.7</ele>
        <time>2011-05-22T08:25:04Z</time>
      </trkpt>
      <trkpt lat="43.95654" lon="7.32252">
        <ele>716</ele>
        <time>2011-05-22T08:25:08Z</time>
      </trkpt>
      <trkpt lat="43.95647" lon="7.3225">
        <ele>716.9</ele>
        <time>2011-05-22T08:25:11Z</time>
      </trkpt>
      <trkpt lat="43.9564" lon="7.32246">
        <ele>717.7</ele>
        <time>2011-05-22T08:25:14Z</time>
      </trkpt>
      <trkpt lat="43.95633" lon="7.32243">
        <ele>718.1</ele>
        <time>2011-05-22T08:25:17Z</time>
      </trkpt>
      <trkpt lat="43.9563" lon="7.32242">
        <ele>718.3</ele>
        <time>2011-05-22T08:25:18Z</time>
      </trkpt>
      <trkpt lat="43.95619" lon="7.32237">
        <ele>718.3</ele>
        <time>2011-05-22T08:25:23Z</time>
      </trkpt>
      <trkpt lat="43.95611" lon="7.32235">
        <ele>718.5</ele>
        <time>2011-05-22T08:25:26Z</time>
      </trkpt>
      <trkpt lat="43.95604" lon="7.32233">
        <ele>720</ele>
        <time>2011-05-22T08:25:29Z</time>
      </trkpt>
      <trkpt lat="43.95597" lon="7.3223">
        <ele>719.6</ele>
        <time>2011-05-22T08:25:32Z</time>
      </trkpt>
      <trkpt lat="43.95591" lon="7.32226">
        <ele>720.5</ele>
        <time>2011-05-22T08:25:35Z</time>
      </trkpt>
      <trkpt lat="43.95584" lon="7.32221">
        <ele>720.8</ele>
        <time>2011-05-22T08:25:38Z</time>
      </trkpt>
      <trkpt lat="43.95578" lon="7.32215">
        <ele>721.4</ele>
        <time>2011-05-22T08:25:41Z</time>
      </trkpt>
      <trkpt lat="43.95571" lon="7.32211">
        <ele>722.1</ele>
        <time>2011-05-22T08:25:44Z</time>
      </trkpt>
      <trkpt lat="43.95564" lon="7.32207">
        <ele>722.5</ele>
        <time>2011-05-22T08:25:47Z</time>
      </trkpt>
      <trkpt lat="43.95556" lon="7.32205">
        <ele>722.6</ele>
        <time>2011-05-22T08:25:50Z</time>
      </trkpt>
      <trkpt lat="43.9555" lon="7.32206">
        <ele>722.4</ele>
        <time>2011-05-22T08:25:53Z</time>
      </trkpt>
      <trkpt lat="43.95543" lon="7.32209">
        <ele>722.9</ele>
        <time>2011-05-22T08:25:56Z</time>
      </trkpt>
      <trkpt lat="43.95537" lon="7.32215">
        <ele>723.3</ele>
        <time>2011-05-22T08:25:59Z</time>
      </trkpt>
      <trkpt lat="43.95532" lon="7.32221">
        <ele>723.8</ele>
        <time>2011-05-22T08:26:02Z</time>
      </trkpt>
      <trkpt lat="43.95528" lon="7.32229">
        <ele>724.2</ele>
        <time>2011-05-22T08:26:05Z</time>
      </trkpt>
      <trkpt lat="43.95525" lon="7.32238">
        <ele>724.6</ele>
        <time>2011-05-22T08:26:08Z</time>
      </trkpt>
      <trkpt lat="43.95522" lon="7.32247">
        <ele>725.4</ele>
        <time>2011-05-22T08:26:11Z</time>
      </trkpt>
      <trkpt lat="43.95519" lon="7.32257">
        <ele>726.1</ele>
        <time>2011-05-22T08:26:14Z</time>
      </trkpt>
      <trkpt lat="43.95516" lon="7.32266">
        <ele>726.9</ele>
        <time>2011-05-22T08:26:17Z</time>
      </trkpt>
      <trkpt lat="43.95514" lon="7.32276">
        <ele>728.6</ele>
        <time>2011-05-22T08:26:20Z</time>
      </trkpt>
      <trkpt lat="43.95513" lon="7.32279">
        <ele>728.6</ele>
        <time>2011-05-22T08:26:21Z</time>
      </trkpt>
      <trkpt lat="43.9551" lon="7.32296">
        <ele>728.9</ele>
        <time>2011-05-22T08:26:26Z</time>
      </trkpt>
      <trkpt lat="43.95508" lon="7.32306">
        <ele>728.7</ele>
        <time>2011-05-22T08:26:29Z</time>
      </trkpt>
      <trkpt lat="43.95508" lon="7.32316">
        <ele>729.5</ele>
        <time>2011-05-22T08:26:32Z</time>
      </trkpt>
      <trkpt lat="43.95509" lon="7.32328">
        <ele>730.9</ele>
        <time>2011-05-22T08:26:36Z</time>
      </trkpt>
      <trkpt lat="43.95512" lon="7.32339">
        <ele>731.5</ele>
        <time>2011-05-22T08:26:40Z</time>
      </trkpt>
      <trkpt lat="43.95515" lon="7.3235">
        <ele>732.6</ele>
        <time>2011-05-22T08:26:44Z</time>
      </trkpt>
      <trkpt lat="43.95517" lon="7.32359">
        <ele>733.1</ele>
        <time>2011-05-22T08:26:47Z</time>
      </trkpt>
      <trkpt lat="43.95519" lon="7.32368">
        <ele>733.6</ele>
        <time>2011-05-22T08:26:50Z</time>
      </trkpt>
      <trkpt lat="43.95521" lon="7.32377">
        <ele>733.5</ele>
        <time>2011-05-22T08:26:53Z</time>
      </trkpt>
      <trkpt lat="43.95519" lon="7.32389">
        <ele>733</ele>
        <time>2011-05-22T08:26:57Z</time>
      </trkpt>
      <trkpt lat="43.95513" lon="7.32397">
        <ele>733.9</ele>
        <time>2011-05-22T08:27:01Z</time>
      </trkpt>
      <trkpt lat="43.95506" lon="7.32401">
        <ele>735.7</ele>
        <time>2011-05-22T08:27:05Z</time>
      </trkpt>
      <trkpt lat="43.95498" lon="7.32403">
        <ele>735.7</ele>
        <time>2011-05-22T08:27:09Z</time>
      </trkpt>
      <trkpt lat="43.9549" lon="7.32404">
        <ele>736.3</ele>
        <time>2011-05-22T08:27:13Z</time>
      </trkpt>
      <trkpt lat="43.95481" lon="7.32406">
        <ele>735.7</ele>
        <time>2011-05-22T08:27:17Z</time>
      </trkpt>
      <trkpt lat="43.95473" lon="7.32408">
        <ele>736.6</ele>
        <time>2011-05-22T08:27:21Z</time>
      </trkpt>
      <trkpt lat="43.95471" lon="7.32408">
        <ele>736.7</ele>
        <time>2011-05-22T08:27:22Z</time>
      </trkpt>
      <trkpt lat="43.95457" lon="7.32415">
        <ele>737.7</ele>
        <time>2011-05-22T08:27:29Z</time>
      </trkpt>
      <trkpt lat="43.95451" lon="7.32423">
        <ele>738.6</ele>
        <time>2011-05-22T08:27:33Z</time>
      </trkpt>
      <trkpt lat="43.95444" lon="7.32431">
        <ele>740.1</ele>
        <time>2011-05-22T08:27:37Z</time>
      </trkpt>
      <trkpt lat="43.95437" lon="7.32439">
        <ele>740.4</ele>
        <time>2011-05-22T08:27:41Z</time>
      </trkpt>
      <trkpt lat="43.95432" lon="7.32446">
        <ele>740.8</ele>
        <time>2011-05-22T08:27:44Z</time>
      </trkpt>
      <trkpt lat="43.95427" lon="7.32452">
        <ele>741</ele>
        <time>2011-05-22T08:27:47Z</time>
      </trkpt>
      <trkpt lat="43.95421" lon="7.32459">
        <ele>741.5</ele>
        <time>2011-05-22T08:27:50Z</time>
      </trkpt>
      <trkpt lat="43.95417" lon="7.32466">
        <ele>742</ele>
        <time>2011-05-22T08:27:52Z</time>
      </trkpt>
      <trkpt lat="43.95412" lon="7.32473">
        <ele>742.3</ele>
        <time>2011-05-22T08:27:54Z</time>
      </trkpt>
      <trkpt lat="43.95408" lon="7.3248">
        <ele>742.6</ele>
        <time>2011-05-22T08:27:56Z</time>
      </trkpt>
      <trkpt lat="43.95404" lon="7.32487">
        <ele>742.9</ele>
        <time>2011-05-22T08:27:58Z</time>
      </trkpt>
      <trkpt lat="43.95401" lon="7.32497">
        <ele>743.2</ele>
        <time>2011-05-22T08:28:01Z</time>
      </trkpt>
      <trkpt lat="43.954" lon="7.32509">
        <ele>743.8</ele>
        <time>2011-05-22T08:28:05Z</time>
      </trkpt>
      <trkpt lat="43.95399" lon="7.3252">
        <ele>744.4</ele>
        <time>2011-05-22T08:28:09Z</time>
      </trkpt>
      <trkpt lat="43.95399" lon="7.32532">
        <ele>745</ele>
        <time>2011-05-22T08:28:13Z</time>
      </trkpt>
      <trkpt lat="43.95399" lon="7.32544">
        <ele>745.3</ele>
        <time>2011-05-22T08:28:17Z</time>
      </trkpt>
      <trkpt lat="43.954" lon="7.32556">
        <ele>746.4</ele>
        <time>2011-05-22T08:28:21Z</time>
      </trkpt>
      <trkpt lat="43.95402" lon="7.32567">
        <ele>747.3</ele>
        <time>2011-05-22T08:28:25Z</time>
      </trkpt>
      <trkpt lat="43.95403" lon="7.3257">
        <ele>747.5</ele>
        <time>2011-05-22T08:28:26Z</time>
      </trkpt>
      <trkpt lat="43.9541" lon="7.32589">
        <ele>749.1</ele>
        <time>2011-05-22T08:28:33Z</time>
      </trkpt>
      <trkpt lat="43.95414" lon="7.32597">
        <ele>750.3</ele>
        <time>2011-05-22T08:28:36Z</time>
      </trkpt>
      <trkpt lat="43.95417" lon="7.32606">
        <ele>750.9</ele>
        <time>2011-05-22T08:28:39Z</time>
      </trkpt>
      <trkpt lat="43.95421" lon="7.32614">
        <ele>750.9</ele>
        <time>2011-05-22T08:28:42Z</time>
      </trkpt>
      <trkpt lat="43.95424" lon="7.32622">
        <ele>751.3</ele>
        <time>2011-05-22T08:28:45Z</time>
      </trkpt>
      <trkpt lat="43.95428" lon="7.32631">
        <ele>751.8</ele>
        <time>2011-05-22T08:28:48Z</time>
      </trkpt>
      <trkpt lat="43.95431" lon="7.32639">
        <ele>752.4</ele>
        <time>2011-05-22T08:28:51Z</time>
      </trkpt>
      <trkpt lat="43.95434" lon="7.32648">
        <ele>752.9</ele>
        <time>2011-05-22T08:28:54Z</time>
      </trkpt>
      <trkpt lat="43.95438" lon="7.32656">
        <ele>752.9</ele>
        <time>2011-05-22T08:28:57Z</time>
      </trkpt>
      <trkpt lat="43.95443" lon="7.32665">
        <ele>752.8</ele>
        <time>2011-05-22T08:29:00Z</time>
      </trkpt>
      <trkpt lat="43.95447" lon="7.32674">
        <ele>753.6</ele>
        <time>2011-05-22T08:29:03Z</time>
      </trkpt>
      <trkpt lat="43.95451" lon="7.32682">
        <ele>754.6</ele>
        <time>2011-05-22T08:29:06Z</time>
      </trkpt>
      <trkpt lat="43.95457" lon="7.32691">
        <ele>755.7</ele>
        <time>2011-05-22T08:32:01Z</time>
      </trkpt>
      <trkpt lat="43.95457" lon="7.32691">
        <ele>755.8</ele>
        <time>2011-05-22T08:32:02Z</time>
      </trkpt>
      <trkpt lat="43.9546" lon="7.32703">
        <ele>756.2</ele>
        <time>2011-05-22T08:34:49Z</time>
      </trkpt>
      <trkpt lat="43.95463" lon="7.32716">
        <ele>756.1</ele>
        <time>2011-05-22T08:34:51Z</time>
      </trkpt>
      <trkpt lat="43.95466" lon="7.32722">
        <ele>755.5</ele>
        <time>2011-05-22T08:34:52Z</time>
      </trkpt>
      <trkpt lat="43.95467" lon="7.3273">
        <ele>755.1</ele>
        <time>2011-05-22T08:34:53Z</time>
      </trkpt>
      <trkpt lat="43.95467" lon="7.32738">
        <ele>754.8</ele>
        <time>2011-05-22T08:34:54Z</time>
      </trkpt>
      <trkpt lat="43.95469" lon="7.32746">
        <ele>754.2</ele>
        <time>2011-05-22T08:34:55Z</time>
      </trkpt>
      <trkpt lat="43.95472" lon="7.32754">
        <ele>753.8</ele>
        <time>2011-05-22T08:34:56Z</time>
      </trkpt>
      <trkpt lat="43.95475" lon="7.32763">
        <ele>753.5</ele>
        <time>2011-05-22T08:34:57Z</time>
      </trkpt>
      <trkpt lat="43.95476" lon="7.32773">
        <ele>752.5</ele>
        <time>2011-05-22T08:34:58Z</time>
      </trkpt>
      <trkpt lat="43.95477" lon="7.32783">
        <ele>751.7</ele>
        <time>2011-05-22T08:34:59Z</time>
      </trkpt>
      <trkpt lat="43.95479" lon="7.32792">
        <ele>751.1</ele>
        <time>2011-05-22T08:35:00Z</time>
      </trkpt>
      <trkpt lat="43.95481" lon="7.32799">
        <ele>749.9</ele>
        <time>2011-05-22T08:35:01Z</time>
      </trkpt>
      <trkpt lat="43.95481" lon="7.32805">
        <ele>748.9</ele>
        <time>2011-05-22T08:35:02Z</time>
      </trkpt>
      <trkpt lat="43.9548" lon="7.32811">
        <ele>748.2</ele>
        <time>2011-05-22T08:35:03Z</time>
      </trkpt>
      <trkpt lat="43.95479" lon="7.32819">
        <ele>746.9</ele>
        <time>2011-05-22T08:35:04Z</time>
      </trkpt>
      <trkpt lat="43.9548" lon="7.32827">
        <ele>746</ele>
        <time>2011-05-22T08:35:05Z</time>
      </trkpt>
      <trkpt lat="43.95482" lon="7.32836">
        <ele>745.3</ele>
        <time>2011-05-22T08:35:06Z</time>
      </trkpt>
      <trkpt lat="43.95481" lon="7.32843">
        <ele>744.8</ele>
        <time>2011-05-22T08:35:07Z</time>
      </trkpt>
      <trkpt lat="43.95481" lon="7.3285">
        <ele>743.5</ele>
        <time>2011-05-22T08:35:08Z</time>
      </trkpt>
      <trkpt lat="43.95481" lon="7.32859">
        <ele>742.6</ele>
        <time>2011-05-22T08:35:09Z</time>
      </trkpt>
      <trkpt lat="43.95483" lon="7.32868">
        <ele>741.9</ele>
        <time>2011-05-22T08:35:10Z</time>
      </trkpt>
      <trkpt lat="43.95482" lon="7.32879">
        <ele>739.9</ele>
        <time>2011-05-22T08:35:12Z</time>
      </trkpt>
      <trkpt lat="43.95478" lon="7.32888">
        <ele>737.9</ele>
        <time>2011-05-22T08:35:14Z</time>
      </trkpt>
      <trkpt lat="43.95476" lon="7.32894">
        <ele>736.9</ele>
        <time>2011-05-22T08:35:15Z</time>
      </trkpt>
      <trkpt lat="43.95474" lon="7.32901">
        <ele>736.2</ele>
        <time>2011-05-22T08:35:16Z</time>
      </trkpt>
      <trkpt lat="43.95472" lon="7.32907">
        <ele>735.3</ele>
        <time>2011-05-22T08:35:17Z</time>
      </trkpt>
      <trkpt lat="43.95469" lon="7.32915">
        <ele>734.6</ele>
        <time>2011-05-22T08:35:18Z</time>
      </trkpt>
      <trkpt lat="43.95466" lon="7.32923">
        <ele>734.1</ele>
        <time>2011-05-22T08:35:19Z</time>
      </trkpt>
      <trkpt lat="43.95464" lon="7.3293">
        <ele>733.7</ele>
        <time>2011-05-22T08:35:20Z</time>
      </trkpt>
      <trkpt lat="43.9546" lon="7.32938">
        <ele>732.9</ele>
        <time>2011-05-22T08:35:21Z</time>
      </trkpt>
      <trkpt lat="43.95456" lon="7.32946">
        <ele>732.2</ele>
        <time>2011-05-22T08:35:22Z</time>
      </trkpt>
      <trkpt lat="43.95452" lon="7.32954">
        <ele>731.7</ele>
        <time>2011-05-22T08:35:23Z</time>
      </trkpt>
      <trkpt lat="43.95449" lon="7.32962">
        <ele>730.9</ele>
        <time>2011-05-22T08:35:24Z</time>
      </trkpt>
      <trkpt lat="43.95447" lon="7.32971">
        <ele>730.3</ele>
        <time>2011-05-22T08:35:25Z</time>
      </trkpt>
      <trkpt lat="43.95445" lon="7.3298">
        <ele>729.9</ele>
        <time>2011-05-22T08:35:26Z</time>
      </trkpt>
      <trkpt lat="43.95445" lon="7.32988">
        <ele>728.8</ele>
        <time>2011-05-22T08:35:27Z</time>
      </trkpt>
      <trkpt lat="43.95444" lon="7.32998">
        <ele>727.5</ele>
        <time>2011-05-22T08:35:29Z</time>
      </trkpt>
      <trkpt lat="43.9544" lon="7.33005">
        <ele>725.9</ele>
        <time>2011-05-22T08:35:31Z</time>
      </trkpt>
      <trkpt lat="43.95434" lon="7.3301">
        <ele>725.3</ele>
        <time>2011-05-22T08:35:33Z</time>
      </trkpt>
      <trkpt lat="43.95428" lon="7.33012">
        <ele>725</ele>
        <time>2011-05-22T08:35:35Z</time>
      </trkpt>
      <trkpt lat="43.95421" lon="7.33006">
        <ele>724.7</ele>
        <time>2011-05-22T08:35:38Z</time>
      </trkpt>
      <trkpt lat="43.95417" lon="7.32996">
        <ele>725.1</ele>
        <time>2011-05-22T08:35:49Z</time>
      </trkpt>
      <trkpt lat="43.95416" lon="7.32995">
        <ele>725.3</ele>
        <time>2011-05-22T08:35:50Z</time>
      </trkpt>
      <trkpt lat="43.95416" lon="7.32974">
        <ele>728.8</ele>
        <time>2011-05-22T08:36:15Z</time>
      </trkpt>
      <trkpt lat="43.95417" lon="7.32962">
        <ele>731</ele>
        <time>2011-05-22T08:36:30Z</time>
      </trkpt>
      <trkpt lat="43.95419" lon="7.3295">
        <ele>733.4</ele>
        <time>2011-05-22T08:36:43Z</time>
      </trkpt>
      <trkpt lat="43.95417" lon="7.32939">
        <ele>735.1</ele>
        <time>2011-05-22T08:36:55Z</time>
      </trkpt>
      <trkpt lat="43.95417" lon="7.32938">
        <ele>735.4</ele>
        <time>2011-05-22T08:36:56Z</time>
      </trkpt>
      <trkpt lat="43.95412" lon="7.32917">
        <ele>738.9</ele>
        <time>2011-05-22T08:37:21Z</time>
      </trkpt>
      <trkpt lat="43.95408" lon="7.32906">
        <ele>739.7</ele>
        <time>2011-05-22T08:37:26Z</time>
      </trkpt>
      <trkpt lat="43.95403" lon="7.32896">
        <ele>740.3</ele>
        <time>2011-05-22T08:37:31Z</time>
      </trkpt>
      <trkpt lat="43.95394" lon="7.32894">
        <ele>741.9</ele>
        <time>2011-05-22T08:38:46Z</time>
      </trkpt>
      <trkpt lat="43.95393" lon="7.32894">
        <ele>741.7</ele>
        <time>2011-05-22T08:38:47Z</time>
      </trkpt>
      <trkpt lat="43.95382" lon="7.32885">
        <ele>742.4</ele>
        <time>2011-05-22T08:38:51Z</time>
      </trkpt>
      <trkpt lat="43.95374" lon="7.32881">
        <ele>742.3</ele>
        <time>2011-05-22T08:38:53Z</time>
      </trkpt>
      <trkpt lat="43.95367" lon="7.32877">
        <ele>741.8</ele>
        <time>2011-05-22T08:38:55Z</time>
      </trkpt>
      <trkpt lat="43.9536" lon="7.32877">
        <ele>741.5</ele>
        <time>2011-05-22T08:38:57Z</time>
      </trkpt>
      <trkpt lat="43.95352" lon="7.3288">
        <ele>740</ele>
        <time>2011-05-22T08:39:00Z</time>
      </trkpt>
      <trkpt lat="43.95344" lon="7.3288">
        <ele>739.2</ele>
        <time>2011-05-22T08:39:04Z</time>
      </trkpt>
      <trkpt lat="43.95336" lon="7.32879">
        <ele>739.9</ele>
        <time>2011-05-22T08:39:08Z</time>
      </trkpt>
      <trkpt lat="43.95328" lon="7.32879">
        <ele>739.3</ele>
        <time>2011-05-22T08:39:11Z</time>
      </trkpt>
      <trkpt lat="43.95322" lon="7.32881">
        <ele>738.9</ele>
        <time>2011-05-22T08:39:13Z</time>
      </trkpt>
      <trkpt lat="43.95314" lon="7.32883">
        <ele>739.5</ele>
        <time>2011-05-22T08:39:16Z</time>
      </trkpt>
      <trkpt lat="43.95305" lon="7.32886">
        <ele>738.1</ele>
        <time>2011-05-22T08:39:20Z</time>
      </trkpt>
      <trkpt lat="43.95298" lon="7.32888">
        <ele>738</ele>
        <time>2011-05-22T08:39:23Z</time>
      </trkpt>
      <trkpt lat="43.9529" lon="7.3289">
        <ele>738.3</ele>
        <time>2011-05-22T08:39:27Z</time>
      </trkpt>
      <trkpt lat="43.95282" lon="7.32891">
        <ele>738.4</ele>
        <time>2011-05-22T08:39:33Z</time>
      </trkpt>
      <trkpt lat="43.95273" lon="7.32892">
        <ele>739.1</ele>
        <time>2011-05-22T08:39:38Z</time>
      </trkpt>
      <trkpt lat="43.95265" lon="7.32897">
        <ele>739.8</ele>
        <time>2011-05-22T08:39:44Z</time>
      </trkpt>
      <trkpt lat="43.95258" lon="7.32902">
        <ele>740.9</ele>
        <time>2011-05-22T08:39:49Z</time>
      </trkpt>
      <trkpt lat="43.95257" lon="7.32903">
        <ele>741.3</ele>
        <time>2011-05-22T08:39:50Z</time>
      </trkpt>
      <trkpt lat="43.95241" lon="7.32908">
        <ele>749.2</ele>
        <time>2011-05-22T08:40:29Z</time>
      </trkpt>
      <trkpt lat="43.95233" lon="7.32908">
        <ele>750.6</ele>
        <time>2011-05-22T08:40:42Z</time>
      </trkpt>
      <trkpt lat="43.95225" lon="7.3291">
        <ele>751.6</ele>
        <time>2011-05-22T08:40:49Z</time>
      </trkpt>
      <trkpt lat="43.95218" lon="7.32918">
        <ele>754.7</ele>
        <time>2011-05-22T08:40:57Z</time>
      </trkpt>
      <trkpt lat="43.95218" lon="7.32919">
        <ele>755.2</ele>
        <time>2011-05-22T08:40:58Z</time>
      </trkpt>
      <trkpt lat="43.95219" lon="7.32932">
        <ele>756.1</ele>
        <time>2011-05-22T08:43:11Z</time>
      </trkpt>
      <trkpt lat="43.95217" lon="7.32944">
        <ele>755.2</ele>
        <time>2011-05-22T08:44:25Z</time>
      </trkpt>
      <trkpt lat="43.95208" lon="7.32962">
        <ele>758.1</ele>
        <time>2011-05-22T08:44:42Z</time>
      </trkpt>
      <trkpt lat="43.952" lon="7.32968">
        <ele>760.9</ele>
        <time>2011-05-22T08:44:52Z</time>
      </trkpt>
      <trkpt lat="43.95193" lon="7.32974">
        <ele>763</ele>
        <time>2011-05-22T08:45:05Z</time>
      </trkpt>
      <trkpt lat="43.95184" lon="7.32978">
        <ele>763.9</ele>
        <time>2011-05-22T08:45:13Z</time>
      </trkpt>
      <trkpt lat="43.95176" lon="7.32982">
        <ele>765.5</ele>
        <time>2011-05-22T08:45:24Z</time>
      </trkpt>
      <trkpt lat="43.95168" lon="7.32984">
        <ele>769</ele>
        <time>2011-05-22T08:45:39Z</time>
      </trkpt>
      <trkpt lat="43.95167" lon="7.32984">
        <ele>769.2</ele>
        <time>2011-05-22T08:45:40Z</time>
      </trkpt>
      <trkpt lat="43.9515" lon="7.32986">
        <ele>775</ele>
        <time>2011-05-22T08:46:09Z</time>
      </trkpt>
      <trkpt lat="43.95142" lon="7.32988">
        <ele>776.9</ele>
        <time>2011-05-22T08:46:23Z</time>
      </trkpt>
      <trkpt lat="43.95148" lon="7.32996">
        <ele>781.3</ele>
        <time>2011-05-22T08:46:53Z</time>
      </trkpt>
      <trkpt lat="43.95149" lon="7.32996">
        <ele>781.4</ele>
        <time>2011-05-22T08:46:54Z</time>
      </trkpt>
      <trkpt lat="43.95165" lon="7.33001">
        <ele>783.6</ele>
        <time>2011-05-22T08:47:55Z</time>
      </trkpt>
      <trkpt lat="43.95165" lon="7.33002">
        <ele>783.7</ele>
        <time>2011-05-22T08:47:56Z</time>
      </trkpt>
      <trkpt lat="43.95164" lon="7.33014">
        <ele>784.1</ele>
        <time>2011-05-22T08:51:32Z</time>
      </trkpt>
      <trkpt lat="43.95173" lon="7.33009">
        <ele>784.1</ele>
        <time>2011-05-22T09:07:39Z</time>
      </trkpt>
      <trkpt lat="43.95157" lon="7.3302">
        <ele>788.2</ele>
        <time>2011-05-22T09:08:17Z</time>
      </trkpt>
      <trkpt lat="43.95149" lon="7.33025">
        <ele>790.6</ele>
        <time>2011-05-22T09:08:30Z</time>
      </trkpt>
      <trkpt lat="43.95141" lon="7.3303">
        <ele>793.4</ele>
        <time>2011-05-22T09:08:40Z</time>
      </trkpt>
      <trkpt lat="43.9514" lon="7.3303">
        <ele>793.7</ele>
        <time>2011-05-22T09:08:41Z</time>
      </trkpt>
      <trkpt lat="43.95143" lon="7.3304">
        <ele>799.3</ele>
        <time>2011-05-22T09:10:59Z</time>
      </trkpt>
      <trkpt lat="43.95144" lon="7.3304">
        <ele>799.5</ele>
        <time>2011-05-22T09:11:00Z</time>
      </trkpt>
      <trkpt lat="43.9516" lon="7.33043">
        <ele>803.8</ele>
        <time>2011-05-22T09:11:16Z</time>
      </trkpt>
      <trkpt lat="43.95154" lon="7.33051">
        <ele>807.2</ele>
        <time>2011-05-22T09:11:40Z</time>
      </trkpt>
      <trkpt lat="43.95147" lon="7.33058">
        <ele>809.2</ele>
        <time>2011-05-22T09:11:48Z</time>
      </trkpt>
      <trkpt lat="43.95142" lon="7.33068">
        <ele>810.7</ele>
        <time>2011-05-22T09:11:56Z</time>
      </trkpt>
      <trkpt lat="43.95134" lon="7.33071">
        <ele>812.7</ele>
        <time>2011-05-22T09:12:04Z</time>
      </trkpt>
      <trkpt lat="43.95133" lon="7.33071">
        <ele>813</ele>
        <time>2011-05-22T09:12:05Z</time>
      </trkpt>
      <trkpt lat="43.95117" lon="7.33072">
        <ele>816.5</ele>
        <time>2011-05-22T09:12:21Z</time>
      </trkpt>
      <trkpt lat="43.95123" lon="7.33082">
        <ele>821.7</ele>
        <time>2011-05-22T09:12:42Z</time>
      </trkpt>
      <trkpt lat="43.95114" lon="7.33085">
        <ele>823.6</ele>
        <time>2011-05-22T09:12:55Z</time>
      </trkpt>
      <trkpt lat="43.95106" lon="7.33084">
        <ele>825.9</ele>
        <time>2011-05-22T09:13:04Z</time>
      </trkpt>
      <trkpt lat="43.95097" lon="7.33083">
        <ele>827.9</ele>
        <time>2011-05-22T09:13:14Z</time>
      </trkpt>
      <trkpt lat="43.95096" lon="7.33083">
        <ele>828.2</ele>
        <time>2011-05-22T09:13:15Z</time>
      </trkpt>
      <trkpt lat="43.95081" lon="7.33078">
        <ele>831.8</ele>
        <time>2011-05-22T09:13:38Z</time>
      </trkpt>
      <trkpt lat="43.95074" lon="7.3307">
        <ele>834.4</ele>
        <time>2011-05-22T09:13:49Z</time>
      </trkpt>
      <trkpt lat="43.95066" lon="7.33066">
        <ele>834.9</ele>
        <time>2011-05-22T09:14:04Z</time>
      </trkpt>
      <trkpt lat="43.95058" lon="7.33061">
        <ele>838.5</ele>
        <time>2011-05-22T09:14:17Z</time>
      </trkpt>
      <trkpt lat="43.95057" lon="7.3306">
        <ele>838.9</ele>
        <time>2011-05-22T09:14:18Z</time>
      </trkpt>
      <trkpt lat="43.95041" lon="7.33052">
        <ele>841.7</ele>
        <time>2011-05-22T09:14:38Z</time>
      </trkpt>
      <trkpt lat="43.95033" lon="7.33049">
        <ele>843.2</ele>
        <time>2011-05-22T09:14:47Z</time>
      </trkpt>
      <trkpt lat="43.95024" lon="7.33048">
        <ele>844.4</ele>
        <time>2011-05-22T09:14:58Z</time>
      </trkpt>
      <trkpt lat="43.95015" lon="7.33047">
        <ele>845.6</ele>
        <time>2011-05-22T09:15:07Z</time>
      </trkpt>
      <trkpt lat="43.95007" lon="7.33044">
        <ele>847.5</ele>
        <time>2011-05-22T09:15:25Z</time>
      </trkpt>
      <trkpt lat="43.95006" lon="7.33043">
        <ele>847.4</ele>
        <time>2011-05-22T09:15:26Z</time>
      </trkpt>
      <trkpt lat="43.94993" lon="7.33036">
        <ele>848.9</ele>
        <time>2011-05-22T09:15:36Z</time>
      </trkpt>
      <trkpt lat="43.94985" lon="7.33033">
        <ele>849.7</ele>
        <time>2011-05-22T09:15:41Z</time>
      </trkpt>
      <trkpt lat="43.94977" lon="7.33033">
        <ele>850.3</ele>
        <time>2011-05-22T09:15:46Z</time>
      </trkpt>
      <trkpt lat="43.9497" lon="7.33035">
        <ele>852.5</ele>
        <time>2011-05-22T09:15:51Z</time>
      </trkpt>
      <trkpt lat="43.94961" lon="7.33038">
        <ele>853.7</ele>
        <time>2011-05-22T09:15:57Z</time>
      </trkpt>
      <trkpt lat="43.94956" lon="7.33043">
        <ele>854.6</ele>
        <time>2011-05-22T09:16:01Z</time>
      </trkpt>
      <trkpt lat="43.94947" lon="7.33042">
        <ele>854.2</ele>
        <time>2011-05-22T09:16:07Z</time>
      </trkpt>
      <trkpt lat="43.94941" lon="7.3305">
        <ele>857.7</ele>
        <time>2011-05-22T09:16:27Z</time>
      </trkpt>
      <trkpt lat="43.94941" lon="7.33051">
        <ele>857.6</ele>
        <time>2011-05-22T09:16:28Z</time>
      </trkpt>
      <trkpt lat="43.94934" lon="7.33071">
        <ele>859.8</ele>
        <time>2011-05-22T09:18:33Z</time>
      </trkpt>
      <trkpt lat="43.94933" lon="7.33072">
        <ele>859.9</ele>
        <time>2011-05-22T09:18:34Z</time>
      </trkpt>
      <trkpt lat="43.94921" lon="7.33087">
        <ele>860.6</ele>
        <time>2011-05-22T09:18:48Z</time>
      </trkpt>
      <trkpt lat="43.94914" lon="7.33093">
        <ele>862.3</ele>
        <time>2011-05-22T09:18:53Z</time>
      </trkpt>
      <trkpt lat="43.94907" lon="7.33098">
        <ele>863.8</ele>
        <time>2011-05-22T09:18:59Z</time>
      </trkpt>
      <trkpt lat="43.94901" lon="7.33105">
        <ele>865.2</ele>
        <time>2011-05-22T09:19:05Z</time>
      </trkpt>
      <trkpt lat="43.94896" lon="7.33114">
        <ele>865.6</ele>
        <time>2011-05-22T09:19:11Z</time>
      </trkpt>
      <trkpt lat="43.94891" lon="7.33122">
        <ele>867.2</ele>
        <time>2011-05-22T09:19:17Z</time>
      </trkpt>
      <trkpt lat="43.94882" lon="7.33124">
        <ele>869.5</ele>
        <time>2011-05-22T09:19:23Z</time>
      </trkpt>
      <trkpt lat="43.94876" lon="7.33131">
        <ele>870.5</ele>
        <time>2011-05-22T09:19:29Z</time>
      </trkpt>
      <trkpt lat="43.94869" lon="7.33137">
        <ele>872.4</ele>
        <time>2011-05-22T09:19:35Z</time>
      </trkpt>
      <trkpt lat="43.94868" lon="7.33137">
        <ele>872.9</ele>
        <time>2011-05-22T09:19:36Z</time>
      </trkpt>
      <trkpt lat="43.94857" lon="7.33152">
        <ele>875.9</ele>
        <time>2011-05-22T09:19:49Z</time>
      </trkpt>
      <trkpt lat="43.94852" lon="7.33162">
        <ele>877.5</ele>
        <time>2011-05-22T09:20:01Z</time>
      </trkpt>
      <trkpt lat="43.94844" lon="7.33158">
        <ele>880.7</ele>
        <time>2011-05-22T09:20:10Z</time>
      </trkpt>
      <trkpt lat="43.94836" lon="7.33158">
        <ele>881.9</ele>
        <time>2011-05-22T09:20:19Z</time>
      </trkpt>
      <trkpt lat="43.94836" lon="7.33169">
        <ele>883.9</ele>
        <time>2011-05-22T09:20:28Z</time>
      </trkpt>
      <trkpt lat="43.94835" lon="7.33181">
        <ele>886.1</ele>
        <time>2011-05-22T09:20:36Z</time>
      </trkpt>
      <trkpt lat="43.94828" lon="7.33186">
        <ele>888.8</ele>
        <time>2011-05-22T09:20:51Z</time>
      </trkpt>
      <trkpt lat="43.94827" lon="7.33186">
        <ele>889</ele>
        <time>2011-05-22T09:20:52Z</time>
      </trkpt>
      <trkpt lat="43.94812" lon="7.33178">
        <ele>891.6</ele>
        <time>2011-05-22T09:21:09Z</time>
      </trkpt>
      <trkpt lat="43.94804" lon="7.33176">
        <ele>892.5</ele>
        <time>2011-05-22T09:21:18Z</time>
      </trkpt>
      <trkpt lat="43.94795" lon="7.33179">
        <ele>893.7</ele>
        <time>2011-05-22T09:21:25Z</time>
      </trkpt>
      <trkpt lat="43.94789" lon="7.33188">
        <ele>897.3</ele>
        <time>2011-05-22T09:21:49Z</time>
      </trkpt>
      <trkpt lat="43.94784" lon="7.33197">
        <ele>897.9</ele>
        <time>2011-05-22T09:27:52Z</time>
      </trkpt>
      <trkpt lat="43.94782" lon="7.33199">
        <ele>897.8</ele>
        <time>2011-05-22T09:27:53Z</time>
      </trkpt>
      <trkpt lat="43.94784" lon="7.33216">
        <ele>894.7</ele>
        <time>2011-05-22T09:27:58Z</time>
      </trkpt>
      <trkpt lat="43.94786" lon="7.33222">
        <ele>893.8</ele>
        <time>2011-05-22T09:27:59Z</time>
      </trkpt>
      <trkpt lat="43.94788" lon="7.33228">
        <ele>893.1</ele>
        <time>2011-05-22T09:28:00Z</time>
      </trkpt>
      <trkpt lat="43.94789" lon="7.33235">
        <ele>892.2</ele>
        <time>2011-05-22T09:28:01Z</time>
      </trkpt>
      <trkpt lat="43.94792" lon="7.33243">
        <ele>891.5</ele>
        <time>2011-05-22T09:28:02Z</time>
      </trkpt>
      <trkpt lat="43.94793" lon="7.33251">
        <ele>891</ele>
        <time>2011-05-22T09:28:03Z</time>
      </trkpt>
      <trkpt lat="43.94795" lon="7.33259">
        <ele>889.7</ele>
        <time>2011-05-22T09:28:04Z</time>
      </trkpt>
      <trkpt lat="43.94796" lon="7.33268">
        <ele>888.6</ele>
        <time>2011-05-22T09:28:05Z</time>
      </trkpt>
      <trkpt lat="43.94796" lon="7.33277">
        <ele>887.9</ele>
        <time>2011-05-22T09:28:06Z</time>
      </trkpt>
      <trkpt lat="43.94795" lon="7.33285">
        <ele>885.9</ele>
        <time>2011-05-22T09:28:07Z</time>
      </trkpt>
      <trkpt lat="43.94799" lon="7.33295">
        <ele>883.2</ele>
        <time>2011-05-22T09:28:09Z</time>
      </trkpt>
      <trkpt lat="43.94802" lon="7.333">
        <ele>882.2</ele>
        <time>2011-05-22T09:28:10Z</time>
      </trkpt>
      <trkpt lat="43.94805" lon="7.33307">
        <ele>881.5</ele>
        <time>2011-05-22T09:28:11Z</time>
      </trkpt>
      <trkpt lat="43.94808" lon="7.33313">
        <ele>880.9</ele>
        <time>2011-05-22T09:28:12Z</time>
      </trkpt>
      <trkpt lat="43.94812" lon="7.3332">
        <ele>880.5</ele>
        <time>2011-05-22T09:28:13Z</time>
      </trkpt>
      <trkpt lat="43.94813" lon="7.3333">
        <ele>879</ele>
        <time>2011-05-22T09:28:15Z</time>
      </trkpt>
      <trkpt lat="43.94808" lon="7.33336">
        <ele>878.1</ele>
        <time>2011-05-22T09:28:18Z</time>
      </trkpt>
      <trkpt lat="43.94803" lon="7.33346">
        <ele>877.3</ele>
        <time>2011-05-22T09:28:21Z</time>
      </trkpt>
      <trkpt lat="43.94803" lon="7.33352">
        <ele>877.1</ele>
        <time>2011-05-22T09:28:22Z</time>
      </trkpt>
      <trkpt lat="43.94806" lon="7.3336">
        <ele>876.3</ele>
        <time>2011-05-22T09:28:23Z</time>
      </trkpt>
      <trkpt lat="43.9481" lon="7.33368">
        <ele>875.7</ele>
        <time>2011-05-22T09:28:24Z</time>
      </trkpt>
      <trkpt lat="43.94813" lon="7.33375">
        <ele>875.2</ele>
        <time>2011-05-22T09:28:25Z</time>
      </trkpt>
      <trkpt lat="43.94817" lon="7.33381">
        <ele>873.8</ele>
        <time>2011-05-22T09:28:26Z</time>
      </trkpt>
      <trkpt lat="43.94818" lon="7.33393">
        <ele>871.3</ele>
        <time>2011-05-22T09:28:29Z</time>
      </trkpt>
      <trkpt lat="43.94813" lon="7.33403">
        <ele>870.2</ele>
        <time>2011-05-22T09:28:33Z</time>
      </trkpt>
      <trkpt lat="43.94805" lon="7.33402">
        <ele>869.2</ele>
        <time>2011-05-22T09:28:38Z</time>
      </trkpt>
      <trkpt lat="43.94797" lon="7.33402">
        <ele>870.5</ele>
        <time>2011-05-22T09:28:45Z</time>
      </trkpt>
      <trkpt lat="43.94789" lon="7.33408">
        <ele>870.5</ele>
        <time>2011-05-22T09:29:05Z</time>
      </trkpt>
      <trkpt lat="43.94787" lon="7.33407">
        <ele>870.4</ele>
        <time>2011-05-22T09:29:06Z</time>
      </trkpt>
      <trkpt lat="43.94773" lon="7.33402">
        <ele>871.6</ele>
        <time>2011-05-22T09:29:15Z</time>
      </trkpt>
      <trkpt lat="43.94765" lon="7.33398">
        <ele>872</ele>
        <time>2011-05-22T09:29:19Z</time>
      </trkpt>
      <trkpt lat="43.94757" lon="7.33396">
        <ele>872.8</ele>
        <time>2011-05-22T09:29:23Z</time>
      </trkpt>
      <trkpt lat="43.94749" lon="7.33395">
        <ele>872.5</ele>
        <time>2011-05-22T09:29:27Z</time>
      </trkpt>
      <trkpt lat="43.94742" lon="7.3339">
        <ele>872.8</ele>
        <time>2011-05-22T09:29:31Z</time>
      </trkpt>
      <trkpt lat="43.94734" lon="7.33387">
        <ele>873.6</ele>
        <time>2011-05-22T09:29:35Z</time>
      </trkpt>
      <trkpt lat="43.94727" lon="7.33384">
        <ele>874</ele>
        <time>2011-05-22T09:29:39Z</time>
      </trkpt>
      <trkpt lat="43.9472" lon="7.33382">
        <ele>875.2</ele>
        <time>2011-05-22T09:29:42Z</time>
      </trkpt>
      <trkpt lat="43.94712" lon="7.33381">
        <ele>875.6</ele>
        <time>2011-05-22T09:29:45Z</time>
      </trkpt>
      <trkpt lat="43.94704" lon="7.33384">
        <ele>875.2</ele>
        <time>2011-05-22T09:29:48Z</time>
      </trkpt>
      <trkpt lat="43.94698" lon="7.33392">
        <ele>875</ele>
        <time>2011-05-22T09:29:50Z</time>
      </trkpt>
      <trkpt lat="43.94695" lon="7.33398">
        <ele>874.9</ele>
        <time>2011-05-22T09:29:51Z</time>
      </trkpt>
      <trkpt lat="43.94691" lon="7.33402">
        <ele>874.9</ele>
        <time>2011-05-22T09:29:52Z</time>
      </trkpt>
      <trkpt lat="43.94686" lon="7.33404">
        <ele>874.7</ele>
        <time>2011-05-22T09:29:53Z</time>
      </trkpt>
      <trkpt lat="43.94681" lon="7.33405">
        <ele>874.5</ele>
        <time>2011-05-22T09:29:54Z</time>
      </trkpt>
      <trkpt lat="43.94676" lon="7.33405">
        <ele>874.4</ele>
        <time>2011-05-22T09:29:55Z</time>
      </trkpt>
      <trkpt lat="43.94671" lon="7.33407">
        <ele>874.3</ele>
        <time>2011-05-22T09:29:56Z</time>
      </trkpt>
      <trkpt lat="43.94666" lon="7.3341">
        <ele>874.3</ele>
        <time>2011-05-22T09:29:57Z</time>
      </trkpt>
      <trkpt lat="43.9466" lon="7.33415">
        <ele>873.8</ele>
        <time>2011-05-22T09:29:59Z</time>
      </trkpt>
      <trkpt lat="43.94656" lon="7.33425">
        <ele>871.2</ele>
        <time>2011-05-22T09:30:04Z</time>
      </trkpt>
      <trkpt lat="43.94662" lon="7.33431">
        <ele>869.7</ele>
        <time>2011-05-22T09:30:06Z</time>
      </trkpt>
      <trkpt lat="43.94665" lon="7.33435">
        <ele>869.3</ele>
        <time>2011-05-22T09:30:07Z</time>
      </trkpt>
      <trkpt lat="43.94672" lon="7.33444">
        <ele>867.9</ele>
        <time>2011-05-22T09:30:09Z</time>
      </trkpt>
      <trkpt lat="43.94676" lon="7.33449">
        <ele>867.2</ele>
        <time>2011-05-22T09:30:10Z</time>
      </trkpt>
      <trkpt lat="43.94681" lon="7.33451">
        <ele>866.7</ele>
        <time>2011-05-22T09:30:11Z</time>
      </trkpt>
      <trkpt lat="43.94685" lon="7.33456">
        <ele>866.1</ele>
        <time>2011-05-22T09:30:12Z</time>
      </trkpt>
      <trkpt lat="43.94688" lon="7.33461">
        <ele>865.7</ele>
        <time>2011-05-22T09:30:13Z</time>
      </trkpt>
      <trkpt lat="43.94692" lon="7.33465">
        <ele>865.4</ele>
        <time>2011-05-22T09:30:14Z</time>
      </trkpt>
      <trkpt lat="43.94698" lon="7.33472">
        <ele>864.4</ele>
        <time>2011-05-22T09:30:16Z</time>
      </trkpt>
      <trkpt lat="43.94704" lon="7.3348">
        <ele>863.7</ele>
        <time>2011-05-22T09:30:18Z</time>
      </trkpt>
      <trkpt lat="43.94701" lon="7.3349">
        <ele>863.2</ele>
        <time>2011-05-22T09:30:20Z</time>
      </trkpt>
      <trkpt lat="43.94699" lon="7.33501">
        <ele>862.5</ele>
        <time>2011-05-22T09:30:22Z</time>
      </trkpt>
      <trkpt lat="43.94697" lon="7.33511">
        <ele>862.1</ele>
        <time>2011-05-22T09:30:24Z</time>
      </trkpt>
      <trkpt lat="43.94693" lon="7.3352">
        <ele>860.5</ele>
        <time>2011-05-22T09:30:26Z</time>
      </trkpt>
      <trkpt lat="43.94691" lon="7.33532">
        <ele>859.3</ele>
        <time>2011-05-22T09:30:28Z</time>
      </trkpt>
      <trkpt lat="43.94684" lon="7.33537">
        <ele>858</ele>
        <time>2011-05-22T09:30:31Z</time>
      </trkpt>
      <trkpt lat="43.94675" lon="7.33535">
        <ele>858.4</ele>
        <time>2011-05-22T09:30:35Z</time>
      </trkpt>
      <trkpt lat="43.94666" lon="7.33533">
        <ele>857.8</ele>
        <time>2011-05-22T09:30:39Z</time>
      </trkpt>
      <trkpt lat="43.94658" lon="7.33532">
        <ele>860.3</ele>
        <time>2011-05-22T09:30:46Z</time>
      </trkpt>
      <trkpt lat="43.94651" lon="7.3354">
        <ele>859.7</ele>
        <time>2011-05-22T09:30:59Z</time>
      </trkpt>
      <trkpt lat="43.94647" lon="7.3355">
        <ele>859.8</ele>
        <time>2011-05-22T09:31:03Z</time>
      </trkpt>
      <trkpt lat="43.94645" lon="7.33561">
        <ele>859.7</ele>
        <time>2011-05-22T09:31:05Z</time>
      </trkpt>
      <trkpt lat="43.94645" lon="7.33567">
        <ele>858.3</ele>
        <time>2011-05-22T09:31:06Z</time>
      </trkpt>
      <trkpt lat="43.94647" lon="7.33574">
        <ele>857.2</ele>
        <time>2011-05-22T09:31:07Z</time>
      </trkpt>
      <trkpt lat="43.94649" lon="7.33581">
        <ele>856.5</ele>
        <time>2011-05-22T09:31:08Z</time>
      </trkpt>
      <trkpt lat="43.94647" lon="7.33593">
        <ele>854.5</ele>
        <time>2011-05-22T09:31:10Z</time>
      </trkpt>
      <trkpt lat="43.94643" lon="7.33603">
        <ele>853.6</ele>
        <time>2011-05-22T09:31:12Z</time>
      </trkpt>
      <trkpt lat="43.94638" lon="7.33613">
        <ele>853.2</ele>
        <time>2011-05-22T09:31:16Z</time>
      </trkpt>
      <trkpt lat="43.9463" lon="7.33616">
        <ele>854.3</ele>
        <time>2011-05-22T09:31:21Z</time>
      </trkpt>
      <trkpt lat="43.94622" lon="7.33615">
        <ele>855.5</ele>
        <time>2011-05-22T09:31:28Z</time>
      </trkpt>
      <trkpt lat="43.94615" lon="7.33609">
        <ele>856.2</ele>
        <time>2011-05-22T09:31:34Z</time>
      </trkpt>
      <trkpt lat="43.94609" lon="7.33602">
        <ele>857.1</ele>
        <time>2011-05-22T09:31:38Z</time>
      </trkpt>
      <trkpt lat="43.94603" lon="7.33594">
        <ele>857.3</ele>
        <time>2011-05-22T09:31:41Z</time>
      </trkpt>
      <trkpt lat="43.94597" lon="7.33589">
        <ele>856.8</ele>
        <time>2011-05-22T09:31:44Z</time>
      </trkpt>
      <trkpt lat="43.94591" lon="7.33582">
        <ele>856.2</ele>
        <time>2011-05-22T09:31:48Z</time>
      </trkpt>
      <trkpt lat="43.94584" lon="7.33577">
        <ele>857.1</ele>
        <time>2011-05-22T09:31:52Z</time>
      </trkpt>
      <trkpt lat="43.94577" lon="7.33573">
        <ele>857</ele>
        <time>2011-05-22T09:31:56Z</time>
      </trkpt>
      <trkpt lat="43.94569" lon="7.33571">
        <ele>858.4</ele>
        <time>2011-05-22T09:32:01Z</time>
      </trkpt>
      <trkpt lat="43.94561" lon="7.33573">
        <ele>859.7</ele>
        <time>2011-05-22T09:32:06Z</time>
      </trkpt>
      <trkpt lat="43.94553" lon="7.33578">
        <ele>860.2</ele>
        <time>2011-05-22T09:32:11Z</time>
      </trkpt>
      <trkpt lat="43.94552" lon="7.33579">
        <ele>860.3</ele>
        <time>2011-05-22T09:32:12Z</time>
      </trkpt>
      <trkpt lat="43.94539" lon="7.33591">
        <ele>863.6</ele>
        <time>2011-05-22T09:32:24Z</time>
      </trkpt>
      <trkpt lat="43.94533" lon="7.33593">
        <ele>862.7</ele>
        <time>2011-05-22T09:32:28Z</time>
      </trkpt>
      <trkpt lat="43.94525" lon="7.33598">
        <ele>861.8</ele>
        <time>2011-05-22T09:32:31Z</time>
      </trkpt>
      <trkpt lat="43.94519" lon="7.33602">
        <ele>859.7</ele>
        <time>2011-05-22T09:32:34Z</time>
      </trkpt>
      <trkpt lat="43.9451" lon="7.33604">
        <ele>854</ele>
        <time>2011-05-22T09:32:45Z</time>
      </trkpt>
      <trkpt lat="43.94503" lon="7.33611">
        <ele>853.4</ele>
        <time>2011-05-22T09:32:48Z</time>
      </trkpt>
      <trkpt lat="43.94495" lon="7.33609">
        <ele>852.4</ele>
        <time>2011-05-22T09:32:58Z</time>
      </trkpt>
      <trkpt lat="43.9449" lon="7.33599">
        <ele>849.7</ele>
        <time>2011-05-22T09:33:12Z</time>
      </trkpt>
      <trkpt lat="43.94489" lon="7.33598">
        <ele>849.8</ele>
        <time>2011-05-22T09:33:13Z</time>
      </trkpt>
      <trkpt lat="43.94482" lon="7.33577">
        <ele>850.7</ele>
        <time>2011-05-22T09:33:49Z</time>
      </trkpt>
      <trkpt lat="43.94479" lon="7.33565">
        <ele>850.6</ele>
        <time>2011-05-22T09:37:04Z</time>
      </trkpt>
      <trkpt lat="43.94478" lon="7.33564">
        <ele>850.7</ele>
        <time>2011-05-22T09:37:05Z</time>
      </trkpt>
      <trkpt lat="43.94472" lon="7.33543">
        <ele>850.6</ele>
        <time>2011-05-22T09:37:22Z</time>
      </trkpt>
      <trkpt lat="43.94469" lon="7.33532">
        <ele>851.5</ele>
        <time>2011-05-22T09:37:28Z</time>
      </trkpt>
      <trkpt lat="43.94464" lon="7.33523">
        <ele>851.8</ele>
        <time>2011-05-22T09:37:33Z</time>
      </trkpt>
      <trkpt lat="43.94459" lon="7.33513">
        <ele>852.1</ele>
        <time>2011-05-22T09:37:37Z</time>
      </trkpt>
      <trkpt lat="43.94451" lon="7.33507">
        <ele>852.3</ele>
        <time>2011-05-22T09:37:41Z</time>
      </trkpt>
      <trkpt lat="43.94443" lon="7.33504">
        <ele>852</ele>
        <time>2011-05-22T09:37:44Z</time>
      </trkpt>
      <trkpt lat="43.94435" lon="7.33501">
        <ele>851.4</ele>
        <time>2011-05-22T09:37:47Z</time>
      </trkpt>
      <trkpt lat="43.94427" lon="7.33497">
        <ele>851.8</ele>
        <time>2011-05-22T09:37:50Z</time>
      </trkpt>
      <trkpt lat="43.94421" lon="7.33489">
        <ele>851.2</ele>
        <time>2011-05-22T09:37:54Z</time>
      </trkpt>
      <trkpt lat="43.94417" lon="7.33481">
        <ele>851.9</ele>
        <time>2011-05-22T09:37:57Z</time>
      </trkpt>
      <trkpt lat="43.94415" lon="7.33472">
        <ele>851.7</ele>
        <time>2011-05-22T09:38:00Z</time>
      </trkpt>
      <trkpt lat="43.94413" lon="7.3346">
        <ele>852.7</ele>
        <time>2011-05-22T09:38:04Z</time>
      </trkpt>
      <trkpt lat="43.94411" lon="7.33451">
        <ele>852.8</ele>
        <time>2011-05-22T09:38:07Z</time>
      </trkpt>
      <trkpt lat="43.9441" lon="7.33448">
        <ele>852.7</ele>
        <time>2011-05-22T09:38:08Z</time>
      </trkpt>
      <trkpt lat="43.94399" lon="7.33436">
        <ele>854.1</ele>
        <time>2011-05-22T09:38:14Z</time>
      </trkpt>
      <trkpt lat="43.94391" lon="7.33433">
        <ele>854.9</ele>
        <time>2011-05-22T09:38:18Z</time>
      </trkpt>
      <trkpt lat="43.94383" lon="7.33431">
        <ele>856.8</ele>
        <time>2011-05-22T09:38:22Z</time>
      </trkpt>
      <trkpt lat="43.94375" lon="7.33429">
        <ele>857.7</ele>
        <time>2011-05-22T09:38:26Z</time>
      </trkpt>
      <trkpt lat="43.94367" lon="7.33428">
        <ele>858.6</ele>
        <time>2011-05-22T09:38:30Z</time>
      </trkpt>
      <trkpt lat="43.94359" lon="7.33431">
        <ele>860.1</ele>
        <time>2011-05-22T09:38:35Z</time>
      </trkpt>
      <trkpt lat="43.94351" lon="7.33435">
        <ele>862</ele>
        <time>2011-05-22T09:38:47Z</time>
      </trkpt>
      <trkpt lat="43.94344" lon="7.3344">
        <ele>861.9</ele>
        <time>2011-05-22T09:38:50Z</time>
      </trkpt>
      <trkpt lat="43.94337" lon="7.33443">
        <ele>861.7</ele>
        <time>2011-05-22T09:38:52Z</time>
      </trkpt>
      <trkpt lat="43.9433" lon="7.33446">
        <ele>861.6</ele>
        <time>2011-05-22T09:38:54Z</time>
      </trkpt>
      <trkpt lat="43.94324" lon="7.33452">
        <ele>860.6</ele>
        <time>2011-05-22T09:38:56Z</time>
      </trkpt>
      <trkpt lat="43.94318" lon="7.33457">
        <ele>860.2</ele>
        <time>2011-05-22T09:38:58Z</time>
      </trkpt>
      <trkpt lat="43.94311" lon="7.33461">
        <ele>860</ele>
        <time>2011-05-22T09:39:00Z</time>
      </trkpt>
      <trkpt lat="43.94306" lon="7.33462">
        <ele>860</ele>
        <time>2011-05-22T09:39:02Z</time>
      </trkpt>
      <trkpt lat="43.94299" lon="7.33467">
        <ele>860</ele>
        <time>2011-05-22T09:39:04Z</time>
      </trkpt>
      <trkpt lat="43.94293" lon="7.33475">
        <ele>859.5</ele>
        <time>2011-05-22T09:39:06Z</time>
      </trkpt>
      <trkpt lat="43.94291" lon="7.33482">
        <ele>859.3</ele>
        <time>2011-05-22T09:39:07Z</time>
      </trkpt>
      <trkpt lat="43.94289" lon="7.3349">
        <ele>859.1</ele>
        <time>2011-05-22T09:39:08Z</time>
      </trkpt>
      <trkpt lat="43.94285" lon="7.33495">
        <ele>858.9</ele>
        <time>2011-05-22T09:39:09Z</time>
      </trkpt>
      <trkpt lat="43.94277" lon="7.33498">
        <ele>858.3</ele>
        <time>2011-05-22T09:39:11Z</time>
      </trkpt>
      <trkpt lat="43.94269" lon="7.33503">
        <ele>857.6</ele>
        <time>2011-05-22T09:39:13Z</time>
      </trkpt>
      <trkpt lat="43.94263" lon="7.33506">
        <ele>857.1</ele>
        <time>2011-05-22T09:39:15Z</time>
      </trkpt>
      <trkpt lat="43.94257" lon="7.33512">
        <ele>856.8</ele>
        <time>2011-05-22T09:39:17Z</time>
      </trkpt>
      <trkpt lat="43.94252" lon="7.33517">
        <ele>857.5</ele>
        <time>2011-05-22T09:39:19Z</time>
      </trkpt>
      <trkpt lat="43.94247" lon="7.33522">
        <ele>857.3</ele>
        <time>2011-05-22T09:39:21Z</time>
      </trkpt>
      <trkpt lat="43.9424" lon="7.33523">
        <ele>856.8</ele>
        <time>2011-05-22T09:39:23Z</time>
      </trkpt>
      <trkpt lat="43.94234" lon="7.33525">
        <ele>856.7</ele>
        <time>2011-05-22T09:39:25Z</time>
      </trkpt>
      <trkpt lat="43.94227" lon="7.33527">
        <ele>856.7</ele>
        <time>2011-05-22T09:39:27Z</time>
      </trkpt>
      <trkpt lat="43.94221" lon="7.33532">
        <ele>856.6</ele>
        <time>2011-05-22T09:39:29Z</time>
      </trkpt>
      <trkpt lat="43.94214" lon="7.33537">
        <ele>856.2</ele>
        <time>2011-05-22T09:39:31Z</time>
      </trkpt>
      <trkpt lat="43.94208" lon="7.33544">
        <ele>856</ele>
        <time>2011-05-22T09:39:33Z</time>
      </trkpt>
      <trkpt lat="43.94204" lon="7.33553">
        <ele>855.2</ele>
        <time>2011-05-22T09:39:35Z</time>
      </trkpt>
      <trkpt lat="43.94199" lon="7.33561">
        <ele>855.3</ele>
        <time>2011-05-22T09:39:37Z</time>
      </trkpt>
      <trkpt lat="43.94192" lon="7.33565">
        <ele>855.6</ele>
        <time>2011-05-22T09:39:39Z</time>
      </trkpt>
      <trkpt lat="43.94185" lon="7.3357">
        <ele>855.1</ele>
        <time>2011-05-22T09:39:41Z</time>
      </trkpt>
      <trkpt lat="43.94178" lon="7.33574">
        <ele>854.6</ele>
        <time>2011-05-22T09:39:43Z</time>
      </trkpt>
      <trkpt lat="43.94172" lon="7.33578">
        <ele>854.1</ele>
        <time>2011-05-22T09:39:45Z</time>
      </trkpt>
      <trkpt lat="43.94171" lon="7.33588">
        <ele>853.3</ele>
        <time>2011-05-22T09:39:47Z</time>
      </trkpt>
      <trkpt lat="43.9417" lon="7.33594">
        <ele>853.1</ele>
        <time>2011-05-22T09:39:48Z</time>
      </trkpt>
      <trkpt lat="43.94168" lon="7.336">
        <ele>852.4</ele>
        <time>2011-05-22T09:39:49Z</time>
      </trkpt>
      <trkpt lat="43.94166" lon="7.33606">
        <ele>851.8</ele>
        <time>2011-05-22T09:39:50Z</time>
      </trkpt>
      <trkpt lat="43.94163" lon="7.33612">
        <ele>851.4</ele>
        <time>2011-05-22T09:39:51Z</time>
      </trkpt>
      <trkpt lat="43.94162" lon="7.33618">
        <ele>851.1</ele>
        <time>2011-05-22T09:39:52Z</time>
      </trkpt>
      <trkpt lat="43.9416" lon="7.33631">
        <ele>850.6</ele>
        <time>2011-05-22T09:39:54Z</time>
      </trkpt>
      <trkpt lat="43.94158" lon="7.33642">
        <ele>850.1</ele>
        <time>2011-05-22T09:39:56Z</time>
      </trkpt>
      <trkpt lat="43.94157" lon="7.33649">
        <ele>849.9</ele>
        <time>2011-05-22T09:39:57Z</time>
      </trkpt>
      <trkpt lat="43.94156" lon="7.33655">
        <ele>849.8</ele>
        <time>2011-05-22T09:39:58Z</time>
      </trkpt>
      <trkpt lat="43.94157" lon="7.33667">
        <ele>849.8</ele>
        <time>2011-05-22T09:40:00Z</time>
      </trkpt>
      <trkpt lat="43.94159" lon="7.33677">
        <ele>849</ele>
        <time>2011-05-22T09:40:02Z</time>
      </trkpt>
      <trkpt lat="43.94162" lon="7.33689">
        <ele>848</ele>
        <time>2011-05-22T09:40:04Z</time>
      </trkpt>
      <trkpt lat="43.94165" lon="7.33695">
        <ele>847.7</ele>
        <time>2011-05-22T09:40:05Z</time>
      </trkpt>
      <trkpt lat="43.94168" lon="7.33699">
        <ele>847</ele>
        <time>2011-05-22T09:40:06Z</time>
      </trkpt>
      <trkpt lat="43.94172" lon="7.33704">
        <ele>846.4</ele>
        <time>2011-05-22T09:40:07Z</time>
      </trkpt>
      <trkpt lat="43.94176" lon="7.33709">
        <ele>846</ele>
        <time>2011-05-22T09:40:08Z</time>
      </trkpt>
      <trkpt lat="43.9418" lon="7.33715">
        <ele>845.6</ele>
        <time>2011-05-22T09:40:09Z</time>
      </trkpt>
      <trkpt lat="43.94182" lon="7.33722">
        <ele>845.2</ele>
        <time>2011-05-22T09:40:10Z</time>
      </trkpt>
      <trkpt lat="43.94179" lon="7.33737">
        <ele>843.9</ele>
        <time>2011-05-22T09:40:13Z</time>
      </trkpt>
      <trkpt lat="43.94178" lon="7.33746">
        <ele>843.2</ele>
        <time>2011-05-22T09:40:15Z</time>
      </trkpt>
      <trkpt lat="43.94174" lon="7.33756">
        <ele>842.8</ele>
        <time>2011-05-22T09:40:17Z</time>
      </trkpt>
      <trkpt lat="43.94172" lon="7.33762">
        <ele>842.5</ele>
        <time>2011-05-22T09:40:18Z</time>
      </trkpt>
      <trkpt lat="43.9417" lon="7.3377">
        <ele>842.4</ele>
        <time>2011-05-22T09:40:19Z</time>
      </trkpt>
      <trkpt lat="43.94169" lon="7.33778">
        <ele>842.3</ele>
        <time>2011-05-22T09:40:20Z</time>
      </trkpt>
      <trkpt lat="43.94167" lon="7.33786">
        <ele>841.7</ele>
        <time>2011-05-22T09:40:21Z</time>
      </trkpt>
      <trkpt lat="43.94165" lon="7.33793">
        <ele>841.2</ele>
        <time>2011-05-22T09:40:22Z</time>
      </trkpt>
      <trkpt lat="43.94161" lon="7.338">
        <ele>840.9</ele>
        <time>2011-05-22T09:40:23Z</time>
      </trkpt>
      <trkpt lat="43.94158" lon="7.33806">
        <ele>840.7</ele>
        <time>2011-05-22T09:40:24Z</time>
      </trkpt>
      <trkpt lat="43.94151" lon="7.33814">
        <ele>839.9</ele>
        <time>2011-05-22T09:40:26Z</time>
      </trkpt>
      <trkpt lat="43.94145" lon="7.3382">
        <ele>839.5</ele>
        <time>2011-05-22T09:40:28Z</time>
      </trkpt>
      <trkpt lat="43.94139" lon="7.33822">
        <ele>839.3</ele>
        <time>2011-05-22T09:40:30Z</time>
      </trkpt>
      <trkpt lat="43.94132" lon="7.33822">
        <ele>839.1</ele>
        <time>2011-05-22T09:40:32Z</time>
      </trkpt>
      <trkpt lat="43.94124" lon="7.33822">
        <ele>840</ele>
        <time>2011-05-22T09:40:35Z</time>
      </trkpt>
      <trkpt lat="43.94116" lon="7.33823">
        <ele>840.6</ele>
        <time>2011-05-22T09:40:38Z</time>
      </trkpt>
      <trkpt lat="43.94107" lon="7.33822">
        <ele>841.2</ele>
        <time>2011-05-22T09:40:41Z</time>
      </trkpt>
      <trkpt lat="43.941" lon="7.33823">
        <ele>841.6</ele>
        <time>2011-05-22T09:40:43Z</time>
      </trkpt>
      <trkpt lat="43.94095" lon="7.33823">
        <ele>841.6</ele>
        <time>2011-05-22T09:40:44Z</time>
      </trkpt>
      <trkpt lat="43.9409" lon="7.33824">
        <ele>841.6</ele>
        <time>2011-05-22T09:40:45Z</time>
      </trkpt>
      <trkpt lat="43.94085" lon="7.33825">
        <ele>841.6</ele>
        <time>2011-05-22T09:40:46Z</time>
      </trkpt>
      <trkpt lat="43.9408" lon="7.33827">
        <ele>841.1</ele>
        <time>2011-05-22T09:40:47Z</time>
      </trkpt>
      <trkpt lat="43.94076" lon="7.33831">
        <ele>840.8</ele>
        <time>2011-05-22T09:40:48Z</time>
      </trkpt>
      <trkpt lat="43.94072" lon="7.33836">
        <ele>840.5</ele>
        <time>2011-05-22T09:40:49Z</time>
      </trkpt>
      <trkpt lat="43.94069" lon="7.33841">
        <ele>840.4</ele>
        <time>2011-05-22T09:40:50Z</time>
      </trkpt>
      <trkpt lat="43.94066" lon="7.33851">
        <ele>840.4</ele>
        <time>2011-05-22T09:40:52Z</time>
      </trkpt>
      <trkpt lat="43.94068" lon="7.33863">
        <ele>839.5</ele>
        <time>2011-05-22T09:40:54Z</time>
      </trkpt>
      <trkpt lat="43.9407" lon="7.33871">
        <ele>839.2</ele>
        <time>2011-05-22T09:40:55Z</time>
      </trkpt>
      <trkpt lat="43.94073" lon="7.33878">
        <ele>838.9</ele>
        <time>2011-05-22T09:40:56Z</time>
      </trkpt>
      <trkpt lat="43.94076" lon="7.33886">
        <ele>837.9</ele>
        <time>2011-05-22T09:40:57Z</time>
      </trkpt>
      <trkpt lat="43.94081" lon="7.33896">
        <ele>836.6</ele>
        <time>2011-05-22T09:40:59Z</time>
      </trkpt>
      <trkpt lat="43.94083" lon="7.33903">
        <ele>835.4</ele>
        <time>2011-05-22T09:41:01Z</time>
      </trkpt>
      <trkpt lat="43.94085" lon="7.33907">
        <ele>835.1</ele>
        <time>2011-05-22T09:41:02Z</time>
      </trkpt>
      <trkpt lat="43.94086" lon="7.33915">
        <ele>834.2</ele>
        <time>2011-05-22T09:41:03Z</time>
      </trkpt>
      <trkpt lat="43.94087" lon="7.33924">
        <ele>833.6</ele>
        <time>2011-05-22T09:41:04Z</time>
      </trkpt>
      <trkpt lat="43.94089" lon="7.33936">
        <ele>831.3</ele>
        <time>2011-05-22T09:41:06Z</time>
      </trkpt>
      <trkpt lat="43.94083" lon="7.33941">
        <ele>826.4</ele>
        <time>2011-05-22T09:41:12Z</time>
      </trkpt>
      <trkpt lat="43.94081" lon="7.33941">
        <ele>825.8</ele>
        <time>2011-05-22T09:41:13Z</time>
      </trkpt>
      <trkpt lat="43.94066" lon="7.33944">
        <ele>827.5</ele>
        <time>2011-05-22T09:41:24Z</time>
      </trkpt>
      <trkpt lat="43.94057" lon="7.33945">
        <ele>828.5</ele>
        <time>2011-05-22T09:41:40Z</time>
      </trkpt>
      <trkpt lat="43.94049" lon="7.33946">
        <ele>829</ele>
        <time>2011-05-22T09:41:49Z</time>
      </trkpt>
      <trkpt lat="43.94041" lon="7.33949">
        <ele>830.6</ele>
        <time>2011-05-22T09:41:56Z</time>
      </trkpt>
      <trkpt lat="43.94033" lon="7.33952">
        <ele>832.1</ele>
        <time>2011-05-22T09:42:07Z</time>
      </trkpt>
      <trkpt lat="43.94025" lon="7.33949">
        <ele>833</ele>
        <time>2011-05-22T09:42:18Z</time>
      </trkpt>
      <trkpt lat="43.94024" lon="7.33948">
        <ele>833.1</ele>
        <time>2011-05-22T09:42:19Z</time>
      </trkpt>
      <trkpt lat="43.9401" lon="7.33942">
        <ele>834.5</ele>
        <time>2011-05-22T09:42:31Z</time>
      </trkpt>
      <trkpt lat="43.94002" lon="7.33938">
        <ele>835.9</ele>
        <time>2011-05-22T09:42:37Z</time>
      </trkpt>
      <trkpt lat="43.93994" lon="7.33933">
        <ele>836.6</ele>
        <time>2011-05-22T09:42:43Z</time>
      </trkpt>
      <trkpt lat="43.93988" lon="7.33926">
        <ele>837.3</ele>
        <time>2011-05-22T09:42:49Z</time>
      </trkpt>
      <trkpt lat="43.9398" lon="7.33921">
        <ele>840.2</ele>
        <time>2011-05-22T09:42:57Z</time>
      </trkpt>
      <trkpt lat="43.93971" lon="7.33917">
        <ele>841.1</ele>
        <time>2011-05-22T09:43:05Z</time>
      </trkpt>
      <trkpt lat="43.93964" lon="7.33912">
        <ele>842.1</ele>
        <time>2011-05-22T09:43:11Z</time>
      </trkpt>
      <trkpt lat="43.93955" lon="7.33912">
        <ele>843.8</ele>
        <time>2011-05-22T09:43:17Z</time>
      </trkpt>
      <trkpt lat="43.93947" lon="7.33909">
        <ele>845</ele>
        <time>2011-05-22T09:43:23Z</time>
      </trkpt>
      <trkpt lat="43.93946" lon="7.33908">
        <ele>845.3</ele>
        <time>2011-05-22T09:43:24Z</time>
      </trkpt>
      <trkpt lat="43.93931" lon="7.33902">
        <ele>846.8</ele>
        <time>2011-05-22T09:43:35Z</time>
      </trkpt>
      <trkpt lat="43.93923" lon="7.33903">
        <ele>846.9</ele>
        <time>2011-05-22T09:43:40Z</time>
      </trkpt>
      <trkpt lat="43.93917" lon="7.33908">
        <ele>847.3</ele>
        <time>2011-05-22T09:43:44Z</time>
      </trkpt>
      <trkpt lat="43.93913" lon="7.33914">
        <ele>847.7</ele>
        <time>2011-05-22T09:43:47Z</time>
      </trkpt>
      <trkpt lat="43.93909" lon="7.33923">
        <ele>847.6</ele>
        <time>2011-05-22T09:43:50Z</time>
      </trkpt>
      <trkpt lat="43.93905" lon="7.33934">
        <ele>847.5</ele>
        <time>2011-05-22T09:43:53Z</time>
      </trkpt>
      <trkpt lat="43.93902" lon="7.33944">
        <ele>847.3</ele>
        <time>2011-05-22T09:43:55Z</time>
      </trkpt>
      <trkpt lat="43.93897" lon="7.33952">
        <ele>847</ele>
        <time>2011-05-22T09:43:57Z</time>
      </trkpt>
      <trkpt lat="43.93891" lon="7.33958">
        <ele>847</ele>
        <time>2011-05-22T09:43:59Z</time>
      </trkpt>
      <trkpt lat="43.93886" lon="7.33964">
        <ele>847</ele>
        <time>2011-05-22T09:44:01Z</time>
      </trkpt>
      <trkpt lat="43.93882" lon="7.33972">
        <ele>847</ele>
        <time>2011-05-22T09:44:03Z</time>
      </trkpt>
      <trkpt lat="43.93881" lon="7.33982">
        <ele>846.7</ele>
        <time>2011-05-22T09:44:05Z</time>
      </trkpt>
      <trkpt lat="43.93879" lon="7.3399">
        <ele>846.3</ele>
        <time>2011-05-22T09:44:07Z</time>
      </trkpt>
      <trkpt lat="43.93873" lon="7.33996">
        <ele>846.5</ele>
        <time>2011-05-22T09:44:09Z</time>
      </trkpt>
      <trkpt lat="43.93868" lon="7.34">
        <ele>846.4</ele>
        <time>2011-05-22T09:44:11Z</time>
      </trkpt>
      <trkpt lat="43.93865" lon="7.34009">
        <ele>846.2</ele>
        <time>2011-05-22T09:44:13Z</time>
      </trkpt>
      <trkpt lat="43.93862" lon="7.3402">
        <ele>845.3</ele>
        <time>2011-05-22T09:44:15Z</time>
      </trkpt>
      <trkpt lat="43.93857" lon="7.34029">
        <ele>844.8</ele>
        <time>2011-05-22T09:44:17Z</time>
      </trkpt>
      <trkpt lat="43.93853" lon="7.34039">
        <ele>844.9</ele>
        <time>2011-05-22T09:44:19Z</time>
      </trkpt>
      <trkpt lat="43.93846" lon="7.34042">
        <ele>845.3</ele>
        <time>2011-05-22T09:44:21Z</time>
      </trkpt>
      <trkpt lat="43.93839" lon="7.34044">
        <ele>845.8</ele>
        <time>2011-05-22T09:44:23Z</time>
      </trkpt>
      <trkpt lat="43.93833" lon="7.3405">
        <ele>846</ele>
        <time>2011-05-22T09:44:25Z</time>
      </trkpt>
      <trkpt lat="43.9383" lon="7.34054">
        <ele>846.1</ele>
        <time>2011-05-22T09:44:26Z</time>
      </trkpt>
      <trkpt lat="43.93825" lon="7.34064">
        <ele>846.5</ele>
        <time>2011-05-22T09:44:28Z</time>
      </trkpt>
      <trkpt lat="43.93823" lon="7.3407">
        <ele>846.7</ele>
        <time>2011-05-22T09:44:29Z</time>
      </trkpt>
      <trkpt lat="43.93821" lon="7.34077">
        <ele>846.4</ele>
        <time>2011-05-22T09:44:30Z</time>
      </trkpt>
      <trkpt lat="43.9382" lon="7.34084">
        <ele>846.2</ele>
        <time>2011-05-22T09:44:31Z</time>
      </trkpt>
      <trkpt lat="43.93819" lon="7.34091">
        <ele>846.1</ele>
        <time>2011-05-22T09:44:32Z</time>
      </trkpt>
      <trkpt lat="43.93818" lon="7.34099">
        <ele>846</ele>
        <time>2011-05-22T09:44:33Z</time>
      </trkpt>
      <trkpt lat="43.93819" lon="7.34105">
        <ele>845.9</ele>
        <time>2011-05-22T09:44:34Z</time>
      </trkpt>
      <trkpt lat="43.93821" lon="7.34112">
        <ele>845.8</ele>
        <time>2011-05-22T09:44:35Z</time>
      </trkpt>
      <trkpt lat="43.93822" lon="7.34119">
        <ele>845.7</ele>
        <time>2011-05-22T09:44:36Z</time>
      </trkpt>
      <trkpt lat="43.93822" lon="7.3413">
        <ele>844.8</ele>
        <time>2011-05-22T09:44:38Z</time>
      </trkpt>
      <trkpt lat="43.93818" lon="7.34139">
        <ele>844.6</ele>
        <time>2011-05-22T09:44:40Z</time>
      </trkpt>
      <trkpt lat="43.93812" lon="7.34147">
        <ele>844.6</ele>
        <time>2011-05-22T09:44:42Z</time>
      </trkpt>
      <trkpt lat="43.93804" lon="7.34154">
        <ele>844.3</ele>
        <time>2011-05-22T09:44:44Z</time>
      </trkpt>
      <trkpt lat="43.93796" lon="7.34155">
        <ele>844.2</ele>
        <time>2011-05-22T09:44:46Z</time>
      </trkpt>
      <trkpt lat="43.93792" lon="7.34158">
        <ele>844.2</ele>
        <time>2011-05-22T09:44:47Z</time>
      </trkpt>
      <trkpt lat="43.93789" lon="7.34164">
        <ele>844.1</ele>
        <time>2011-05-22T09:44:48Z</time>
      </trkpt>
      <trkpt lat="43.93786" lon="7.34171">
        <ele>844.1</ele>
        <time>2011-05-22T09:44:49Z</time>
      </trkpt>
      <trkpt lat="43.93784" lon="7.34179">
        <ele>843.7</ele>
        <time>2011-05-22T09:44:50Z</time>
      </trkpt>
      <trkpt lat="43.93782" lon="7.34187">
        <ele>843.4</ele>
        <time>2011-05-22T09:44:51Z</time>
      </trkpt>
      <trkpt lat="43.93779" lon="7.34195">
        <ele>843.2</ele>
        <time>2011-05-22T09:44:52Z</time>
      </trkpt>
      <trkpt lat="43.93776" lon="7.34205">
        <ele>843</ele>
        <time>2011-05-22T09:44:53Z</time>
      </trkpt>
      <trkpt lat="43.93773" lon="7.34214">
        <ele>842.8</ele>
        <time>2011-05-22T09:44:54Z</time>
      </trkpt>
      <trkpt lat="43.9377" lon="7.34223">
        <ele>842.6</ele>
        <time>2011-05-22T09:44:55Z</time>
      </trkpt>
      <trkpt lat="43.93767" lon="7.34231">
        <ele>841.7</ele>
        <time>2011-05-22T09:44:56Z</time>
      </trkpt>
      <trkpt lat="43.93764" lon="7.34236">
        <ele>841</ele>
        <time>2011-05-22T09:44:57Z</time>
      </trkpt>
      <trkpt lat="43.9376" lon="7.34241">
        <ele>840.4</ele>
        <time>2011-05-22T09:44:58Z</time>
      </trkpt>
      <trkpt lat="43.93756" lon="7.34244">
        <ele>839.8</ele>
        <time>2011-05-22T09:44:59Z</time>
      </trkpt>
      <trkpt lat="43.93748" lon="7.34242">
        <ele>838.4</ele>
        <time>2011-05-22T09:45:02Z</time>
      </trkpt>
      <trkpt lat="43.93741" lon="7.34237">
        <ele>835.5</ele>
        <time>2011-05-22T09:45:08Z</time>
      </trkpt>
      <trkpt lat="43.93733" lon="7.3423">
        <ele>833.5</ele>
        <time>2011-05-22T09:45:14Z</time>
      </trkpt>
      <trkpt lat="43.93725" lon="7.34227">
        <ele>831.8</ele>
        <time>2011-05-22T09:46:13Z</time>
      </trkpt>
      <trkpt lat="43.93724" lon="7.34227">
        <ele>831.8</ele>
        <time>2011-05-22T09:46:14Z</time>
      </trkpt>
      <trkpt lat="43.93715" lon="7.34224">
        <ele>828.1</ele>
        <time>2011-05-22T09:47:17Z</time>
      </trkpt>
      <trkpt lat="43.93707" lon="7.34219">
        <ele>828.2</ele>
        <time>2011-05-22T09:51:01Z</time>
      </trkpt>
      <trkpt lat="43.93692" lon="7.34215">
        <ele>831.2</ele>
        <time>2011-05-22T09:52:00Z</time>
      </trkpt>
      <trkpt lat="43.93684" lon="7.34218">
        <ele>830.5</ele>
        <time>2011-05-22T09:52:24Z</time>
      </trkpt>
      <trkpt lat="43.93684" lon="7.34218">
        <ele>830.4</ele>
        <time>2011-05-22T09:52:25Z</time>
      </trkpt>
      <trkpt lat="43.93692" lon="7.34213">
        <ele>830.2</ele>
        <time>2011-05-22T09:53:31Z</time>
      </trkpt>
      <trkpt lat="43.93693" lon="7.34196">
        <ele>831.1</ele>
        <time>2011-05-22T09:54:42Z</time>
      </trkpt>
      <trkpt lat="43.93692" lon="7.34195">
        <ele>830.9</ele>
        <time>2011-05-22T09:54:43Z</time>
      </trkpt>
      <trkpt lat="43.93693" lon="7.34178">
        <ele>830.4</ele>
        <time>2011-05-22T09:55:04Z</time>
      </trkpt>
      <trkpt lat="43.93701" lon="7.34171">
        <ele>831.7</ele>
        <time>2011-05-22T09:55:20Z</time>
      </trkpt>
      <trkpt lat="43.93705" lon="7.34161">
        <ele>832.8</ele>
        <time>2011-05-22T09:55:25Z</time>
      </trkpt>
      <trkpt lat="43.93706" lon="7.34149">
        <ele>834.3</ele>
        <time>2011-05-22T09:55:30Z</time>
      </trkpt>
      <trkpt lat="43.93704" lon="7.34139">
        <ele>834.8</ele>
        <time>2011-05-22T09:55:33Z</time>
      </trkpt>
      <trkpt lat="43.93702" lon="7.34129">
        <ele>835</ele>
        <time>2011-05-22T09:55:37Z</time>
      </trkpt>
      <trkpt lat="43.93702" lon="7.34119">
        <ele>836.6</ele>
        <time>2011-05-22T09:55:40Z</time>
      </trkpt>
      <trkpt lat="43.93701" lon="7.3411">
        <ele>837.1</ele>
        <time>2011-05-22T09:55:43Z</time>
      </trkpt>
      <trkpt lat="43.937" lon="7.34106">
        <ele>836.8</ele>
        <time>2011-05-22T09:55:44Z</time>
      </trkpt>
      <trkpt lat="43.93695" lon="7.34088">
        <ele>837.3</ele>
        <time>2011-05-22T09:55:51Z</time>
      </trkpt>
      <trkpt lat="43.93691" lon="7.34079">
        <ele>839</ele>
        <time>2011-05-22T09:55:56Z</time>
      </trkpt>
      <trkpt lat="43.93684" lon="7.34073">
        <ele>840.4</ele>
        <time>2011-05-22T09:56:01Z</time>
      </trkpt>
      <trkpt lat="43.93678" lon="7.34067">
        <ele>841.1</ele>
        <time>2011-05-22T09:56:04Z</time>
      </trkpt>
      <trkpt lat="43.9367" lon="7.34065">
        <ele>843.9</ele>
        <time>2011-05-22T09:56:09Z</time>
      </trkpt>
      <trkpt lat="43.93662" lon="7.34061">
        <ele>844</ele>
        <time>2011-05-22T09:56:14Z</time>
      </trkpt>
      <trkpt lat="43.93656" lon="7.34054">
        <ele>844.6</ele>
        <time>2011-05-22T09:56:18Z</time>
      </trkpt>
      <trkpt lat="43.9365" lon="7.34048">
        <ele>845</ele>
        <time>2011-05-22T09:56:22Z</time>
      </trkpt>
      <trkpt lat="43.93645" lon="7.34038">
        <ele>845.6</ele>
        <time>2011-05-22T09:56:32Z</time>
      </trkpt>
      <trkpt lat="43.93645" lon="7.34025">
        <ele>845.8</ele>
        <time>2011-05-22T09:56:59Z</time>
      </trkpt>
      <trkpt lat="43.93644" lon="7.34025">
        <ele>845.8</ele>
        <time>2011-05-22T09:57:00Z</time>
      </trkpt>
      <trkpt lat="43.93652" lon="7.34004">
        <ele>850.6</ele>
        <time>2011-05-22T09:57:31Z</time>
      </trkpt>
      <trkpt lat="43.93656" lon="7.33993">
        <ele>852.9</ele>
        <time>2011-05-22T09:57:45Z</time>
      </trkpt>
      <trkpt lat="43.93657" lon="7.33981">
        <ele>854.9</ele>
        <time>2011-05-22T09:57:57Z</time>
      </trkpt>
      <trkpt lat="43.93657" lon="7.33969">
        <ele>857.1</ele>
        <time>2011-05-22T09:58:08Z</time>
      </trkpt>
      <trkpt lat="43.93657" lon="7.33968">
        <ele>857.3</ele>
        <time>2011-05-22T09:58:09Z</time>
      </trkpt>
      <trkpt lat="43.93656" lon="7.33946">
        <ele>861.5</ele>
        <time>2011-05-22T09:58:27Z</time>
      </trkpt>
      <trkpt lat="43.93656" lon="7.33934">
        <ele>865.1</ele>
        <time>2011-05-22T09:58:43Z</time>
      </trkpt>
      <trkpt lat="43.93657" lon="7.33923">
        <ele>866.6</ele>
        <time>2011-05-22T09:58:54Z</time>
      </trkpt>
      <trkpt lat="43.93657" lon="7.33911">
        <ele>868.3</ele>
        <time>2011-05-22T09:59:08Z</time>
      </trkpt>
      <trkpt lat="43.93656" lon="7.339">
        <ele>869.1</ele>
        <time>2011-05-22T09:59:17Z</time>
      </trkpt>
      <trkpt lat="43.93656" lon="7.33898">
        <ele>869.7</ele>
        <time>2011-05-22T09:59:18Z</time>
      </trkpt>
      <trkpt lat="43.9365" lon="7.33878">
        <ele>873.9</ele>
        <time>2011-05-22T09:59:44Z</time>
      </trkpt>
      <trkpt lat="43.93644" lon="7.33886">
        <ele>878.1</ele>
        <time>2011-05-22T10:00:01Z</time>
      </trkpt>
      <trkpt lat="43.93638" lon="7.33894">
        <ele>879.2</ele>
        <time>2011-05-22T10:00:11Z</time>
      </trkpt>
      <trkpt lat="43.93632" lon="7.33902">
        <ele>880.8</ele>
        <time>2011-05-22T10:00:20Z</time>
      </trkpt>
      <trkpt lat="43.93632" lon="7.33903">
        <ele>880.8</ele>
        <time>2011-05-22T10:00:21Z</time>
      </trkpt>
      <trkpt lat="43.93619" lon="7.33904">
        <ele>886.5</ele>
        <time>2011-05-22T10:00:44Z</time>
      </trkpt>
      <trkpt lat="43.93611" lon="7.33898">
        <ele>891.8</ele>
        <time>2011-05-22T10:01:15Z</time>
      </trkpt>
      <trkpt lat="43.93607" lon="7.33888">
        <ele>893.4</ele>
        <time>2011-05-22T10:01:35Z</time>
      </trkpt>
      <trkpt lat="43.93606" lon="7.33887">
        <ele>893.2</ele>
        <time>2011-05-22T10:01:36Z</time>
      </trkpt>
      <trkpt lat="43.93598" lon="7.3389">
        <ele>894.8</ele>
        <time>2011-05-22T10:03:24Z</time>
      </trkpt>
      <trkpt lat="43.93584" lon="7.33898">
        <ele>899.3</ele>
        <time>2011-05-22T10:03:42Z</time>
      </trkpt>
      <trkpt lat="43.93579" lon="7.33908">
        <ele>900.8</ele>
        <time>2011-05-22T10:03:51Z</time>
      </trkpt>
      <trkpt lat="43.9357" lon="7.33905">
        <ele>902.1</ele>
        <time>2011-05-22T10:04:01Z</time>
      </trkpt>
      <trkpt lat="43.93562" lon="7.33906">
        <ele>904.2</ele>
        <time>2011-05-22T10:04:09Z</time>
      </trkpt>
      <trkpt lat="43.93554" lon="7.33904">
        <ele>905.9</ele>
        <time>2011-05-22T10:04:18Z</time>
      </trkpt>
      <trkpt lat="43.93546" lon="7.33898">
        <ele>906.8</ele>
        <time>2011-05-22T10:04:26Z</time>
      </trkpt>
      <trkpt lat="43.93545" lon="7.33897">
        <ele>906.7</ele>
        <time>2011-05-22T10:04:27Z</time>
      </trkpt>
      <trkpt lat="43.93531" lon="7.3389">
        <ele>909.5</ele>
        <time>2011-05-22T10:04:41Z</time>
      </trkpt>
      <trkpt lat="43.93524" lon="7.33882">
        <ele>911.4</ele>
        <time>2011-05-22T10:04:48Z</time>
      </trkpt>
      <trkpt lat="43.9352" lon="7.33873">
        <ele>911.9</ele>
        <time>2011-05-22T10:04:51Z</time>
      </trkpt>
      <trkpt lat="43.93514" lon="7.33866">
        <ele>910.9</ele>
        <time>2011-05-22T10:04:55Z</time>
      </trkpt>
      <trkpt lat="43.93508" lon="7.33857">
        <ele>912.7</ele>
        <time>2011-05-22T10:05:01Z</time>
      </trkpt>
      <trkpt lat="43.93507" lon="7.33846">
        <ele>913.1</ele>
        <time>2011-05-22T10:05:06Z</time>
      </trkpt>
      <trkpt lat="43.93507" lon="7.33834">
        <ele>913.2</ele>
        <time>2011-05-22T10:05:14Z</time>
      </trkpt>
      <trkpt lat="43.93504" lon="7.33823">
        <ele>914.7</ele>
        <time>2011-05-22T10:05:23Z</time>
      </trkpt>
      <trkpt lat="43.93501" lon="7.33813">
        <ele>916.7</ele>
        <time>2011-05-22T10:05:31Z</time>
      </trkpt>
      <trkpt lat="43.935" lon="7.33811">
        <ele>916.9</ele>
        <time>2011-05-22T10:05:32Z</time>
      </trkpt>
      <trkpt lat="43.93488" lon="7.33799">
        <ele>919.9</ele>
        <time>2011-05-22T10:05:48Z</time>
      </trkpt>
      <trkpt lat="43.9348" lon="7.33798">
        <ele>920.3</ele>
        <time>2011-05-22T10:05:54Z</time>
      </trkpt>
      <trkpt lat="43.93471" lon="7.33797">
        <ele>921</ele>
        <time>2011-05-22T10:06:01Z</time>
      </trkpt>
      <trkpt lat="43.93462" lon="7.33797">
        <ele>921.1</ele>
        <time>2011-05-22T10:06:07Z</time>
      </trkpt>
      <trkpt lat="43.93455" lon="7.33797">
        <ele>921.3</ele>
        <time>2011-05-22T10:06:12Z</time>
      </trkpt>
      <trkpt lat="43.93452" lon="7.33786">
        <ele>920.9</ele>
        <time>2011-05-22T10:06:18Z</time>
      </trkpt>
      <trkpt lat="43.93452" lon="7.33776">
        <ele>921.8</ele>
        <time>2011-05-22T10:06:22Z</time>
      </trkpt>
      <trkpt lat="43.93452" lon="7.33764">
        <ele>923.3</ele>
        <time>2011-05-22T10:06:27Z</time>
      </trkpt>
      <trkpt lat="43.93448" lon="7.33753">
        <ele>922.7</ele>
        <time>2011-05-22T10:06:33Z</time>
      </trkpt>
      <trkpt lat="43.93447" lon="7.33753">
        <ele>922.6</ele>
        <time>2011-05-22T10:06:34Z</time>
      </trkpt>
      <trkpt lat="43.93432" lon="7.33754">
        <ele>925</ele>
        <time>2011-05-22T10:06:45Z</time>
      </trkpt>
      <trkpt lat="43.93424" lon="7.33757">
        <ele>926.8</ele>
        <time>2011-05-22T10:06:53Z</time>
      </trkpt>
      <trkpt lat="43.93416" lon="7.33751">
        <ele>927.2</ele>
        <time>2011-05-22T10:06:59Z</time>
      </trkpt>
      <trkpt lat="43.93412" lon="7.33743">
        <ele>928.4</ele>
        <time>2011-05-22T10:07:04Z</time>
      </trkpt>
      <trkpt lat="43.93404" lon="7.33737">
        <ele>929.2</ele>
        <time>2011-05-22T10:07:10Z</time>
      </trkpt>
      <trkpt lat="43.93397" lon="7.33738">
        <ele>929.6</ele>
        <time>2011-05-22T10:07:16Z</time>
      </trkpt>
      <trkpt lat="43.93389" lon="7.33733">
        <ele>930.3</ele>
        <time>2011-05-22T10:07:22Z</time>
      </trkpt>
      <trkpt lat="43.93381" lon="7.3373">
        <ele>933.2</ele>
        <time>2011-05-22T10:07:29Z</time>
      </trkpt>
      <trkpt lat="43.93373" lon="7.33728">
        <ele>933.9</ele>
        <time>2011-05-22T10:07:35Z</time>
      </trkpt>
      <trkpt lat="43.93372" lon="7.33728">
        <ele>934.2</ele>
        <time>2011-05-22T10:07:36Z</time>
      </trkpt>
      <trkpt lat="43.93358" lon="7.33721">
        <ele>937</ele>
        <time>2011-05-22T10:07:49Z</time>
      </trkpt>
      <trkpt lat="43.93351" lon="7.33714">
        <ele>938.5</ele>
        <time>2011-05-22T10:07:56Z</time>
      </trkpt>
      <trkpt lat="43.93345" lon="7.33706">
        <ele>940.1</ele>
        <time>2011-05-22T10:08:03Z</time>
      </trkpt>
      <trkpt lat="43.9334" lon="7.33697">
        <ele>940.3</ele>
        <time>2011-05-22T10:08:11Z</time>
      </trkpt>
      <trkpt lat="43.93335" lon="7.33688">
        <ele>942.5</ele>
        <time>2011-05-22T10:08:18Z</time>
      </trkpt>
      <trkpt lat="43.93333" lon="7.33677">
        <ele>944</ele>
        <time>2011-05-22T10:08:25Z</time>
      </trkpt>
      <trkpt lat="43.93338" lon="7.33668">
        <ele>943.7</ele>
        <time>2011-05-22T10:08:31Z</time>
      </trkpt>
      <trkpt lat="43.93343" lon="7.33659">
        <ele>944</ele>
        <time>2011-05-22T10:08:37Z</time>
      </trkpt>
      <trkpt lat="43.93343" lon="7.33657">
        <ele>944</ele>
        <time>2011-05-22T10:08:38Z</time>
      </trkpt>
      <trkpt lat="43.93338" lon="7.33637">
        <ele>945.7</ele>
        <time>2011-05-22T10:08:53Z</time>
      </trkpt>
      <trkpt lat="43.93338" lon="7.33626">
        <ele>946.6</ele>
        <time>2011-05-22T10:09:00Z</time>
      </trkpt>
      <trkpt lat="43.93339" lon="7.33615">
        <ele>947.2</ele>
        <time>2011-05-22T10:09:06Z</time>
      </trkpt>
      <trkpt lat="43.93336" lon="7.33604">
        <ele>949</ele>
        <time>2011-05-22T10:09:13Z</time>
      </trkpt>
      <trkpt lat="43.93331" lon="7.33594">
        <ele>950</ele>
        <time>2011-05-22T10:09:20Z</time>
      </trkpt>
      <trkpt lat="43.93327" lon="7.33584">
        <ele>950.1</ele>
        <time>2011-05-22T10:09:26Z</time>
      </trkpt>
      <trkpt lat="43.9332" lon="7.33576">
        <ele>952.2</ele>
        <time>2011-05-22T10:09:40Z</time>
      </trkpt>
      <trkpt lat="43.9332" lon="7.33575">
        <ele>952.1</ele>
        <time>2011-05-22T10:09:41Z</time>
      </trkpt>
      <trkpt lat="43.93312" lon="7.33569">
        <ele>951.9</ele>
        <time>2011-05-22T10:28:38Z</time>
      </trkpt>
      <trkpt lat="43.93316" lon="7.33556">
        <ele>952.4</ele>
        <time>2011-05-22T10:39:59Z</time>
      </trkpt>
      <trkpt lat="43.93311" lon="7.33536">
        <ele>953.2</ele>
        <time>2011-05-22T10:40:10Z</time>
      </trkpt>
      <trkpt lat="43.93305" lon="7.33528">
        <ele>952.6</ele>
        <time>2011-05-22T10:40:15Z</time>
      </trkpt>
      <trkpt lat="43.93298" lon="7.33522">
        <ele>953.5</ele>
        <time>2011-05-22T10:40:17Z</time>
      </trkpt>
      <trkpt lat="43.93297" lon="7.33512">
        <ele>952.7</ele>
        <time>2011-05-22T10:40:19Z</time>
      </trkpt>
      <trkpt lat="43.93297" lon="7.33505">
        <ele>952</ele>
        <time>2011-05-22T10:40:20Z</time>
      </trkpt>
      <trkpt lat="43.93296" lon="7.33498">
        <ele>951.4</ele>
        <time>2011-05-22T10:40:21Z</time>
      </trkpt>
      <trkpt lat="43.93292" lon="7.33491">
        <ele>950.9</ele>
        <time>2011-05-22T10:40:22Z</time>
      </trkpt>
      <trkpt lat="43.93288" lon="7.33486">
        <ele>950.5</ele>
        <time>2011-05-22T10:40:23Z</time>
      </trkpt>
      <trkpt lat="43.93284" lon="7.3348">
        <ele>950.1</ele>
        <time>2011-05-22T10:40:24Z</time>
      </trkpt>
      <trkpt lat="43.9328" lon="7.33474">
        <ele>949.2</ele>
        <time>2011-05-22T10:40:25Z</time>
      </trkpt>
      <trkpt lat="43.93275" lon="7.33469">
        <ele>948.5</ele>
        <time>2011-05-22T10:40:26Z</time>
      </trkpt>
      <trkpt lat="43.9327" lon="7.33468">
        <ele>947.9</ele>
        <time>2011-05-22T10:40:27Z</time>
      </trkpt>
      <trkpt lat="43.93262" lon="7.33468">
        <ele>947.1</ele>
        <time>2011-05-22T10:40:29Z</time>
      </trkpt>
      <trkpt lat="43.93253" lon="7.33466">
        <ele>946.4</ele>
        <time>2011-05-22T10:40:31Z</time>
      </trkpt>
      <trkpt lat="43.93248" lon="7.33465">
        <ele>945.8</ele>
        <time>2011-05-22T10:40:32Z</time>
      </trkpt>
      <trkpt lat="43.93243" lon="7.33463">
        <ele>945.3</ele>
        <time>2011-05-22T10:40:33Z</time>
      </trkpt>
      <trkpt lat="43.93239" lon="7.33461">
        <ele>944.9</ele>
        <time>2011-05-22T10:40:34Z</time>
      </trkpt>
      <trkpt lat="43.93234" lon="7.33458">
        <ele>944.9</ele>
        <time>2011-05-22T10:40:35Z</time>
      </trkpt>
      <trkpt lat="43.93229" lon="7.33458">
        <ele>944.9</ele>
        <time>2011-05-22T10:40:36Z</time>
      </trkpt>
      <trkpt lat="43.93223" lon="7.3346">
        <ele>944.8</ele>
        <time>2011-05-22T10:40:37Z</time>
      </trkpt>
      <trkpt lat="43.93218" lon="7.33464">
        <ele>944.7</ele>
        <time>2011-05-22T10:40:38Z</time>
      </trkpt>
      <trkpt lat="43.93211" lon="7.33468">
        <ele>944.5</ele>
        <time>2011-05-22T10:40:39Z</time>
      </trkpt>
      <trkpt lat="43.93205" lon="7.33474">
        <ele>944.4</ele>
        <time>2011-05-22T10:40:40Z</time>
      </trkpt>
      <trkpt lat="43.93198" lon="7.33479">
        <ele>943.8</ele>
        <time>2011-05-22T10:40:41Z</time>
      </trkpt>
      <trkpt lat="43.93191" lon="7.33484">
        <ele>943.3</ele>
        <time>2011-05-22T10:40:42Z</time>
      </trkpt>
      <trkpt lat="43.93184" lon="7.33488">
        <ele>943</ele>
        <time>2011-05-22T10:40:43Z</time>
      </trkpt>
      <trkpt lat="43.93177" lon="7.33491">
        <ele>942.7</ele>
        <time>2011-05-22T10:40:44Z</time>
      </trkpt>
      <trkpt lat="43.93171" lon="7.33492">
        <ele>941</ele>
        <time>2011-05-22T10:40:45Z</time>
      </trkpt>
      <trkpt lat="43.93166" lon="7.33493">
        <ele>939.7</ele>
        <time>2011-05-22T10:40:46Z</time>
      </trkpt>
      <trkpt lat="43.93161" lon="7.33494">
        <ele>938.8</ele>
        <time>2011-05-22T10:40:47Z</time>
      </trkpt>
      <trkpt lat="43.93158" lon="7.33498">
        <ele>936.9</ele>
        <time>2011-05-22T10:40:48Z</time>
      </trkpt>
      <trkpt lat="43.93152" lon="7.33505">
        <ele>934.5</ele>
        <time>2011-05-22T10:40:50Z</time>
      </trkpt>
      <trkpt lat="43.93146" lon="7.33504">
        <ele>931.7</ele>
        <time>2011-05-22T10:40:52Z</time>
      </trkpt>
      <trkpt lat="43.93139" lon="7.3351">
        <ele>929.4</ele>
        <time>2011-05-22T10:40:54Z</time>
      </trkpt>
      <trkpt lat="43.93137" lon="7.33521">
        <ele>925.4</ele>
        <time>2011-05-22T10:40:58Z</time>
      </trkpt>
      <trkpt lat="43.93138" lon="7.33532">
        <ele>921.1</ele>
        <time>2011-05-22T10:41:05Z</time>
      </trkpt>
      <trkpt lat="43.93138" lon="7.33535">
        <ele>920.8</ele>
        <time>2011-05-22T10:41:06Z</time>
      </trkpt>
      <trkpt lat="43.93131" lon="7.33548">
        <ele>917.1</ele>
        <time>2011-05-22T10:41:16Z</time>
      </trkpt>
      <trkpt lat="43.93125" lon="7.33545">
        <ele>915.9</ele>
        <time>2011-05-22T10:41:19Z</time>
      </trkpt>
      <trkpt lat="43.93118" lon="7.3354">
        <ele>916.3</ele>
        <time>2011-05-22T10:41:22Z</time>
      </trkpt>
      <trkpt lat="43.93113" lon="7.33536">
        <ele>916.1</ele>
        <time>2011-05-22T10:41:24Z</time>
      </trkpt>
      <trkpt lat="43.93108" lon="7.33529">
        <ele>915.8</ele>
        <time>2011-05-22T10:41:26Z</time>
      </trkpt>
      <trkpt lat="43.93102" lon="7.33522">
        <ele>915.5</ele>
        <time>2011-05-22T10:41:28Z</time>
      </trkpt>
      <trkpt lat="43.93099" lon="7.33513">
        <ele>915.5</ele>
        <time>2011-05-22T10:41:30Z</time>
      </trkpt>
      <trkpt lat="43.93095" lon="7.33504">
        <ele>915.1</ele>
        <time>2011-05-22T10:41:32Z</time>
      </trkpt>
      <trkpt lat="43.93089" lon="7.33498">
        <ele>914.7</ele>
        <time>2011-05-22T10:41:34Z</time>
      </trkpt>
      <trkpt lat="43.93081" lon="7.33495">
        <ele>914.6</ele>
        <time>2011-05-22T10:41:36Z</time>
      </trkpt>
      <trkpt lat="43.93073" lon="7.33493">
        <ele>914.5</ele>
        <time>2011-05-22T10:41:38Z</time>
      </trkpt>
      <trkpt lat="43.93065" lon="7.33491">
        <ele>913.8</ele>
        <time>2011-05-22T10:41:40Z</time>
      </trkpt>
      <trkpt lat="43.9306" lon="7.33491">
        <ele>913.6</ele>
        <time>2011-05-22T10:41:41Z</time>
      </trkpt>
      <trkpt lat="43.93055" lon="7.33493">
        <ele>914</ele>
        <time>2011-05-22T10:41:42Z</time>
      </trkpt>
      <trkpt lat="43.93051" lon="7.33498">
        <ele>914.4</ele>
        <time>2011-05-22T10:41:43Z</time>
      </trkpt>
      <trkpt lat="43.93049" lon="7.33504">
        <ele>914.6</ele>
        <time>2011-05-22T10:41:44Z</time>
      </trkpt>
      <trkpt lat="43.93046" lon="7.33511">
        <ele>913.6</ele>
        <time>2011-05-22T10:41:45Z</time>
      </trkpt>
      <trkpt lat="43.93042" lon="7.33518">
        <ele>912.8</ele>
        <time>2011-05-22T10:41:46Z</time>
      </trkpt>
      <trkpt lat="43.93036" lon="7.33526">
        <ele>912.2</ele>
        <time>2011-05-22T10:41:47Z</time>
      </trkpt>
      <trkpt lat="43.93029" lon="7.33534">
        <ele>910.4</ele>
        <time>2011-05-22T10:41:48Z</time>
      </trkpt>
      <trkpt lat="43.93023" lon="7.3354">
        <ele>909</ele>
        <time>2011-05-22T10:41:49Z</time>
      </trkpt>
      <trkpt lat="43.93015" lon="7.33543">
        <ele>908</ele>
        <time>2011-05-22T10:41:50Z</time>
      </trkpt>
      <trkpt lat="43.93007" lon="7.33546">
        <ele>907.2</ele>
        <time>2011-05-22T10:41:51Z</time>
      </trkpt>
      <trkpt lat="43.93002" lon="7.33549">
        <ele>906.1</ele>
        <time>2011-05-22T10:41:52Z</time>
      </trkpt>
      <trkpt lat="43.92997" lon="7.33551">
        <ele>905.3</ele>
        <time>2011-05-22T10:41:53Z</time>
      </trkpt>
      <trkpt lat="43.92989" lon="7.33554">
        <ele>903.8</ele>
        <time>2011-05-22T10:41:55Z</time>
      </trkpt>
      <trkpt lat="43.9298" lon="7.33556">
        <ele>902.6</ele>
        <time>2011-05-22T10:41:57Z</time>
      </trkpt>
      <trkpt lat="43.92976" lon="7.33558">
        <ele>901.7</ele>
        <time>2011-05-22T10:41:58Z</time>
      </trkpt>
      <trkpt lat="43.92972" lon="7.3356">
        <ele>901.1</ele>
        <time>2011-05-22T10:41:59Z</time>
      </trkpt>
      <trkpt lat="43.92967" lon="7.33562">
        <ele>900.6</ele>
        <time>2011-05-22T10:42:00Z</time>
      </trkpt>
      <trkpt lat="43.92961" lon="7.33564">
        <ele>900.1</ele>
        <time>2011-05-22T10:42:01Z</time>
      </trkpt>
      <trkpt lat="43.92955" lon="7.33564">
        <ele>899.7</ele>
        <time>2011-05-22T10:42:02Z</time>
      </trkpt>
      <trkpt lat="43.9295" lon="7.33564">
        <ele>899.4</ele>
        <time>2011-05-22T10:42:03Z</time>
      </trkpt>
      <trkpt lat="43.92944" lon="7.33564">
        <ele>897.8</ele>
        <time>2011-05-22T10:42:04Z</time>
      </trkpt>
      <trkpt lat="43.92939" lon="7.33566">
        <ele>896.7</ele>
        <time>2011-05-22T10:42:05Z</time>
      </trkpt>
      <trkpt lat="43.92933" lon="7.3357">
        <ele>895.8</ele>
        <time>2011-05-22T10:42:06Z</time>
      </trkpt>
      <trkpt lat="43.92928" lon="7.33572">
        <ele>895.1</ele>
        <time>2011-05-22T10:42:07Z</time>
      </trkpt>
      <trkpt lat="43.92922" lon="7.33574">
        <ele>893.7</ele>
        <time>2011-05-22T10:42:08Z</time>
      </trkpt>
      <trkpt lat="43.92918" lon="7.33576">
        <ele>892.6</ele>
        <time>2011-05-22T10:42:09Z</time>
      </trkpt>
      <trkpt lat="43.92912" lon="7.33578">
        <ele>891.8</ele>
        <time>2011-05-22T10:42:10Z</time>
      </trkpt>
      <trkpt lat="43.92908" lon="7.33581">
        <ele>891</ele>
        <time>2011-05-22T10:42:11Z</time>
      </trkpt>
      <trkpt lat="43.92904" lon="7.33585">
        <ele>890.4</ele>
        <time>2011-05-22T10:42:12Z</time>
      </trkpt>
      <trkpt lat="43.929" lon="7.33594">
        <ele>888.8</ele>
        <time>2011-05-22T10:42:14Z</time>
      </trkpt>
      <trkpt lat="43.92903" lon="7.33604">
        <ele>887.2</ele>
        <time>2011-05-22T10:42:16Z</time>
      </trkpt>
      <trkpt lat="43.92906" lon="7.33609">
        <ele>885.5</ele>
        <time>2011-05-22T10:42:17Z</time>
      </trkpt>
      <trkpt lat="43.92912" lon="7.33618">
        <ele>883.3</ele>
        <time>2011-05-22T10:42:19Z</time>
      </trkpt>
      <trkpt lat="43.92917" lon="7.33625">
        <ele>881</ele>
        <time>2011-05-22T10:42:21Z</time>
      </trkpt>
      <trkpt lat="43.9292" lon="7.3363">
        <ele>880.3</ele>
        <time>2011-05-22T10:42:22Z</time>
      </trkpt>
      <trkpt lat="43.92923" lon="7.33634">
        <ele>879.8</ele>
        <time>2011-05-22T10:42:23Z</time>
      </trkpt>
      <trkpt lat="43.92927" lon="7.33639">
        <ele>879.4</ele>
        <time>2011-05-22T10:42:24Z</time>
      </trkpt>
      <trkpt lat="43.92931" lon="7.33644">
        <ele>879.1</ele>
        <time>2011-05-22T10:42:25Z</time>
      </trkpt>
      <trkpt lat="43.92935" lon="7.33648">
        <ele>878.9</ele>
        <time>2011-05-22T10:42:26Z</time>
      </trkpt>
      <trkpt lat="43.9294" lon="7.3365">
        <ele>878</ele>
        <time>2011-05-22T10:42:27Z</time>
      </trkpt>
      <trkpt lat="43.92944" lon="7.33652">
        <ele>877.4</ele>
        <time>2011-05-22T10:42:28Z</time>
      </trkpt>
      <trkpt lat="43.92949" lon="7.33653">
        <ele>876.9</ele>
        <time>2011-05-22T10:42:29Z</time>
      </trkpt>
      <trkpt lat="43.92955" lon="7.33656">
        <ele>876.2</ele>
        <time>2011-05-22T10:42:30Z</time>
      </trkpt>
      <trkpt lat="43.9296" lon="7.33659">
        <ele>875.7</ele>
        <time>2011-05-22T10:42:31Z</time>
      </trkpt>
      <trkpt lat="43.92966" lon="7.33662">
        <ele>875.2</ele>
        <time>2011-05-22T10:42:32Z</time>
      </trkpt>
      <trkpt lat="43.92972" lon="7.33667">
        <ele>874.7</ele>
        <time>2011-05-22T10:42:33Z</time>
      </trkpt>
      <trkpt lat="43.92976" lon="7.33672">
        <ele>874.3</ele>
        <time>2011-05-22T10:42:34Z</time>
      </trkpt>
      <trkpt lat="43.92979" lon="7.33682">
        <ele>873.3</ele>
        <time>2011-05-22T10:42:36Z</time>
      </trkpt>
      <trkpt lat="43.92978" lon="7.33693">
        <ele>872.6</ele>
        <time>2011-05-22T10:42:41Z</time>
      </trkpt>
      <trkpt lat="43.92974" lon="7.33703">
        <ele>871.6</ele>
        <time>2011-05-22T10:42:47Z</time>
      </trkpt>
      <trkpt lat="43.92969" lon="7.33713">
        <ele>871.9</ele>
        <time>2011-05-22T10:42:54Z</time>
      </trkpt>
      <trkpt lat="43.92967" lon="7.33725">
        <ele>873.2</ele>
        <time>2011-05-22T10:43:01Z</time>
      </trkpt>
      <trkpt lat="43.92968" lon="7.33737">
        <ele>874</ele>
        <time>2011-05-22T10:43:07Z</time>
      </trkpt>
      <trkpt lat="43.92973" lon="7.33747">
        <ele>874.5</ele>
        <time>2011-05-22T10:43:13Z</time>
      </trkpt>
      <trkpt lat="43.92974" lon="7.33748">
        <ele>874.6</ele>
        <time>2011-05-22T10:43:14Z</time>
      </trkpt>
      <trkpt lat="43.92983" lon="7.33764">
        <ele>874.5</ele>
        <time>2011-05-22T10:43:24Z</time>
      </trkpt>
      <trkpt lat="43.92989" lon="7.3377">
        <ele>875.2</ele>
        <time>2011-05-22T10:43:29Z</time>
      </trkpt>
      <trkpt lat="43.92996" lon="7.33777">
        <ele>875.1</ele>
        <time>2011-05-22T10:43:34Z</time>
      </trkpt>
      <trkpt lat="43.93001" lon="7.33787">
        <ele>875.1</ele>
        <time>2011-05-22T10:43:39Z</time>
      </trkpt>
      <trkpt lat="43.93004" lon="7.33798">
        <ele>875.1</ele>
        <time>2011-05-22T10:43:44Z</time>
      </trkpt>
      <trkpt lat="43.92998" lon="7.33804">
        <ele>876.2</ele>
        <time>2011-05-22T10:43:55Z</time>
      </trkpt>
      <trkpt lat="43.9299" lon="7.33803">
        <ele>877.6</ele>
        <time>2011-05-22T10:43:59Z</time>
      </trkpt>
      <trkpt lat="43.92982" lon="7.33803">
        <ele>877.9</ele>
        <time>2011-05-22T10:44:03Z</time>
      </trkpt>
      <trkpt lat="43.92973" lon="7.33804">
        <ele>877.3</ele>
        <time>2011-05-22T10:44:07Z</time>
      </trkpt>
      <trkpt lat="43.92966" lon="7.33804">
        <ele>878.1</ele>
        <time>2011-05-22T10:44:11Z</time>
      </trkpt>
      <trkpt lat="43.92957" lon="7.33805">
        <ele>877.7</ele>
        <time>2011-05-22T10:44:16Z</time>
      </trkpt>
      <trkpt lat="43.92957" lon="7.33806">
        <ele>877.7</ele>
        <time>2011-05-22T10:44:17Z</time>
      </trkpt>
      <trkpt lat="43.92948" lon="7.33805">
        <ele>879.3</ele>
        <time>2011-05-22T10:45:27Z</time>
      </trkpt>
      <trkpt lat="43.92936" lon="7.33815">
        <ele>878</ele>
        <time>2011-05-22T10:45:33Z</time>
      </trkpt>
      <trkpt lat="43.92932" lon="7.33824">
        <ele>878</ele>
        <time>2011-05-22T10:45:36Z</time>
      </trkpt>
      <trkpt lat="43.9293" lon="7.33835">
        <ele>878.2</ele>
        <time>2011-05-22T10:45:39Z</time>
      </trkpt>
      <trkpt lat="43.92929" lon="7.33847">
        <ele>877.5</ele>
        <time>2011-05-22T10:45:44Z</time>
      </trkpt>
      <trkpt lat="43.9293" lon="7.33857">
        <ele>878.1</ele>
        <time>2011-05-22T10:45:48Z</time>
      </trkpt>
      <trkpt lat="43.92932" lon="7.33866">
        <ele>878.2</ele>
        <time>2011-05-22T10:45:51Z</time>
      </trkpt>
      <trkpt lat="43.92934" lon="7.33878">
        <ele>879.1</ele>
        <time>2011-05-22T10:45:55Z</time>
      </trkpt>
      <trkpt lat="43.92936" lon="7.33889">
        <ele>880.1</ele>
        <time>2011-05-22T10:45:59Z</time>
      </trkpt>
      <trkpt lat="43.9294" lon="7.339">
        <ele>881</ele>
        <time>2011-05-22T10:46:04Z</time>
      </trkpt>
      <trkpt lat="43.92943" lon="7.33909">
        <ele>881.9</ele>
        <time>2011-05-22T10:46:08Z</time>
      </trkpt>
      <trkpt lat="43.92946" lon="7.33919">
        <ele>882.9</ele>
        <time>2011-05-22T10:46:11Z</time>
      </trkpt>
      <trkpt lat="43.92947" lon="7.33931">
        <ele>882.8</ele>
        <time>2011-05-22T10:46:14Z</time>
      </trkpt>
      <trkpt lat="43.92948" lon="7.33941">
        <ele>882.7</ele>
        <time>2011-05-22T10:46:16Z</time>
      </trkpt>
      <trkpt lat="43.9295" lon="7.33951">
        <ele>882.3</ele>
        <time>2011-05-22T10:46:18Z</time>
      </trkpt>
      <trkpt lat="43.92952" lon="7.33961">
        <ele>882</ele>
        <time>2011-05-22T10:46:20Z</time>
      </trkpt>
      <trkpt lat="43.92952" lon="7.33973">
        <ele>881.7</ele>
        <time>2011-05-22T10:46:22Z</time>
      </trkpt>
      <trkpt lat="43.92948" lon="7.3398">
        <ele>881.2</ele>
        <time>2011-05-22T10:46:24Z</time>
      </trkpt>
      <trkpt lat="43.92941" lon="7.33988">
        <ele>881.1</ele>
        <time>2011-05-22T10:46:27Z</time>
      </trkpt>
      <trkpt lat="43.92934" lon="7.33993">
        <ele>881.5</ele>
        <time>2011-05-22T10:46:31Z</time>
      </trkpt>
      <trkpt lat="43.92931" lon="7.33993">
        <ele>881.6</ele>
        <time>2011-05-22T10:46:32Z</time>
      </trkpt>
      <trkpt lat="43.9292" lon="7.33999">
        <ele>881.6</ele>
        <time>2011-05-22T10:46:37Z</time>
      </trkpt>
      <trkpt lat="43.92915" lon="7.34004">
        <ele>881.2</ele>
        <time>2011-05-22T10:46:39Z</time>
      </trkpt>
      <trkpt lat="43.92911" lon="7.3401">
        <ele>880.8</ele>
        <time>2011-05-22T10:46:41Z</time>
      </trkpt>
      <trkpt lat="43.92909" lon="7.34019">
        <ele>880.8</ele>
        <time>2011-05-22T10:46:43Z</time>
      </trkpt>
      <trkpt lat="43.92908" lon="7.34027">
        <ele>880.7</ele>
        <time>2011-05-22T10:46:45Z</time>
      </trkpt>
      <trkpt lat="43.92903" lon="7.34038">
        <ele>880.5</ele>
        <time>2011-05-22T10:46:48Z</time>
      </trkpt>
      <trkpt lat="43.92902" lon="7.3405">
        <ele>881</ele>
        <time>2011-05-22T10:46:51Z</time>
      </trkpt>
      <trkpt lat="43.929" lon="7.34061">
        <ele>881.1</ele>
        <time>2011-05-22T10:46:54Z</time>
      </trkpt>
      <trkpt lat="43.92897" lon="7.34068">
        <ele>881.2</ele>
        <time>2011-05-22T10:46:56Z</time>
      </trkpt>
      <trkpt lat="43.92892" lon="7.34075">
        <ele>881.5</ele>
        <time>2011-05-22T10:46:58Z</time>
      </trkpt>
      <trkpt lat="43.92886" lon="7.3408">
        <ele>881.8</ele>
        <time>2011-05-22T10:47:00Z</time>
      </trkpt>
      <trkpt lat="43.92881" lon="7.34086">
        <ele>881.9</ele>
        <time>2011-05-22T10:47:02Z</time>
      </trkpt>
      <trkpt lat="43.92876" lon="7.34092">
        <ele>881.9</ele>
        <time>2011-05-22T10:47:04Z</time>
      </trkpt>
      <trkpt lat="43.92871" lon="7.34097">
        <ele>882.8</ele>
        <time>2011-05-22T10:47:06Z</time>
      </trkpt>
      <trkpt lat="43.92866" lon="7.34106">
        <ele>883.7</ele>
        <time>2011-05-22T10:47:09Z</time>
      </trkpt>
      <trkpt lat="43.92863" lon="7.34117">
        <ele>884.6</ele>
        <time>2011-05-22T10:47:12Z</time>
      </trkpt>
      <trkpt lat="43.92859" lon="7.34126">
        <ele>884.7</ele>
        <time>2011-05-22T10:47:15Z</time>
      </trkpt>
      <trkpt lat="43.92853" lon="7.34134">
        <ele>884.9</ele>
        <time>2011-05-22T10:47:18Z</time>
      </trkpt>
      <trkpt lat="43.9285" lon="7.34144">
        <ele>885.4</ele>
        <time>2011-05-22T10:47:21Z</time>
      </trkpt>
      <trkpt lat="43.92849" lon="7.34156">
        <ele>885.5</ele>
        <time>2011-05-22T10:47:24Z</time>
      </trkpt>
      <trkpt lat="43.9285" lon="7.34166">
        <ele>885.5</ele>
        <time>2011-05-22T10:47:27Z</time>
      </trkpt>
      <trkpt lat="43.92853" lon="7.34177">
        <ele>886.4</ele>
        <time>2011-05-22T10:47:30Z</time>
      </trkpt>
      <trkpt lat="43.92857" lon="7.34188">
        <ele>887.3</ele>
        <time>2011-05-22T10:47:33Z</time>
      </trkpt>
      <trkpt lat="43.92857" lon="7.34192">
        <ele>887.3</ele>
        <time>2011-05-22T10:47:34Z</time>
      </trkpt>
      <trkpt lat="43.92858" lon="7.34209">
        <ele>887.7</ele>
        <time>2011-05-22T10:47:38Z</time>
      </trkpt>
      <trkpt lat="43.92853" lon="7.34216">
        <ele>887.8</ele>
        <time>2011-05-22T10:47:41Z</time>
      </trkpt>
      <trkpt lat="43.92844" lon="7.34215">
        <ele>889.1</ele>
        <time>2011-05-22T10:47:45Z</time>
      </trkpt>
      <trkpt lat="43.92838" lon="7.34215">
        <ele>889.1</ele>
        <time>2011-05-22T10:47:48Z</time>
      </trkpt>
      <trkpt lat="43.92831" lon="7.34218">
        <ele>888.7</ele>
        <time>2011-05-22T10:47:51Z</time>
      </trkpt>
      <trkpt lat="43.92826" lon="7.34225">
        <ele>889.4</ele>
        <time>2011-05-22T10:47:54Z</time>
      </trkpt>
      <trkpt lat="43.92823" lon="7.34236">
        <ele>889.8</ele>
        <time>2011-05-22T10:47:57Z</time>
      </trkpt>
      <trkpt lat="43.92822" lon="7.34247">
        <ele>890.9</ele>
        <time>2011-05-22T10:48:00Z</time>
      </trkpt>
      <trkpt lat="43.92819" lon="7.34257">
        <ele>892</ele>
        <time>2011-05-22T10:48:03Z</time>
      </trkpt>
      <trkpt lat="43.92815" lon="7.34268">
        <ele>892.4</ele>
        <time>2011-05-22T10:48:06Z</time>
      </trkpt>
      <trkpt lat="43.92812" lon="7.34275">
        <ele>893</ele>
        <time>2011-05-22T10:48:08Z</time>
      </trkpt>
      <trkpt lat="43.92808" lon="7.34282">
        <ele>893.8</ele>
        <time>2011-05-22T10:48:10Z</time>
      </trkpt>
      <trkpt lat="43.92804" lon="7.34289">
        <ele>893.8</ele>
        <time>2011-05-22T10:48:12Z</time>
      </trkpt>
      <trkpt lat="43.92799" lon="7.34298">
        <ele>893.2</ele>
        <time>2011-05-22T10:48:15Z</time>
      </trkpt>
      <trkpt lat="43.92792" lon="7.34307">
        <ele>892.5</ele>
        <time>2011-05-22T10:48:18Z</time>
      </trkpt>
      <trkpt lat="43.92785" lon="7.34312">
        <ele>892.3</ele>
        <time>2011-05-22T10:48:20Z</time>
      </trkpt>
      <trkpt lat="43.92781" lon="7.34314">
        <ele>892</ele>
        <time>2011-05-22T10:48:21Z</time>
      </trkpt>
      <trkpt lat="43.92773" lon="7.34318">
        <ele>891.6</ele>
        <time>2011-05-22T10:48:23Z</time>
      </trkpt>
      <trkpt lat="43.92768" lon="7.34327">
        <ele>890.9</ele>
        <time>2011-05-22T10:48:25Z</time>
      </trkpt>
      <trkpt lat="43.92764" lon="7.34335">
        <ele>890.2</ele>
        <time>2011-05-22T10:48:27Z</time>
      </trkpt>
      <trkpt lat="43.92765" lon="7.34347">
        <ele>889.4</ele>
        <time>2011-05-22T10:48:30Z</time>
      </trkpt>
      <trkpt lat="43.92758" lon="7.34354">
        <ele>888.5</ele>
        <time>2011-05-22T10:48:43Z</time>
      </trkpt>
      <trkpt lat="43.92757" lon="7.34354">
        <ele>888.2</ele>
        <time>2011-05-22T10:48:44Z</time>
      </trkpt>
      <trkpt lat="43.92765" lon="7.34336">
        <ele>891.4</ele>
        <time>2011-05-22T10:49:17Z</time>
      </trkpt>
      <trkpt lat="43.92764" lon="7.34324">
        <ele>892.4</ele>
        <time>2011-05-22T10:49:22Z</time>
      </trkpt>
      <trkpt lat="43.92762" lon="7.34314">
        <ele>893.4</ele>
        <time>2011-05-22T10:49:27Z</time>
      </trkpt>
      <trkpt lat="43.92759" lon="7.34303">
        <ele>894</ele>
        <time>2011-05-22T10:49:32Z</time>
      </trkpt>
      <trkpt lat="43.92756" lon="7.34293">
        <ele>894</ele>
        <time>2011-05-22T10:49:37Z</time>
      </trkpt>
      <trkpt lat="43.92753" lon="7.34283">
        <ele>896.1</ele>
        <time>2011-05-22T10:49:42Z</time>
      </trkpt>
      <trkpt lat="43.9275" lon="7.34273">
        <ele>896.4</ele>
        <time>2011-05-22T10:49:46Z</time>
      </trkpt>
      <trkpt lat="43.92749" lon="7.34271">
        <ele>896.5</ele>
        <time>2011-05-22T10:49:47Z</time>
      </trkpt>
      <trkpt lat="43.92748" lon="7.34252">
        <ele>896.3</ele>
        <time>2011-05-22T10:49:54Z</time>
      </trkpt>
      <trkpt lat="43.92747" lon="7.34242">
        <ele>898.1</ele>
        <time>2011-05-22T10:49:59Z</time>
      </trkpt>
      <trkpt lat="43.92746" lon="7.3423">
        <ele>900.4</ele>
        <time>2011-05-22T10:50:05Z</time>
      </trkpt>
      <trkpt lat="43.92743" lon="7.34218">
        <ele>901.3</ele>
        <time>2011-05-22T10:50:10Z</time>
      </trkpt>
      <trkpt lat="43.92744" lon="7.34206">
        <ele>903.1</ele>
        <time>2011-05-22T10:50:15Z</time>
      </trkpt>
      <trkpt lat="43.92743" lon="7.34196">
        <ele>903.6</ele>
        <time>2011-05-22T10:50:19Z</time>
      </trkpt>
      <trkpt lat="43.92743" lon="7.34184">
        <ele>903.2</ele>
        <time>2011-05-22T10:50:24Z</time>
      </trkpt>
      <trkpt lat="43.92743" lon="7.34172">
        <ele>905</ele>
        <time>2011-05-22T10:50:31Z</time>
      </trkpt>
      <trkpt lat="43.92742" lon="7.3416">
        <ele>906.5</ele>
        <time>2011-05-22T10:50:44Z</time>
      </trkpt>
      <trkpt lat="43.92741" lon="7.3415">
        <ele>906.5</ele>
        <time>2011-05-22T10:50:51Z</time>
      </trkpt>
      <trkpt lat="43.92741" lon="7.34147">
        <ele>906.6</ele>
        <time>2011-05-22T10:50:52Z</time>
      </trkpt>
      <trkpt lat="43.92741" lon="7.34125">
        <ele>908.4</ele>
        <time>2011-05-22T10:51:03Z</time>
      </trkpt>
      <trkpt lat="43.92738" lon="7.34115">
        <ele>909</ele>
        <time>2011-05-22T10:51:08Z</time>
      </trkpt>
      <trkpt lat="43.92737" lon="7.34103">
        <ele>910.2</ele>
        <time>2011-05-22T10:51:14Z</time>
      </trkpt>
      <trkpt lat="43.92736" lon="7.34092">
        <ele>910.1</ele>
        <time>2011-05-22T10:51:19Z</time>
      </trkpt>
      <trkpt lat="43.92734" lon="7.34084">
        <ele>910.9</ele>
        <time>2011-05-22T10:51:22Z</time>
      </trkpt>
      <trkpt lat="43.92732" lon="7.34076">
        <ele>910.3</ele>
        <time>2011-05-22T10:51:24Z</time>
      </trkpt>
      <trkpt lat="43.92729" lon="7.34068">
        <ele>910.1</ele>
        <time>2011-05-22T10:51:26Z</time>
      </trkpt>
      <trkpt lat="43.92726" lon="7.34059">
        <ele>910</ele>
        <time>2011-05-22T10:51:29Z</time>
      </trkpt>
      <trkpt lat="43.92724" lon="7.34047">
        <ele>909.7</ele>
        <time>2011-05-22T10:51:33Z</time>
      </trkpt>
      <trkpt lat="43.92722" lon="7.34037">
        <ele>909.8</ele>
        <time>2011-05-22T10:51:36Z</time>
      </trkpt>
      <trkpt lat="43.92719" lon="7.34027">
        <ele>910</ele>
        <time>2011-05-22T10:51:39Z</time>
      </trkpt>
      <trkpt lat="43.92716" lon="7.34017">
        <ele>910.1</ele>
        <time>2011-05-22T10:51:43Z</time>
      </trkpt>
      <trkpt lat="43.92715" lon="7.34007">
        <ele>911.5</ele>
        <time>2011-05-22T10:51:47Z</time>
      </trkpt>
      <trkpt lat="43.92712" lon="7.33996">
        <ele>911.8</ele>
        <time>2011-05-22T10:51:51Z</time>
      </trkpt>
      <trkpt lat="43.9271" lon="7.33984">
        <ele>911.3</ele>
        <time>2011-05-22T10:51:55Z</time>
      </trkpt>
      <trkpt lat="43.92709" lon="7.33981">
        <ele>911.5</ele>
        <time>2011-05-22T10:51:56Z</time>
      </trkpt>
      <trkpt lat="43.927" lon="7.3397">
        <ele>911.4</ele>
        <time>2011-05-22T10:52:03Z</time>
      </trkpt>
      <trkpt lat="43.92694" lon="7.33964">
        <ele>911.6</ele>
        <time>2011-05-22T10:52:08Z</time>
      </trkpt>
      <trkpt lat="43.9269" lon="7.33956">
        <ele>912.5</ele>
        <time>2011-05-22T10:52:11Z</time>
      </trkpt>
      <trkpt lat="43.92684" lon="7.33948">
        <ele>912.6</ele>
        <time>2011-05-22T10:52:15Z</time>
      </trkpt>
      <trkpt lat="43.92677" lon="7.33944">
        <ele>912.2</ele>
        <time>2011-05-22T10:52:18Z</time>
      </trkpt>
      <trkpt lat="43.92671" lon="7.33939">
        <ele>912.6</ele>
        <time>2011-05-22T10:52:21Z</time>
      </trkpt>
      <trkpt lat="43.92665" lon="7.33931">
        <ele>912.7</ele>
        <time>2011-05-22T10:52:24Z</time>
      </trkpt>
      <trkpt lat="43.9266" lon="7.33923">
        <ele>912.5</ele>
        <time>2011-05-22T10:52:27Z</time>
      </trkpt>
      <trkpt lat="43.92656" lon="7.33913">
        <ele>912.6</ele>
        <time>2011-05-22T10:52:30Z</time>
      </trkpt>
      <trkpt lat="43.92652" lon="7.33904">
        <ele>912.6</ele>
        <time>2011-05-22T10:52:33Z</time>
      </trkpt>
      <trkpt lat="43.92647" lon="7.33898">
        <ele>912.8</ele>
        <time>2011-05-22T10:52:36Z</time>
      </trkpt>
      <trkpt lat="43.9264" lon="7.33894">
        <ele>913.3</ele>
        <time>2011-05-22T10:52:39Z</time>
      </trkpt>
      <trkpt lat="43.92634" lon="7.33889">
        <ele>913.5</ele>
        <time>2011-05-22T10:52:42Z</time>
      </trkpt>
      <trkpt lat="43.92629" lon="7.33881">
        <ele>914</ele>
        <time>2011-05-22T10:52:45Z</time>
      </trkpt>
      <trkpt lat="43.92623" lon="7.33875">
        <ele>914.9</ele>
        <time>2011-05-22T10:52:48Z</time>
      </trkpt>
      <trkpt lat="43.92616" lon="7.3387">
        <ele>915.1</ele>
        <time>2011-05-22T10:52:52Z</time>
      </trkpt>
      <trkpt lat="43.9261" lon="7.33864">
        <ele>916.1</ele>
        <time>2011-05-22T10:52:56Z</time>
      </trkpt>
      <trkpt lat="43.92608" lon="7.33862">
        <ele>916.2</ele>
        <time>2011-05-22T10:52:57Z</time>
      </trkpt>
      <trkpt lat="43.92599" lon="7.33851">
        <ele>916.5</ele>
        <time>2011-05-22T10:53:02Z</time>
      </trkpt>
      <trkpt lat="43.92594" lon="7.33841">
        <ele>916.8</ele>
        <time>2011-05-22T10:53:05Z</time>
      </trkpt>
      <trkpt lat="43.92591" lon="7.3383">
        <ele>917.5</ele>
        <time>2011-05-22T10:53:08Z</time>
      </trkpt>
      <trkpt lat="43.92589" lon="7.3382">
        <ele>918.1</ele>
        <time>2011-05-22T10:53:11Z</time>
      </trkpt>
      <trkpt lat="43.92587" lon="7.33809">
        <ele>918.1</ele>
        <time>2011-05-22T10:53:14Z</time>
      </trkpt>
      <trkpt lat="43.92585" lon="7.33798">
        <ele>918.5</ele>
        <time>2011-05-22T10:53:17Z</time>
      </trkpt>
      <trkpt lat="43.92582" lon="7.33788">
        <ele>917.5</ele>
        <time>2011-05-22T10:53:20Z</time>
      </trkpt>
      <trkpt lat="43.9258" lon="7.33777">
        <ele>918.2</ele>
        <time>2011-05-22T10:53:23Z</time>
      </trkpt>
      <trkpt lat="43.92579" lon="7.33767">
        <ele>919</ele>
        <time>2011-05-22T10:53:26Z</time>
      </trkpt>
      <trkpt lat="43.92576" lon="7.33755">
        <ele>920</ele>
        <time>2011-05-22T10:53:30Z</time>
      </trkpt>
      <trkpt lat="43.92572" lon="7.33748">
        <ele>920.2</ele>
        <time>2011-05-22T10:53:33Z</time>
      </trkpt>
      <trkpt lat="43.92566" lon="7.33742">
        <ele>920.6</ele>
        <time>2011-05-22T10:53:36Z</time>
      </trkpt>
      <trkpt lat="43.92559" lon="7.33737">
        <ele>921</ele>
        <time>2011-05-22T10:53:39Z</time>
      </trkpt>
      <trkpt lat="43.92551" lon="7.33734">
        <ele>921</ele>
        <time>2011-05-22T10:53:43Z</time>
      </trkpt>
      <trkpt lat="43.92543" lon="7.33732">
        <ele>921.1</ele>
        <time>2011-05-22T10:53:47Z</time>
      </trkpt>
      <trkpt lat="43.92535" lon="7.33734">
        <ele>921</ele>
        <time>2011-05-22T10:53:50Z</time>
      </trkpt>
      <trkpt lat="43.92527" lon="7.33735">
        <ele>920.4</ele>
        <time>2011-05-22T10:53:52Z</time>
      </trkpt>
      <trkpt lat="43.92521" lon="7.33731">
        <ele>921.3</ele>
        <time>2011-05-22T10:53:54Z</time>
      </trkpt>
      <trkpt lat="43.92514" lon="7.33726">
        <ele>921.8</ele>
        <time>2011-05-22T10:53:57Z</time>
      </trkpt>
      <trkpt lat="43.92512" lon="7.33724">
        <ele>921.9</ele>
        <time>2011-05-22T10:53:58Z</time>
      </trkpt>
      <trkpt lat="43.92497" lon="7.33721">
        <ele>920.8</ele>
        <time>2011-05-22T10:54:51Z</time>
      </trkpt>
      <trkpt lat="43.92491" lon="7.33714">
        <ele>922.6</ele>
        <time>2011-05-22T10:57:19Z</time>
      </trkpt>
      <trkpt lat="43.9249" lon="7.33712">
        <ele>922.6</ele>
        <time>2011-05-22T10:57:20Z</time>
      </trkpt>
      <trkpt lat="43.92477" lon="7.33702">
        <ele>923.7</ele>
        <time>2011-05-22T10:57:29Z</time>
      </trkpt>
      <trkpt lat="43.9247" lon="7.33696">
        <ele>925.6</ele>
        <time>2011-05-22T10:57:33Z</time>
      </trkpt>
      <trkpt lat="43.92463" lon="7.33695">
        <ele>926.3</ele>
        <time>2011-05-22T10:57:37Z</time>
      </trkpt>
      <trkpt lat="43.92456" lon="7.33697">
        <ele>926.1</ele>
        <time>2011-05-22T10:57:39Z</time>
      </trkpt>
      <trkpt lat="43.92447" lon="7.33699">
        <ele>925.5</ele>
        <time>2011-05-22T10:57:41Z</time>
      </trkpt>
      <trkpt lat="43.92439" lon="7.33704">
        <ele>925.3</ele>
        <time>2011-05-22T10:57:43Z</time>
      </trkpt>
      <trkpt lat="43.92435" lon="7.33706">
        <ele>925.3</ele>
        <time>2011-05-22T10:57:44Z</time>
      </trkpt>
      <trkpt lat="43.9243" lon="7.33708">
        <ele>925.3</ele>
        <time>2011-05-22T10:57:45Z</time>
      </trkpt>
      <trkpt lat="43.92421" lon="7.33709">
        <ele>923.9</ele>
        <time>2011-05-22T10:57:47Z</time>
      </trkpt>
      <trkpt lat="43.92414" lon="7.3371">
        <ele>923.2</ele>
        <time>2011-05-22T10:57:49Z</time>
      </trkpt>
      <trkpt lat="43.92407" lon="7.3371">
        <ele>922.8</ele>
        <time>2011-05-22T10:57:51Z</time>
      </trkpt>
      <trkpt lat="43.92401" lon="7.3371">
        <ele>923.3</ele>
        <time>2011-05-22T10:57:53Z</time>
      </trkpt>
      <trkpt lat="43.92392" lon="7.33714">
        <ele>923.9</ele>
        <time>2011-05-22T10:57:56Z</time>
      </trkpt>
      <trkpt lat="43.92389" lon="7.33722">
        <ele>923.6</ele>
        <time>2011-05-22T10:57:58Z</time>
      </trkpt>
      <trkpt lat="43.92385" lon="7.3373">
        <ele>924.2</ele>
        <time>2011-05-22T10:58:00Z</time>
      </trkpt>
      <trkpt lat="43.92378" lon="7.33738">
        <ele>924.5</ele>
        <time>2011-05-22T10:58:03Z</time>
      </trkpt>
      <trkpt lat="43.92373" lon="7.33748">
        <ele>924.4</ele>
        <time>2011-05-22T10:58:06Z</time>
      </trkpt>
      <trkpt lat="43.92371" lon="7.33757">
        <ele>924.5</ele>
        <time>2011-05-22T10:58:08Z</time>
      </trkpt>
      <trkpt lat="43.92368" lon="7.33768">
        <ele>924.6</ele>
        <time>2011-05-22T10:58:10Z</time>
      </trkpt>
      <trkpt lat="43.92366" lon="7.33778">
        <ele>924.7</ele>
        <time>2011-05-22T10:58:12Z</time>
      </trkpt>
      <trkpt lat="43.92363" lon="7.33789">
        <ele>924.5</ele>
        <time>2011-05-22T10:58:15Z</time>
      </trkpt>
      <trkpt lat="43.92362" lon="7.33798">
        <ele>924.1</ele>
        <time>2011-05-22T10:58:17Z</time>
      </trkpt>
      <trkpt lat="43.92362" lon="7.33808">
        <ele>924.2</ele>
        <time>2011-05-22T10:58:19Z</time>
      </trkpt>
      <trkpt lat="43.92362" lon="7.33819">
        <ele>924.1</ele>
        <time>2011-05-22T10:58:21Z</time>
      </trkpt>
      <trkpt lat="43.9236" lon="7.33823">
        <ele>924</ele>
        <time>2011-05-22T10:58:22Z</time>
      </trkpt>
      <trkpt lat="43.92347" lon="7.33826">
        <ele>923.7</ele>
        <time>2011-05-22T10:58:27Z</time>
      </trkpt>
      <trkpt lat="43.92338" lon="7.33826">
        <ele>925.2</ele>
        <time>2011-05-22T10:58:31Z</time>
      </trkpt>
      <trkpt lat="43.92331" lon="7.33832">
        <ele>924.9</ele>
        <time>2011-05-22T10:58:41Z</time>
      </trkpt>
      <trkpt lat="43.92323" lon="7.33834">
        <ele>925.4</ele>
        <time>2011-05-22T10:58:56Z</time>
      </trkpt>
      <trkpt lat="43.92315" lon="7.33834">
        <ele>926.1</ele>
        <time>2011-05-22T10:59:01Z</time>
      </trkpt>
      <trkpt lat="43.92307" lon="7.33836">
        <ele>927.4</ele>
        <time>2011-05-22T10:59:05Z</time>
      </trkpt>
      <trkpt lat="43.92299" lon="7.33841">
        <ele>927.7</ele>
        <time>2011-05-22T10:59:09Z</time>
      </trkpt>
      <trkpt lat="43.92294" lon="7.33847">
        <ele>927.7</ele>
        <time>2011-05-22T10:59:12Z</time>
      </trkpt>
      <trkpt lat="43.92288" lon="7.33855">
        <ele>928</ele>
        <time>2011-05-22T10:59:16Z</time>
      </trkpt>
      <trkpt lat="43.92284" lon="7.33863">
        <ele>929.2</ele>
        <time>2011-05-22T10:59:20Z</time>
      </trkpt>
      <trkpt lat="43.92282" lon="7.33872">
        <ele>929.7</ele>
        <time>2011-05-22T10:59:23Z</time>
      </trkpt>
      <trkpt lat="43.92281" lon="7.33875">
        <ele>929.8</ele>
        <time>2011-05-22T10:59:24Z</time>
      </trkpt>
      <trkpt lat="43.92274" lon="7.33889">
        <ele>930.8</ele>
        <time>2011-05-22T10:59:29Z</time>
      </trkpt>
      <trkpt lat="43.92272" lon="7.339">
        <ele>931.2</ele>
        <time>2011-05-22T10:59:32Z</time>
      </trkpt>
      <trkpt lat="43.92272" lon="7.33909">
        <ele>931.3</ele>
        <time>2011-05-22T10:59:35Z</time>
      </trkpt>
      <trkpt lat="43.9227" lon="7.3392">
        <ele>931.5</ele>
        <time>2011-05-22T10:59:38Z</time>
      </trkpt>
      <trkpt lat="43.92263" lon="7.33924">
        <ele>931.9</ele>
        <time>2011-05-22T10:59:41Z</time>
      </trkpt>
      <trkpt lat="43.92258" lon="7.33931">
        <ele>932.4</ele>
        <time>2011-05-22T10:59:44Z</time>
      </trkpt>
      <trkpt lat="43.92253" lon="7.3394">
        <ele>933.5</ele>
        <time>2011-05-22T10:59:48Z</time>
      </trkpt>
      <trkpt lat="43.92247" lon="7.33947">
        <ele>934.2</ele>
        <time>2011-05-22T10:59:52Z</time>
      </trkpt>
      <trkpt lat="43.92241" lon="7.33955">
        <ele>934.3</ele>
        <time>2011-05-22T10:59:56Z</time>
      </trkpt>
      <trkpt lat="43.92238" lon="7.33966">
        <ele>934.1</ele>
        <time>2011-05-22T11:00:01Z</time>
      </trkpt>
      <trkpt lat="43.92238" lon="7.33976">
        <ele>933.4</ele>
        <time>2011-05-22T11:00:04Z</time>
      </trkpt>
      <trkpt lat="43.92235" lon="7.33985">
        <ele>932.3</ele>
        <time>2011-05-22T11:00:09Z</time>
      </trkpt>
      <trkpt lat="43.92235" lon="7.33995">
        <ele>931.2</ele>
        <time>2011-05-22T11:00:11Z</time>
      </trkpt>
      <trkpt lat="43.92232" lon="7.34007">
        <ele>930</ele>
        <time>2011-05-22T11:00:13Z</time>
      </trkpt>
      <trkpt lat="43.92229" lon="7.34017">
        <ele>927.1</ele>
        <time>2011-05-22T11:00:18Z</time>
      </trkpt>
      <trkpt lat="43.92223" lon="7.34024">
        <ele>925.3</ele>
        <time>2011-05-22T11:00:22Z</time>
      </trkpt>
      <trkpt lat="43.92218" lon="7.34031">
        <ele>924</ele>
        <time>2011-05-22T11:00:25Z</time>
      </trkpt>
      <trkpt lat="43.92216" lon="7.34032">
        <ele>924.1</ele>
        <time>2011-05-22T11:00:26Z</time>
      </trkpt>
      <trkpt lat="43.92202" lon="7.34036">
        <ele>924.1</ele>
        <time>2011-05-22T11:00:31Z</time>
      </trkpt>
      <trkpt lat="43.92194" lon="7.34039">
        <ele>924.2</ele>
        <time>2011-05-22T11:00:34Z</time>
      </trkpt>
      <trkpt lat="43.92187" lon="7.34038">
        <ele>924.4</ele>
        <time>2011-05-22T11:00:36Z</time>
      </trkpt>
      <trkpt lat="43.9218" lon="7.34036">
        <ele>924.5</ele>
        <time>2011-05-22T11:00:38Z</time>
      </trkpt>
      <trkpt lat="43.92174" lon="7.34034">
        <ele>924.3</ele>
        <time>2011-05-22T11:00:40Z</time>
      </trkpt>
      <trkpt lat="43.92168" lon="7.34032">
        <ele>924.2</ele>
        <time>2011-05-22T11:00:42Z</time>
      </trkpt>
      <trkpt lat="43.92164" lon="7.3403">
        <ele>924.2</ele>
        <time>2011-05-22T11:00:43Z</time>
      </trkpt>
      <trkpt lat="43.92159" lon="7.34029">
        <ele>924.1</ele>
        <time>2011-05-22T11:00:44Z</time>
      </trkpt>
      <trkpt lat="43.92153" lon="7.34027">
        <ele>924.1</ele>
        <time>2011-05-22T11:00:45Z</time>
      </trkpt>
      <trkpt lat="43.92148" lon="7.34029">
        <ele>924.1</ele>
        <time>2011-05-22T11:00:46Z</time>
      </trkpt>
      <trkpt lat="43.92144" lon="7.34033">
        <ele>924.1</ele>
        <time>2011-05-22T11:00:47Z</time>
      </trkpt>
      <trkpt lat="43.9214" lon="7.34039">
        <ele>923.2</ele>
        <time>2011-05-22T11:00:48Z</time>
      </trkpt>
      <trkpt lat="43.92136" lon="7.34046">
        <ele>922.5</ele>
        <time>2011-05-22T11:00:49Z</time>
      </trkpt>
      <trkpt lat="43.92132" lon="7.34053">
        <ele>922</ele>
        <time>2011-05-22T11:00:50Z</time>
      </trkpt>
      <trkpt lat="43.92127" lon="7.34059">
        <ele>921.7</ele>
        <time>2011-05-22T11:00:51Z</time>
      </trkpt>
      <trkpt lat="43.92123" lon="7.34065">
        <ele>921.5</ele>
        <time>2011-05-22T11:00:52Z</time>
      </trkpt>
      <trkpt lat="43.92122" lon="7.34072">
        <ele>921.4</ele>
        <time>2011-05-22T11:00:53Z</time>
      </trkpt>
      <trkpt lat="43.92122" lon="7.34078">
        <ele>921.2</ele>
        <time>2011-05-22T11:00:54Z</time>
      </trkpt>
      <trkpt lat="43.92122" lon="7.34085">
        <ele>921.1</ele>
        <time>2011-05-22T11:00:55Z</time>
      </trkpt>
      <trkpt lat="43.92124" lon="7.34092">
        <ele>921</ele>
        <time>2011-05-22T11:00:56Z</time>
      </trkpt>
      <trkpt lat="43.92124" lon="7.34099">
        <ele>920.9</ele>
        <time>2011-05-22T11:00:57Z</time>
      </trkpt>
      <trkpt lat="43.92123" lon="7.34106">
        <ele>920.2</ele>
        <time>2011-05-22T11:00:58Z</time>
      </trkpt>
      <trkpt lat="43.9212" lon="7.34112">
        <ele>919.6</ele>
        <time>2011-05-22T11:00:59Z</time>
      </trkpt>
      <trkpt lat="43.92118" lon="7.34117">
        <ele>919.2</ele>
        <time>2011-05-22T11:01:00Z</time>
      </trkpt>
      <trkpt lat="43.92111" lon="7.34123">
        <ele>917.9</ele>
        <time>2011-05-22T11:01:02Z</time>
      </trkpt>
      <trkpt lat="43.92104" lon="7.34124">
        <ele>917.1</ele>
        <time>2011-05-22T11:01:04Z</time>
      </trkpt>
      <trkpt lat="43.92096" lon="7.34124">
        <ele>916.6</ele>
        <time>2011-05-22T11:01:06Z</time>
      </trkpt>
      <trkpt lat="43.92089" lon="7.34122">
        <ele>915.5</ele>
        <time>2011-05-22T11:01:08Z</time>
      </trkpt>
      <trkpt lat="43.92085" lon="7.34122">
        <ele>915.1</ele>
        <time>2011-05-22T11:01:09Z</time>
      </trkpt>
      <trkpt lat="43.9208" lon="7.34122">
        <ele>914.6</ele>
        <time>2011-05-22T11:01:10Z</time>
      </trkpt>
      <trkpt lat="43.92075" lon="7.34122">
        <ele>914.3</ele>
        <time>2011-05-22T11:01:11Z</time>
      </trkpt>
      <trkpt lat="43.92069" lon="7.34124">
        <ele>914</ele>
        <time>2011-05-22T11:01:12Z</time>
      </trkpt>
      <trkpt lat="43.92064" lon="7.34128">
        <ele>913.8</ele>
        <time>2011-05-22T11:01:13Z</time>
      </trkpt>
      <trkpt lat="43.92059" lon="7.34134">
        <ele>913.7</ele>
        <time>2011-05-22T11:01:14Z</time>
      </trkpt>
      <trkpt lat="43.92054" lon="7.34142">
        <ele>913.6</ele>
        <time>2011-05-22T11:01:15Z</time>
      </trkpt>
      <trkpt lat="43.92048" lon="7.34149">
        <ele>913.5</ele>
        <time>2011-05-22T11:01:16Z</time>
      </trkpt>
      <trkpt lat="43.92042" lon="7.34156">
        <ele>913</ele>
        <time>2011-05-22T11:01:17Z</time>
      </trkpt>
      <trkpt lat="43.92035" lon="7.34164">
        <ele>912.6</ele>
        <time>2011-05-22T11:01:18Z</time>
      </trkpt>
      <trkpt lat="43.9203" lon="7.34172">
        <ele>912.3</ele>
        <time>2011-05-22T11:01:19Z</time>
      </trkpt>
      <trkpt lat="43.92026" lon="7.34182">
        <ele>911.3</ele>
        <time>2011-05-22T11:01:20Z</time>
      </trkpt>
      <trkpt lat="43.92022" lon="7.34192">
        <ele>910.6</ele>
        <time>2011-05-22T11:01:21Z</time>
      </trkpt>
      <trkpt lat="43.92017" lon="7.342">
        <ele>910.1</ele>
        <time>2011-05-22T11:01:22Z</time>
      </trkpt>
      <trkpt lat="43.9201" lon="7.34207">
        <ele>908.3</ele>
        <time>2011-05-22T11:01:25Z</time>
      </trkpt>
      <trkpt lat="43.92016" lon="7.34197">
        <ele>906.3</ele>
        <time>2011-05-22T11:02:27Z</time>
      </trkpt>
      <trkpt lat="43.92016" lon="7.34197">
        <ele>906.5</ele>
        <time>2011-05-22T11:02:28Z</time>
      </trkpt>
      <trkpt lat="43.92013" lon="7.34175">
        <ele>907.6</ele>
        <time>2011-05-22T11:03:02Z</time>
      </trkpt>
      <trkpt lat="43.92012" lon="7.34164">
        <ele>908.7</ele>
        <time>2011-05-22T11:03:08Z</time>
      </trkpt>
      <trkpt lat="43.92008" lon="7.34153">
        <ele>910.1</ele>
        <time>2011-05-22T11:03:14Z</time>
      </trkpt>
      <trkpt lat="43.92004" lon="7.34144">
        <ele>910.4</ele>
        <time>2011-05-22T11:03:19Z</time>
      </trkpt>
      <trkpt lat="43.92002" lon="7.34134">
        <ele>911.1</ele>
        <time>2011-05-22T11:03:25Z</time>
      </trkpt>
      <trkpt lat="43.91999" lon="7.34123">
        <ele>911.4</ele>
        <time>2011-05-22T11:03:31Z</time>
      </trkpt>
      <trkpt lat="43.91999" lon="7.34121">
        <ele>911.8</ele>
        <time>2011-05-22T11:03:32Z</time>
      </trkpt>
      <trkpt lat="43.91998" lon="7.34102">
        <ele>912.8</ele>
        <time>2011-05-22T11:03:41Z</time>
      </trkpt>
      <trkpt lat="43.91997" lon="7.34091">
        <ele>913.8</ele>
        <time>2011-05-22T11:03:46Z</time>
      </trkpt>
      <trkpt lat="43.91997" lon="7.34079">
        <ele>915.1</ele>
        <time>2011-05-22T11:03:52Z</time>
      </trkpt>
      <trkpt lat="43.91993" lon="7.34068">
        <ele>916</ele>
        <time>2011-05-22T11:03:59Z</time>
      </trkpt>
      <trkpt lat="43.91987" lon="7.3406">
        <ele>918.1</ele>
        <time>2011-05-22T11:04:06Z</time>
      </trkpt>
      <trkpt lat="43.91981" lon="7.34053">
        <ele>918.9</ele>
        <time>2011-05-22T11:04:11Z</time>
      </trkpt>
      <trkpt lat="43.91978" lon="7.34042">
        <ele>919.9</ele>
        <time>2011-05-22T11:04:16Z</time>
      </trkpt>
      <trkpt lat="43.91975" lon="7.34031">
        <ele>920.3</ele>
        <time>2011-05-22T11:04:22Z</time>
      </trkpt>
      <trkpt lat="43.91972" lon="7.34021">
        <ele>920.2</ele>
        <time>2011-05-22T11:04:27Z</time>
      </trkpt>
      <trkpt lat="43.91969" lon="7.3401">
        <ele>921.1</ele>
        <time>2011-05-22T11:04:32Z</time>
      </trkpt>
      <trkpt lat="43.91969" lon="7.34008">
        <ele>921.1</ele>
        <time>2011-05-22T11:04:33Z</time>
      </trkpt>
      <trkpt lat="43.91967" lon="7.33987">
        <ele>923.2</ele>
        <time>2011-05-22T11:04:43Z</time>
      </trkpt>
      <trkpt lat="43.91964" lon="7.33977">
        <ele>924</ele>
        <time>2011-05-22T11:04:48Z</time>
      </trkpt>
      <trkpt lat="43.91962" lon="7.33966">
        <ele>924.5</ele>
        <time>2011-05-22T11:04:53Z</time>
      </trkpt>
      <trkpt lat="43.91959" lon="7.33955">
        <ele>924.6</ele>
        <time>2011-05-22T11:04:58Z</time>
      </trkpt>
      <trkpt lat="43.91954" lon="7.33947">
        <ele>925.5</ele>
        <time>2011-05-22T11:05:02Z</time>
      </trkpt>
      <trkpt lat="43.91951" lon="7.33935">
        <ele>926.5</ele>
        <time>2011-05-22T11:05:07Z</time>
      </trkpt>
      <trkpt lat="43.91948" lon="7.33924">
        <ele>927.2</ele>
        <time>2011-05-22T11:05:12Z</time>
      </trkpt>
      <trkpt lat="43.91941" lon="7.33916">
        <ele>927.7</ele>
        <time>2011-05-22T11:05:16Z</time>
      </trkpt>
      <trkpt lat="43.91935" lon="7.33909">
        <ele>927.9</ele>
        <time>2011-05-22T11:05:20Z</time>
      </trkpt>
      <trkpt lat="43.91929" lon="7.33902">
        <ele>927.7</ele>
        <time>2011-05-22T11:05:24Z</time>
      </trkpt>
      <trkpt lat="43.91924" lon="7.33893">
        <ele>928.2</ele>
        <time>2011-05-22T11:05:28Z</time>
      </trkpt>
      <trkpt lat="43.91921" lon="7.33884">
        <ele>928.6</ele>
        <time>2011-05-22T11:05:32Z</time>
      </trkpt>
      <trkpt lat="43.91919" lon="7.33874">
        <ele>929.5</ele>
        <time>2011-05-22T11:05:36Z</time>
      </trkpt>
      <trkpt lat="43.91918" lon="7.33872">
        <ele>929.6</ele>
        <time>2011-05-22T11:05:37Z</time>
      </trkpt>
      <trkpt lat="43.91911" lon="7.33854">
        <ele>931.4</ele>
        <time>2011-05-22T11:05:44Z</time>
      </trkpt>
      <trkpt lat="43.91908" lon="7.33844">
        <ele>931.6</ele>
        <time>2011-05-22T11:05:48Z</time>
      </trkpt>
      <trkpt lat="43.91905" lon="7.33834">
        <ele>932</ele>
        <time>2011-05-22T11:05:52Z</time>
      </trkpt>
      <trkpt lat="43.919" lon="7.33825">
        <ele>932.1</ele>
        <time>2011-05-22T11:05:56Z</time>
      </trkpt>
      <trkpt lat="43.91893" lon="7.33821">
        <ele>933.1</ele>
        <time>2011-05-22T11:06:00Z</time>
      </trkpt>
      <trkpt lat="43.91885" lon="7.33821">
        <ele>934.5</ele>
        <time>2011-05-22T11:06:04Z</time>
      </trkpt>
      <trkpt lat="43.91876" lon="7.33823">
        <ele>934.2</ele>
        <time>2011-05-22T11:06:08Z</time>
      </trkpt>
      <trkpt lat="43.91869" lon="7.33824">
        <ele>933.9</ele>
        <time>2011-05-22T11:06:11Z</time>
      </trkpt>
      <trkpt lat="43.91862" lon="7.33826">
        <ele>933.8</ele>
        <time>2011-05-22T11:06:14Z</time>
      </trkpt>
      <trkpt lat="43.91855" lon="7.33834">
        <ele>934.1</ele>
        <time>2011-05-22T11:06:17Z</time>
      </trkpt>
      <trkpt lat="43.91849" lon="7.33839">
        <ele>934.5</ele>
        <time>2011-05-22T11:06:19Z</time>
      </trkpt>
      <trkpt lat="43.91842" lon="7.33838">
        <ele>934.1</ele>
        <time>2011-05-22T11:06:21Z</time>
      </trkpt>
      <trkpt lat="43.91833" lon="7.33836">
        <ele>933.3</ele>
        <time>2011-05-22T11:06:24Z</time>
      </trkpt>
      <trkpt lat="43.91825" lon="7.33837">
        <ele>933.6</ele>
        <time>2011-05-22T11:06:27Z</time>
      </trkpt>
      <trkpt lat="43.91818" lon="7.33838">
        <ele>933.8</ele>
        <time>2011-05-22T11:06:29Z</time>
      </trkpt>
      <trkpt lat="43.91811" lon="7.33837">
        <ele>933.7</ele>
        <time>2011-05-22T11:06:31Z</time>
      </trkpt>
      <trkpt lat="43.91803" lon="7.33836">
        <ele>933.1</ele>
        <time>2011-05-22T11:06:33Z</time>
      </trkpt>
      <trkpt lat="43.91799" lon="7.33835">
        <ele>932.6</ele>
        <time>2011-05-22T11:06:34Z</time>
      </trkpt>
      <trkpt lat="43.91794" lon="7.33835">
        <ele>932.3</ele>
        <time>2011-05-22T11:06:35Z</time>
      </trkpt>
      <trkpt lat="43.91786" lon="7.33834">
        <ele>931.5</ele>
        <time>2011-05-22T11:06:37Z</time>
      </trkpt>
      <trkpt lat="43.91783" lon="7.33834">
        <ele>931.3</ele>
        <time>2011-05-22T11:06:38Z</time>
      </trkpt>
      <trkpt lat="43.91774" lon="7.33833">
        <ele>931.5</ele>
        <time>2011-05-22T11:06:41Z</time>
      </trkpt>
      <trkpt lat="43.91765" lon="7.33836">
        <ele>932</ele>
        <time>2011-05-22T11:06:44Z</time>
      </trkpt>
      <trkpt lat="43.91758" lon="7.33842">
        <ele>931.8</ele>
        <time>2011-05-22T11:06:48Z</time>
      </trkpt>
      <trkpt lat="43.91753" lon="7.33847">
        <ele>932.1</ele>
        <time>2011-05-22T11:06:51Z</time>
      </trkpt>
      <trkpt lat="43.91745" lon="7.3385">
        <ele>931.5</ele>
        <time>2011-05-22T11:06:54Z</time>
      </trkpt>
      <trkpt lat="43.91737" lon="7.33852">
        <ele>931.3</ele>
        <time>2011-05-22T11:06:57Z</time>
      </trkpt>
      <trkpt lat="43.9173" lon="7.33855">
        <ele>931.1</ele>
        <time>2011-05-22T11:07:00Z</time>
      </trkpt>
      <trkpt lat="43.91722" lon="7.33858">
        <ele>930.5</ele>
        <time>2011-05-22T11:07:02Z</time>
      </trkpt>
      <trkpt lat="43.91715" lon="7.33865">
        <ele>929.7</ele>
        <time>2011-05-22T11:08:18Z</time>
      </trkpt>
      <trkpt lat="43.91715" lon="7.33866">
        <ele>929.4</ele>
        <time>2011-05-22T11:08:19Z</time>
      </trkpt>
      <trkpt lat="43.91699" lon="7.33872">
        <ele>930.7</ele>
        <time>2011-05-22T11:08:43Z</time>
      </trkpt>
      <trkpt lat="43.91692" lon="7.33877">
        <ele>929.5</ele>
        <time>2011-05-22T11:08:45Z</time>
      </trkpt>
      <trkpt lat="43.91686" lon="7.33884">
        <ele>928.8</ele>
        <time>2011-05-22T11:08:47Z</time>
      </trkpt>
      <trkpt lat="43.91679" lon="7.3389">
        <ele>928.4</ele>
        <time>2011-05-22T11:08:49Z</time>
      </trkpt>
      <trkpt lat="43.91673" lon="7.33895">
        <ele>927.5</ele>
        <time>2011-05-22T11:08:51Z</time>
      </trkpt>
      <trkpt lat="43.91665" lon="7.33898">
        <ele>926.9</ele>
        <time>2011-05-22T11:08:55Z</time>
      </trkpt>
      <trkpt lat="43.91658" lon="7.33894">
        <ele>925.8</ele>
        <time>2011-05-22T11:08:59Z</time>
      </trkpt>
      <trkpt lat="43.91651" lon="7.33888">
        <ele>925</ele>
        <time>2011-05-22T11:09:03Z</time>
      </trkpt>
      <trkpt lat="43.91642" lon="7.33888">
        <ele>924.8</ele>
        <time>2011-05-22T11:09:19Z</time>
      </trkpt>
      <trkpt lat="43.91641" lon="7.33888">
        <ele>924.9</ele>
        <time>2011-05-22T11:09:20Z</time>
      </trkpt>
      <trkpt lat="43.91625" lon="7.33896">
        <ele>928.1</ele>
        <time>2011-05-22T11:09:46Z</time>
      </trkpt>
      <trkpt lat="43.91618" lon="7.33895">
        <ele>928.8</ele>
        <time>2011-05-22T11:09:50Z</time>
      </trkpt>
      <trkpt lat="43.9161" lon="7.33898">
        <ele>927.6</ele>
        <time>2011-05-22T11:09:54Z</time>
      </trkpt>
      <trkpt lat="43.91603" lon="7.33903">
        <ele>927.3</ele>
        <time>2011-05-22T11:09:59Z</time>
      </trkpt>
      <trkpt lat="43.91594" lon="7.33908">
        <ele>928</ele>
        <time>2011-05-22T11:10:06Z</time>
      </trkpt>
      <trkpt lat="43.91588" lon="7.33913">
        <ele>928.7</ele>
        <time>2011-05-22T11:10:14Z</time>
      </trkpt>
      <trkpt lat="43.9158" lon="7.33919">
        <ele>929.3</ele>
        <time>2011-05-22T11:10:29Z</time>
      </trkpt>
      <trkpt lat="43.9158" lon="7.3392">
        <ele>929.5</ele>
        <time>2011-05-22T11:10:30Z</time>
      </trkpt>
      <trkpt lat="43.91573" lon="7.3394">
        <ele>932.1</ele>
        <time>2011-05-22T11:10:46Z</time>
      </trkpt>
      <trkpt lat="43.91565" lon="7.33945">
        <ele>933.1</ele>
        <time>2011-05-22T11:11:01Z</time>
      </trkpt>
      <trkpt lat="43.91556" lon="7.33944">
        <ele>933.5</ele>
        <time>2011-05-22T11:11:16Z</time>
      </trkpt>
      <trkpt lat="43.91553" lon="7.33932">
        <ele>934.1</ele>
        <time>2011-05-22T11:11:23Z</time>
      </trkpt>
      <trkpt lat="43.91553" lon="7.3392">
        <ele>934.6</ele>
        <time>2011-05-22T11:11:30Z</time>
      </trkpt>
      <trkpt lat="43.91553" lon="7.33918">
        <ele>934.5</ele>
        <time>2011-05-22T11:11:31Z</time>
      </trkpt>
      <trkpt lat="43.9156" lon="7.33898">
        <ele>937.3</ele>
        <time>2011-05-22T11:11:43Z</time>
      </trkpt>
      <trkpt lat="43.91563" lon="7.33888">
        <ele>937.3</ele>
        <time>2011-05-22T11:11:48Z</time>
      </trkpt>
      <trkpt lat="43.91564" lon="7.33879">
        <ele>937.7</ele>
        <time>2011-05-22T11:11:52Z</time>
      </trkpt>
      <trkpt lat="43.91566" lon="7.33868">
        <ele>937.2</ele>
        <time>2011-05-22T11:11:56Z</time>
      </trkpt>
      <trkpt lat="43.91567" lon="7.33858">
        <ele>937.5</ele>
        <time>2011-05-22T11:12:00Z</time>
      </trkpt>
      <trkpt lat="43.9157" lon="7.33848">
        <ele>937.9</ele>
        <time>2011-05-22T11:12:05Z</time>
      </trkpt>
      <trkpt lat="43.91573" lon="7.33837">
        <ele>938.5</ele>
        <time>2011-05-22T11:12:09Z</time>
      </trkpt>
      <trkpt lat="43.91573" lon="7.33826">
        <ele>937.9</ele>
        <time>2011-05-22T11:12:13Z</time>
      </trkpt>
      <trkpt lat="43.91572" lon="7.33814">
        <ele>938.9</ele>
        <time>2011-05-22T11:12:18Z</time>
      </trkpt>
      <trkpt lat="43.91573" lon="7.33803">
        <ele>938.9</ele>
        <time>2011-05-22T11:12:23Z</time>
      </trkpt>
      <trkpt lat="43.91573" lon="7.33792">
        <ele>940</ele>
        <time>2011-05-22T11:12:28Z</time>
      </trkpt>
      <trkpt lat="43.91569" lon="7.33781">
        <ele>940.8</ele>
        <time>2011-05-22T11:12:33Z</time>
      </trkpt>
      <trkpt lat="43.91568" lon="7.33779">
        <ele>940.8</ele>
        <time>2011-05-22T11:12:34Z</time>
      </trkpt>
      <trkpt lat="43.91562" lon="7.33762">
        <ele>941.7</ele>
        <time>2011-05-22T11:12:41Z</time>
      </trkpt>
      <trkpt lat="43.91557" lon="7.33753">
        <ele>942.6</ele>
        <time>2011-05-22T11:12:46Z</time>
      </trkpt>
      <trkpt lat="43.91553" lon="7.33742">
        <ele>943.6</ele>
        <time>2011-05-22T11:12:51Z</time>
      </trkpt>
      <trkpt lat="43.91549" lon="7.33731">
        <ele>943.8</ele>
        <time>2011-05-22T11:12:56Z</time>
      </trkpt>
      <trkpt lat="43.91547" lon="7.3372">
        <ele>944.4</ele>
        <time>2011-05-22T11:13:00Z</time>
      </trkpt>
      <trkpt lat="43.91546" lon="7.3371">
        <ele>944.3</ele>
        <time>2011-05-22T11:13:03Z</time>
      </trkpt>
      <trkpt lat="43.91544" lon="7.33698">
        <ele>945</ele>
        <time>2011-05-22T11:13:07Z</time>
      </trkpt>
      <trkpt lat="43.91541" lon="7.33688">
        <ele>945.3</ele>
        <time>2011-05-22T11:13:10Z</time>
      </trkpt>
      <trkpt lat="43.91538" lon="7.3368">
        <ele>945.2</ele>
        <time>2011-05-22T11:13:12Z</time>
      </trkpt>
      <trkpt lat="43.91534" lon="7.33669">
        <ele>945</ele>
        <time>2011-05-22T11:13:14Z</time>
      </trkpt>
      <trkpt lat="43.91531" lon="7.33664">
        <ele>944.7</ele>
        <time>2011-05-22T11:13:15Z</time>
      </trkpt>
      <trkpt lat="43.91526" lon="7.33655">
        <ele>944.2</ele>
        <time>2011-05-22T11:13:17Z</time>
      </trkpt>
      <trkpt lat="43.91522" lon="7.33646">
        <ele>943.5</ele>
        <time>2011-05-22T11:13:19Z</time>
      </trkpt>
      <trkpt lat="43.91521" lon="7.33637">
        <ele>943.1</ele>
        <time>2011-05-22T11:13:21Z</time>
      </trkpt>
      <trkpt lat="43.91517" lon="7.33626">
        <ele>942.8</ele>
        <time>2011-05-22T11:13:24Z</time>
      </trkpt>
      <trkpt lat="43.91516" lon="7.33615">
        <ele>942.1</ele>
        <time>2011-05-22T11:13:28Z</time>
      </trkpt>
      <trkpt lat="43.91517" lon="7.33604">
        <ele>941.7</ele>
        <time>2011-05-22T11:13:34Z</time>
      </trkpt>
      <trkpt lat="43.91518" lon="7.33602">
        <ele>941.7</ele>
        <time>2011-05-22T11:13:35Z</time>
      </trkpt>
      <trkpt lat="43.91524" lon="7.33584">
        <ele>942.6</ele>
        <time>2011-05-22T11:13:43Z</time>
      </trkpt>
      <trkpt lat="43.91528" lon="7.33575">
        <ele>942.4</ele>
        <time>2011-05-22T11:13:49Z</time>
      </trkpt>
      <trkpt lat="43.91533" lon="7.33564">
        <ele>943</ele>
        <time>2011-05-22T11:13:55Z</time>
      </trkpt>
      <trkpt lat="43.91537" lon="7.33555">
        <ele>944.3</ele>
        <time>2011-05-22T11:14:00Z</time>
      </trkpt>
      <trkpt lat="43.91541" lon="7.33544">
        <ele>945.7</ele>
        <time>2011-05-22T11:14:06Z</time>
      </trkpt>
      <trkpt lat="43.9154" lon="7.33532">
        <ele>947.7</ele>
        <time>2011-05-22T11:14:14Z</time>
      </trkpt>
      <trkpt lat="43.91536" lon="7.33522">
        <ele>948.1</ele>
        <time>2011-05-22T11:14:20Z</time>
      </trkpt>
      <trkpt lat="43.91531" lon="7.33513">
        <ele>949.4</ele>
        <time>2011-05-22T11:14:26Z</time>
      </trkpt>
      <trkpt lat="43.91526" lon="7.33503">
        <ele>950.2</ele>
        <time>2011-05-22T11:14:32Z</time>
      </trkpt>
      <trkpt lat="43.91521" lon="7.33493">
        <ele>950.4</ele>
        <time>2011-05-22T11:14:38Z</time>
      </trkpt>
      <trkpt lat="43.9152" lon="7.33492">
        <ele>950.6</ele>
        <time>2011-05-22T11:14:39Z</time>
      </trkpt>
      <trkpt lat="43.91512" lon="7.33474">
        <ele>953</ele>
        <time>2011-05-22T11:14:52Z</time>
      </trkpt>
      <trkpt lat="43.91508" lon="7.33464">
        <ele>954.4</ele>
        <time>2011-05-22T11:14:59Z</time>
      </trkpt>
      <trkpt lat="43.91503" lon="7.33453">
        <ele>954.8</ele>
        <time>2011-05-22T11:15:06Z</time>
      </trkpt>
      <trkpt lat="43.91496" lon="7.33449">
        <ele>955.8</ele>
        <time>2011-05-22T11:15:14Z</time>
      </trkpt>
      <trkpt lat="43.91488" lon="7.33448">
        <ele>955.9</ele>
        <time>2011-05-22T11:15:21Z</time>
      </trkpt>
      <trkpt lat="43.9148" lon="7.33446">
        <ele>957.6</ele>
        <time>2011-05-22T11:15:28Z</time>
      </trkpt>
      <trkpt lat="43.91472" lon="7.33447">
        <ele>958.3</ele>
        <time>2011-05-22T11:15:34Z</time>
      </trkpt>
      <trkpt lat="43.91464" lon="7.33448">
        <ele>958.9</ele>
        <time>2011-05-22T11:15:40Z</time>
      </trkpt>
      <trkpt lat="43.91462" lon="7.33448">
        <ele>958.9</ele>
        <time>2011-05-22T11:15:41Z</time>
      </trkpt>
      <trkpt lat="43.91449" lon="7.33442">
        <ele>961.4</ele>
        <time>2011-05-22T11:16:04Z</time>
      </trkpt>
      <trkpt lat="43.9144" lon="7.33441">
        <ele>962.3</ele>
        <time>2011-05-22T11:16:15Z</time>
      </trkpt>
      <trkpt lat="43.91432" lon="7.33443">
        <ele>964.3</ele>
        <time>2011-05-22T11:16:27Z</time>
      </trkpt>
      <trkpt lat="43.91423" lon="7.33443">
        <ele>965.7</ele>
        <time>2011-05-22T11:16:38Z</time>
      </trkpt>
      <trkpt lat="43.91414" lon="7.33443">
        <ele>965.9</ele>
        <time>2011-05-22T11:16:44Z</time>
      </trkpt>
      <trkpt lat="43.91413" lon="7.33442">
        <ele>965.9</ele>
        <time>2011-05-22T11:16:45Z</time>
      </trkpt>
      <trkpt lat="43.91398" lon="7.33442">
        <ele>966.9</ele>
        <time>2011-05-22T11:16:56Z</time>
      </trkpt>
      <trkpt lat="43.9139" lon="7.33442">
        <ele>967.1</ele>
        <time>2011-05-22T11:17:01Z</time>
      </trkpt>
      <trkpt lat="43.91382" lon="7.33446">
        <ele>967.5</ele>
        <time>2011-05-22T11:17:07Z</time>
      </trkpt>
      <trkpt lat="43.91374" lon="7.3345">
        <ele>969</ele>
        <time>2011-05-22T11:17:14Z</time>
      </trkpt>
      <trkpt lat="43.91366" lon="7.33451">
        <ele>971.3</ele>
        <time>2011-05-22T11:17:23Z</time>
      </trkpt>
      <trkpt lat="43.91357" lon="7.33452">
        <ele>973.1</ele>
        <time>2011-05-22T11:17:39Z</time>
      </trkpt>
      <trkpt lat="43.91349" lon="7.33446">
        <ele>975.9</ele>
        <time>2011-05-22T11:17:49Z</time>
      </trkpt>
      <trkpt lat="43.91348" lon="7.33447">
        <ele>976</ele>
        <time>2011-05-22T11:17:50Z</time>
      </trkpt>
      <trkpt lat="43.91351" lon="7.3347">
        <ele>978.4</ele>
        <time>2011-05-22T11:18:11Z</time>
      </trkpt>
      <trkpt lat="43.91344" lon="7.33465">
        <ele>981.4</ele>
        <time>2011-05-22T11:18:29Z</time>
      </trkpt>
      <trkpt lat="43.91336" lon="7.33462">
        <ele>982.2</ele>
        <time>2011-05-22T11:18:38Z</time>
      </trkpt>
      <trkpt lat="43.91327" lon="7.33461">
        <ele>984.9</ele>
        <time>2011-05-22T11:18:47Z</time>
      </trkpt>
      <trkpt lat="43.91318" lon="7.33462">
        <ele>986.1</ele>
        <time>2011-05-22T11:18:56Z</time>
      </trkpt>
      <trkpt lat="43.91317" lon="7.33462">
        <ele>986.3</ele>
        <time>2011-05-22T11:18:57Z</time>
      </trkpt>
      <trkpt lat="43.91301" lon="7.33462">
        <ele>989</ele>
        <time>2011-05-22T11:19:44Z</time>
      </trkpt>
      <trkpt lat="43.91293" lon="7.33456">
        <ele>989.5</ele>
        <time>2011-05-22T11:19:54Z</time>
      </trkpt>
      <trkpt lat="43.91291" lon="7.33444">
        <ele>991.9</ele>
        <time>2011-05-22T11:20:23Z</time>
      </trkpt>
      <trkpt lat="43.91291" lon="7.33443">
        <ele>992</ele>
        <time>2011-05-22T11:20:24Z</time>
      </trkpt>
      <trkpt lat="43.91292" lon="7.33421">
        <ele>992.1</ele>
        <time>2011-05-22T11:20:35Z</time>
      </trkpt>
      <trkpt lat="43.91288" lon="7.33409">
        <ele>995.1</ele>
        <time>2011-05-22T11:20:49Z</time>
      </trkpt>
      <trkpt lat="43.91288" lon="7.33397">
        <ele>995.5</ele>
        <time>2011-05-22T11:20:57Z</time>
      </trkpt>
      <trkpt lat="43.91288" lon="7.33385">
        <ele>996.5</ele>
        <time>2011-05-22T11:21:04Z</time>
      </trkpt>
      <trkpt lat="43.91285" lon="7.33374">
        <ele>998.3</ele>
        <time>2011-05-22T11:21:11Z</time>
      </trkpt>
      <trkpt lat="43.91277" lon="7.3337">
        <ele>1000.9</ele>
        <time>2011-05-22T11:21:24Z</time>
      </trkpt>
      <trkpt lat="43.91276" lon="7.3337">
        <ele>1000.8</ele>
        <time>2011-05-22T11:21:25Z</time>
      </trkpt>
      <trkpt lat="43.91265" lon="7.33387">
        <ele>1003</ele>
        <time>2011-05-22T11:21:48Z</time>
      </trkpt>
      <trkpt lat="43.91262" lon="7.33398">
        <ele>1007.9</ele>
        <time>2011-05-22T11:22:05Z</time>
      </trkpt>
      <trkpt lat="43.91256" lon="7.33406">
        <ele>1008.2</ele>
        <time>2011-05-22T11:22:12Z</time>
      </trkpt>
      <trkpt lat="43.9125" lon="7.33414">
        <ele>1008.4</ele>
        <time>2011-05-22T11:22:18Z</time>
      </trkpt>
      <trkpt lat="43.91243" lon="7.3342">
        <ele>1009.1</ele>
        <time>2011-05-22T11:22:24Z</time>
      </trkpt>
      <trkpt lat="43.91235" lon="7.33425">
        <ele>1010.2</ele>
        <time>2011-05-22T11:22:30Z</time>
      </trkpt>
      <trkpt lat="43.91234" lon="7.33426">
        <ele>1010.5</ele>
        <time>2011-05-22T11:22:31Z</time>
      </trkpt>
      <trkpt lat="43.91221" lon="7.33439">
        <ele>1010.7</ele>
        <time>2011-05-22T11:22:42Z</time>
      </trkpt>
      <trkpt lat="43.91214" lon="7.33445">
        <ele>1011.1</ele>
        <time>2011-05-22T11:22:48Z</time>
      </trkpt>
      <trkpt lat="43.91206" lon="7.33449">
        <ele>1012.8</ele>
        <time>2011-05-22T11:22:54Z</time>
      </trkpt>
      <trkpt lat="43.91198" lon="7.33448">
        <ele>1013.5</ele>
        <time>2011-05-22T11:24:06Z</time>
      </trkpt>
      <trkpt lat="43.91197" lon="7.33447">
        <ele>1013.3</ele>
        <time>2011-05-22T11:24:07Z</time>
      </trkpt>
      <trkpt lat="43.91188" lon="7.33447">
        <ele>1012.9</ele>
        <time>2011-05-22T11:29:19Z</time>
      </trkpt>
      <trkpt lat="43.91174" lon="7.33443">
        <ele>1014</ele>
        <time>2011-05-22T11:29:29Z</time>
      </trkpt>
      <trkpt lat="43.91166" lon="7.33443">
        <ele>1016.3</ele>
        <time>2011-05-22T11:29:35Z</time>
      </trkpt>
      <trkpt lat="43.91157" lon="7.33442">
        <ele>1016.6</ele>
        <time>2011-05-22T11:29:41Z</time>
      </trkpt>
      <trkpt lat="43.91149" lon="7.33441">
        <ele>1016.2</ele>
        <time>2011-05-22T11:29:47Z</time>
      </trkpt>
      <trkpt lat="43.9114" lon="7.33441">
        <ele>1017.4</ele>
        <time>2011-05-22T11:29:53Z</time>
      </trkpt>
      <trkpt lat="43.91133" lon="7.33442">
        <ele>1019.1</ele>
        <time>2011-05-22T11:29:58Z</time>
      </trkpt>
      <trkpt lat="43.91124" lon="7.33442">
        <ele>1019.8</ele>
        <time>2011-05-22T11:30:04Z</time>
      </trkpt>
      <trkpt lat="43.91116" lon="7.3344">
        <ele>1021</ele>
        <time>2011-05-22T11:30:10Z</time>
      </trkpt>
      <trkpt lat="43.91108" lon="7.33434">
        <ele>1021.8</ele>
        <time>2011-05-22T11:30:16Z</time>
      </trkpt>
      <trkpt lat="43.91105" lon="7.33423">
        <ele>1022.2</ele>
        <time>2011-05-22T11:30:22Z</time>
      </trkpt>
      <trkpt lat="43.91105" lon="7.33421">
        <ele>1022.2</ele>
        <time>2011-05-22T11:30:23Z</time>
      </trkpt>
      <trkpt lat="43.91108" lon="7.33401">
        <ele>1023.6</ele>
        <time>2011-05-22T11:30:32Z</time>
      </trkpt>
      <trkpt lat="43.91111" lon="7.33392">
        <ele>1023.7</ele>
        <time>2011-05-22T11:30:36Z</time>
      </trkpt>
      <trkpt lat="43.91116" lon="7.33381">
        <ele>1024.5</ele>
        <time>2011-05-22T11:30:41Z</time>
      </trkpt>
      <trkpt lat="43.9112" lon="7.33371">
        <ele>1025.8</ele>
        <time>2011-05-22T11:30:46Z</time>
      </trkpt>
      <trkpt lat="43.91122" lon="7.3336">
        <ele>1026.5</ele>
        <time>2011-05-22T11:30:51Z</time>
      </trkpt>
      <trkpt lat="43.91122" lon="7.33348">
        <ele>1026.7</ele>
        <time>2011-05-22T11:30:56Z</time>
      </trkpt>
      <trkpt lat="43.9112" lon="7.33336">
        <ele>1025.8</ele>
        <time>2011-05-22T11:31:01Z</time>
      </trkpt>
      <trkpt lat="43.9112" lon="7.33325">
        <ele>1025.1</ele>
        <time>2011-05-22T11:31:07Z</time>
      </trkpt>
      <trkpt lat="43.9112" lon="7.33313">
        <ele>1027.1</ele>
        <time>2011-05-22T11:31:12Z</time>
      </trkpt>
      <trkpt lat="43.91117" lon="7.33304">
        <ele>1028.1</ele>
        <time>2011-05-22T11:31:16Z</time>
      </trkpt>
      <trkpt lat="43.91111" lon="7.33294">
        <ele>1028.8</ele>
        <time>2011-05-22T11:31:21Z</time>
      </trkpt>
      <trkpt lat="43.91104" lon="7.33289">
        <ele>1029.9</ele>
        <time>2011-05-22T11:31:26Z</time>
      </trkpt>
      <trkpt lat="43.91102" lon="7.33288">
        <ele>1030.4</ele>
        <time>2011-05-22T11:31:27Z</time>
      </trkpt>
      <trkpt lat="43.91088" lon="7.33284">
        <ele>1031.9</ele>
        <time>2011-05-22T11:31:36Z</time>
      </trkpt>
      <trkpt lat="43.91079" lon="7.33282">
        <ele>1032.3</ele>
        <time>2011-05-22T11:31:41Z</time>
      </trkpt>
      <trkpt lat="43.91071" lon="7.33281">
        <ele>1033.8</ele>
        <time>2011-05-22T11:31:46Z</time>
      </trkpt>
      <trkpt lat="43.91062" lon="7.33282">
        <ele>1034.8</ele>
        <time>2011-05-22T11:31:52Z</time>
      </trkpt>
      <trkpt lat="43.91056" lon="7.33288">
        <ele>1035</ele>
        <time>2011-05-22T11:31:56Z</time>
      </trkpt>
      <trkpt lat="43.91049" lon="7.33293">
        <ele>1035.2</ele>
        <time>2011-05-22T11:32:00Z</time>
      </trkpt>
      <trkpt lat="43.91043" lon="7.33296">
        <ele>1035.8</ele>
        <time>2011-05-22T11:32:04Z</time>
      </trkpt>
      <trkpt lat="43.91034" lon="7.33301">
        <ele>1038.2</ele>
        <time>2011-05-22T11:32:09Z</time>
      </trkpt>
      <trkpt lat="43.91029" lon="7.33309">
        <ele>1039.6</ele>
        <time>2011-05-22T11:32:13Z</time>
      </trkpt>
      <trkpt lat="43.91025" lon="7.33318">
        <ele>1039.5</ele>
        <time>2011-05-22T11:32:17Z</time>
      </trkpt>
      <trkpt lat="43.91024" lon="7.33328">
        <ele>1039.7</ele>
        <time>2011-05-22T11:32:21Z</time>
      </trkpt>
      <trkpt lat="43.91023" lon="7.33339">
        <ele>1040.2</ele>
        <time>2011-05-22T11:32:25Z</time>
      </trkpt>
      <trkpt lat="43.91022" lon="7.3335">
        <ele>1041.2</ele>
        <time>2011-05-22T11:32:29Z</time>
      </trkpt>
      <trkpt lat="43.91021" lon="7.33353">
        <ele>1041.3</ele>
        <time>2011-05-22T11:32:30Z</time>
      </trkpt>
      <trkpt lat="43.91013" lon="7.33369">
        <ele>1041.7</ele>
        <time>2011-05-22T11:32:38Z</time>
      </trkpt>
      <trkpt lat="43.91005" lon="7.33372">
        <ele>1042.7</ele>
        <time>2011-05-22T11:32:43Z</time>
      </trkpt>
      <trkpt lat="43.90996" lon="7.33374">
        <ele>1043.7</ele>
        <time>2011-05-22T11:32:48Z</time>
      </trkpt>
      <trkpt lat="43.90989" lon="7.33375">
        <ele>1044.4</ele>
        <time>2011-05-22T11:32:52Z</time>
      </trkpt>
      <trkpt lat="43.90981" lon="7.33376">
        <ele>1043.8</ele>
        <time>2011-05-22T11:32:56Z</time>
      </trkpt>
      <trkpt lat="43.90973" lon="7.33375">
        <ele>1044</ele>
        <time>2011-05-22T11:33:00Z</time>
      </trkpt>
      <trkpt lat="43.90966" lon="7.33374">
        <ele>1044.6</ele>
        <time>2011-05-22T11:33:04Z</time>
      </trkpt>
      <trkpt lat="43.90958" lon="7.33375">
        <ele>1046.4</ele>
        <time>2011-05-22T11:33:08Z</time>
      </trkpt>
      <trkpt lat="43.90951" lon="7.33377">
        <ele>1046.4</ele>
        <time>2011-05-22T11:33:12Z</time>
      </trkpt>
      <trkpt lat="43.90943" lon="7.33377">
        <ele>1047.1</ele>
        <time>2011-05-22T11:33:16Z</time>
      </trkpt>
      <trkpt lat="43.90935" lon="7.33378">
        <ele>1046.9</ele>
        <time>2011-05-22T11:33:21Z</time>
      </trkpt>
      <trkpt lat="43.90927" lon="7.33376">
        <ele>1048.4</ele>
        <time>2011-05-22T11:33:25Z</time>
      </trkpt>
      <trkpt lat="43.90919" lon="7.33376">
        <ele>1049.3</ele>
        <time>2011-05-22T11:33:30Z</time>
      </trkpt>
      <trkpt lat="43.90917" lon="7.33377">
        <ele>1049.7</ele>
        <time>2011-05-22T11:33:31Z</time>
      </trkpt>
      <trkpt lat="43.90906" lon="7.33387">
        <ele>1050.7</ele>
        <time>2011-05-22T11:33:38Z</time>
      </trkpt>
      <trkpt lat="43.90899" lon="7.33393">
        <ele>1050.6</ele>
        <time>2011-05-22T11:33:42Z</time>
      </trkpt>
      <trkpt lat="43.90891" lon="7.33398">
        <ele>1052</ele>
        <time>2011-05-22T11:33:47Z</time>
      </trkpt>
      <trkpt lat="43.90884" lon="7.33401">
        <ele>1052.5</ele>
        <time>2011-05-22T11:33:51Z</time>
      </trkpt>
      <trkpt lat="43.90876" lon="7.33399">
        <ele>1052.7</ele>
        <time>2011-05-22T11:33:55Z</time>
      </trkpt>
      <trkpt lat="43.90869" lon="7.33394">
        <ele>1053.8</ele>
        <time>2011-05-22T11:34:00Z</time>
      </trkpt>
      <trkpt lat="43.90862" lon="7.33392">
        <ele>1053.7</ele>
        <time>2011-05-22T11:34:04Z</time>
      </trkpt>
      <trkpt lat="43.90853" lon="7.33394">
        <ele>1054.5</ele>
        <time>2011-05-22T11:34:08Z</time>
      </trkpt>
      <trkpt lat="43.90845" lon="7.33398">
        <ele>1054.4</ele>
        <time>2011-05-22T11:34:12Z</time>
      </trkpt>
      <trkpt lat="43.90838" lon="7.334">
        <ele>1055.6</ele>
        <time>2011-05-22T11:34:16Z</time>
      </trkpt>
      <trkpt lat="43.90831" lon="7.33392">
        <ele>1056.9</ele>
        <time>2011-05-22T11:34:21Z</time>
      </trkpt>
      <trkpt lat="43.90827" lon="7.33381">
        <ele>1057.9</ele>
        <time>2011-05-22T11:34:26Z</time>
      </trkpt>
      <trkpt lat="43.90823" lon="7.33371">
        <ele>1058.7</ele>
        <time>2011-05-22T11:34:31Z</time>
      </trkpt>
      <trkpt lat="43.90822" lon="7.33368">
        <ele>1059</ele>
        <time>2011-05-22T11:34:32Z</time>
      </trkpt>
      <trkpt lat="43.90812" lon="7.33357">
        <ele>1059.4</ele>
        <time>2011-05-22T11:34:39Z</time>
      </trkpt>
      <trkpt lat="43.90805" lon="7.33352">
        <ele>1059.4</ele>
        <time>2011-05-22T11:34:43Z</time>
      </trkpt>
      <trkpt lat="43.90797" lon="7.33347">
        <ele>1059.9</ele>
        <time>2011-05-22T11:34:48Z</time>
      </trkpt>
      <trkpt lat="43.9079" lon="7.33341">
        <ele>1061.4</ele>
        <time>2011-05-22T11:34:53Z</time>
      </trkpt>
      <trkpt lat="43.90782" lon="7.33337">
        <ele>1061.1</ele>
        <time>2011-05-22T11:34:58Z</time>
      </trkpt>
      <trkpt lat="43.90773" lon="7.3334">
        <ele>1060</ele>
        <time>2011-05-22T11:35:03Z</time>
      </trkpt>
      <trkpt lat="43.90767" lon="7.33346">
        <ele>1060.5</ele>
        <time>2011-05-22T11:35:08Z</time>
      </trkpt>
      <trkpt lat="43.9076" lon="7.33352">
        <ele>1060.9</ele>
        <time>2011-05-22T11:35:13Z</time>
      </trkpt>
      <trkpt lat="43.90754" lon="7.33344">
        <ele>1061.9</ele>
        <time>2011-05-22T11:35:18Z</time>
      </trkpt>
      <trkpt lat="43.90753" lon="7.33333">
        <ele>1062.5</ele>
        <time>2011-05-22T11:35:23Z</time>
      </trkpt>
      <trkpt lat="43.90753" lon="7.33321">
        <ele>1062.2</ele>
        <time>2011-05-22T11:35:29Z</time>
      </trkpt>
      <trkpt lat="43.90757" lon="7.33309">
        <ele>1063.4</ele>
        <time>2011-05-22T11:35:35Z</time>
      </trkpt>
      <trkpt lat="43.90757" lon="7.33308">
        <ele>1063.6</ele>
        <time>2011-05-22T11:35:36Z</time>
      </trkpt>
      <trkpt lat="43.90763" lon="7.33289">
        <ele>1064.3</ele>
        <time>2011-05-22T11:35:45Z</time>
      </trkpt>
      <trkpt lat="43.90769" lon="7.33282">
        <ele>1065.5</ele>
        <time>2011-05-22T11:35:50Z</time>
      </trkpt>
      <trkpt lat="43.90777" lon="7.3328">
        <ele>1065.9</ele>
        <time>2011-05-22T11:35:54Z</time>
      </trkpt>
      <trkpt lat="43.90784" lon="7.33279">
        <ele>1066</ele>
        <time>2011-05-22T11:35:57Z</time>
      </trkpt>
      <trkpt lat="43.90792" lon="7.33273">
        <ele>1066</ele>
        <time>2011-05-22T11:36:01Z</time>
      </trkpt>
      <trkpt lat="43.90798" lon="7.33269">
        <ele>1066.2</ele>
        <time>2011-05-22T11:36:04Z</time>
      </trkpt>
      <trkpt lat="43.90805" lon="7.33264">
        <ele>1066.2</ele>
        <time>2011-05-22T11:36:07Z</time>
      </trkpt>
      <trkpt lat="43.90811" lon="7.33258">
        <ele>1065.9</ele>
        <time>2011-05-22T11:36:10Z</time>
      </trkpt>
      <trkpt lat="43.90818" lon="7.33252">
        <ele>1066</ele>
        <time>2011-05-22T11:36:13Z</time>
      </trkpt>
      <trkpt lat="43.90825" lon="7.33246">
        <ele>1066.6</ele>
        <time>2011-05-22T11:36:16Z</time>
      </trkpt>
      <trkpt lat="43.90832" lon="7.33241">
        <ele>1065.9</ele>
        <time>2011-05-22T11:36:19Z</time>
      </trkpt>
      <trkpt lat="43.90839" lon="7.33237">
        <ele>1066</ele>
        <time>2011-05-22T11:36:22Z</time>
      </trkpt>
      <trkpt lat="43.90845" lon="7.33234">
        <ele>1066</ele>
        <time>2011-05-22T11:36:25Z</time>
      </trkpt>
      <trkpt lat="43.90851" lon="7.3323">
        <ele>1066.2</ele>
        <time>2011-05-22T11:36:28Z</time>
      </trkpt>
      <trkpt lat="43.90858" lon="7.33226">
        <ele>1066.7</ele>
        <time>2011-05-22T11:36:31Z</time>
      </trkpt>
      <trkpt lat="43.90865" lon="7.33221">
        <ele>1067.7</ele>
        <time>2011-05-22T11:36:34Z</time>
      </trkpt>
      <trkpt lat="43.90872" lon="7.33216">
        <ele>1068.1</ele>
        <time>2011-05-22T11:36:37Z</time>
      </trkpt>
      <trkpt lat="43.90874" lon="7.33214">
        <ele>1068.2</ele>
        <time>2011-05-22T11:36:38Z</time>
      </trkpt>
      <trkpt lat="43.90885" lon="7.33203">
        <ele>1067</ele>
        <time>2011-05-22T11:36:43Z</time>
      </trkpt>
      <trkpt lat="43.9089" lon="7.33194">
        <ele>1068.1</ele>
        <time>2011-05-22T11:36:47Z</time>
      </trkpt>
      <trkpt lat="43.90893" lon="7.33183">
        <ele>1069.5</ele>
        <time>2011-05-22T11:36:51Z</time>
      </trkpt>
      <trkpt lat="43.90896" lon="7.33171">
        <ele>1070.2</ele>
        <time>2011-05-22T11:36:55Z</time>
      </trkpt>
      <trkpt lat="43.90901" lon="7.33162">
        <ele>1071.4</ele>
        <time>2011-05-22T11:36:58Z</time>
      </trkpt>
      <trkpt lat="43.90908" lon="7.33156">
        <ele>1072.6</ele>
        <time>2011-05-22T11:37:02Z</time>
      </trkpt>
      <trkpt lat="43.90915" lon="7.33149">
        <ele>1072.8</ele>
        <time>2011-05-22T11:37:06Z</time>
      </trkpt>
      <trkpt lat="43.9092" lon="7.33141">
        <ele>1072.9</ele>
        <time>2011-05-22T11:37:09Z</time>
      </trkpt>
      <trkpt lat="43.90924" lon="7.33134">
        <ele>1073.5</ele>
        <time>2011-05-22T11:37:12Z</time>
      </trkpt>
      <trkpt lat="43.90928" lon="7.33126">
        <ele>1074.5</ele>
        <time>2011-05-22T11:37:15Z</time>
      </trkpt>
      <trkpt lat="43.90933" lon="7.33118">
        <ele>1074.8</ele>
        <time>2011-05-22T11:37:18Z</time>
      </trkpt>
      <trkpt lat="43.90937" lon="7.3311">
        <ele>1075.4</ele>
        <time>2011-05-22T11:37:21Z</time>
      </trkpt>
      <trkpt lat="43.90941" lon="7.33099">
        <ele>1076.3</ele>
        <time>2011-05-22T11:37:25Z</time>
      </trkpt>
      <trkpt lat="43.90944" lon="7.33088">
        <ele>1077.1</ele>
        <time>2011-05-22T11:37:29Z</time>
      </trkpt>
      <trkpt lat="43.9095" lon="7.33082">
        <ele>1077.4</ele>
        <time>2011-05-22T11:37:32Z</time>
      </trkpt>
      <trkpt lat="43.90958" lon="7.33078">
        <ele>1078.4</ele>
        <time>2011-05-22T11:37:36Z</time>
      </trkpt>
      <trkpt lat="43.90966" lon="7.33077">
        <ele>1079.2</ele>
        <time>2011-05-22T11:37:40Z</time>
      </trkpt>
      <trkpt lat="43.90968" lon="7.33077">
        <ele>1079.3</ele>
        <time>2011-05-22T11:37:41Z</time>
      </trkpt>
      <trkpt lat="43.90982" lon="7.33079">
        <ele>1081.5</ele>
        <time>2011-05-22T11:37:48Z</time>
      </trkpt>
      <trkpt lat="43.9099" lon="7.33079">
        <ele>1082.3</ele>
        <time>2011-05-22T11:37:52Z</time>
      </trkpt>
      <trkpt lat="43.90997" lon="7.33076">
        <ele>1082.3</ele>
        <time>2011-05-22T11:37:56Z</time>
      </trkpt>
      <trkpt lat="43.91003" lon="7.33071">
        <ele>1082.5</ele>
        <time>2011-05-22T11:38:00Z</time>
      </trkpt>
      <trkpt lat="43.9101" lon="7.33065">
        <ele>1083.5</ele>
        <time>2011-05-22T11:38:04Z</time>
      </trkpt>
      <trkpt lat="43.91016" lon="7.33058">
        <ele>1084.3</ele>
        <time>2011-05-22T11:38:08Z</time>
      </trkpt>
      <trkpt lat="43.91023" lon="7.33052">
        <ele>1086.2</ele>
        <time>2011-05-22T11:38:13Z</time>
      </trkpt>
      <trkpt lat="43.91031" lon="7.33047">
        <ele>1086.4</ele>
        <time>2011-05-22T11:38:18Z</time>
      </trkpt>
      <trkpt lat="43.91038" lon="7.33042">
        <ele>1087.8</ele>
        <time>2011-05-22T11:38:23Z</time>
      </trkpt>
      <trkpt lat="43.91045" lon="7.33038">
        <ele>1088.7</ele>
        <time>2011-05-22T11:38:28Z</time>
      </trkpt>
      <trkpt lat="43.91053" lon="7.33035">
        <ele>1088.5</ele>
        <time>2011-05-22T11:38:33Z</time>
      </trkpt>
      <trkpt lat="43.91061" lon="7.33032">
        <ele>1089.2</ele>
        <time>2011-05-22T11:38:38Z</time>
      </trkpt>
      <trkpt lat="43.91069" lon="7.33031">
        <ele>1090.6</ele>
        <time>2011-05-22T11:38:43Z</time>
      </trkpt>
      <trkpt lat="43.91071" lon="7.33031">
        <ele>1090.5</ele>
        <time>2011-05-22T11:38:44Z</time>
      </trkpt>
      <trkpt lat="43.91085" lon="7.33025">
        <ele>1092.4</ele>
        <time>2011-05-22T11:38:52Z</time>
      </trkpt>
      <trkpt lat="43.91093" lon="7.33022">
        <ele>1093</ele>
        <time>2011-05-22T11:38:57Z</time>
      </trkpt>
      <trkpt lat="43.91101" lon="7.33019">
        <ele>1094.2</ele>
        <time>2011-05-22T11:39:02Z</time>
      </trkpt>
      <trkpt lat="43.91109" lon="7.33014">
        <ele>1094.7</ele>
        <time>2011-05-22T11:39:08Z</time>
      </trkpt>
      <trkpt lat="43.91115" lon="7.33008">
        <ele>1096.2</ele>
        <time>2011-05-22T11:39:13Z</time>
      </trkpt>
      <trkpt lat="43.91121" lon="7.33">
        <ele>1096.7</ele>
        <time>2011-05-22T11:39:18Z</time>
      </trkpt>
      <trkpt lat="43.91126" lon="7.32991">
        <ele>1098.6</ele>
        <time>2011-05-22T11:39:23Z</time>
      </trkpt>
      <trkpt lat="43.9113" lon="7.32982">
        <ele>1099.5</ele>
        <time>2011-05-22T11:39:28Z</time>
      </trkpt>
      <trkpt lat="43.91134" lon="7.32972">
        <ele>1099.7</ele>
        <time>2011-05-22T11:39:33Z</time>
      </trkpt>
      <trkpt lat="43.91138" lon="7.32963">
        <ele>1100.2</ele>
        <time>2011-05-22T11:39:37Z</time>
      </trkpt>
      <trkpt lat="43.91143" lon="7.32954">
        <ele>1100.8</ele>
        <time>2011-05-22T11:39:41Z</time>
      </trkpt>
      <trkpt lat="43.91148" lon="7.32946">
        <ele>1101.3</ele>
        <time>2011-05-22T11:39:45Z</time>
      </trkpt>
      <trkpt lat="43.9115" lon="7.32944">
        <ele>1101.1</ele>
        <time>2011-05-22T11:39:46Z</time>
      </trkpt>
      <trkpt lat="43.91159" lon="7.32929">
        <ele>1102</ele>
        <time>2011-05-22T11:39:53Z</time>
      </trkpt>
      <trkpt lat="43.91164" lon="7.32922">
        <ele>1102.5</ele>
        <time>2011-05-22T11:39:56Z</time>
      </trkpt>
      <trkpt lat="43.9117" lon="7.32915">
        <ele>1102.8</ele>
        <time>2011-05-22T11:39:59Z</time>
      </trkpt>
      <trkpt lat="43.91177" lon="7.32908">
        <ele>1102.7</ele>
        <time>2011-05-22T11:40:03Z</time>
      </trkpt>
      <trkpt lat="43.91183" lon="7.32903">
        <ele>1103.5</ele>
        <time>2011-05-22T11:40:06Z</time>
      </trkpt>
      <trkpt lat="43.9119" lon="7.32898">
        <ele>1102.5</ele>
        <time>2011-05-22T11:40:10Z</time>
      </trkpt>
      <trkpt lat="43.91197" lon="7.32894">
        <ele>1103.4</ele>
        <time>2011-05-22T11:40:13Z</time>
      </trkpt>
      <trkpt lat="43.91203" lon="7.3289">
        <ele>1103.6</ele>
        <time>2011-05-22T11:40:16Z</time>
      </trkpt>
      <trkpt lat="43.91212" lon="7.32886">
        <ele>1103.6</ele>
        <time>2011-05-22T11:40:19Z</time>
      </trkpt>
      <trkpt lat="43.91218" lon="7.32884">
        <ele>1104.1</ele>
        <time>2011-05-22T11:40:21Z</time>
      </trkpt>
      <trkpt lat="43.91225" lon="7.32881">
        <ele>1104</ele>
        <time>2011-05-22T11:40:23Z</time>
      </trkpt>
      <trkpt lat="43.91231" lon="7.32876">
        <ele>1103.6</ele>
        <time>2011-05-22T11:40:25Z</time>
      </trkpt>
      <trkpt lat="43.91238" lon="7.32869">
        <ele>1103.3</ele>
        <time>2011-05-22T11:40:27Z</time>
      </trkpt>
      <trkpt lat="43.91242" lon="7.32865">
        <ele>1103.1</ele>
        <time>2011-05-22T11:40:28Z</time>
      </trkpt>
      <trkpt lat="43.91245" lon="7.3286">
        <ele>1103</ele>
        <time>2011-05-22T11:40:29Z</time>
      </trkpt>
      <trkpt lat="43.91248" lon="7.32855">
        <ele>1102.9</ele>
        <time>2011-05-22T11:40:30Z</time>
      </trkpt>
      <trkpt lat="43.91251" lon="7.3285">
        <ele>1102.9</ele>
        <time>2011-05-22T11:40:31Z</time>
      </trkpt>
      <trkpt lat="43.91254" lon="7.32844">
        <ele>1102.8</ele>
        <time>2011-05-22T11:40:32Z</time>
      </trkpt>
      <trkpt lat="43.91258" lon="7.32838">
        <ele>1102.9</ele>
        <time>2011-05-22T11:40:33Z</time>
      </trkpt>
      <trkpt lat="43.91262" lon="7.32834">
        <ele>1102.9</ele>
        <time>2011-05-22T11:40:34Z</time>
      </trkpt>
      <trkpt lat="43.91267" lon="7.32832">
        <ele>1103</ele>
        <time>2011-05-22T11:40:35Z</time>
      </trkpt>
      <trkpt lat="43.91273" lon="7.32829">
        <ele>1102.5</ele>
        <time>2011-05-22T11:40:36Z</time>
      </trkpt>
      <trkpt lat="43.91278" lon="7.32827">
        <ele>1102.1</ele>
        <time>2011-05-22T11:40:37Z</time>
      </trkpt>
      <trkpt lat="43.91284" lon="7.32825">
        <ele>1101.8</ele>
        <time>2011-05-22T11:40:38Z</time>
      </trkpt>
      <trkpt lat="43.91289" lon="7.32822">
        <ele>1101.7</ele>
        <time>2011-05-22T11:40:39Z</time>
      </trkpt>
      <trkpt lat="43.91295" lon="7.32819">
        <ele>1101.7</ele>
        <time>2011-05-22T11:40:40Z</time>
      </trkpt>
      <trkpt lat="43.91299" lon="7.32815">
        <ele>1101.7</ele>
        <time>2011-05-22T11:40:41Z</time>
      </trkpt>
      <trkpt lat="43.91304" lon="7.32811">
        <ele>1101.3</ele>
        <time>2011-05-22T11:40:42Z</time>
      </trkpt>
      <trkpt lat="43.91308" lon="7.32807">
        <ele>1101</ele>
        <time>2011-05-22T11:40:43Z</time>
      </trkpt>
      <trkpt lat="43.91314" lon="7.32799">
        <ele>1100.6</ele>
        <time>2011-05-22T11:40:45Z</time>
      </trkpt>
      <trkpt lat="43.9132" lon="7.32793">
        <ele>1101</ele>
        <time>2011-05-22T11:40:47Z</time>
      </trkpt>
      <trkpt lat="43.91323" lon="7.32791">
        <ele>1101.1</ele>
        <time>2011-05-22T11:40:48Z</time>
      </trkpt>
      <trkpt lat="43.9133" lon="7.32784">
        <ele>1101.6</ele>
        <time>2011-05-22T11:40:51Z</time>
      </trkpt>
      <trkpt lat="43.91336" lon="7.32779">
        <ele>1101.3</ele>
        <time>2011-05-22T11:40:53Z</time>
      </trkpt>
      <trkpt lat="43.91342" lon="7.32774">
        <ele>1101.2</ele>
        <time>2011-05-22T11:40:55Z</time>
      </trkpt>
      <trkpt lat="43.91348" lon="7.32769">
        <ele>1101.2</ele>
        <time>2011-05-22T11:40:57Z</time>
      </trkpt>
      <trkpt lat="43.91355" lon="7.32763">
        <ele>1101</ele>
        <time>2011-05-22T11:40:59Z</time>
      </trkpt>
      <trkpt lat="43.91361" lon="7.32759">
        <ele>1101.5</ele>
        <time>2011-05-22T11:41:01Z</time>
      </trkpt>
      <trkpt lat="43.91366" lon="7.32755">
        <ele>1102.2</ele>
        <time>2011-05-22T11:41:03Z</time>
      </trkpt>
      <trkpt lat="43.91372" lon="7.32752">
        <ele>1102.4</ele>
        <time>2011-05-22T11:41:05Z</time>
      </trkpt>
      <trkpt lat="43.91378" lon="7.32748">
        <ele>1102.4</ele>
        <time>2011-05-22T11:41:07Z</time>
      </trkpt>
      <trkpt lat="43.91383" lon="7.32745">
        <ele>1103</ele>
        <time>2011-05-22T11:41:09Z</time>
      </trkpt>
      <trkpt lat="43.91391" lon="7.3274">
        <ele>1103.5</ele>
        <time>2011-05-22T11:41:12Z</time>
      </trkpt>
      <trkpt lat="43.91398" lon="7.32736">
        <ele>1104.6</ele>
        <time>2011-05-22T11:41:15Z</time>
      </trkpt>
      <trkpt lat="43.91405" lon="7.32732">
        <ele>1105.4</ele>
        <time>2011-05-22T11:41:18Z</time>
      </trkpt>
      <trkpt lat="43.91412" lon="7.32729">
        <ele>1106</ele>
        <time>2011-05-22T11:41:21Z</time>
      </trkpt>
      <trkpt lat="43.91419" lon="7.32725">
        <ele>1106.5</ele>
        <time>2011-05-22T11:41:24Z</time>
      </trkpt>
      <trkpt lat="43.91426" lon="7.32721">
        <ele>1107.3</ele>
        <time>2011-05-22T11:41:27Z</time>
      </trkpt>
      <trkpt lat="43.91434" lon="7.32718">
        <ele>1107.9</ele>
        <time>2011-05-22T11:41:30Z</time>
      </trkpt>
      <trkpt lat="43.91443" lon="7.32716">
        <ele>1107.6</ele>
        <time>2011-05-22T11:41:33Z</time>
      </trkpt>
      <trkpt lat="43.91448" lon="7.32713">
        <ele>1107</ele>
        <time>2011-05-22T11:41:35Z</time>
      </trkpt>
      <trkpt lat="43.91454" lon="7.32709">
        <ele>1107.8</ele>
        <time>2011-05-22T11:41:37Z</time>
      </trkpt>
      <trkpt lat="43.91461" lon="7.32701">
        <ele>1108.9</ele>
        <time>2011-05-22T11:41:40Z</time>
      </trkpt>
      <trkpt lat="43.91463" lon="7.32694">
        <ele>1109.9</ele>
        <time>2011-05-22T11:41:42Z</time>
      </trkpt>
      <trkpt lat="43.91465" lon="7.32685">
        <ele>1109.4</ele>
        <time>2011-05-22T11:41:44Z</time>
      </trkpt>
      <trkpt lat="43.91465" lon="7.32676">
        <ele>1109.2</ele>
        <time>2011-05-22T11:41:46Z</time>
      </trkpt>
      <trkpt lat="43.91464" lon="7.32668">
        <ele>1109.2</ele>
        <time>2011-05-22T11:41:48Z</time>
      </trkpt>
      <trkpt lat="43.91464" lon="7.32663">
        <ele>1109.4</ele>
        <time>2011-05-22T11:41:49Z</time>
      </trkpt>
      <trkpt lat="43.91466" lon="7.32643">
        <ele>1109.6</ele>
        <time>2011-05-22T11:41:54Z</time>
      </trkpt>
      <trkpt lat="43.91466" lon="7.32632">
        <ele>1109.8</ele>
        <time>2011-05-22T11:41:57Z</time>
      </trkpt>
      <trkpt lat="43.91466" lon="7.3262">
        <ele>1110.5</ele>
        <time>2011-05-22T11:42:00Z</time>
      </trkpt>
      <trkpt lat="43.91465" lon="7.32609">
        <ele>1110.7</ele>
        <time>2011-05-22T11:42:03Z</time>
      </trkpt>
      <trkpt lat="43.91462" lon="7.32597">
        <ele>1110.7</ele>
        <time>2011-05-22T11:42:06Z</time>
      </trkpt>
      <trkpt lat="43.91461" lon="7.32587">
        <ele>1111.5</ele>
        <time>2011-05-22T11:42:09Z</time>
      </trkpt>
      <trkpt lat="43.91461" lon="7.32577">
        <ele>1111.7</ele>
        <time>2011-05-22T11:42:12Z</time>
      </trkpt>
      <trkpt lat="43.9146" lon="7.32565">
        <ele>1111.5</ele>
        <time>2011-05-22T11:42:16Z</time>
      </trkpt>
      <trkpt lat="43.9146" lon="7.32554">
        <ele>1112.1</ele>
        <time>2011-05-22T11:42:20Z</time>
      </trkpt>
      <trkpt lat="43.91458" lon="7.32542">
        <ele>1113</ele>
        <time>2011-05-22T11:47:17Z</time>
      </trkpt>
      <trkpt lat="43.91458" lon="7.3254">
        <ele>1113</ele>
        <time>2011-05-22T11:47:18Z</time>
      </trkpt>
      <trkpt lat="43.91449" lon="7.32525">
        <ele>1111</ele>
        <time>2011-05-22T11:47:26Z</time>
      </trkpt>
      <trkpt lat="43.91443" lon="7.32515">
        <ele>1112.1</ele>
        <time>2011-05-22T11:47:33Z</time>
      </trkpt>
      <trkpt lat="43.91443" lon="7.32503">
        <ele>1111.7</ele>
        <time>2011-05-22T11:47:38Z</time>
      </trkpt>
      <trkpt lat="43.91446" lon="7.32493">
        <ele>1111</ele>
        <time>2011-05-22T11:47:41Z</time>
      </trkpt>
      <trkpt lat="43.91447" lon="7.32483">
        <ele>1110.6</ele>
        <time>2011-05-22T11:47:43Z</time>
      </trkpt>
      <trkpt lat="43.91445" lon="7.32472">
        <ele>1110.4</ele>
        <time>2011-05-22T11:47:45Z</time>
      </trkpt>
      <trkpt lat="43.91439" lon="7.32464">
        <ele>1109.9</ele>
        <time>2011-05-22T11:47:47Z</time>
      </trkpt>
      <trkpt lat="43.91436" lon="7.32454">
        <ele>1109.3</ele>
        <time>2011-05-22T11:47:49Z</time>
      </trkpt>
      <trkpt lat="43.91437" lon="7.32448">
        <ele>1109.1</ele>
        <time>2011-05-22T11:47:50Z</time>
      </trkpt>
      <trkpt lat="43.91439" lon="7.32442">
        <ele>1109</ele>
        <time>2011-05-22T11:47:51Z</time>
      </trkpt>
      <trkpt lat="43.9144" lon="7.32435">
        <ele>1108.9</ele>
        <time>2011-05-22T11:47:52Z</time>
      </trkpt>
      <trkpt lat="43.91442" lon="7.32427">
        <ele>1108.5</ele>
        <time>2011-05-22T11:47:53Z</time>
      </trkpt>
      <trkpt lat="43.91441" lon="7.32419">
        <ele>1108.2</ele>
        <time>2011-05-22T11:47:54Z</time>
      </trkpt>
      <trkpt lat="43.9144" lon="7.32413">
        <ele>1107.9</ele>
        <time>2011-05-22T11:47:55Z</time>
      </trkpt>
      <trkpt lat="43.91439" lon="7.32406">
        <ele>1107.3</ele>
        <time>2011-05-22T11:47:56Z</time>
      </trkpt>
      <trkpt lat="43.9144" lon="7.32395">
        <ele>1106.6</ele>
        <time>2011-05-22T11:47:58Z</time>
      </trkpt>
      <trkpt lat="43.91441" lon="7.32386">
        <ele>1105.9</ele>
        <time>2011-05-22T11:48:00Z</time>
      </trkpt>
      <trkpt lat="43.91441" lon="7.32376">
        <ele>1105.5</ele>
        <time>2011-05-22T11:48:02Z</time>
      </trkpt>
      <trkpt lat="43.91441" lon="7.32366">
        <ele>1105.2</ele>
        <time>2011-05-22T11:48:04Z</time>
      </trkpt>
      <trkpt lat="43.91442" lon="7.32356">
        <ele>1105.5</ele>
        <time>2011-05-22T11:48:07Z</time>
      </trkpt>
      <trkpt lat="43.91442" lon="7.32344">
        <ele>1106.3</ele>
        <time>2011-05-22T11:48:11Z</time>
      </trkpt>
      <trkpt lat="43.91444" lon="7.32333">
        <ele>1106.4</ele>
        <time>2011-05-22T11:48:15Z</time>
      </trkpt>
      <trkpt lat="43.91446" lon="7.32323">
        <ele>1106.7</ele>
        <time>2011-05-22T11:48:19Z</time>
      </trkpt>
      <trkpt lat="43.91446" lon="7.32321">
        <ele>1107</ele>
        <time>2011-05-22T11:48:20Z</time>
      </trkpt>
      <trkpt lat="43.91453" lon="7.32309">
        <ele>1108.3</ele>
        <time>2011-05-22T11:48:26Z</time>
      </trkpt>
      <trkpt lat="43.91456" lon="7.32305">
        <ele>1108.3</ele>
        <time>2011-05-22T11:48:27Z</time>
      </trkpt>
      <trkpt lat="43.91459" lon="7.323">
        <ele>1107.5</ele>
        <time>2011-05-22T11:48:28Z</time>
      </trkpt>
      <trkpt lat="43.91463" lon="7.32295">
        <ele>1106.9</ele>
        <time>2011-05-22T11:48:29Z</time>
      </trkpt>
      <trkpt lat="43.91468" lon="7.32288">
        <ele>1105.8</ele>
        <time>2011-05-22T11:48:31Z</time>
      </trkpt>
      <trkpt lat="43.91474" lon="7.32281">
        <ele>1105</ele>
        <time>2011-05-22T11:48:33Z</time>
      </trkpt>
      <trkpt lat="43.9148" lon="7.32277">
        <ele>1103.8</ele>
        <time>2011-05-22T11:48:35Z</time>
      </trkpt>
      <trkpt lat="43.91484" lon="7.32274">
        <ele>1103.1</ele>
        <time>2011-05-22T11:48:36Z</time>
      </trkpt>
      <trkpt lat="43.91491" lon="7.32266">
        <ele>1101.4</ele>
        <time>2011-05-22T11:48:38Z</time>
      </trkpt>
      <trkpt lat="43.91497" lon="7.32257">
        <ele>1097.2</ele>
        <time>2011-05-22T11:48:50Z</time>
      </trkpt>
      <trkpt lat="43.91503" lon="7.3225">
        <ele>1096.7</ele>
        <time>2011-05-22T11:48:58Z</time>
      </trkpt>
      <trkpt lat="43.91508" lon="7.32242">
        <ele>1095.8</ele>
        <time>2011-05-22T11:49:03Z</time>
      </trkpt>
      <trkpt lat="43.91512" lon="7.32235">
        <ele>1095.6</ele>
        <time>2011-05-22T11:49:06Z</time>
      </trkpt>
      <trkpt lat="43.91518" lon="7.32226">
        <ele>1095.7</ele>
        <time>2011-05-22T11:49:08Z</time>
      </trkpt>
      <trkpt lat="43.91521" lon="7.32221">
        <ele>1095.8</ele>
        <time>2011-05-22T11:49:09Z</time>
      </trkpt>
      <trkpt lat="43.91524" lon="7.32216">
        <ele>1095</ele>
        <time>2011-05-22T11:49:10Z</time>
      </trkpt>
      <trkpt lat="43.91526" lon="7.3221">
        <ele>1094.5</ele>
        <time>2011-05-22T11:49:11Z</time>
      </trkpt>
      <trkpt lat="43.91529" lon="7.32203">
        <ele>1094</ele>
        <time>2011-05-22T11:49:12Z</time>
      </trkpt>
      <trkpt lat="43.91533" lon="7.32196">
        <ele>1093.3</ele>
        <time>2011-05-22T11:49:13Z</time>
      </trkpt>
      <trkpt lat="43.91536" lon="7.32189">
        <ele>1092.7</ele>
        <time>2011-05-22T11:49:14Z</time>
      </trkpt>
      <trkpt lat="43.91538" lon="7.32182">
        <ele>1092.2</ele>
        <time>2011-05-22T11:49:15Z</time>
      </trkpt>
      <trkpt lat="43.9154" lon="7.32176">
        <ele>1091.9</ele>
        <time>2011-05-22T11:49:16Z</time>
      </trkpt>
      <trkpt lat="43.91545" lon="7.32166">
        <ele>1091.5</ele>
        <time>2011-05-22T11:49:18Z</time>
      </trkpt>
      <trkpt lat="43.91552" lon="7.32159">
        <ele>1091.2</ele>
        <time>2011-05-22T11:49:21Z</time>
      </trkpt>
      <trkpt lat="43.91553" lon="7.32157">
        <ele>1091.2</ele>
        <time>2011-05-22T11:49:22Z</time>
      </trkpt>
      <trkpt lat="43.91566" lon="7.32152">
        <ele>1089.6</ele>
        <time>2011-05-22T11:50:15Z</time>
      </trkpt>
      <trkpt lat="43.91573" lon="7.32147">
        <ele>1088.9</ele>
        <time>2011-05-22T11:50:18Z</time>
      </trkpt>
      <trkpt lat="43.91579" lon="7.32144">
        <ele>1088.6</ele>
        <time>2011-05-22T11:50:20Z</time>
      </trkpt>
      <trkpt lat="43.91584" lon="7.3214">
        <ele>1088.4</ele>
        <time>2011-05-22T11:50:22Z</time>
      </trkpt>
      <trkpt lat="43.91588" lon="7.32137">
        <ele>1088.2</ele>
        <time>2011-05-22T11:50:23Z</time>
      </trkpt>
      <trkpt lat="43.91597" lon="7.3213">
        <ele>1087.8</ele>
        <time>2011-05-22T11:50:25Z</time>
      </trkpt>
      <trkpt lat="43.91602" lon="7.32126">
        <ele>1087.9</ele>
        <time>2011-05-22T11:50:26Z</time>
      </trkpt>
      <trkpt lat="43.91608" lon="7.32121">
        <ele>1088</ele>
        <time>2011-05-22T11:50:27Z</time>
      </trkpt>
      <trkpt lat="43.91614" lon="7.32115">
        <ele>1088</ele>
        <time>2011-05-22T11:50:28Z</time>
      </trkpt>
      <trkpt lat="43.91619" lon="7.32109">
        <ele>1088.1</ele>
        <time>2011-05-22T11:50:29Z</time>
      </trkpt>
      <trkpt lat="43.91625" lon="7.32103">
        <ele>1087.2</ele>
        <time>2011-05-22T11:50:30Z</time>
      </trkpt>
      <trkpt lat="43.9163" lon="7.32099">
        <ele>1086.6</ele>
        <time>2011-05-22T11:50:31Z</time>
      </trkpt>
      <trkpt lat="43.91634" lon="7.32096">
        <ele>1086.1</ele>
        <time>2011-05-22T11:50:32Z</time>
      </trkpt>
      <trkpt lat="43.9164" lon="7.32094">
        <ele>1085.2</ele>
        <time>2011-05-22T11:50:33Z</time>
      </trkpt>
      <trkpt lat="43.91646" lon="7.3209">
        <ele>1084.6</ele>
        <time>2011-05-22T11:50:34Z</time>
      </trkpt>
      <trkpt lat="43.91651" lon="7.32084">
        <ele>1084.1</ele>
        <time>2011-05-22T11:50:35Z</time>
      </trkpt>
      <trkpt lat="43.91657" lon="7.32079">
        <ele>1082.6</ele>
        <time>2011-05-22T11:50:36Z</time>
      </trkpt>
      <trkpt lat="43.91661" lon="7.32077">
        <ele>1081.4</ele>
        <time>2011-05-22T11:50:37Z</time>
      </trkpt>
      <trkpt lat="43.91668" lon="7.32071">
        <ele>1079.6</ele>
        <time>2011-05-22T11:50:39Z</time>
      </trkpt>
      <trkpt lat="43.91673" lon="7.32064">
        <ele>1078.2</ele>
        <time>2011-05-22T11:50:41Z</time>
      </trkpt>
      <trkpt lat="43.91678" lon="7.32057">
        <ele>1076.9</ele>
        <time>2011-05-22T11:50:43Z</time>
      </trkpt>
      <trkpt lat="43.91685" lon="7.32055">
        <ele>1076.2</ele>
        <time>2011-05-22T11:50:45Z</time>
      </trkpt>
      <trkpt lat="43.91691" lon="7.32051">
        <ele>1075.7</ele>
        <time>2011-05-22T11:50:47Z</time>
      </trkpt>
      <trkpt lat="43.917" lon="7.32047">
        <ele>1075.7</ele>
        <time>2011-05-22T11:50:49Z</time>
      </trkpt>
      <trkpt lat="43.91707" lon="7.32042">
        <ele>1075.9</ele>
        <time>2011-05-22T11:50:51Z</time>
      </trkpt>
      <trkpt lat="43.91716" lon="7.3204">
        <ele>1073.8</ele>
        <time>2011-05-22T11:50:53Z</time>
      </trkpt>
      <trkpt lat="43.91723" lon="7.32035">
        <ele>1072.1</ele>
        <time>2011-05-22T11:50:55Z</time>
      </trkpt>
      <trkpt lat="43.9173" lon="7.32039">
        <ele>1070.7</ele>
        <time>2011-05-22T11:50:57Z</time>
      </trkpt>
      <trkpt lat="43.91734" lon="7.32039">
        <ele>1070.4</ele>
        <time>2011-05-22T11:50:58Z</time>
      </trkpt>
      <trkpt lat="43.91739" lon="7.3204">
        <ele>1070.2</ele>
        <time>2011-05-22T11:50:59Z</time>
      </trkpt>
      <trkpt lat="43.91744" lon="7.32042">
        <ele>1070.1</ele>
        <time>2011-05-22T11:51:00Z</time>
      </trkpt>
      <trkpt lat="43.91749" lon="7.32042">
        <ele>1069</ele>
        <time>2011-05-22T11:51:01Z</time>
      </trkpt>
      <trkpt lat="43.91756" lon="7.3204">
        <ele>1068.2</ele>
        <time>2011-05-22T11:51:02Z</time>
      </trkpt>
      <trkpt lat="43.91763" lon="7.32038">
        <ele>1067.6</ele>
        <time>2011-05-22T11:51:03Z</time>
      </trkpt>
      <trkpt lat="43.9177" lon="7.32035">
        <ele>1067.2</ele>
        <time>2011-05-22T11:51:04Z</time>
      </trkpt>
      <trkpt lat="43.91775" lon="7.32032">
        <ele>1066.1</ele>
        <time>2011-05-22T11:51:05Z</time>
      </trkpt>
      <trkpt lat="43.91782" lon="7.32031">
        <ele>1065.3</ele>
        <time>2011-05-22T11:51:06Z</time>
      </trkpt>
      <trkpt lat="43.91789" lon="7.32029">
        <ele>1064.7</ele>
        <time>2011-05-22T11:51:07Z</time>
      </trkpt>
      <trkpt lat="43.91796" lon="7.32026">
        <ele>1063.2</ele>
        <time>2011-05-22T11:51:08Z</time>
      </trkpt>
      <trkpt lat="43.91802" lon="7.32023">
        <ele>1062.1</ele>
        <time>2011-05-22T11:51:09Z</time>
      </trkpt>
      <trkpt lat="43.91808" lon="7.32021">
        <ele>1061.3</ele>
        <time>2011-05-22T11:51:10Z</time>
      </trkpt>
      <trkpt lat="43.91816" lon="7.32019">
        <ele>1057.5</ele>
        <time>2011-05-22T11:51:12Z</time>
      </trkpt>
      <trkpt lat="43.91823" lon="7.32021">
        <ele>1054.4</ele>
        <time>2011-05-22T11:51:16Z</time>
      </trkpt>
      <trkpt lat="43.91829" lon="7.3202">
        <ele>1052.2</ele>
        <time>2011-05-22T11:51:18Z</time>
      </trkpt>
      <trkpt lat="43.91835" lon="7.32014">
        <ele>1050.9</ele>
        <time>2011-05-22T11:51:20Z</time>
      </trkpt>
      <trkpt lat="43.91843" lon="7.32012">
        <ele>1048.5</ele>
        <time>2011-05-22T11:51:33Z</time>
      </trkpt>
      <trkpt lat="43.91845" lon="7.32015">
        <ele>1048.4</ele>
        <time>2011-05-22T11:51:34Z</time>
      </trkpt>
      <trkpt lat="43.91857" lon="7.3202">
        <ele>1047.3</ele>
        <time>2011-05-22T11:51:38Z</time>
      </trkpt>
      <trkpt lat="43.91862" lon="7.32022">
        <ele>1046</ele>
        <time>2011-05-22T11:51:40Z</time>
      </trkpt>
      <trkpt lat="43.91868" lon="7.32025">
        <ele>1044.7</ele>
        <time>2011-05-22T11:51:42Z</time>
      </trkpt>
      <trkpt lat="43.91877" lon="7.32024">
        <ele>1042.3</ele>
        <time>2011-05-22T11:51:45Z</time>
      </trkpt>
      <trkpt lat="43.9188" lon="7.3202">
        <ele>1040.9</ele>
        <time>2011-05-22T11:51:46Z</time>
      </trkpt>
      <trkpt lat="43.91884" lon="7.32015">
        <ele>1039.9</ele>
        <time>2011-05-22T11:51:47Z</time>
      </trkpt>
      <trkpt lat="43.91893" lon="7.3201">
        <ele>1037.8</ele>
        <time>2011-05-22T11:51:49Z</time>
      </trkpt>
      <trkpt lat="43.91901" lon="7.32011">
        <ele>1036.2</ele>
        <time>2011-05-22T11:51:51Z</time>
      </trkpt>
      <trkpt lat="43.91907" lon="7.32014">
        <ele>1034.8</ele>
        <time>2011-05-22T11:51:53Z</time>
      </trkpt>
      <trkpt lat="43.91914" lon="7.32013">
        <ele>1033.6</ele>
        <time>2011-05-22T11:51:55Z</time>
      </trkpt>
      <trkpt lat="43.91921" lon="7.32007">
        <ele>1031.5</ele>
        <time>2011-05-22T11:51:57Z</time>
      </trkpt>
      <trkpt lat="43.91925" lon="7.32003">
        <ele>1030.8</ele>
        <time>2011-05-22T11:51:58Z</time>
      </trkpt>
      <trkpt lat="43.91929" lon="7.31999">
        <ele>1029.4</ele>
        <time>2011-05-22T11:51:59Z</time>
      </trkpt>
      <trkpt lat="43.91934" lon="7.31998">
        <ele>1028.4</ele>
        <time>2011-05-22T11:52:00Z</time>
      </trkpt>
      <trkpt lat="43.91942" lon="7.31996">
        <ele>1027</ele>
        <time>2011-05-22T11:52:02Z</time>
      </trkpt>
      <trkpt lat="43.91949" lon="7.31992">
        <ele>1024.9</ele>
        <time>2011-05-22T11:52:05Z</time>
      </trkpt>
      <trkpt lat="43.91957" lon="7.31989">
        <ele>1023.1</ele>
        <time>2011-05-22T11:52:07Z</time>
      </trkpt>
      <trkpt lat="43.91963" lon="7.31985">
        <ele>1018.8</ele>
        <time>2011-05-22T11:52:52Z</time>
      </trkpt>
      <trkpt lat="43.91965" lon="7.31983">
        <ele>1018</ele>
        <time>2011-05-22T11:52:53Z</time>
      </trkpt>
      <trkpt lat="43.91973" lon="7.31975">
        <ele>1016.8</ele>
        <time>2011-05-22T11:52:55Z</time>
      </trkpt>
      <trkpt lat="43.91978" lon="7.31974">
        <ele>1016.4</ele>
        <time>2011-05-22T11:52:56Z</time>
      </trkpt>
      <trkpt lat="43.91983" lon="7.31974">
        <ele>1016</ele>
        <time>2011-05-22T11:52:57Z</time>
      </trkpt>
      <trkpt lat="43.91988" lon="7.31972">
        <ele>1015.8</ele>
        <time>2011-05-22T11:52:58Z</time>
      </trkpt>
      <trkpt lat="43.91992" lon="7.31968">
        <ele>1015.6</ele>
        <time>2011-05-22T11:52:59Z</time>
      </trkpt>
      <trkpt lat="43.91997" lon="7.31964">
        <ele>1015</ele>
        <time>2011-05-22T11:53:00Z</time>
      </trkpt>
      <trkpt lat="43.92003" lon="7.31959">
        <ele>1014.5</ele>
        <time>2011-05-22T11:53:01Z</time>
      </trkpt>
      <trkpt lat="43.92008" lon="7.31955">
        <ele>1014.2</ele>
        <time>2011-05-22T11:53:02Z</time>
      </trkpt>
      <trkpt lat="43.92013" lon="7.31949">
        <ele>1013.3</ele>
        <time>2011-05-22T11:53:03Z</time>
      </trkpt>
      <trkpt lat="43.92017" lon="7.31942">
        <ele>1012.7</ele>
        <time>2011-05-22T11:53:04Z</time>
      </trkpt>
      <trkpt lat="43.92022" lon="7.31935">
        <ele>1012.2</ele>
        <time>2011-05-22T11:53:05Z</time>
      </trkpt>
      <trkpt lat="43.92026" lon="7.3193">
        <ele>1011.1</ele>
        <time>2011-05-22T11:53:06Z</time>
      </trkpt>
      <trkpt lat="43.92034" lon="7.31924">
        <ele>1009.6</ele>
        <time>2011-05-22T11:53:08Z</time>
      </trkpt>
      <trkpt lat="43.92038" lon="7.3192">
        <ele>1008.4</ele>
        <time>2011-05-22T11:53:09Z</time>
      </trkpt>
      <trkpt lat="43.92041" lon="7.31915">
        <ele>1007.5</ele>
        <time>2011-05-22T11:53:10Z</time>
      </trkpt>
      <trkpt lat="43.92044" lon="7.31909">
        <ele>1006.8</ele>
        <time>2011-05-22T11:53:11Z</time>
      </trkpt>
      <trkpt lat="43.92046" lon="7.31902">
        <ele>1005.8</ele>
        <time>2011-05-22T11:53:12Z</time>
      </trkpt>
      <trkpt lat="43.92049" lon="7.31894">
        <ele>1004.9</ele>
        <time>2011-05-22T11:53:13Z</time>
      </trkpt>
      <trkpt lat="43.92053" lon="7.31886">
        <ele>1004.3</ele>
        <time>2011-05-22T11:53:14Z</time>
      </trkpt>
      <trkpt lat="43.92056" lon="7.31876">
        <ele>1003.9</ele>
        <time>2011-05-22T11:53:15Z</time>
      </trkpt>
      <trkpt lat="43.92058" lon="7.31868">
        <ele>1002.1</ele>
        <time>2011-05-22T11:53:16Z</time>
      </trkpt>
      <trkpt lat="43.9206" lon="7.31861">
        <ele>1000.8</ele>
        <time>2011-05-22T11:53:17Z</time>
      </trkpt>
      <trkpt lat="43.92061" lon="7.31854">
        <ele>999.8</ele>
        <time>2011-05-22T11:53:18Z</time>
      </trkpt>
      <trkpt lat="43.92061" lon="7.31847">
        <ele>999</ele>
        <time>2011-05-22T11:53:19Z</time>
      </trkpt>
      <trkpt lat="43.92061" lon="7.3184">
        <ele>998.3</ele>
        <time>2011-05-22T11:53:20Z</time>
      </trkpt>
      <trkpt lat="43.92062" lon="7.31833">
        <ele>997.9</ele>
        <time>2011-05-22T11:53:21Z</time>
      </trkpt>
      <trkpt lat="43.92063" lon="7.31825">
        <ele>996.8</ele>
        <time>2011-05-22T11:53:22Z</time>
      </trkpt>
      <trkpt lat="43.92065" lon="7.31815">
        <ele>995.5</ele>
        <time>2011-05-22T11:53:24Z</time>
      </trkpt>
      <trkpt lat="43.92062" lon="7.31806">
        <ele>993.9</ele>
        <time>2011-05-22T11:53:26Z</time>
      </trkpt>
      <trkpt lat="43.92057" lon="7.31796">
        <ele>992.1</ele>
        <time>2011-05-22T11:53:28Z</time>
      </trkpt>
      <trkpt lat="43.92065" lon="7.31793">
        <ele>989.8</ele>
        <time>2011-05-22T11:53:32Z</time>
      </trkpt>
      <trkpt lat="43.92074" lon="7.31791">
        <ele>989.4</ele>
        <time>2011-05-22T11:53:36Z</time>
      </trkpt>
      <trkpt lat="43.92081" lon="7.31786">
        <ele>988.7</ele>
        <time>2011-05-22T11:53:41Z</time>
      </trkpt>
      <trkpt lat="43.92087" lon="7.31779">
        <ele>989.5</ele>
        <time>2011-05-22T11:53:46Z</time>
      </trkpt>
      <trkpt lat="43.92093" lon="7.31771">
        <ele>990.4</ele>
        <time>2011-05-22T11:53:51Z</time>
      </trkpt>
      <trkpt lat="43.92101" lon="7.31765">
        <ele>991.3</ele>
        <time>2011-05-22T11:53:56Z</time>
      </trkpt>
      <trkpt lat="43.92102" lon="7.31764">
        <ele>991.6</ele>
        <time>2011-05-22T11:53:57Z</time>
      </trkpt>
      <trkpt lat="43.92113" lon="7.31752">
        <ele>991.9</ele>
        <time>2011-05-22T11:54:04Z</time>
      </trkpt>
      <trkpt lat="43.92119" lon="7.31747">
        <ele>991.9</ele>
        <time>2011-05-22T11:54:07Z</time>
      </trkpt>
      <trkpt lat="43.92127" lon="7.31742">
        <ele>992.3</ele>
        <time>2011-05-22T11:54:10Z</time>
      </trkpt>
      <trkpt lat="43.92133" lon="7.31739">
        <ele>992.6</ele>
        <time>2011-05-22T11:54:13Z</time>
      </trkpt>
      <trkpt lat="43.92141" lon="7.31735">
        <ele>992.6</ele>
        <time>2011-05-22T11:54:16Z</time>
      </trkpt>
      <trkpt lat="43.92149" lon="7.31734">
        <ele>992.2</ele>
        <time>2011-05-22T11:54:19Z</time>
      </trkpt>
      <trkpt lat="43.92153" lon="7.31724">
        <ele>991.1</ele>
        <time>2011-05-22T11:54:27Z</time>
      </trkpt>
      <trkpt lat="43.92158" lon="7.31714">
        <ele>992.9</ele>
        <time>2011-05-22T11:54:32Z</time>
      </trkpt>
      <trkpt lat="43.92163" lon="7.31705">
        <ele>993.9</ele>
        <time>2011-05-22T11:54:36Z</time>
      </trkpt>
      <trkpt lat="43.92167" lon="7.31694">
        <ele>994.1</ele>
        <time>2011-05-22T11:55:06Z</time>
      </trkpt>
      <trkpt lat="43.92167" lon="7.31693">
        <ele>993.8</ele>
        <time>2011-05-22T11:55:07Z</time>
      </trkpt>
      <trkpt lat="43.9217" lon="7.31673">
        <ele>992.6</ele>
        <time>2011-05-22T11:55:19Z</time>
      </trkpt>
      <trkpt lat="43.92172" lon="7.31665">
        <ele>993.1</ele>
        <time>2011-05-22T11:55:21Z</time>
      </trkpt>
      <trkpt lat="43.92173" lon="7.31656">
        <ele>993.4</ele>
        <time>2011-05-22T11:55:23Z</time>
      </trkpt>
      <trkpt lat="43.92175" lon="7.31646">
        <ele>993.5</ele>
        <time>2011-05-22T11:55:25Z</time>
      </trkpt>
      <trkpt lat="43.92175" lon="7.31637">
        <ele>993.3</ele>
        <time>2011-05-22T11:55:27Z</time>
      </trkpt>
      <trkpt lat="43.92177" lon="7.31628">
        <ele>993</ele>
        <time>2011-05-22T11:55:29Z</time>
      </trkpt>
      <trkpt lat="43.92177" lon="7.31618">
        <ele>993.1</ele>
        <time>2011-05-22T11:55:31Z</time>
      </trkpt>
      <trkpt lat="43.92179" lon="7.31608">
        <ele>993.1</ele>
        <time>2011-05-22T11:55:33Z</time>
      </trkpt>
      <trkpt lat="43.92182" lon="7.31596">
        <ele>992.9</ele>
        <time>2011-05-22T11:55:36Z</time>
      </trkpt>
      <trkpt lat="43.92181" lon="7.31588">
        <ele>992.6</ele>
        <time>2011-05-22T11:55:38Z</time>
      </trkpt>
      <trkpt lat="43.92179" lon="7.31578">
        <ele>992.1</ele>
        <time>2011-05-22T11:55:40Z</time>
      </trkpt>
      <trkpt lat="43.92185" lon="7.3157">
        <ele>991.5</ele>
        <time>2011-05-22T11:55:43Z</time>
      </trkpt>
      <trkpt lat="43.9219" lon="7.31561">
        <ele>992.1</ele>
        <time>2011-05-22T11:55:49Z</time>
      </trkpt>
      <trkpt lat="43.92193" lon="7.31551">
        <ele>994</ele>
        <time>2011-05-22T11:55:53Z</time>
      </trkpt>
      <trkpt lat="43.92197" lon="7.31541">
        <ele>994.8</ele>
        <time>2011-05-22T11:55:57Z</time>
      </trkpt>
      <trkpt lat="43.922" lon="7.31531">
        <ele>996.2</ele>
        <time>2011-05-22T11:56:01Z</time>
      </trkpt>
      <trkpt lat="43.92204" lon="7.31521">
        <ele>995.4</ele>
        <time>2011-05-22T11:56:04Z</time>
      </trkpt>
      <trkpt lat="43.92207" lon="7.31511">
        <ele>996.6</ele>
        <time>2011-05-22T11:56:07Z</time>
      </trkpt>
      <trkpt lat="43.92208" lon="7.31507">
        <ele>996.3</ele>
        <time>2011-05-22T11:56:08Z</time>
      </trkpt>
      <trkpt lat="43.92212" lon="7.31489">
        <ele>995.7</ele>
        <time>2011-05-22T11:56:13Z</time>
      </trkpt>
      <trkpt lat="43.92214" lon="7.31479">
        <ele>996.3</ele>
        <time>2011-05-22T11:56:16Z</time>
      </trkpt>
      <trkpt lat="43.92217" lon="7.3147">
        <ele>995.7</ele>
        <time>2011-05-22T11:56:19Z</time>
      </trkpt>
      <trkpt lat="43.9222" lon="7.31462">
        <ele>995.8</ele>
        <time>2011-05-22T11:56:22Z</time>
      </trkpt>
      <trkpt lat="43.92223" lon="7.31452">
        <ele>996.6</ele>
        <time>2011-05-22T11:56:25Z</time>
      </trkpt>
      <trkpt lat="43.92225" lon="7.31441">
        <ele>997.4</ele>
        <time>2011-05-22T11:56:28Z</time>
      </trkpt>
      <trkpt lat="43.92226" lon="7.31431">
        <ele>996.5</ele>
        <time>2011-05-22T11:56:31Z</time>
      </trkpt>
      <trkpt lat="43.92227" lon="7.31419">
        <ele>997.6</ele>
        <time>2011-05-22T11:56:47Z</time>
      </trkpt>
      <trkpt lat="43.92229" lon="7.31409">
        <ele>997.1</ele>
        <time>2011-05-22T11:56:55Z</time>
      </trkpt>
      <trkpt lat="43.92229" lon="7.31397">
        <ele>997.2</ele>
        <time>2011-05-22T11:57:02Z</time>
      </trkpt>
      <trkpt lat="43.9223" lon="7.31385">
        <ele>995.9</ele>
        <time>2011-05-22T11:57:09Z</time>
      </trkpt>
      <trkpt lat="43.9223" lon="7.31384">
        <ele>995.8</ele>
        <time>2011-05-22T11:57:10Z</time>
      </trkpt>
      <trkpt lat="43.92232" lon="7.31363">
        <ele>997.8</ele>
        <time>2011-05-22T11:57:59Z</time>
      </trkpt>
      <trkpt lat="43.92231" lon="7.31352">
        <ele>998.7</ele>
        <time>2011-05-22T11:58:04Z</time>
      </trkpt>
      <trkpt lat="43.92232" lon="7.31341">
        <ele>1000</ele>
        <time>2011-05-22T11:58:08Z</time>
      </trkpt>
      <trkpt lat="43.92232" lon="7.31329">
        <ele>999.5</ele>
        <time>2011-05-22T11:58:11Z</time>
      </trkpt>
      <trkpt lat="43.92233" lon="7.31325">
        <ele>999</ele>
        <time>2011-05-22T11:58:12Z</time>
      </trkpt>
      <trkpt lat="43.92235" lon="7.31316">
        <ele>998.3</ele>
        <time>2011-05-22T11:58:14Z</time>
      </trkpt>
      <trkpt lat="43.92237" lon="7.31308">
        <ele>998.1</ele>
        <time>2011-05-22T11:58:15Z</time>
      </trkpt>
      <trkpt lat="43.92239" lon="7.31301">
        <ele>997.7</ele>
        <time>2011-05-22T11:58:16Z</time>
      </trkpt>
      <trkpt lat="43.92241" lon="7.31293">
        <ele>997.5</ele>
        <time>2011-05-22T11:58:17Z</time>
      </trkpt>
      <trkpt lat="43.92243" lon="7.31286">
        <ele>997.3</ele>
        <time>2011-05-22T11:58:18Z</time>
      </trkpt>
      <trkpt lat="43.92244" lon="7.31278">
        <ele>996.3</ele>
        <time>2011-05-22T11:58:19Z</time>
      </trkpt>
      <trkpt lat="43.92245" lon="7.31271">
        <ele>995.6</ele>
        <time>2011-05-22T11:58:20Z</time>
      </trkpt>
      <trkpt lat="43.92245" lon="7.31259">
        <ele>995</ele>
        <time>2011-05-22T11:58:22Z</time>
      </trkpt>
      <trkpt lat="43.92243" lon="7.31249">
        <ele>994.9</ele>
        <time>2011-05-22T11:58:24Z</time>
      </trkpt>
      <trkpt lat="43.92242" lon="7.31243">
        <ele>994.4</ele>
        <time>2011-05-22T11:58:25Z</time>
      </trkpt>
      <trkpt lat="43.92242" lon="7.31237">
        <ele>994</ele>
        <time>2011-05-22T11:58:26Z</time>
      </trkpt>
      <trkpt lat="43.92241" lon="7.3123">
        <ele>993.7</ele>
        <time>2011-05-22T11:58:27Z</time>
      </trkpt>
      <trkpt lat="43.92239" lon="7.31219">
        <ele>993</ele>
        <time>2011-05-22T11:58:29Z</time>
      </trkpt>
      <trkpt lat="43.92237" lon="7.3121">
        <ele>992.6</ele>
        <time>2011-05-22T11:58:31Z</time>
      </trkpt>
      <trkpt lat="43.92236" lon="7.31204">
        <ele>992.3</ele>
        <time>2011-05-22T11:58:32Z</time>
      </trkpt>
      <trkpt lat="43.92236" lon="7.31196">
        <ele>992.2</ele>
        <time>2011-05-22T11:58:33Z</time>
      </trkpt>
      <trkpt lat="43.92237" lon="7.31188">
        <ele>992.1</ele>
        <time>2011-05-22T11:58:34Z</time>
      </trkpt>
      <trkpt lat="43.92239" lon="7.3118">
        <ele>990.7</ele>
        <time>2011-05-22T11:58:35Z</time>
      </trkpt>
      <trkpt lat="43.92242" lon="7.31173">
        <ele>989.7</ele>
        <time>2011-05-22T11:58:36Z</time>
      </trkpt>
      <trkpt lat="43.92247" lon="7.31167">
        <ele>988.9</ele>
        <time>2011-05-22T11:58:37Z</time>
      </trkpt>
      <trkpt lat="43.92251" lon="7.3116">
        <ele>987.9</ele>
        <time>2011-05-22T11:58:38Z</time>
      </trkpt>
      <trkpt lat="43.92254" lon="7.31154">
        <ele>987.2</ele>
        <time>2011-05-22T11:58:39Z</time>
      </trkpt>
      <trkpt lat="43.92256" lon="7.31147">
        <ele>986.6</ele>
        <time>2011-05-22T11:58:40Z</time>
      </trkpt>
      <trkpt lat="43.92258" lon="7.31135">
        <ele>985</ele>
        <time>2011-05-22T11:58:42Z</time>
      </trkpt>
      <trkpt lat="43.92259" lon="7.31123">
        <ele>983.2</ele>
        <time>2011-05-22T11:58:44Z</time>
      </trkpt>
      <trkpt lat="43.92259" lon="7.31116">
        <ele>982.3</ele>
        <time>2011-05-22T11:58:45Z</time>
      </trkpt>
      <trkpt lat="43.92257" lon="7.31107">
        <ele>981.6</ele>
        <time>2011-05-22T11:58:46Z</time>
      </trkpt>
      <trkpt lat="43.92256" lon="7.31099">
        <ele>981</ele>
        <time>2011-05-22T11:58:47Z</time>
      </trkpt>
      <trkpt lat="43.92255" lon="7.31091">
        <ele>979.5</ele>
        <time>2011-05-22T11:58:48Z</time>
      </trkpt>
      <trkpt lat="43.92253" lon="7.31081">
        <ele>978.3</ele>
        <time>2011-05-22T11:58:49Z</time>
      </trkpt>
      <trkpt lat="43.92252" lon="7.31073">
        <ele>977.5</ele>
        <time>2011-05-22T11:58:50Z</time>
      </trkpt>
      <trkpt lat="43.92252" lon="7.31066">
        <ele>976.7</ele>
        <time>2011-05-22T11:58:51Z</time>
      </trkpt>
      <trkpt lat="43.92252" lon="7.31058">
        <ele>976.2</ele>
        <time>2011-05-22T11:58:52Z</time>
      </trkpt>
      <trkpt lat="43.92253" lon="7.31045">
        <ele>975</ele>
        <time>2011-05-22T11:58:54Z</time>
      </trkpt>
      <trkpt lat="43.92253" lon="7.31035">
        <ele>974</ele>
        <time>2011-05-22T11:58:56Z</time>
      </trkpt>
      <trkpt lat="43.92253" lon="7.31024">
        <ele>974.1</ele>
        <time>2011-05-22T11:58:58Z</time>
      </trkpt>
      <trkpt lat="43.92251" lon="7.31013">
        <ele>973.4</ele>
        <time>2011-05-22T11:59:01Z</time>
      </trkpt>
      <trkpt lat="43.92251" lon="7.31003">
        <ele>973.3</ele>
        <time>2011-05-22T11:59:04Z</time>
      </trkpt>
      <trkpt lat="43.92246" lon="7.30995">
        <ele>972.9</ele>
        <time>2011-05-22T11:59:07Z</time>
      </trkpt>
      <trkpt lat="43.92246" lon="7.30983">
        <ele>972.1</ele>
        <time>2011-05-22T11:59:11Z</time>
      </trkpt>
      <trkpt lat="43.92248" lon="7.30972">
        <ele>971.8</ele>
        <time>2011-05-22T11:59:17Z</time>
      </trkpt>
      <trkpt lat="43.9225" lon="7.3097">
        <ele>971.8</ele>
        <time>2011-05-22T11:59:18Z</time>
      </trkpt>
      <trkpt lat="43.92259" lon="7.30959">
        <ele>972.9</ele>
        <time>2011-05-22T11:59:23Z</time>
      </trkpt>
      <trkpt lat="43.92267" lon="7.30959">
        <ele>974.4</ele>
        <time>2011-05-22T11:59:29Z</time>
      </trkpt>
      <trkpt lat="43.92273" lon="7.30966">
        <ele>974.3</ele>
        <time>2011-05-22T11:59:32Z</time>
      </trkpt>
      <trkpt lat="43.92279" lon="7.3097">
        <ele>973.7</ele>
        <time>2011-05-22T11:59:35Z</time>
      </trkpt>
      <trkpt lat="43.92287" lon="7.30976">
        <ele>972.5</ele>
        <time>2011-05-22T11:59:39Z</time>
      </trkpt>
      <trkpt lat="43.92296" lon="7.30976">
        <ele>972.8</ele>
        <time>2011-05-22T11:59:44Z</time>
      </trkpt>
      <trkpt lat="43.92302" lon="7.30977">
        <ele>973.5</ele>
        <time>2011-05-22T11:59:48Z</time>
      </trkpt>
      <trkpt lat="43.92307" lon="7.30979">
        <ele>973.8</ele>
        <time>2011-05-22T11:59:50Z</time>
      </trkpt>
      <trkpt lat="43.92315" lon="7.3098">
        <ele>974.1</ele>
        <time>2011-05-22T11:59:54Z</time>
      </trkpt>
      <trkpt lat="43.92322" lon="7.3098">
        <ele>974.1</ele>
        <time>2011-05-22T11:59:57Z</time>
      </trkpt>
      <trkpt lat="43.9233" lon="7.30978">
        <ele>974.7</ele>
        <time>2011-05-22T12:00:01Z</time>
      </trkpt>
      <trkpt lat="43.92338" lon="7.30977">
        <ele>976.2</ele>
        <time>2011-05-22T12:00:16Z</time>
      </trkpt>
      <trkpt lat="43.92346" lon="7.30983">
        <ele>976.3</ele>
        <time>2011-05-22T12:00:20Z</time>
      </trkpt>
      <trkpt lat="43.92348" lon="7.30984">
        <ele>975.8</ele>
        <time>2011-05-22T12:00:21Z</time>
      </trkpt>
      <trkpt lat="43.92358" lon="7.30994">
        <ele>974.2</ele>
        <time>2011-05-22T12:00:26Z</time>
      </trkpt>
      <trkpt lat="43.92366" lon="7.30999">
        <ele>972.9</ele>
        <time>2011-05-22T12:00:30Z</time>
      </trkpt>
      <trkpt lat="43.92373" lon="7.31">
        <ele>971.2</ele>
        <time>2011-05-22T12:00:33Z</time>
      </trkpt>
      <trkpt lat="43.92379" lon="7.31004">
        <ele>970</ele>
        <time>2011-05-22T12:00:36Z</time>
      </trkpt>
      <trkpt lat="43.92385" lon="7.31012">
        <ele>968.1</ele>
        <time>2011-05-22T12:00:40Z</time>
      </trkpt>
      <trkpt lat="43.9239" lon="7.31019">
        <ele>966.7</ele>
        <time>2011-05-22T12:00:43Z</time>
      </trkpt>
      <trkpt lat="43.92396" lon="7.31023">
        <ele>965.8</ele>
        <time>2011-05-22T12:00:45Z</time>
      </trkpt>
      <trkpt lat="43.92404" lon="7.31027">
        <ele>963.4</ele>
        <time>2011-05-22T12:00:48Z</time>
      </trkpt>
      <trkpt lat="43.92413" lon="7.31028">
        <ele>960.1</ele>
        <time>2011-05-22T12:00:51Z</time>
      </trkpt>
      <trkpt lat="43.92419" lon="7.31028">
        <ele>957.9</ele>
        <time>2011-05-22T12:00:53Z</time>
      </trkpt>
      <trkpt lat="43.92427" lon="7.31029">
        <ele>954.5</ele>
        <time>2011-05-22T12:00:56Z</time>
      </trkpt>
      <trkpt lat="43.92433" lon="7.3103">
        <ele>951.9</ele>
        <time>2011-05-22T12:00:58Z</time>
      </trkpt>
      <trkpt lat="43.92439" lon="7.31033">
        <ele>949.8</ele>
        <time>2011-05-22T12:01:00Z</time>
      </trkpt>
      <trkpt lat="43.92448" lon="7.31034">
        <ele>948.1</ele>
        <time>2011-05-22T12:01:02Z</time>
      </trkpt>
      <trkpt lat="43.92456" lon="7.31036">
        <ele>946.8</ele>
        <time>2011-05-22T12:01:04Z</time>
      </trkpt>
      <trkpt lat="43.92464" lon="7.31037">
        <ele>945</ele>
        <time>2011-05-22T12:01:06Z</time>
      </trkpt>
      <trkpt lat="43.9247" lon="7.31037">
        <ele>943</ele>
        <time>2011-05-22T12:01:08Z</time>
      </trkpt>
      <trkpt lat="43.92476" lon="7.3104">
        <ele>941.1</ele>
        <time>2011-05-22T12:01:10Z</time>
      </trkpt>
      <trkpt lat="43.92485" lon="7.31041">
        <ele>937.9</ele>
        <time>2011-05-22T12:01:12Z</time>
      </trkpt>
      <trkpt lat="43.92491" lon="7.31041">
        <ele>936.9</ele>
        <time>2011-05-22T12:01:13Z</time>
      </trkpt>
      <trkpt lat="43.92495" lon="7.3104">
        <ele>935.5</ele>
        <time>2011-05-22T12:01:14Z</time>
      </trkpt>
      <trkpt lat="43.925" lon="7.31038">
        <ele>934.5</ele>
        <time>2011-05-22T12:01:15Z</time>
      </trkpt>
      <trkpt lat="43.92505" lon="7.31036">
        <ele>933.7</ele>
        <time>2011-05-22T12:01:16Z</time>
      </trkpt>
      <trkpt lat="43.92511" lon="7.31035">
        <ele>933.1</ele>
        <time>2011-05-22T12:01:17Z</time>
      </trkpt>
      <trkpt lat="43.9252" lon="7.31035">
        <ele>931.3</ele>
        <time>2011-05-22T12:01:19Z</time>
      </trkpt>
      <trkpt lat="43.92527" lon="7.31034">
        <ele>929.5</ele>
        <time>2011-05-22T12:01:21Z</time>
      </trkpt>
      <trkpt lat="43.92531" lon="7.31035">
        <ele>928.6</ele>
        <time>2011-05-22T12:01:22Z</time>
      </trkpt>
      <trkpt lat="43.92543" lon="7.31034">
        <ele>925.1</ele>
        <time>2011-05-22T12:01:26Z</time>
      </trkpt>
      <trkpt lat="43.92549" lon="7.31035">
        <ele>922.7</ele>
        <time>2011-05-22T12:01:28Z</time>
      </trkpt>
      <trkpt lat="43.92557" lon="7.31035">
        <ele>920.3</ele>
        <time>2011-05-22T12:01:30Z</time>
      </trkpt>
      <trkpt lat="43.92565" lon="7.31037">
        <ele>918.1</ele>
        <time>2011-05-22T12:01:32Z</time>
      </trkpt>
      <trkpt lat="43.92573" lon="7.31034">
        <ele>915.8</ele>
        <time>2011-05-22T12:01:34Z</time>
      </trkpt>
      <trkpt lat="43.92577" lon="7.31032">
        <ele>914.6</ele>
        <time>2011-05-22T12:01:35Z</time>
      </trkpt>
      <trkpt lat="43.92583" lon="7.31028">
        <ele>913.7</ele>
        <time>2011-05-22T12:01:36Z</time>
      </trkpt>
      <trkpt lat="43.92589" lon="7.31024">
        <ele>912.7</ele>
        <time>2011-05-22T12:01:37Z</time>
      </trkpt>
      <trkpt lat="43.92595" lon="7.3102">
        <ele>912</ele>
        <time>2011-05-22T12:01:38Z</time>
      </trkpt>
      <trkpt lat="43.92601" lon="7.31018">
        <ele>911.5</ele>
        <time>2011-05-22T12:01:39Z</time>
      </trkpt>
      <trkpt lat="43.92606" lon="7.31016">
        <ele>910.7</ele>
        <time>2011-05-22T12:01:40Z</time>
      </trkpt>
      <trkpt lat="43.9261" lon="7.31014">
        <ele>910</ele>
        <time>2011-05-22T12:01:41Z</time>
      </trkpt>
      <trkpt lat="43.92618" lon="7.31012">
        <ele>908.2</ele>
        <time>2011-05-22T12:01:43Z</time>
      </trkpt>
      <trkpt lat="43.92625" lon="7.31013">
        <ele>906.5</ele>
        <time>2011-05-22T12:01:45Z</time>
      </trkpt>
      <trkpt lat="43.92632" lon="7.31015">
        <ele>903.7</ele>
        <time>2011-05-22T12:01:47Z</time>
      </trkpt>
      <trkpt lat="43.92638" lon="7.31018">
        <ele>902.1</ele>
        <time>2011-05-22T12:01:49Z</time>
      </trkpt>
      <trkpt lat="43.92645" lon="7.31017">
        <ele>898.9</ele>
        <time>2011-05-22T12:01:51Z</time>
      </trkpt>
      <trkpt lat="43.92653" lon="7.31015">
        <ele>896.5</ele>
        <time>2011-05-22T12:01:53Z</time>
      </trkpt>
      <trkpt lat="43.92659" lon="7.31013">
        <ele>894.6</ele>
        <time>2011-05-22T12:01:55Z</time>
      </trkpt>
      <trkpt lat="43.92665" lon="7.31011">
        <ele>893.7</ele>
        <time>2011-05-22T12:01:57Z</time>
      </trkpt>
      <trkpt lat="43.92674" lon="7.31012">
        <ele>892.5</ele>
        <time>2011-05-22T12:02:01Z</time>
      </trkpt>
      <trkpt lat="43.92683" lon="7.31013">
        <ele>890.6</ele>
        <time>2011-05-22T12:02:12Z</time>
      </trkpt>
      <trkpt lat="43.92691" lon="7.31014">
        <ele>890.5</ele>
        <time>2011-05-22T12:02:26Z</time>
      </trkpt>
      <trkpt lat="43.92692" lon="7.31014">
        <ele>890.5</ele>
        <time>2011-05-22T12:02:27Z</time>
      </trkpt>
      <trkpt lat="43.92708" lon="7.31019">
        <ele>891.7</ele>
        <time>2011-05-22T12:04:15Z</time>
      </trkpt>
      <trkpt lat="43.9271" lon="7.31019">
        <ele>891.3</ele>
        <time>2011-05-22T12:04:16Z</time>
      </trkpt>
      <trkpt lat="43.92722" lon="7.31017">
        <ele>890.7</ele>
        <time>2011-05-22T12:04:19Z</time>
      </trkpt>
      <trkpt lat="43.92727" lon="7.31018">
        <ele>890.2</ele>
        <time>2011-05-22T12:04:20Z</time>
      </trkpt>
      <trkpt lat="43.92735" lon="7.31021">
        <ele>889.5</ele>
        <time>2011-05-22T12:04:22Z</time>
      </trkpt>
      <trkpt lat="43.92742" lon="7.31028">
        <ele>887.5</ele>
        <time>2011-05-22T12:04:24Z</time>
      </trkpt>
      <trkpt lat="43.9275" lon="7.31028">
        <ele>885.9</ele>
        <time>2011-05-22T12:04:26Z</time>
      </trkpt>
      <trkpt lat="43.92758" lon="7.31028">
        <ele>884.8</ele>
        <time>2011-05-22T12:04:28Z</time>
      </trkpt>
      <trkpt lat="43.92765" lon="7.31028">
        <ele>884.3</ele>
        <time>2011-05-22T12:04:30Z</time>
      </trkpt>
      <trkpt lat="43.9277" lon="7.31029">
        <ele>884.2</ele>
        <time>2011-05-22T12:04:31Z</time>
      </trkpt>
      <trkpt lat="43.92776" lon="7.3103">
        <ele>883.5</ele>
        <time>2011-05-22T12:04:32Z</time>
      </trkpt>
      <trkpt lat="43.92781" lon="7.3103">
        <ele>883</ele>
        <time>2011-05-22T12:04:33Z</time>
      </trkpt>
      <trkpt lat="43.92787" lon="7.31029">
        <ele>882.7</ele>
        <time>2011-05-22T12:04:34Z</time>
      </trkpt>
      <trkpt lat="43.92792" lon="7.31029">
        <ele>882.4</ele>
        <time>2011-05-22T12:04:35Z</time>
      </trkpt>
      <trkpt lat="43.92798" lon="7.31028">
        <ele>881.3</ele>
        <time>2011-05-22T12:04:36Z</time>
      </trkpt>
      <trkpt lat="43.92802" lon="7.31026">
        <ele>880.5</ele>
        <time>2011-05-22T12:04:37Z</time>
      </trkpt>
      <trkpt lat="43.92807" lon="7.31025">
        <ele>880</ele>
        <time>2011-05-22T12:04:38Z</time>
      </trkpt>
      <trkpt lat="43.92811" lon="7.31025">
        <ele>879</ele>
        <time>2011-05-22T12:04:39Z</time>
      </trkpt>
      <trkpt lat="43.92817" lon="7.31025">
        <ele>878.3</ele>
        <time>2011-05-22T12:04:40Z</time>
      </trkpt>
      <trkpt lat="43.92823" lon="7.31026">
        <ele>877.7</ele>
        <time>2011-05-22T12:04:41Z</time>
      </trkpt>
      <trkpt lat="43.9283" lon="7.31027">
        <ele>876.8</ele>
        <time>2011-05-22T12:04:42Z</time>
      </trkpt>
      <trkpt lat="43.92835" lon="7.31029">
        <ele>876</ele>
        <time>2011-05-22T12:04:43Z</time>
      </trkpt>
      <trkpt lat="43.92843" lon="7.31033">
        <ele>874.6</ele>
        <time>2011-05-22T12:04:45Z</time>
      </trkpt>
      <trkpt lat="43.92851" lon="7.31036">
        <ele>873.4</ele>
        <time>2011-05-22T12:04:47Z</time>
      </trkpt>
      <trkpt lat="43.92859" lon="7.31037">
        <ele>872.7</ele>
        <time>2011-05-22T12:04:49Z</time>
      </trkpt>
      <trkpt lat="43.92867" lon="7.3104">
        <ele>871.8</ele>
        <time>2011-05-22T12:04:51Z</time>
      </trkpt>
      <trkpt lat="43.92874" lon="7.31046">
        <ele>870.9</ele>
        <time>2011-05-22T12:04:53Z</time>
      </trkpt>
      <trkpt lat="43.92879" lon="7.31048">
        <ele>870.7</ele>
        <time>2011-05-22T12:04:54Z</time>
      </trkpt>
      <trkpt lat="43.92884" lon="7.3105">
        <ele>869.6</ele>
        <time>2011-05-22T12:04:55Z</time>
      </trkpt>
      <trkpt lat="43.9289" lon="7.31051">
        <ele>868.8</ele>
        <time>2011-05-22T12:04:56Z</time>
      </trkpt>
      <trkpt lat="43.92896" lon="7.31053">
        <ele>868.2</ele>
        <time>2011-05-22T12:04:57Z</time>
      </trkpt>
      <trkpt lat="43.92902" lon="7.31055">
        <ele>868</ele>
        <time>2011-05-22T12:04:58Z</time>
      </trkpt>
      <trkpt lat="43.92908" lon="7.31058">
        <ele>867.7</ele>
        <time>2011-05-22T12:04:59Z</time>
      </trkpt>
      <trkpt lat="43.92915" lon="7.31061">
        <ele>867.6</ele>
        <time>2011-05-22T12:05:00Z</time>
      </trkpt>
      <trkpt lat="43.92921" lon="7.31067">
        <ele>866.1</ele>
        <time>2011-05-22T12:05:01Z</time>
      </trkpt>
      <trkpt lat="43.92927" lon="7.31074">
        <ele>865.1</ele>
        <time>2011-05-22T12:05:02Z</time>
      </trkpt>
      <trkpt lat="43.92934" lon="7.31082">
        <ele>864.3</ele>
        <time>2011-05-22T12:05:03Z</time>
      </trkpt>
      <trkpt lat="43.92941" lon="7.3109">
        <ele>862.6</ele>
        <time>2011-05-22T12:05:04Z</time>
      </trkpt>
      <trkpt lat="43.92948" lon="7.311">
        <ele>861.3</ele>
        <time>2011-05-22T12:05:05Z</time>
      </trkpt>
      <trkpt lat="43.92954" lon="7.31108">
        <ele>860.4</ele>
        <time>2011-05-22T12:05:06Z</time>
      </trkpt>
      <trkpt lat="43.92959" lon="7.31112">
        <ele>858.2</ele>
        <time>2011-05-22T12:05:07Z</time>
      </trkpt>
      <trkpt lat="43.92965" lon="7.31114">
        <ele>856.5</ele>
        <time>2011-05-22T12:05:08Z</time>
      </trkpt>
      <trkpt lat="43.92971" lon="7.31114">
        <ele>855.3</ele>
        <time>2011-05-22T12:05:09Z</time>
      </trkpt>
      <trkpt lat="43.92975" lon="7.31112">
        <ele>854.3</ele>
        <time>2011-05-22T12:05:10Z</time>
      </trkpt>
      <trkpt lat="43.9298" lon="7.31111">
        <ele>853.2</ele>
        <time>2011-05-22T12:05:11Z</time>
      </trkpt>
      <trkpt lat="43.92985" lon="7.31109">
        <ele>852.3</ele>
        <time>2011-05-22T12:05:12Z</time>
      </trkpt>
      <trkpt lat="43.92991" lon="7.31106">
        <ele>851.7</ele>
        <time>2011-05-22T12:05:13Z</time>
      </trkpt>
      <trkpt lat="43.92999" lon="7.31103">
        <ele>850.1</ele>
        <time>2011-05-22T12:05:15Z</time>
      </trkpt>
      <trkpt lat="43.93007" lon="7.31099">
        <ele>848.8</ele>
        <time>2011-05-22T12:05:17Z</time>
      </trkpt>
      <trkpt lat="43.93011" lon="7.31096">
        <ele>848.2</ele>
        <time>2011-05-22T12:05:18Z</time>
      </trkpt>
      <trkpt lat="43.93021" lon="7.31091">
        <ele>847.3</ele>
        <time>2011-05-22T12:05:21Z</time>
      </trkpt>
      <trkpt lat="43.93028" lon="7.3109">
        <ele>847</ele>
        <time>2011-05-22T12:05:23Z</time>
      </trkpt>
      <trkpt lat="43.93036" lon="7.31087">
        <ele>846.8</ele>
        <time>2011-05-22T12:05:25Z</time>
      </trkpt>
      <trkpt lat="43.93044" lon="7.31082">
        <ele>846.5</ele>
        <time>2011-05-22T12:05:27Z</time>
      </trkpt>
      <trkpt lat="43.9305" lon="7.31077">
        <ele>846.1</ele>
        <time>2011-05-22T12:05:29Z</time>
      </trkpt>
      <trkpt lat="43.93057" lon="7.31081">
        <ele>845.1</ele>
        <time>2011-05-22T12:05:34Z</time>
      </trkpt>
      <trkpt lat="43.93063" lon="7.31081">
        <ele>844.9</ele>
        <time>2011-05-22T12:05:36Z</time>
      </trkpt>
      <trkpt lat="43.9307" lon="7.31082">
        <ele>844.8</ele>
        <time>2011-05-22T12:05:38Z</time>
      </trkpt>
      <trkpt lat="43.93078" lon="7.31085">
        <ele>843.4</ele>
        <time>2011-05-22T12:05:40Z</time>
      </trkpt>
      <trkpt lat="43.93082" lon="7.31087">
        <ele>843</ele>
        <time>2011-05-22T12:05:41Z</time>
      </trkpt>
      <trkpt lat="43.93091" lon="7.31088">
        <ele>841.4</ele>
        <time>2011-05-22T12:05:43Z</time>
      </trkpt>
      <trkpt lat="43.93096" lon="7.31087">
        <ele>840.5</ele>
        <time>2011-05-22T12:05:44Z</time>
      </trkpt>
      <trkpt lat="43.93102" lon="7.31085">
        <ele>839.8</ele>
        <time>2011-05-22T12:05:45Z</time>
      </trkpt>
      <trkpt lat="43.93109" lon="7.31083">
        <ele>838.9</ele>
        <time>2011-05-22T12:05:46Z</time>
      </trkpt>
      <trkpt lat="43.93117" lon="7.3108">
        <ele>838.3</ele>
        <time>2011-05-22T12:05:47Z</time>
      </trkpt>
      <trkpt lat="43.93124" lon="7.3108">
        <ele>837.7</ele>
        <time>2011-05-22T12:05:48Z</time>
      </trkpt>
      <trkpt lat="43.93132" lon="7.31083">
        <ele>836.5</ele>
        <time>2011-05-22T12:05:49Z</time>
      </trkpt>
      <trkpt lat="43.93139" lon="7.31085">
        <ele>835.5</ele>
        <time>2011-05-22T12:05:50Z</time>
      </trkpt>
      <trkpt lat="43.93147" lon="7.31084">
        <ele>834.8</ele>
        <time>2011-05-22T12:05:51Z</time>
      </trkpt>
      <trkpt lat="43.93155" lon="7.31084">
        <ele>833.4</ele>
        <time>2011-05-22T12:05:52Z</time>
      </trkpt>
      <trkpt lat="43.93161" lon="7.31086">
        <ele>832.3</ele>
        <time>2011-05-22T12:05:53Z</time>
      </trkpt>
      <trkpt lat="43.93167" lon="7.31089">
        <ele>831.4</ele>
        <time>2011-05-22T12:05:54Z</time>
      </trkpt>
      <trkpt lat="43.93172" lon="7.3109">
        <ele>830.5</ele>
        <time>2011-05-22T12:05:55Z</time>
      </trkpt>
      <trkpt lat="43.9318" lon="7.31094">
        <ele>829.2</ele>
        <time>2011-05-22T12:05:57Z</time>
      </trkpt>
      <trkpt lat="43.93184" lon="7.31097">
        <ele>828.8</ele>
        <time>2011-05-22T12:05:58Z</time>
      </trkpt>
      <trkpt lat="43.9319" lon="7.31099">
        <ele>827.9</ele>
        <time>2011-05-22T12:05:59Z</time>
      </trkpt>
      <trkpt lat="43.93198" lon="7.31103">
        <ele>826.6</ele>
        <time>2011-05-22T12:06:01Z</time>
      </trkpt>
      <trkpt lat="43.93206" lon="7.31099">
        <ele>823.7</ele>
        <time>2011-05-22T12:06:05Z</time>
      </trkpt>
      <trkpt lat="43.93213" lon="7.311">
        <ele>822.5</ele>
        <time>2011-05-22T12:06:08Z</time>
      </trkpt>
      <trkpt lat="43.93219" lon="7.31098">
        <ele>821.8</ele>
        <time>2011-05-22T12:06:10Z</time>
      </trkpt>
      <trkpt lat="43.93225" lon="7.31095">
        <ele>820.7</ele>
        <time>2011-05-22T12:06:12Z</time>
      </trkpt>
      <trkpt lat="43.93232" lon="7.31091">
        <ele>820.1</ele>
        <time>2011-05-22T12:06:14Z</time>
      </trkpt>
      <trkpt lat="43.9324" lon="7.31094">
        <ele>821.1</ele>
        <time>2011-05-22T12:06:16Z</time>
      </trkpt>
      <trkpt lat="43.93248" lon="7.31096">
        <ele>820.2</ele>
        <time>2011-05-22T12:06:18Z</time>
      </trkpt>
      <trkpt lat="43.93251" lon="7.31097">
        <ele>819.3</ele>
        <time>2011-05-22T12:06:19Z</time>
      </trkpt>
      <trkpt lat="43.9326" lon="7.31097">
        <ele>816.5</ele>
        <time>2011-05-22T12:06:22Z</time>
      </trkpt>
      <trkpt lat="43.93267" lon="7.31102">
        <ele>813.6</ele>
        <time>2011-05-22T12:06:25Z</time>
      </trkpt>
      <trkpt lat="43.93275" lon="7.31108">
        <ele>807.4</ele>
        <time>2011-05-22T12:07:04Z</time>
      </trkpt>
      <trkpt lat="43.93269" lon="7.31115">
        <ele>808.6</ele>
        <time>2011-05-22T12:07:59Z</time>
      </trkpt>
      <trkpt lat="43.93267" lon="7.31116">
        <ele>808.9</ele>
        <time>2011-05-22T12:08:00Z</time>
      </trkpt>
      <trkpt lat="43.93257" lon="7.31124">
        <ele>810.1</ele>
        <time>2011-05-22T12:08:05Z</time>
      </trkpt>
      <trkpt lat="43.9325" lon="7.31128">
        <ele>810.8</ele>
        <time>2011-05-22T12:08:08Z</time>
      </trkpt>
      <trkpt lat="43.93241" lon="7.3113">
        <ele>810.5</ele>
        <time>2011-05-22T12:08:12Z</time>
      </trkpt>
      <trkpt lat="43.93233" lon="7.31132">
        <ele>811.1</ele>
        <time>2011-05-22T12:08:17Z</time>
      </trkpt>
      <trkpt lat="43.93224" lon="7.31135">
        <ele>812.5</ele>
        <time>2011-05-22T12:08:22Z</time>
      </trkpt>
      <trkpt lat="43.93216" lon="7.31141">
        <ele>812.5</ele>
        <time>2011-05-22T12:08:25Z</time>
      </trkpt>
      <trkpt lat="43.93209" lon="7.31143">
        <ele>812.6</ele>
        <time>2011-05-22T12:08:27Z</time>
      </trkpt>
      <trkpt lat="43.93202" lon="7.31143">
        <ele>812.4</ele>
        <time>2011-05-22T12:08:30Z</time>
      </trkpt>
      <trkpt lat="43.93194" lon="7.31139">
        <ele>812.6</ele>
        <time>2011-05-22T12:08:34Z</time>
      </trkpt>
      <trkpt lat="43.93186" lon="7.3114">
        <ele>812.9</ele>
        <time>2011-05-22T12:08:39Z</time>
      </trkpt>
      <trkpt lat="43.93177" lon="7.31138">
        <ele>814.6</ele>
        <time>2011-05-22T12:08:45Z</time>
      </trkpt>
      <trkpt lat="43.93174" lon="7.31127">
        <ele>816.3</ele>
        <time>2011-05-22T12:08:52Z</time>
      </trkpt>
      <trkpt lat="43.93181" lon="7.31121">
        <ele>818</ele>
        <time>2011-05-22T12:08:59Z</time>
      </trkpt>
      <trkpt lat="43.9319" lon="7.31122">
        <ele>819.2</ele>
        <time>2011-05-22T12:09:04Z</time>
      </trkpt>
      <trkpt lat="43.93192" lon="7.31122">
        <ele>819.2</ele>
        <time>2011-05-22T12:09:05Z</time>
      </trkpt>
      <trkpt lat="43.93206" lon="7.31124">
        <ele>818.6</ele>
        <time>2011-05-22T12:09:20Z</time>
      </trkpt>
      <trkpt lat="43.93214" lon="7.31123">
        <ele>818.7</ele>
        <time>2011-05-22T12:09:31Z</time>
      </trkpt>
      <trkpt lat="43.93222" lon="7.31127">
        <ele>817.8</ele>
        <time>2011-05-22T12:09:35Z</time>
      </trkpt>
      <trkpt lat="43.93229" lon="7.31127">
        <ele>816.9</ele>
        <time>2011-05-22T12:09:37Z</time>
      </trkpt>
      <trkpt lat="43.93236" lon="7.31123">
        <ele>815.7</ele>
        <time>2011-05-22T12:09:39Z</time>
      </trkpt>
      <trkpt lat="43.93244" lon="7.31119">
        <ele>814.5</ele>
        <time>2011-05-22T12:09:41Z</time>
      </trkpt>
      <trkpt lat="43.93252" lon="7.31116">
        <ele>813.9</ele>
        <time>2011-05-22T12:09:43Z</time>
      </trkpt>
      <trkpt lat="43.9326" lon="7.31117">
        <ele>812.7</ele>
        <time>2011-05-22T12:09:47Z</time>
      </trkpt>
      <trkpt lat="43.93269" lon="7.31114">
        <ele>809.6</ele>
        <time>2011-05-22T12:09:56Z</time>
      </trkpt>
      <trkpt lat="43.93277" lon="7.3111">
        <ele>808.1</ele>
        <time>2011-05-22T12:10:21Z</time>
      </trkpt>
      <trkpt lat="43.93278" lon="7.3111">
        <ele>808</ele>
        <time>2011-05-22T12:10:22Z</time>
      </trkpt>
      <trkpt lat="43.93293" lon="7.31117">
        <ele>806.4</ele>
        <time>2011-05-22T12:10:29Z</time>
      </trkpt>
      <trkpt lat="43.93301" lon="7.31114">
        <ele>805.1</ele>
        <time>2011-05-22T12:10:31Z</time>
      </trkpt>
      <trkpt lat="43.93305" lon="7.31112">
        <ele>804.6</ele>
        <time>2011-05-22T12:10:32Z</time>
      </trkpt>
      <trkpt lat="43.93309" lon="7.31109">
        <ele>804</ele>
        <time>2011-05-22T12:10:33Z</time>
      </trkpt>
      <trkpt lat="43.93315" lon="7.31101">
        <ele>803.2</ele>
        <time>2011-05-22T12:10:35Z</time>
      </trkpt>
      <trkpt lat="43.93322" lon="7.31094">
        <ele>801.7</ele>
        <time>2011-05-22T12:10:38Z</time>
      </trkpt>
      <trkpt lat="43.93329" lon="7.31098">
        <ele>800.7</ele>
        <time>2011-05-22T12:10:41Z</time>
      </trkpt>
      <trkpt lat="43.93329" lon="7.31086">
        <ele>799</ele>
        <time>2011-05-22T12:11:12Z</time>
      </trkpt>
      <trkpt lat="43.93331" lon="7.31075">
        <ele>799.5</ele>
        <time>2011-05-22T12:11:16Z</time>
      </trkpt>
      <trkpt lat="43.93334" lon="7.31067">
        <ele>799.7</ele>
        <time>2011-05-22T12:11:19Z</time>
      </trkpt>
      <trkpt lat="43.93338" lon="7.31058">
        <ele>799.8</ele>
        <time>2011-05-22T12:11:22Z</time>
      </trkpt>
      <trkpt lat="43.9334" lon="7.31056">
        <ele>799.8</ele>
        <time>2011-05-22T12:11:23Z</time>
      </trkpt>
      <trkpt lat="43.93352" lon="7.3105">
        <ele>799</ele>
        <time>2011-05-22T12:11:28Z</time>
      </trkpt>
      <trkpt lat="43.93359" lon="7.3105">
        <ele>799</ele>
        <time>2011-05-22T12:11:31Z</time>
      </trkpt>
      <trkpt lat="43.93368" lon="7.31047">
        <ele>798.1</ele>
        <time>2011-05-22T12:11:35Z</time>
      </trkpt>
      <trkpt lat="43.93372" lon="7.31039">
        <ele>797.6</ele>
        <time>2011-05-22T12:11:37Z</time>
      </trkpt>
      <trkpt lat="43.93378" lon="7.3103">
        <ele>797.3</ele>
        <time>2011-05-22T12:11:39Z</time>
      </trkpt>
      <trkpt lat="43.93382" lon="7.31026">
        <ele>796.3</ele>
        <time>2011-05-22T12:11:40Z</time>
      </trkpt>
      <trkpt lat="43.93386" lon="7.31021">
        <ele>795.6</ele>
        <time>2011-05-22T12:11:41Z</time>
      </trkpt>
      <trkpt lat="43.93389" lon="7.31016">
        <ele>795</ele>
        <time>2011-05-22T12:11:42Z</time>
      </trkpt>
      <trkpt lat="43.93394" lon="7.3101">
        <ele>794.3</ele>
        <time>2011-05-22T12:11:43Z</time>
      </trkpt>
      <trkpt lat="43.93399" lon="7.31005">
        <ele>793.7</ele>
        <time>2011-05-22T12:11:44Z</time>
      </trkpt>
      <trkpt lat="43.93406" lon="7.31">
        <ele>793.3</ele>
        <time>2011-05-22T12:11:45Z</time>
      </trkpt>
      <trkpt lat="43.93413" lon="7.30998">
        <ele>792.2</ele>
        <time>2011-05-22T12:11:46Z</time>
      </trkpt>
      <trkpt lat="43.9342" lon="7.30998">
        <ele>791.4</ele>
        <time>2011-05-22T12:11:47Z</time>
      </trkpt>
      <trkpt lat="43.93428" lon="7.30999">
        <ele>790.8</ele>
        <time>2011-05-22T12:11:48Z</time>
      </trkpt>
      <trkpt lat="43.93435" lon="7.30999">
        <ele>790.4</ele>
        <time>2011-05-22T12:11:49Z</time>
      </trkpt>
      <trkpt lat="43.93442" lon="7.30997">
        <ele>789.6</ele>
        <time>2011-05-22T12:11:50Z</time>
      </trkpt>
      <trkpt lat="43.93449" lon="7.30994">
        <ele>789</ele>
        <time>2011-05-22T12:11:51Z</time>
      </trkpt>
      <trkpt lat="43.93455" lon="7.3099">
        <ele>788.6</ele>
        <time>2011-05-22T12:11:52Z</time>
      </trkpt>
      <trkpt lat="43.93461" lon="7.30986">
        <ele>787.5</ele>
        <time>2011-05-22T12:11:53Z</time>
      </trkpt>
      <trkpt lat="43.93466" lon="7.30983">
        <ele>786.7</ele>
        <time>2011-05-22T12:11:54Z</time>
      </trkpt>
      <trkpt lat="43.93473" lon="7.30979">
        <ele>785.3</ele>
        <time>2011-05-22T12:11:56Z</time>
      </trkpt>
      <trkpt lat="43.93481" lon="7.30975">
        <ele>782.9</ele>
        <time>2011-05-22T12:12:13Z</time>
      </trkpt>
      <trkpt lat="43.93487" lon="7.30969">
        <ele>783.8</ele>
        <time>2011-05-22T12:12:17Z</time>
      </trkpt>
      <trkpt lat="43.9349" lon="7.30959">
        <ele>784.1</ele>
        <time>2011-05-22T12:12:21Z</time>
      </trkpt>
      <trkpt lat="43.93491" lon="7.30949">
        <ele>784.1</ele>
        <time>2011-05-22T12:12:25Z</time>
      </trkpt>
      <trkpt lat="43.93492" lon="7.30947">
        <ele>783.8</ele>
        <time>2011-05-22T12:12:26Z</time>
      </trkpt>
      <trkpt lat="43.93491" lon="7.30926">
        <ele>783.7</ele>
        <time>2011-05-22T12:12:33Z</time>
      </trkpt>
      <trkpt lat="43.93491" lon="7.30914">
        <ele>783.9</ele>
        <time>2011-05-22T12:12:37Z</time>
      </trkpt>
      <trkpt lat="43.93492" lon="7.30904">
        <ele>785.5</ele>
        <time>2011-05-22T12:12:40Z</time>
      </trkpt>
      <trkpt lat="43.93496" lon="7.30896">
        <ele>785.1</ele>
        <time>2011-05-22T12:12:43Z</time>
      </trkpt>
      <trkpt lat="43.93502" lon="7.30893">
        <ele>784.8</ele>
        <time>2011-05-22T12:12:45Z</time>
      </trkpt>
      <trkpt lat="43.9351" lon="7.30893">
        <ele>784.5</ele>
        <time>2011-05-22T12:12:47Z</time>
      </trkpt>
      <trkpt lat="43.93516" lon="7.30899">
        <ele>784.2</ele>
        <time>2011-05-22T12:12:49Z</time>
      </trkpt>
      <trkpt lat="43.9352" lon="7.30909">
        <ele>784</ele>
        <time>2011-05-22T12:12:51Z</time>
      </trkpt>
      <trkpt lat="43.93527" lon="7.30915">
        <ele>783.9</ele>
        <time>2011-05-22T12:12:53Z</time>
      </trkpt>
      <trkpt lat="43.93532" lon="7.30914">
        <ele>782.9</ele>
        <time>2011-05-22T12:12:54Z</time>
      </trkpt>
      <trkpt lat="43.93538" lon="7.30914">
        <ele>782.1</ele>
        <time>2011-05-22T12:12:55Z</time>
      </trkpt>
      <trkpt lat="43.93543" lon="7.30912">
        <ele>781.5</ele>
        <time>2011-05-22T12:12:56Z</time>
      </trkpt>
      <trkpt lat="43.93547" lon="7.30911">
        <ele>781.2</ele>
        <time>2011-05-22T12:12:57Z</time>
      </trkpt>
      <trkpt lat="43.93552" lon="7.30911">
        <ele>781</ele>
        <time>2011-05-22T12:12:58Z</time>
      </trkpt>
      <trkpt lat="43.93557" lon="7.30912">
        <ele>780.8</ele>
        <time>2011-05-22T12:12:59Z</time>
      </trkpt>
      <trkpt lat="43.93563" lon="7.30913">
        <ele>780.2</ele>
        <time>2011-05-22T12:13:00Z</time>
      </trkpt>
      <trkpt lat="43.93571" lon="7.3091">
        <ele>779.5</ele>
        <time>2011-05-22T12:13:02Z</time>
      </trkpt>
      <trkpt lat="43.93578" lon="7.30906">
        <ele>778.7</ele>
        <time>2011-05-22T12:13:04Z</time>
      </trkpt>
      <trkpt lat="43.93587" lon="7.30901">
        <ele>778.5</ele>
        <time>2011-05-22T12:13:07Z</time>
      </trkpt>
      <trkpt lat="43.93592" lon="7.30892">
        <ele>778.8</ele>
        <time>2011-05-22T12:13:10Z</time>
      </trkpt>
      <trkpt lat="43.93596" lon="7.30887">
        <ele>779</ele>
        <time>2011-05-22T12:13:12Z</time>
      </trkpt>
      <trkpt lat="43.93603" lon="7.30887">
        <ele>778.5</ele>
        <time>2011-05-22T12:13:14Z</time>
      </trkpt>
      <trkpt lat="43.93609" lon="7.30887">
        <ele>778.3</ele>
        <time>2011-05-22T12:13:16Z</time>
      </trkpt>
      <trkpt lat="43.93616" lon="7.30886">
        <ele>778.3</ele>
        <time>2011-05-22T12:13:18Z</time>
      </trkpt>
      <trkpt lat="43.93623" lon="7.30881">
        <ele>777.4</ele>
        <time>2011-05-22T12:13:21Z</time>
      </trkpt>
      <trkpt lat="43.9363" lon="7.30876">
        <ele>777</ele>
        <time>2011-05-22T12:13:25Z</time>
      </trkpt>
      <trkpt lat="43.93634" lon="7.30868">
        <ele>777.3</ele>
        <time>2011-05-22T12:13:29Z</time>
      </trkpt>
      <trkpt lat="43.93636" lon="7.30866">
        <ele>777.5</ele>
        <time>2011-05-22T12:13:30Z</time>
      </trkpt>
      <trkpt lat="43.93644" lon="7.30853">
        <ele>777.4</ele>
        <time>2011-05-22T12:13:36Z</time>
      </trkpt>
      <trkpt lat="43.9365" lon="7.30846">
        <ele>778.2</ele>
        <time>2011-05-22T12:13:40Z</time>
      </trkpt>
      <trkpt lat="43.93658" lon="7.30842">
        <ele>778.8</ele>
        <time>2011-05-22T12:13:44Z</time>
      </trkpt>
      <trkpt lat="43.93665" lon="7.30838">
        <ele>779.2</ele>
        <time>2011-05-22T12:13:48Z</time>
      </trkpt>
      <trkpt lat="43.9367" lon="7.30828">
        <ele>779</ele>
        <time>2011-05-22T12:13:52Z</time>
      </trkpt>
      <trkpt lat="43.93672" lon="7.30818">
        <ele>778.9</ele>
        <time>2011-05-22T12:13:55Z</time>
      </trkpt>
      <trkpt lat="43.93675" lon="7.30808">
        <ele>778.8</ele>
        <time>2011-05-22T12:13:58Z</time>
      </trkpt>
      <trkpt lat="43.9368" lon="7.30799">
        <ele>778.6</ele>
        <time>2011-05-22T12:14:01Z</time>
      </trkpt>
      <trkpt lat="43.93685" lon="7.30789">
        <ele>777.8</ele>
        <time>2011-05-22T12:14:07Z</time>
      </trkpt>
      <trkpt lat="43.93688" lon="7.30778">
        <ele>777.3</ele>
        <time>2011-05-22T12:14:11Z</time>
      </trkpt>
      <trkpt lat="43.93688" lon="7.30766">
        <ele>776.9</ele>
        <time>2011-05-22T12:14:15Z</time>
      </trkpt>
      <trkpt lat="43.93686" lon="7.30755">
        <ele>775.2</ele>
        <time>2011-05-22T12:14:18Z</time>
      </trkpt>
      <trkpt lat="43.93684" lon="7.30745">
        <ele>774.1</ele>
        <time>2011-05-22T12:14:22Z</time>
      </trkpt>
      <trkpt lat="43.93684" lon="7.30736">
        <ele>773.7</ele>
        <time>2011-05-22T12:14:24Z</time>
      </trkpt>
      <trkpt lat="43.93683" lon="7.30724">
        <ele>772.3</ele>
        <time>2011-05-22T12:14:27Z</time>
      </trkpt>
      <trkpt lat="43.93685" lon="7.30716">
        <ele>770.5</ele>
        <time>2011-05-22T12:14:29Z</time>
      </trkpt>
      <trkpt lat="43.93685" lon="7.30707">
        <ele>768.6</ele>
        <time>2011-05-22T12:14:31Z</time>
      </trkpt>
      <trkpt lat="43.93683" lon="7.30702">
        <ele>768.1</ele>
        <time>2011-05-22T12:14:32Z</time>
      </trkpt>
      <trkpt lat="43.9368" lon="7.30688">
        <ele>766</ele>
        <time>2011-05-22T12:14:36Z</time>
      </trkpt>
      <trkpt lat="43.93681" lon="7.30682">
        <ele>765.1</ele>
        <time>2011-05-22T12:14:37Z</time>
      </trkpt>
      <trkpt lat="43.93687" lon="7.30673">
        <ele>763.4</ele>
        <time>2011-05-22T12:14:39Z</time>
      </trkpt>
      <trkpt lat="43.93692" lon="7.30668">
        <ele>762.1</ele>
        <time>2011-05-22T12:14:41Z</time>
      </trkpt>
      <trkpt lat="43.93696" lon="7.30658">
        <ele>761.2</ele>
        <time>2011-05-22T12:14:43Z</time>
      </trkpt>
      <trkpt lat="43.93701" lon="7.30648">
        <ele>760.5</ele>
        <time>2011-05-22T12:14:45Z</time>
      </trkpt>
      <trkpt lat="43.93704" lon="7.30641">
        <ele>760</ele>
        <time>2011-05-22T12:14:47Z</time>
      </trkpt>
      <trkpt lat="43.93707" lon="7.30631">
        <ele>758.5</ele>
        <time>2011-05-22T12:14:49Z</time>
      </trkpt>
      <trkpt lat="43.93713" lon="7.30622">
        <ele>757.2</ele>
        <time>2011-05-22T12:14:52Z</time>
      </trkpt>
      <trkpt lat="43.93716" lon="7.30611">
        <ele>753.7</ele>
        <time>2011-05-22T12:14:59Z</time>
      </trkpt>
      <trkpt lat="43.93721" lon="7.30604">
        <ele>752.7</ele>
        <time>2011-05-22T12:15:03Z</time>
      </trkpt>
      <trkpt lat="43.93727" lon="7.30601">
        <ele>751.5</ele>
        <time>2011-05-22T12:15:05Z</time>
      </trkpt>
      <trkpt lat="43.93734" lon="7.30596">
        <ele>750.8</ele>
        <time>2011-05-22T12:15:07Z</time>
      </trkpt>
      <trkpt lat="43.93739" lon="7.3059">
        <ele>749.5</ele>
        <time>2011-05-22T12:15:09Z</time>
      </trkpt>
      <trkpt lat="43.93743" lon="7.30584">
        <ele>748.7</ele>
        <time>2011-05-22T12:15:11Z</time>
      </trkpt>
      <trkpt lat="43.9375" lon="7.30581">
        <ele>748.2</ele>
        <time>2011-05-22T12:15:13Z</time>
      </trkpt>
      <trkpt lat="43.93756" lon="7.30576">
        <ele>746.2</ele>
        <time>2011-05-22T12:15:15Z</time>
      </trkpt>
      <trkpt lat="43.93761" lon="7.30566">
        <ele>742.9</ele>
        <time>2011-05-22T12:15:19Z</time>
      </trkpt>
      <trkpt lat="43.93762" lon="7.30555">
        <ele>738.9</ele>
        <time>2011-05-22T12:15:24Z</time>
      </trkpt>
      <trkpt lat="43.93759" lon="7.30547">
        <ele>736</ele>
        <time>2011-05-22T12:15:28Z</time>
      </trkpt>
      <trkpt lat="43.93757" lon="7.30538">
        <ele>734.7</ele>
        <time>2011-05-22T12:15:30Z</time>
      </trkpt>
      <trkpt lat="43.93757" lon="7.30527">
        <ele>732.4</ele>
        <time>2011-05-22T12:15:33Z</time>
      </trkpt>
      <trkpt lat="43.93758" lon="7.30525">
        <ele>731.6</ele>
        <time>2011-05-22T12:15:34Z</time>
      </trkpt>
      <trkpt lat="43.93763" lon="7.30509">
        <ele>728.4</ele>
        <time>2011-05-22T12:15:37Z</time>
      </trkpt>
      <trkpt lat="43.93766" lon="7.30502">
        <ele>727.5</ele>
        <time>2011-05-22T12:15:38Z</time>
      </trkpt>
      <trkpt lat="43.93769" lon="7.30496">
        <ele>726.9</ele>
        <time>2011-05-22T12:15:39Z</time>
      </trkpt>
      <trkpt lat="43.93772" lon="7.3049">
        <ele>725.4</ele>
        <time>2011-05-22T12:15:40Z</time>
      </trkpt>
      <trkpt lat="43.93776" lon="7.30484">
        <ele>724.3</ele>
        <time>2011-05-22T12:15:41Z</time>
      </trkpt>
      <trkpt lat="43.93779" lon="7.30478">
        <ele>723.5</ele>
        <time>2011-05-22T12:15:42Z</time>
      </trkpt>
      <trkpt lat="43.93781" lon="7.30472">
        <ele>721.8</ele>
        <time>2011-05-22T12:15:43Z</time>
      </trkpt>
      <trkpt lat="43.93784" lon="7.30466">
        <ele>720.6</ele>
        <time>2011-05-22T12:15:44Z</time>
      </trkpt>
      <trkpt lat="43.93787" lon="7.30456">
        <ele>717.6</ele>
        <time>2011-05-22T12:15:46Z</time>
      </trkpt>
      <trkpt lat="43.93788" lon="7.30449">
        <ele>716.1</ele>
        <time>2011-05-22T12:15:47Z</time>
      </trkpt>
      <trkpt lat="43.93787" lon="7.30442">
        <ele>715</ele>
        <time>2011-05-22T12:15:48Z</time>
      </trkpt>
      <trkpt lat="43.93785" lon="7.30434">
        <ele>713.5</ele>
        <time>2011-05-22T12:15:49Z</time>
      </trkpt>
      <trkpt lat="43.93781" lon="7.30428">
        <ele>712.4</ele>
        <time>2011-05-22T12:15:50Z</time>
      </trkpt>
      <trkpt lat="43.93776" lon="7.30418">
        <ele>709.5</ele>
        <time>2011-05-22T12:15:52Z</time>
      </trkpt>
      <trkpt lat="43.93771" lon="7.30408">
        <ele>706.9</ele>
        <time>2011-05-22T12:15:54Z</time>
      </trkpt>
      <trkpt lat="43.93769" lon="7.30397">
        <ele>704.1</ele>
        <time>2011-05-22T12:15:56Z</time>
      </trkpt>
      <trkpt lat="43.93767" lon="7.3039">
        <ele>703.3</ele>
        <time>2011-05-22T12:15:57Z</time>
      </trkpt>
      <trkpt lat="43.93766" lon="7.30384">
        <ele>702.6</ele>
        <time>2011-05-22T12:15:58Z</time>
      </trkpt>
      <trkpt lat="43.93762" lon="7.30373">
        <ele>699.7</ele>
        <time>2011-05-22T12:16:00Z</time>
      </trkpt>
      <trkpt lat="43.93756" lon="7.30366">
        <ele>697.1</ele>
        <time>2011-05-22T12:16:02Z</time>
      </trkpt>
      <trkpt lat="43.93749" lon="7.30359">
        <ele>695</ele>
        <time>2011-05-22T12:16:04Z</time>
      </trkpt>
      <trkpt lat="43.93742" lon="7.30354">
        <ele>692.8</ele>
        <time>2011-05-22T12:16:06Z</time>
      </trkpt>
      <trkpt lat="43.93738" lon="7.30346">
        <ele>691</ele>
        <time>2011-05-22T12:16:08Z</time>
      </trkpt>
      <trkpt lat="43.93738" lon="7.30334">
        <ele>689.6</ele>
        <time>2011-05-22T12:16:10Z</time>
      </trkpt>
      <trkpt lat="43.93738" lon="7.30326">
        <ele>688.2</ele>
        <time>2011-05-22T12:16:11Z</time>
      </trkpt>
      <trkpt lat="43.9374" lon="7.30318">
        <ele>687.1</ele>
        <time>2011-05-22T12:16:12Z</time>
      </trkpt>
      <trkpt lat="43.93742" lon="7.30311">
        <ele>686.4</ele>
        <time>2011-05-22T12:16:13Z</time>
      </trkpt>
      <trkpt lat="43.93743" lon="7.30304">
        <ele>685.8</ele>
        <time>2011-05-22T12:16:14Z</time>
      </trkpt>
      <trkpt lat="43.93743" lon="7.30297">
        <ele>685.3</ele>
        <time>2011-05-22T12:16:15Z</time>
      </trkpt>
      <trkpt lat="43.93743" lon="7.30287">
        <ele>684.6</ele>
        <time>2011-05-22T12:16:17Z</time>
      </trkpt>
      <trkpt lat="43.93743" lon="7.30275">
        <ele>683</ele>
        <time>2011-05-22T12:16:19Z</time>
      </trkpt>
      <trkpt lat="43.93742" lon="7.30268">
        <ele>682.5</ele>
        <time>2011-05-22T12:16:20Z</time>
      </trkpt>
      <trkpt lat="43.93741" lon="7.3026">
        <ele>681.3</ele>
        <time>2011-05-22T12:16:21Z</time>
      </trkpt>
      <trkpt lat="43.9374" lon="7.30252">
        <ele>680.4</ele>
        <time>2011-05-22T12:16:22Z</time>
      </trkpt>
      <trkpt lat="43.93738" lon="7.30243">
        <ele>679.7</ele>
        <time>2011-05-22T12:16:23Z</time>
      </trkpt>
      <trkpt lat="43.93737" lon="7.30234">
        <ele>678.6</ele>
        <time>2011-05-22T12:16:24Z</time>
      </trkpt>
      <trkpt lat="43.93736" lon="7.30225">
        <ele>677.8</ele>
        <time>2011-05-22T12:16:25Z</time>
      </trkpt>
      <trkpt lat="43.93737" lon="7.30216">
        <ele>677.2</ele>
        <time>2011-05-22T12:16:26Z</time>
      </trkpt>
      <trkpt lat="43.9374" lon="7.30206">
        <ele>676.4</ele>
        <time>2011-05-22T12:16:27Z</time>
      </trkpt>
      <trkpt lat="43.93743" lon="7.30195">
        <ele>675.9</ele>
        <time>2011-05-22T12:16:28Z</time>
      </trkpt>
      <trkpt lat="43.93746" lon="7.30185">
        <ele>675.5</ele>
        <time>2011-05-22T12:16:29Z</time>
      </trkpt>
      <trkpt lat="43.93747" lon="7.30176">
        <ele>675.2</ele>
        <time>2011-05-22T12:16:30Z</time>
      </trkpt>
      <trkpt lat="43.93747" lon="7.30169">
        <ele>674.4</ele>
        <time>2011-05-22T12:16:31Z</time>
      </trkpt>
      <trkpt lat="43.93745" lon="7.30163">
        <ele>673.8</ele>
        <time>2011-05-22T12:16:32Z</time>
      </trkpt>
      <trkpt lat="43.93744" lon="7.30155">
        <ele>673.4</ele>
        <time>2011-05-22T12:16:33Z</time>
      </trkpt>
      <trkpt lat="43.93742" lon="7.30147">
        <ele>672.9</ele>
        <time>2011-05-22T12:16:34Z</time>
      </trkpt>
      <trkpt lat="43.9374" lon="7.30139">
        <ele>672.6</ele>
        <time>2011-05-22T12:16:35Z</time>
      </trkpt>
      <trkpt lat="43.93737" lon="7.30131">
        <ele>672.4</ele>
        <time>2011-05-22T12:16:36Z</time>
      </trkpt>
      <trkpt lat="43.93733" lon="7.30123">
        <ele>671.1</ele>
        <time>2011-05-22T12:16:37Z</time>
      </trkpt>
      <trkpt lat="43.93729" lon="7.30117">
        <ele>670.2</ele>
        <time>2011-05-22T12:16:38Z</time>
      </trkpt>
      <trkpt lat="43.93726" lon="7.30112">
        <ele>669.5</ele>
        <time>2011-05-22T12:16:39Z</time>
      </trkpt>
      <trkpt lat="43.93722" lon="7.30106">
        <ele>669</ele>
        <time>2011-05-22T12:16:40Z</time>
      </trkpt>
      <trkpt lat="43.93718" lon="7.30102">
        <ele>668.7</ele>
        <time>2011-05-22T12:16:41Z</time>
      </trkpt>
      <trkpt lat="43.93713" lon="7.30097">
        <ele>668.4</ele>
        <time>2011-05-22T12:16:42Z</time>
      </trkpt>
      <trkpt lat="43.9371" lon="7.3009">
        <ele>667.5</ele>
        <time>2011-05-22T12:16:43Z</time>
      </trkpt>
      <trkpt lat="43.93708" lon="7.30082">
        <ele>666.8</ele>
        <time>2011-05-22T12:16:44Z</time>
      </trkpt>
      <trkpt lat="43.93705" lon="7.30074">
        <ele>666.3</ele>
        <time>2011-05-22T12:16:45Z</time>
      </trkpt>
      <trkpt lat="43.93704" lon="7.30066">
        <ele>665.9</ele>
        <time>2011-05-22T12:16:46Z</time>
      </trkpt>
      <trkpt lat="43.93701" lon="7.30058">
        <ele>665.3</ele>
        <time>2011-05-22T12:16:47Z</time>
      </trkpt>
      <trkpt lat="43.93698" lon="7.30051">
        <ele>664.8</ele>
        <time>2011-05-22T12:16:48Z</time>
      </trkpt>
      <trkpt lat="43.93698" lon="7.30045">
        <ele>664.5</ele>
        <time>2011-05-22T12:16:49Z</time>
      </trkpt>
      <trkpt lat="43.93698" lon="7.30038">
        <ele>663.2</ele>
        <time>2011-05-22T12:16:50Z</time>
      </trkpt>
      <trkpt lat="43.937" lon="7.30032">
        <ele>662.3</ele>
        <time>2011-05-22T12:16:51Z</time>
      </trkpt>
      <trkpt lat="43.93702" lon="7.30026">
        <ele>661.6</ele>
        <time>2011-05-22T12:16:52Z</time>
      </trkpt>
      <trkpt lat="43.93705" lon="7.3002">
        <ele>660.3</ele>
        <time>2011-05-22T12:16:53Z</time>
      </trkpt>
      <trkpt lat="43.93707" lon="7.30014">
        <ele>659.4</ele>
        <time>2011-05-22T12:16:54Z</time>
      </trkpt>
      <trkpt lat="43.93709" lon="7.30007">
        <ele>658.7</ele>
        <time>2011-05-22T12:16:55Z</time>
      </trkpt>
      <trkpt lat="43.93712" lon="7.30001">
        <ele>658.4</ele>
        <time>2011-05-22T12:16:56Z</time>
      </trkpt>
      <trkpt lat="43.93714" lon="7.29996">
        <ele>658.1</ele>
        <time>2011-05-22T12:16:57Z</time>
      </trkpt>
      <trkpt lat="43.93716" lon="7.29989">
        <ele>658</ele>
        <time>2011-05-22T12:16:58Z</time>
      </trkpt>
      <trkpt lat="43.93718" lon="7.29983">
        <ele>657.7</ele>
        <time>2011-05-22T12:16:59Z</time>
      </trkpt>
      <trkpt lat="43.9372" lon="7.29975">
        <ele>657.5</ele>
        <time>2011-05-22T12:17:00Z</time>
      </trkpt>
      <trkpt lat="43.93722" lon="7.29966">
        <ele>657.3</ele>
        <time>2011-05-22T12:17:01Z</time>
      </trkpt>
      <trkpt lat="43.93724" lon="7.29957">
        <ele>656.6</ele>
        <time>2011-05-22T12:17:02Z</time>
      </trkpt>
      <trkpt lat="43.93726" lon="7.29948">
        <ele>656.1</ele>
        <time>2011-05-22T12:17:03Z</time>
      </trkpt>
      <trkpt lat="43.93729" lon="7.29938">
        <ele>655.7</ele>
        <time>2011-05-22T12:17:04Z</time>
      </trkpt>
      <trkpt lat="43.9373" lon="7.29928">
        <ele>655.4</ele>
        <time>2011-05-22T12:17:05Z</time>
      </trkpt>
      <trkpt lat="43.93732" lon="7.29918">
        <ele>654.5</ele>
        <time>2011-05-22T12:17:06Z</time>
      </trkpt>
      <trkpt lat="43.93733" lon="7.29907">
        <ele>653.8</ele>
        <time>2011-05-22T12:17:07Z</time>
      </trkpt>
      <trkpt lat="43.93733" lon="7.29897">
        <ele>653.3</ele>
        <time>2011-05-22T12:17:08Z</time>
      </trkpt>
      <trkpt lat="43.93732" lon="7.2989">
        <ele>652.5</ele>
        <time>2011-05-22T12:17:09Z</time>
      </trkpt>
      <trkpt lat="43.93727" lon="7.29882">
        <ele>651.5</ele>
        <time>2011-05-22T12:17:11Z</time>
      </trkpt>
      <trkpt lat="43.93721" lon="7.29873">
        <ele>650.5</ele>
        <time>2011-05-22T12:17:13Z</time>
      </trkpt>
      <trkpt lat="43.93718" lon="7.29868">
        <ele>650.1</ele>
        <time>2011-05-22T12:17:14Z</time>
      </trkpt>
      <trkpt lat="43.93715" lon="7.29861">
        <ele>649.6</ele>
        <time>2011-05-22T12:17:15Z</time>
      </trkpt>
      <trkpt lat="43.93716" lon="7.2985">
        <ele>649</ele>
        <time>2011-05-22T12:17:17Z</time>
      </trkpt>
      <trkpt lat="43.93723" lon="7.29843">
        <ele>648</ele>
        <time>2011-05-22T12:17:19Z</time>
      </trkpt>
      <trkpt lat="43.93728" lon="7.29837">
        <ele>647.4</ele>
        <time>2011-05-22T12:17:20Z</time>
      </trkpt>
      <trkpt lat="43.93733" lon="7.29834">
        <ele>647</ele>
        <time>2011-05-22T12:17:21Z</time>
      </trkpt>
      <trkpt lat="43.93738" lon="7.29831">
        <ele>646.3</ele>
        <time>2011-05-22T12:17:22Z</time>
      </trkpt>
      <trkpt lat="43.93742" lon="7.29827">
        <ele>645.8</ele>
        <time>2011-05-22T12:17:23Z</time>
      </trkpt>
      <trkpt lat="43.93747" lon="7.29822">
        <ele>645.4</ele>
        <time>2011-05-22T12:17:24Z</time>
      </trkpt>
      <trkpt lat="43.93753" lon="7.29816">
        <ele>642.8</ele>
        <time>2011-05-22T12:17:26Z</time>
      </trkpt>
      <trkpt lat="43.9376" lon="7.29812">
        <ele>636.2</ele>
        <time>2011-05-22T12:17:31Z</time>
      </trkpt>
      <trkpt lat="43.93765" lon="7.29804">
        <ele>634.2</ele>
        <time>2011-05-22T12:17:33Z</time>
      </trkpt>
      <trkpt lat="43.93769" lon="7.29799">
        <ele>632.9</ele>
        <time>2011-05-22T12:17:34Z</time>
      </trkpt>
      <trkpt lat="43.93773" lon="7.29794">
        <ele>631.9</ele>
        <time>2011-05-22T12:17:35Z</time>
      </trkpt>
      <trkpt lat="43.93776" lon="7.29789">
        <ele>631.1</ele>
        <time>2011-05-22T12:17:36Z</time>
      </trkpt>
      <trkpt lat="43.93778" lon="7.29783">
        <ele>630.5</ele>
        <time>2011-05-22T12:17:37Z</time>
      </trkpt>
      <trkpt lat="43.93781" lon="7.29777">
        <ele>629.3</ele>
        <time>2011-05-22T12:17:38Z</time>
      </trkpt>
      <trkpt lat="43.93788" lon="7.2977">
        <ele>627.6</ele>
        <time>2011-05-22T12:17:40Z</time>
      </trkpt>
      <trkpt lat="43.93791" lon="7.29766">
        <ele>625.6</ele>
        <time>2011-05-22T12:17:41Z</time>
      </trkpt>
      <trkpt lat="43.93795" lon="7.29761">
        <ele>624</ele>
        <time>2011-05-22T12:17:42Z</time>
      </trkpt>
      <trkpt lat="43.938" lon="7.29751">
        <ele>620</ele>
        <time>2011-05-22T12:17:45Z</time>
      </trkpt>
      <trkpt lat="43.93804" lon="7.29744">
        <ele>618.2</ele>
        <time>2011-05-22T12:17:48Z</time>
      </trkpt>
      <trkpt lat="43.93808" lon="7.29733">
        <ele>615.3</ele>
        <time>2011-05-22T12:17:51Z</time>
      </trkpt>
      <trkpt lat="43.93811" lon="7.29726">
        <ele>613.8</ele>
        <time>2011-05-22T12:17:53Z</time>
      </trkpt>
      <trkpt lat="43.93813" lon="7.29721">
        <ele>613.3</ele>
        <time>2011-05-22T12:17:54Z</time>
      </trkpt>
      <trkpt lat="43.93816" lon="7.29716">
        <ele>612.9</ele>
        <time>2011-05-22T12:17:55Z</time>
      </trkpt>
      <trkpt lat="43.9382" lon="7.29709">
        <ele>612.6</ele>
        <time>2011-05-22T12:17:56Z</time>
      </trkpt>
      <trkpt lat="43.93823" lon="7.29702">
        <ele>611.8</ele>
        <time>2011-05-22T12:17:57Z</time>
      </trkpt>
      <trkpt lat="43.93827" lon="7.29694">
        <ele>611.3</ele>
        <time>2011-05-22T12:17:58Z</time>
      </trkpt>
      <trkpt lat="43.93832" lon="7.29686">
        <ele>610.8</ele>
        <time>2011-05-22T12:17:59Z</time>
      </trkpt>
      <trkpt lat="43.93836" lon="7.2968">
        <ele>610.1</ele>
        <time>2011-05-22T12:18:00Z</time>
      </trkpt>
      <trkpt lat="43.93844" lon="7.29674">
        <ele>607.7</ele>
        <time>2011-05-22T12:18:03Z</time>
      </trkpt>
      <trkpt lat="43.93849" lon="7.29668">
        <ele>604.9</ele>
        <time>2011-05-22T12:18:06Z</time>
      </trkpt>
      <trkpt lat="43.93857" lon="7.29664">
        <ele>603.7</ele>
        <time>2011-05-22T12:18:09Z</time>
      </trkpt>
      <trkpt lat="43.93864" lon="7.29657">
        <ele>602.3</ele>
        <time>2011-05-22T12:18:11Z</time>
      </trkpt>
      <trkpt lat="43.93871" lon="7.29651">
        <ele>601.5</ele>
        <time>2011-05-22T12:18:13Z</time>
      </trkpt>
      <trkpt lat="43.93879" lon="7.29648">
        <ele>601</ele>
        <time>2011-05-22T12:18:15Z</time>
      </trkpt>
      <trkpt lat="43.93883" lon="7.29645">
        <ele>600.1</ele>
        <time>2011-05-22T12:18:16Z</time>
      </trkpt>
      <trkpt lat="43.93888" lon="7.29643">
        <ele>599.4</ele>
        <time>2011-05-22T12:18:17Z</time>
      </trkpt>
      <trkpt lat="43.93891" lon="7.29639">
        <ele>598.9</ele>
        <time>2011-05-22T12:18:18Z</time>
      </trkpt>
      <trkpt lat="43.93895" lon="7.29635">
        <ele>597.8</ele>
        <time>2011-05-22T12:18:19Z</time>
      </trkpt>
      <trkpt lat="43.93901" lon="7.29629">
        <ele>596.3</ele>
        <time>2011-05-22T12:18:21Z</time>
      </trkpt>
      <trkpt lat="43.93909" lon="7.29623">
        <ele>593.6</ele>
        <time>2011-05-22T12:18:24Z</time>
      </trkpt>
      <trkpt lat="43.93914" lon="7.29615">
        <ele>592</ele>
        <time>2011-05-22T12:18:26Z</time>
      </trkpt>
      <trkpt lat="43.93922" lon="7.29611">
        <ele>588.7</ele>
        <time>2011-05-22T12:18:34Z</time>
      </trkpt>
      <trkpt lat="43.9393" lon="7.29605">
        <ele>587.3</ele>
        <time>2011-05-22T12:19:16Z</time>
      </trkpt>
      <trkpt lat="43.9393" lon="7.29605">
        <ele>587.1</ele>
        <time>2011-05-22T12:19:17Z</time>
      </trkpt>
      <trkpt lat="43.93934" lon="7.29592">
        <ele>587.2</ele>
        <time>2011-05-22T12:24:22Z</time>
      </trkpt>
      <trkpt lat="43.93943" lon="7.29576">
        <ele>584.8</ele>
        <time>2011-05-22T12:24:26Z</time>
      </trkpt>
      <trkpt lat="43.93946" lon="7.29565">
        <ele>582.7</ele>
        <time>2011-05-22T12:24:29Z</time>
      </trkpt>
      <trkpt lat="43.93947" lon="7.29555">
        <ele>581.1</ele>
        <time>2011-05-22T12:24:32Z</time>
      </trkpt>
      <trkpt lat="43.93941" lon="7.29549">
        <ele>579</ele>
        <time>2011-05-22T12:24:35Z</time>
      </trkpt>
      <trkpt lat="43.93933" lon="7.29543">
        <ele>576.1</ele>
        <time>2011-05-22T12:24:42Z</time>
      </trkpt>
      <trkpt lat="43.93926" lon="7.29538">
        <ele>574.1</ele>
        <time>2011-05-22T12:24:45Z</time>
      </trkpt>
      <trkpt lat="43.93922" lon="7.29536">
        <ele>573.5</ele>
        <time>2011-05-22T12:24:46Z</time>
      </trkpt>
      <trkpt lat="43.93917" lon="7.29533">
        <ele>573</ele>
        <time>2011-05-22T12:24:47Z</time>
      </trkpt>
      <trkpt lat="43.93913" lon="7.29529">
        <ele>572.6</ele>
        <time>2011-05-22T12:24:48Z</time>
      </trkpt>
      <trkpt lat="43.9391" lon="7.29524">
        <ele>571.5</ele>
        <time>2011-05-22T12:24:49Z</time>
      </trkpt>
      <trkpt lat="43.93907" lon="7.29518">
        <ele>570.7</ele>
        <time>2011-05-22T12:24:50Z</time>
      </trkpt>
      <trkpt lat="43.93904" lon="7.29511">
        <ele>570.1</ele>
        <time>2011-05-22T12:24:51Z</time>
      </trkpt>
      <trkpt lat="43.93903" lon="7.29505">
        <ele>569.5</ele>
        <time>2011-05-22T12:24:52Z</time>
      </trkpt>
      <trkpt lat="43.93902" lon="7.29499">
        <ele>569</ele>
        <time>2011-05-22T12:24:53Z</time>
      </trkpt>
      <trkpt lat="43.93902" lon="7.29492">
        <ele>568.7</ele>
        <time>2011-05-22T12:24:54Z</time>
      </trkpt>
      <trkpt lat="43.93904" lon="7.2948">
        <ele>566.8</ele>
        <time>2011-05-22T12:24:56Z</time>
      </trkpt>
      <trkpt lat="43.93903" lon="7.2947">
        <ele>565.6</ele>
        <time>2011-05-22T12:24:59Z</time>
      </trkpt>
      <trkpt lat="43.93903" lon="7.29461">
        <ele>564.5</ele>
        <time>2011-05-22T12:25:01Z</time>
      </trkpt>
      <trkpt lat="43.93905" lon="7.29451">
        <ele>563.2</ele>
        <time>2011-05-22T12:25:03Z</time>
      </trkpt>
      <trkpt lat="43.93906" lon="7.29439">
        <ele>562.4</ele>
        <time>2011-05-22T12:25:06Z</time>
      </trkpt>
      <trkpt lat="43.93907" lon="7.29427">
        <ele>561.2</ele>
        <time>2011-05-22T12:25:15Z</time>
      </trkpt>
      <trkpt lat="43.93909" lon="7.29418">
        <ele>561</ele>
        <time>2011-05-22T12:25:19Z</time>
      </trkpt>
      <trkpt lat="43.93913" lon="7.29409">
        <ele>559.6</ele>
        <time>2011-05-22T12:25:23Z</time>
      </trkpt>
      <trkpt lat="43.93914" lon="7.29406">
        <ele>559.3</ele>
        <time>2011-05-22T12:25:24Z</time>
      </trkpt>
      <trkpt lat="43.93918" lon="7.29393">
        <ele>558.2</ele>
        <time>2011-05-22T12:25:27Z</time>
      </trkpt>
      <trkpt lat="43.9392" lon="7.29386">
        <ele>557.7</ele>
        <time>2011-05-22T12:25:28Z</time>
      </trkpt>
      <trkpt lat="43.93923" lon="7.29376">
        <ele>557.1</ele>
        <time>2011-05-22T12:25:30Z</time>
      </trkpt>
      <trkpt lat="43.93926" lon="7.29366">
        <ele>556.8</ele>
        <time>2011-05-22T12:25:32Z</time>
      </trkpt>
      <trkpt lat="43.93929" lon="7.29355">
        <ele>557.1</ele>
        <time>2011-05-22T12:25:35Z</time>
      </trkpt>
      <trkpt lat="43.93932" lon="7.29347">
        <ele>557.7</ele>
        <time>2011-05-22T12:25:38Z</time>
      </trkpt>
      <trkpt lat="43.93935" lon="7.29338">
        <ele>558</ele>
        <time>2011-05-22T12:25:41Z</time>
      </trkpt>
      <trkpt lat="43.93938" lon="7.29331">
        <ele>557.9</ele>
        <time>2011-05-22T12:25:43Z</time>
      </trkpt>
      <trkpt lat="43.93941" lon="7.29323">
        <ele>557.8</ele>
        <time>2011-05-22T12:25:45Z</time>
      </trkpt>
      <trkpt lat="43.93945" lon="7.29315">
        <ele>557.4</ele>
        <time>2011-05-22T12:25:47Z</time>
      </trkpt>
      <trkpt lat="43.93948" lon="7.2931">
        <ele>557.3</ele>
        <time>2011-05-22T12:25:48Z</time>
      </trkpt>
      <trkpt lat="43.93952" lon="7.29304">
        <ele>557</ele>
        <time>2011-05-22T12:25:49Z</time>
      </trkpt>
      <trkpt lat="43.93955" lon="7.29299">
        <ele>556.8</ele>
        <time>2011-05-22T12:25:50Z</time>
      </trkpt>
      <trkpt lat="43.93958" lon="7.29293">
        <ele>556.6</ele>
        <time>2011-05-22T12:25:51Z</time>
      </trkpt>
      <trkpt lat="43.9396" lon="7.29286">
        <ele>556.4</ele>
        <time>2011-05-22T12:25:52Z</time>
      </trkpt>
      <trkpt lat="43.93962" lon="7.29279">
        <ele>556.3</ele>
        <time>2011-05-22T12:25:53Z</time>
      </trkpt>
      <trkpt lat="43.93975" lon="7.29267">
        <ele>555.9</ele>
        <time>2011-05-22T12:25:57Z</time>
      </trkpt>
      <trkpt lat="43.93982" lon="7.29264">
        <ele>555.2</ele>
        <time>2011-05-22T12:25:59Z</time>
      </trkpt>
      <trkpt lat="43.93989" lon="7.29225">
        <ele>554</ele>
        <time>2011-05-22T12:26:21Z</time>
      </trkpt>
      <trkpt lat="43.93988" lon="7.29218">
        <ele>555.2</ele>
        <time>2011-05-22T12:26:29Z</time>
      </trkpt>
      <trkpt lat="43.94001" lon="7.29213">
        <ele>558.8</ele>
        <time>2011-05-22T12:26:49Z</time>
      </trkpt>
      <trkpt lat="43.94025" lon="7.29208">
        <ele>559</ele>
        <time>2011-05-22T12:27:14Z</time>
      </trkpt>
      <trkpt lat="43.94082" lon="7.2921">
        <ele>555</ele>
        <time>2011-05-22T12:27:33Z</time>
      </trkpt>
      <trkpt lat="43.94093" lon="7.29206">
        <ele>553.9</ele>
        <time>2011-05-22T12:27:39Z</time>
      </trkpt>
      <trkpt lat="43.94102" lon="7.29203">
        <ele>554</ele>
        <time>2011-05-22T12:27:52Z</time>
      </trkpt>
      <trkpt lat="43.9411" lon="7.29198">
        <ele>555.4</ele>
        <time>2011-05-22T12:28:09Z</time>
      </trkpt>
      <trkpt lat="43.94106" lon="7.29187">
        <ele>554.5</ele>
        <time>2011-05-22T12:30:15Z</time>
      </trkpt>
      <trkpt lat="43.94105" lon="7.29186">
        <ele>554.4</ele>
        <time>2011-05-22T12:30:16Z</time>
      </trkpt>
      <trkpt lat="43.94109" lon="7.29163">
        <ele>554.8</ele>
        <time>2011-05-22T12:30:26Z</time>
      </trkpt>
      <trkpt lat="43.94108" lon="7.29152">
        <ele>555.3</ele>
        <time>2011-05-22T12:30:32Z</time>
      </trkpt>
      <trkpt lat="43.9411" lon="7.29143">
        <ele>556</ele>
        <time>2011-05-22T12:30:36Z</time>
      </trkpt>
      <trkpt lat="43.94109" lon="7.29134">
        <ele>556.2</ele>
        <time>2011-05-22T12:30:38Z</time>
      </trkpt>
      <trkpt lat="43.9411" lon="7.29122">
        <ele>556.1</ele>
        <time>2011-05-22T12:30:41Z</time>
      </trkpt>
      <trkpt lat="43.94112" lon="7.29112">
        <ele>556.4</ele>
        <time>2011-05-22T12:30:45Z</time>
      </trkpt>
      <trkpt lat="43.94116" lon="7.29103">
        <ele>555.7</ele>
        <time>2011-05-22T12:30:48Z</time>
      </trkpt>
      <trkpt lat="43.9412" lon="7.29095">
        <ele>555.1</ele>
        <time>2011-05-22T12:30:50Z</time>
      </trkpt>
      <trkpt lat="43.94123" lon="7.29087">
        <ele>554.3</ele>
        <time>2011-05-22T12:30:52Z</time>
      </trkpt>
      <trkpt lat="43.94128" lon="7.2908">
        <ele>553.4</ele>
        <time>2011-05-22T12:30:54Z</time>
      </trkpt>
      <trkpt lat="43.94136" lon="7.29074">
        <ele>552.3</ele>
        <time>2011-05-22T12:30:56Z</time>
      </trkpt>
      <trkpt lat="43.94142" lon="7.29068">
        <ele>551.2</ele>
        <time>2011-05-22T12:30:58Z</time>
      </trkpt>
      <trkpt lat="43.94144" lon="7.29058">
        <ele>549</ele>
        <time>2011-05-22T12:31:01Z</time>
      </trkpt>
      <trkpt lat="43.94148" lon="7.29048">
        <ele>547.1</ele>
        <time>2011-05-22T12:31:03Z</time>
      </trkpt>
      <trkpt lat="43.94152" lon="7.29037">
        <ele>546</ele>
        <time>2011-05-22T12:31:06Z</time>
      </trkpt>
      <trkpt lat="43.94154" lon="7.29026">
        <ele>545.3</ele>
        <time>2011-05-22T12:31:09Z</time>
      </trkpt>
      <trkpt lat="43.94157" lon="7.29016">
        <ele>545.2</ele>
        <time>2011-05-22T12:31:12Z</time>
      </trkpt>
      <trkpt lat="43.94159" lon="7.29005">
        <ele>546.2</ele>
        <time>2011-05-22T12:31:19Z</time>
      </trkpt>
      <trkpt lat="43.94159" lon="7.29004">
        <ele>546.1</ele>
        <time>2011-05-22T12:31:20Z</time>
      </trkpt>
      <trkpt lat="43.9417" lon="7.28987">
        <ele>548.4</ele>
        <time>2011-05-22T12:31:36Z</time>
      </trkpt>
      <trkpt lat="43.94177" lon="7.28983">
        <ele>549.2</ele>
        <time>2011-05-22T12:31:40Z</time>
      </trkpt>
      <trkpt lat="43.94179" lon="7.28972">
        <ele>551.3</ele>
        <time>2011-05-22T12:32:00Z</time>
      </trkpt>
      <trkpt lat="43.94176" lon="7.2896">
        <ele>552.9</ele>
        <time>2011-05-22T12:32:09Z</time>
      </trkpt>
      <trkpt lat="43.94184" lon="7.28955">
        <ele>552.6</ele>
        <time>2011-05-22T12:32:15Z</time>
      </trkpt>
      <trkpt lat="43.9419" lon="7.28954">
        <ele>552.2</ele>
        <time>2011-05-22T12:32:17Z</time>
      </trkpt>
      <trkpt lat="43.94196" lon="7.28951">
        <ele>552</ele>
        <time>2011-05-22T12:32:19Z</time>
      </trkpt>
      <trkpt lat="43.94201" lon="7.28943">
        <ele>551.5</ele>
        <time>2011-05-22T12:32:22Z</time>
      </trkpt>
      <trkpt lat="43.94202" lon="7.28941">
        <ele>551.1</ele>
        <time>2011-05-22T12:32:23Z</time>
      </trkpt>
      <trkpt lat="43.94206" lon="7.28929">
        <ele>548.9</ele>
        <time>2011-05-22T12:32:32Z</time>
      </trkpt>
      <trkpt lat="43.942" lon="7.28922">
        <ele>547.9</ele>
        <time>2011-05-22T12:32:35Z</time>
      </trkpt>
      <trkpt lat="43.94193" lon="7.28913">
        <ele>545.6</ele>
        <time>2011-05-22T12:32:44Z</time>
      </trkpt>
      <trkpt lat="43.94187" lon="7.28906">
        <ele>543.6</ele>
        <time>2011-05-22T12:32:48Z</time>
      </trkpt>
      <trkpt lat="43.94184" lon="7.28897">
        <ele>537.7</ele>
        <time>2011-05-22T12:33:06Z</time>
      </trkpt>
      <trkpt lat="43.94178" lon="7.28891">
        <ele>536.6</ele>
        <time>2011-05-22T12:33:10Z</time>
      </trkpt>
      <trkpt lat="43.94172" lon="7.28889">
        <ele>535.8</ele>
        <time>2011-05-22T12:33:12Z</time>
      </trkpt>
      <trkpt lat="43.94169" lon="7.28877">
        <ele>529.1</ele>
        <time>2011-05-22T12:33:24Z</time>
      </trkpt>
      <trkpt lat="43.94167" lon="7.28875">
        <ele>528.6</ele>
        <time>2011-05-22T12:33:25Z</time>
      </trkpt>
      <trkpt lat="43.9416" lon="7.28865">
        <ele>526.8</ele>
        <time>2011-05-22T12:33:28Z</time>
      </trkpt>
      <trkpt lat="43.94155" lon="7.28858">
        <ele>525.3</ele>
        <time>2011-05-22T12:33:30Z</time>
      </trkpt>
      <trkpt lat="43.94148" lon="7.28855">
        <ele>523.4</ele>
        <time>2011-05-22T12:33:33Z</time>
      </trkpt>
      <trkpt lat="43.94142" lon="7.28851">
        <ele>520.9</ele>
        <time>2011-05-22T12:33:36Z</time>
      </trkpt>
      <trkpt lat="43.94135" lon="7.28847">
        <ele>518.2</ele>
        <time>2011-05-22T12:33:39Z</time>
      </trkpt>
      <trkpt lat="43.94132" lon="7.28845">
        <ele>517.6</ele>
        <time>2011-05-22T12:33:40Z</time>
      </trkpt>
      <trkpt lat="43.94125" lon="7.28839">
        <ele>516.3</ele>
        <time>2011-05-22T12:33:42Z</time>
      </trkpt>
      <trkpt lat="43.94119" lon="7.28832">
        <ele>514.7</ele>
        <time>2011-05-22T12:33:44Z</time>
      </trkpt>
      <trkpt lat="43.94116" lon="7.28828">
        <ele>513.7</ele>
        <time>2011-05-22T12:33:45Z</time>
      </trkpt>
      <trkpt lat="43.94113" lon="7.28821">
        <ele>513</ele>
        <time>2011-05-22T12:33:46Z</time>
      </trkpt>
      <trkpt lat="43.94108" lon="7.28812">
        <ele>511.5</ele>
        <time>2011-05-22T12:33:48Z</time>
      </trkpt>
      <trkpt lat="43.94102" lon="7.28804">
        <ele>507</ele>
        <time>2011-05-22T12:33:53Z</time>
      </trkpt>
      <trkpt lat="43.94096" lon="7.28795">
        <ele>504.1</ele>
        <time>2011-05-22T12:33:57Z</time>
      </trkpt>
      <trkpt lat="43.94101" lon="7.28786">
        <ele>496.9</ele>
        <time>2011-05-22T12:34:08Z</time>
      </trkpt>
      <trkpt lat="43.94109" lon="7.28784">
        <ele>495.2</ele>
        <time>2011-05-22T12:34:12Z</time>
      </trkpt>
      <trkpt lat="43.94116" lon="7.28788">
        <ele>494</ele>
        <time>2011-05-22T12:34:14Z</time>
      </trkpt>
      <trkpt lat="43.94122" lon="7.2879">
        <ele>492.7</ele>
        <time>2011-05-22T12:34:16Z</time>
      </trkpt>
      <trkpt lat="43.9413" lon="7.28787">
        <ele>489.2</ele>
        <time>2011-05-22T12:34:19Z</time>
      </trkpt>
      <trkpt lat="43.94135" lon="7.28783">
        <ele>487.1</ele>
        <time>2011-05-22T12:34:21Z</time>
      </trkpt>
      <trkpt lat="43.94143" lon="7.2878">
        <ele>484.4</ele>
        <time>2011-05-22T12:34:24Z</time>
      </trkpt>
      <trkpt lat="43.94137" lon="7.28774">
        <ele>480.1</ele>
        <time>2011-05-22T12:34:29Z</time>
      </trkpt>
      <trkpt lat="43.94134" lon="7.28771">
        <ele>479.3</ele>
        <time>2011-05-22T12:34:30Z</time>
      </trkpt>
      <trkpt lat="43.94124" lon="7.28763">
        <ele>476.9</ele>
        <time>2011-05-22T12:34:33Z</time>
      </trkpt>
      <trkpt lat="43.9411" lon="7.28748">
        <ele>475.4</ele>
        <time>2011-05-22T12:34:38Z</time>
      </trkpt>
      <trkpt lat="43.94105" lon="7.28741">
        <ele>469.4</ele>
        <time>2011-05-22T12:34:42Z</time>
      </trkpt>
      <trkpt lat="43.94104" lon="7.28731">
        <ele>462.7</ele>
        <time>2011-05-22T12:34:52Z</time>
      </trkpt>
      <trkpt lat="43.94098" lon="7.28723">
        <ele>461.7</ele>
        <time>2011-05-22T12:34:55Z</time>
      </trkpt>
      <trkpt lat="43.94091" lon="7.28717">
        <ele>459.2</ele>
        <time>2011-05-22T12:34:59Z</time>
      </trkpt>
      <trkpt lat="43.94085" lon="7.28717">
        <ele>457.6</ele>
        <time>2011-05-22T12:35:02Z</time>
      </trkpt>
      <trkpt lat="43.94075" lon="7.28704">
        <ele>456.6</ele>
        <time>2011-05-22T12:35:06Z</time>
      </trkpt>
      <trkpt lat="43.94074" lon="7.28692">
        <ele>447.6</ele>
        <time>2011-05-22T12:35:18Z</time>
      </trkpt>
      <trkpt lat="43.94074" lon="7.28681">
        <ele>445.2</ele>
        <time>2011-05-22T12:35:24Z</time>
      </trkpt>
      <trkpt lat="43.94082" lon="7.28675">
        <ele>442.5</ele>
        <time>2011-05-22T12:35:28Z</time>
      </trkpt>
      <trkpt lat="43.94082" lon="7.28664">
        <ele>438.9</ele>
        <time>2011-05-22T12:35:32Z</time>
      </trkpt>
      <trkpt lat="43.94081" lon="7.28661">
        <ele>437.9</ele>
        <time>2011-05-22T12:35:33Z</time>
      </trkpt>
      <trkpt lat="43.94084" lon="7.28644">
        <ele>434.3</ele>
        <time>2011-05-22T12:35:39Z</time>
      </trkpt>
      <trkpt lat="43.94087" lon="7.28635">
        <ele>431.8</ele>
        <time>2011-05-22T12:35:42Z</time>
      </trkpt>
      <trkpt lat="43.94089" lon="7.28625">
        <ele>428.5</ele>
        <time>2011-05-22T12:35:45Z</time>
      </trkpt>
      <trkpt lat="43.94092" lon="7.28616">
        <ele>426.5</ele>
        <time>2011-05-22T12:35:47Z</time>
      </trkpt>
      <trkpt lat="43.94096" lon="7.28606">
        <ele>425.1</ele>
        <time>2011-05-22T12:35:49Z</time>
      </trkpt>
      <trkpt lat="43.94096" lon="7.28597">
        <ele>424.1</ele>
        <time>2011-05-22T12:35:51Z</time>
      </trkpt>
      <trkpt lat="43.94094" lon="7.28585">
        <ele>422.8</ele>
        <time>2011-05-22T12:35:53Z</time>
      </trkpt>
      <trkpt lat="43.94092" lon="7.28573">
        <ele>417.4</ele>
        <time>2011-05-22T12:36:15Z</time>
      </trkpt>
      <trkpt lat="43.94099" lon="7.28565">
        <ele>417.1</ele>
        <time>2011-05-22T12:38:07Z</time>
      </trkpt>
      <trkpt lat="43.94099" lon="7.28565">
        <ele>417.2</ele>
        <time>2011-05-22T12:38:08Z</time>
      </trkpt>
      <trkpt lat="43.94099" lon="7.28552">
        <ele>417.6</ele>
        <time>2011-05-22T12:42:01Z</time>
      </trkpt>
      <trkpt lat="43.94098" lon="7.28539">
        <ele>417.1</ele>
        <time>2011-05-22T12:42:03Z</time>
      </trkpt>
      <trkpt lat="43.94098" lon="7.28531">
        <ele>416.7</ele>
        <time>2011-05-22T12:42:04Z</time>
      </trkpt>
      <trkpt lat="43.94098" lon="7.28521">
        <ele>416.4</ele>
        <time>2011-05-22T12:42:05Z</time>
      </trkpt>
      <trkpt lat="43.94099" lon="7.2851">
        <ele>415.4</ele>
        <time>2011-05-22T12:42:06Z</time>
      </trkpt>
      <trkpt lat="43.94098" lon="7.28499">
        <ele>414.6</ele>
        <time>2011-05-22T12:42:07Z</time>
      </trkpt>
      <trkpt lat="43.94096" lon="7.28488">
        <ele>414</ele>
        <time>2011-05-22T12:42:08Z</time>
      </trkpt>
      <trkpt lat="43.94095" lon="7.28475">
        <ele>412.5</ele>
        <time>2011-05-22T12:42:09Z</time>
      </trkpt>
      <trkpt lat="43.94095" lon="7.28462">
        <ele>411.4</ele>
        <time>2011-05-22T12:42:10Z</time>
      </trkpt>
      <trkpt lat="43.94094" lon="7.28451">
        <ele>410.5</ele>
        <time>2011-05-22T12:42:11Z</time>
      </trkpt>
      <trkpt lat="43.94094" lon="7.28438">
        <ele>406.4</ele>
        <time>2011-05-22T12:42:13Z</time>
      </trkpt>
      <trkpt lat="43.94094" lon="7.28428">
        <ele>402.6</ele>
        <time>2011-05-22T12:42:16Z</time>
      </trkpt>
      <trkpt lat="43.94091" lon="7.28419">
        <ele>399</ele>
        <time>2011-05-22T12:42:20Z</time>
      </trkpt>
      <trkpt lat="43.94084" lon="7.28414">
        <ele>394.4</ele>
        <time>2011-05-22T12:42:25Z</time>
      </trkpt>
      <trkpt lat="43.94086" lon="7.28404">
        <ele>390.7</ele>
        <time>2011-05-22T12:42:29Z</time>
      </trkpt>
      <trkpt lat="43.94089" lon="7.28398">
        <ele>389.9</ele>
        <time>2011-05-22T12:42:30Z</time>
      </trkpt>
      <trkpt lat="43.94101" lon="7.28386">
        <ele>389.1</ele>
        <time>2011-05-22T12:42:34Z</time>
      </trkpt>
      <trkpt lat="43.94108" lon="7.28379">
        <ele>384.8</ele>
        <time>2011-05-22T12:42:37Z</time>
      </trkpt>
      <trkpt lat="43.94112" lon="7.28376">
        <ele>383.4</ele>
        <time>2011-05-22T12:42:38Z</time>
      </trkpt>
      <trkpt lat="43.94157" lon="7.28349">
        <ele>381.9</ele>
        <time>2011-05-22T12:42:47Z</time>
      </trkpt>
      <trkpt lat="43.94162" lon="7.28345">
        <ele>380.9</ele>
        <time>2011-05-22T12:42:48Z</time>
      </trkpt>
      <trkpt lat="43.94166" lon="7.28342">
        <ele>380.1</ele>
        <time>2011-05-22T12:42:49Z</time>
      </trkpt>
      <trkpt lat="43.9417" lon="7.28339">
        <ele>379.5</ele>
        <time>2011-05-22T12:42:50Z</time>
      </trkpt>
      <trkpt lat="43.94177" lon="7.28332">
        <ele>378.7</ele>
        <time>2011-05-22T12:42:52Z</time>
      </trkpt>
      <trkpt lat="43.94184" lon="7.28326">
        <ele>378.5</ele>
        <time>2011-05-22T12:42:54Z</time>
      </trkpt>
      <trkpt lat="43.94191" lon="7.2832">
        <ele>378.4</ele>
        <time>2011-05-22T12:42:56Z</time>
      </trkpt>
      <trkpt lat="43.94197" lon="7.28315">
        <ele>378.2</ele>
        <time>2011-05-22T12:42:58Z</time>
      </trkpt>
      <trkpt lat="43.94203" lon="7.28311">
        <ele>378.3</ele>
        <time>2011-05-22T12:43:00Z</time>
      </trkpt>
      <trkpt lat="43.9421" lon="7.28305">
        <ele>378.5</ele>
        <time>2011-05-22T12:43:03Z</time>
      </trkpt>
      <trkpt lat="43.94212" lon="7.28303">
        <ele>378.5</ele>
        <time>2011-05-22T12:43:04Z</time>
      </trkpt>
      <trkpt lat="43.94224" lon="7.28294">
        <ele>377.7</ele>
        <time>2011-05-22T12:43:09Z</time>
      </trkpt>
      <trkpt lat="43.94231" lon="7.28289">
        <ele>377.8</ele>
        <time>2011-05-22T12:43:12Z</time>
      </trkpt>
      <trkpt lat="43.94238" lon="7.28286">
        <ele>377.2</ele>
        <time>2011-05-22T12:43:15Z</time>
      </trkpt>
      <trkpt lat="43.94246" lon="7.28288">
        <ele>377.6</ele>
        <time>2011-05-22T12:43:19Z</time>
      </trkpt>
      <trkpt lat="43.94254" lon="7.28291">
        <ele>377.8</ele>
        <time>2011-05-22T12:43:23Z</time>
      </trkpt>
      <trkpt lat="43.94263" lon="7.28293">
        <ele>360.8</ele>
        <time>2011-05-22T12:43:27Z</time>
      </trkpt>
      <trkpt lat="43.9427" lon="7.28293">
        <ele>353.9</ele>
        <time>2011-05-22T12:43:30Z</time>
      </trkpt>
      <trkpt lat="43.94278" lon="7.2829">
        <ele>350.5</ele>
        <time>2011-05-22T12:43:35Z</time>
      </trkpt>
      <trkpt lat="43.94287" lon="7.28292">
        <ele>349.1</ele>
        <time>2011-05-22T12:44:12Z</time>
      </trkpt>
      <trkpt lat="43.94288" lon="7.28292">
        <ele>349</ele>
        <time>2011-05-22T12:44:13Z</time>
      </trkpt>
      <trkpt lat="43.94296" lon="7.28295">
        <ele>350.7</ele>
        <time>2011-05-22T12:46:03Z</time>
      </trkpt>
    </trkseg>
  </trk>
</gpx>